# Wetter Temperatur Luftdruck Luftfeuchtigkeit Sichtweite Windgeschwindigkeit Windrichtung Zeit
1 Rain 5 997 80 10000 9.3 230 09:40 29.01.2020
2 Rain 5 997 80 10000 9.3 230 09:40 29.01.2020
3 Rain 5 997 80 10000 9.3 230 09:22 29.01.2020
4 Rain 4 996 86 10000 8.7 230 08:58 29.01.2020
5 Rain 4 996 86 10000 8.7 230 08:39 29.01.2020
6 Rain 4 996 86 10000 8.7 230 08:20 29.01.2020
7 Rain 4 996 86 10000 10.3 230 07:45 29.01.2020
8 Rain 4 996 86 10000 10.3 230 07:25 29.01.2020
9 Rain 6 996 81 10000 7.7 230 06:55 29.01.2020
10 Rain 6 996 81 10000 7.7 230 06:55 29.01.2020
11 Rain 6 996 81 10000 7.7 230 06:37 29.01.2020
12 Rain 6 996 81 10000 7.7 230 06:18 29.01.2020
13 Drizzle 6 994 75 10000 10.3 230 05:46 29.01.2020
14 Drizzle 6 994 75 10000 10.3 230 05:27 29.01.2020
15 Rain 6 994 81 10000 12.9 230 04:38 29.01.2020
16 Drizzle 6 994 81 10000 13.9 230 03:50 29.01.2020
17 Snow 2 995 92 0 5.69 254 02:33 29.01.2020
18 Drizzle 6 993 81 10000 12.3 230 00:51 29.01.2020
19 Drizzle 6 993 81 10000 12.3 230 00:29 29.01.2020
20 Rain 5 992 93 8000 13.9 230 23:58 28.01.2020
21 Rain 5 992 93 8000 13.9 230 23:37 28.01.2020
22 Rain 5 992 93 8000 13.9 230 23:19 28.01.2020
23 Rain 5 992 93 8000 15.9 230 22:44 28.01.2020
24 Drizzle 8 991 87 10000 15.9 230 22:25 28.01.2020
25 Drizzle 8 990 87 9000 15.9 230 21:54 28.01.2020
26 Drizzle 8 990 81 10000 13.9 230 21:36 28.01.2020
27 Drizzle 8 990 81 10000 13.9 230 21:18 28.01.2020
28 Drizzle 8 990 81 10000 13.4 230 20:45 28.01.2020
29 Drizzle 8 990 81 10000 13.4 230 20:25 28.01.2020
30 Drizzle 8 990 81 10000 12.3 230 19:55 28.01.2020
31 Drizzle 8 990 81 10000 12.3 230 19:36 28.01.2020
32 Drizzle 8 990 81 10000 12.3 230 19:18 28.01.2020
33 Rain 9 990 81 10000 12.3 230 18:41 28.01.2020
34 Rain 9 990 81 10000 12.3 230 18:22 28.01.2020
35 Drizzle 8 989 81 10000 12.3 230 17:59 28.01.2020
36 Drizzle 8 989 81 10000 12.3 230 17:39 28.01.2020
37 Drizzle 8 989 81 10000 12.3 230 17:21 28.01.2020
38 Drizzle 8 989 81 10000 15.4 230 16:56 28.01.2020
39 Drizzle 8 989 81 10000 15.4 230 16:37 28.01.2020
40 Drizzle 8 989 81 10000 15.4 230 16:19 28.01.2020
41 Clouds 9 988 61 10000 9.3 230 15:44 28.01.2020
42 Clouds 9 988 61 10000 9.3 230 15:19 28.01.2020
43 Clouds 8 988 70 10000 12.9 230 14:57 28.01.2020
44 Clouds 8 988 70 10000 12.9 230 14:38 28.01.2020
45 Clouds 8 988 70 10000 12.9 230 14:38 28.01.2020
46 Clouds 8 988 70 10000 12.9 230 14:18 28.01.2020
47 Clouds 8 988 70 10000 8.2 230 13:40 28.01.2020
48 Clouds 8 988 70 10000 8.2 230 13:22 28.01.2020
49 Clouds 8 988 81 10000 7.7 230 12:42 28.01.2020
50 Clouds 8 988 81 10000 7.7 230 12:24 28.01.2020
51 Clouds 7 988 81 10000 14.4 230 11:55 28.01.2020
52 Clouds 7 988 81 10000 14.4 230 11:37 28.01.2020
53 Clouds 7 988 81 10000 14.4 230 11:19 28.01.2020
54 Clouds 7 988 93 10000 8.7 230 10:41 28.01.2020
55 Clouds 7 988 93 10000 8.7 230 10:22 28.01.2020
56 Drizzle 7 988 93 10000 1.36 263 09:56 28.01.2020
57 Drizzle 7 988 93 10000 1.36 263 09:37 28.01.2020
58 Drizzle 7 988 93 10000 1.36 263 09:19 28.01.2020
59 Rain 3 989 96 0 1.36 263 08:42 28.01.2020
60 Clouds 7 987 93 10000 2.6 360 08:20 28.01.2020
61 Clouds 7 987 93 10000 2.6 360 07:38 28.01.2020
62 Clouds 7 987 93 10000 0.67 329 06:52 28.01.2020
63 Clouds 7 987 93 10000 0.67 329 06:29 28.01.2020
64 Clouds 7 987 93 10000 0.67 329 06:29 28.01.2020
65 Rain 3 987 97 0 0.67 329 05:56 28.01.2020
66 Rain 3 987 97 0 0.67 329 05:34 28.01.2020
67 Clouds 8 987 93 10000 3.1 90 04:40 28.01.2020
68 Rain 8 987 93 10000 3.6 50 03:41 28.01.2020
69 Rain 8 988 93 10000 3.1 320 02:40 28.01.2020
70 Rain 8 988 93 10000 3.1 320 02:21 28.01.2020
71 Rain 9 988 87 8000 1.5 230 01:48 28.01.2020
72 Rain 9 987 87 6000 10.8 230 00:51 28.01.2020
73 Rain 9 987 87 6000 10.8 230 00:30 28.01.2020
74 Rain 10 987 81 6000 13.9 230 23:53 27.01.2020
75 Drizzle 12 987 62 10000 8.2 230 23:31 27.01.2020
76 Drizzle 12 987 62 10000 8.2 230 23:31 27.01.2020
77 Clouds 13 988 54 10000 2.6 360 22:59 27.01.2020
78 Clouds 13 988 54 10000 2.6 360 22:41 27.01.2020
79 Clouds 14 988 54 10000 2.6 360 22:20 27.01.2020
80 Clouds 14 989 54 10000 6.2 320 21:57 27.01.2020
81 Clouds 14 989 54 10000 6.2 320 21:38 27.01.2020
82 Clouds 14 989 54 10000 6.2 320 21:18 27.01.2020
83 Clouds 14 989 54 10000 6.2 320 21:18 27.01.2020
84 Clouds 14 989 54 10000 5.7 320 20:55 27.01.2020
85 Clouds 14 989 54 10000 5.7 320 20:37 27.01.2020
86 Clouds 14 989 54 10000 5.7 320 20:18 27.01.2020
87 Clouds 13 990 54 10000 10.3 360 19:41 27.01.2020
88 Clouds 13 990 54 10000 10.3 360 19:23 27.01.2020
89 Clouds 13 991 47 10000 10.3 360 18:56 27.01.2020
90 Clouds 13 991 47 10000 10.3 360 18:38 27.01.2020
91 Clouds 13 991 47 10000 10.3 360 18:20 27.01.2020
92 Clouds 13 992 47 10000 8.7 360 17:55 27.01.2020
93 Clouds 11 992 67 0 5.55 358 17:37 27.01.2020
94 Clouds 13 993 43 10000 10.3 360 17:18 27.01.2020
95 Clouds 13 993 43 10000 10.3 360 16:41 27.01.2020
96 Clouds 13 993 43 10000 10.3 360 16:41 27.01.2020
97 Clouds 13 993 43 10000 10.3 360 16:23 27.01.2020
98 Clouds 12 995 54 10000 6.7 320 15:55 27.01.2020
99 Clouds 12 995 54 10000 6.7 320 15:37 27.01.2020
100 Clouds 12 995 54 10000 6.7 320 15:19 27.01.2020
101 Drizzle 11 996 53 10000 8.7 360 14:54 27.01.2020
102 Drizzle 11 996 53 10000 8.7 360 14:36 27.01.2020
103 Drizzle 11 996 53 10000 8.7 360 14:18 27.01.2020
104 Clouds 11 996 46 10000 6.2 360 13:41 27.01.2020
105 Clouds 11 996 46 10000 6.2 360 13:20 27.01.2020
106 Clouds 9 997 81 10000 3.6 270 12:56 27.01.2020
107 Clouds 9 997 81 10000 3.6 270 12:37 27.01.2020
108 Clouds 9 997 81 10000 3.6 270 12:19 27.01.2020
109 Drizzle 9 998 81 10000 2.6 320 11:41 27.01.2020
110 Drizzle 9 998 81 10000 2.6 320 11:21 27.01.2020
111 Clouds 9 999 76 10000 2.1 110 10:43 27.01.2020
112 Clouds 9 999 76 10000 2.1 110 10:25 27.01.2020
113 Clouds 9 1000 81 10000 3.44 354 09:57 27.01.2020
114 Clouds 9 1000 81 10000 3.44 354 09:38 27.01.2020
115 Clouds 9 1000 81 10000 3.44 354 09:18 27.01.2020
116 Clouds 8 1001 81 10000 2.6 110 08:43 27.01.2020
117 Clouds 8 1001 81 10000 2.6 110 08:22 27.01.2020
118 Clouds 8 1002 81 10000 2.93 359 07:54 27.01.2020
119 Clouds 8 1002 81 10000 2.93 359 07:35 27.01.2020
120 Clouds 9 1003 66 10000 2.93 359 06:55 27.01.2020
121 Clouds 9 1003 66 10000 2.93 359 06:27 27.01.2020
122 Clouds 9 1004 66 10000 2.6 110 05:28 27.01.2020
123 Clouds 9 1005 70 10000 2.6 320 03:58 27.01.2020
124 Clouds 9 1005 70 10000 2.6 320 03:23 27.01.2020
125 Clouds 9 1005 70 10000 7.7 230 01:31 27.01.2020
126 Clouds 10 1006 71 10000 8.2 230 00:59 27.01.2020
127 Clouds 10 1006 71 10000 8.2 230 00:37 27.01.2020
128 Clouds 10 1006 71 10000 8.2 230 00:19 27.01.2020
129 Rain 10 1005 71 10000 10.8 230 23:41 26.01.2020
130 Rain 10 1005 71 10000 10.8 230 23:20 26.01.2020
131 Clouds 10 1005 71 10000 11.3 230 22:57 26.01.2020
132 Clouds 10 1005 71 10000 11.3 230 22:37 26.01.2020
133 Clouds 10 1005 71 10000 11.3 230 22:18 26.01.2020
134 Clouds 10 1004 76 10000 12.3 230 21:56 26.01.2020
135 Clouds 10 1004 76 10000 12.3 230 21:38 26.01.2020
136 Clouds 10 1004 76 10000 12.3 230 21:19 26.01.2020
137 Clouds 10 1004 76 10000 12.9 230 20:55 26.01.2020
138 Clouds 10 1004 76 10000 12.9 230 20:37 26.01.2020
139 Clouds 10 1004 76 10000 12.9 230 20:18 26.01.2020
140 Clouds 10 1004 76 10000 12.3 230 19:56 26.01.2020
141 Clouds 10 1004 76 10000 12.3 230 19:37 26.01.2020
142 Clouds 10 1004 76 10000 12.3 230 19:18 26.01.2020
143 Clouds 9 1004 81 10000 10.3 230 18:41 26.01.2020
144 Clouds 9 1004 81 10000 10.3 230 18:22 26.01.2020
145 Clouds 9 1003 76 10000 11.3 230 17:59 26.01.2020
146 Clouds 9 1003 76 10000 11.3 230 17:39 26.01.2020
147 Clouds 9 1003 76 10000 11.3 230 17:20 26.01.2020
148 Rain 8 1002 81 10000 10.8 230 16:58 26.01.2020
149 Rain 8 1002 81 10000 10.8 230 16:40 26.01.2020
150 Rain 8 1002 81 10000 10.8 230 16:21 26.01.2020
151 Rain 6 1002 93 0 2.64 238 15:58 26.01.2020
152 Rain 6 1002 93 0 2.64 238 15:39 26.01.2020
153 Rain 6 1002 93 0 2.64 238 15:19 26.01.2020
154 Rain 6 1002 93 0 2.64 238 14:41 26.01.2020
155 Rain 5 1000 97 0 1.5 249 14:21 26.01.2020
156 Rain 5 1000 97 0 1.5 249 13:57 26.01.2020
157 Rain 5 1000 97 0 1.5 249 13:37 26.01.2020
158 Rain 5 1001 96 0 1.88 246 13:18 26.01.2020
159 Rain 5 1001 96 0 1.88 246 12:42 26.01.2020
160 Rain 5 1001 96 0 1.88 246 12:24 26.01.2020
161 Rain 5 1001 96 0 1.88 246 12:24 26.01.2020
162 Rain 5 1001 96 0 1.88 246 11:58 26.01.2020
163 Rain 5 1001 96 0 1.88 246 11:39 26.01.2020
164 Rain 5 1001 96 0 1.88 246 11:39 26.01.2020
165 Rain 7 997 87 10000 11.3 230 11:19 26.01.2020
166 Rain 7 997 87 10000 11.3 230 10:58 26.01.2020
167 Rain 7 997 87 10000 11.3 230 10:38 26.01.2020
168 Rain 7 997 87 10000 11.3 230 10:38 26.01.2020
169 Rain 7 997 87 10000 11.3 230 10:20 26.01.2020
170 Drizzle 7 996 87 10000 13.9 230 09:57 26.01.2020
171 Drizzle 7 996 87 10000 13.9 230 09:39 26.01.2020
172 Drizzle 7 996 87 10000 13.9 230 09:39 26.01.2020
173 Drizzle 7 996 87 10000 13.9 230 09:21 26.01.2020
174 Rain 4 998 96 0 3.54 230 08:43 26.01.2020
175 Drizzle 7 994 93 10000 13.4 230 08:23 26.01.2020
176 Drizzle 7 994 93 10000 13.4 230 07:57 26.01.2020
177 Drizzle 7 994 93 10000 13.4 230 07:39 26.01.2020
178 Drizzle 7 994 93 10000 13.4 230 07:21 26.01.2020
179 Drizzle 8 994 81 10000 11.8 230 06:31 26.01.2020
180 Rain 3 995 92 0 5.17 239 05:32 26.01.2020
181 Rain 3 995 92 0 5.17 239 05:32 26.01.2020
182 Rain 7 992 81 10000 11.8 230 04:45 26.01.2020
183 Drizzle 8 991 81 10000 12.9 230 02:54 26.01.2020
184 Rain 9 990 66 10000 10.3 230 01:49 26.01.2020
185 Rain 9 990 66 10000 10.3 230 01:25 26.01.2020
186 Rain 11 990 53 10000 10.3 230 00:53 26.01.2020
187 Rain 11 990 53 10000 10.3 230 00:31 26.01.2020
188 Rain 6 991 69 0 2.5 255 23:41 25.01.2020
189 Rain 6 991 69 0 2.5 255 23:23 25.01.2020
190 Rain 9 991 63 0 4.92 248 22:59 25.01.2020
191 Rain 9 991 63 0 4.92 248 22:40 25.01.2020
192 Rain 9 991 63 0 4.92 248 22:19 25.01.2020
193 Rain 9 991 63 0 4.92 248 21:57 25.01.2020
194 Rain 9 991 63 0 4.92 248 21:57 25.01.2020
195 Rain 9 991 63 0 4.92 248 21:38 25.01.2020
196 Rain 9 991 63 0 4.92 248 21:20 25.01.2020
197 Rain 9 991 63 0 4.92 248 20:44 25.01.2020
198 Rain 9 991 63 0 4.92 248 20:44 25.01.2020
199 Rain 9 991 63 0 4.92 248 20:25 25.01.2020
200 Rain 9 991 63 0 4.92 248 20:25 25.01.2020
201 Clouds 9 991 75 0 3.15 307 19:55 25.01.2020
202 Clouds 9 991 75 0 3.15 307 19:37 25.01.2020
203 Clouds 9 991 75 0 3.15 307 19:18 25.01.2020
204 Clouds 9 991 75 0 3.15 307 18:42 25.01.2020
205 Clouds 9 991 75 0 3.15 307 18:22 25.01.2020
206 Rain 7 991 87 0 1.81 331 17:58 25.01.2020
207 Clouds 9 991 75 0 3.15 307 17:38 25.01.2020
208 Clouds 11 992 61 0 7.15 335 17:19 25.01.2020
209 Clouds 11 992 61 0 7.15 335 16:43 25.01.2020
210 Clouds 11 992 61 0 7.15 335 16:23 25.01.2020
211 Clouds 11 992 61 0 7.15 335 15:58 25.01.2020
212 Clouds 11 992 61 0 7.15 335 15:58 25.01.2020
213 Clouds 11 992 61 0 7.15 335 15:40 25.01.2020
214 Clouds 11 992 61 0 7.15 335 15:21 25.01.2020
215 Clouds 11 992 61 0 7.15 335 14:44 25.01.2020
216 Clouds 7 996 84 0 3.64 3 14:19 25.01.2020
217 Clouds 7 996 84 0 3.64 3 13:56 25.01.2020
218 Clouds 7 996 84 0 3.64 3 13:38 25.01.2020
219 Clouds 7 995 85 0 3.2 1 13:18 25.01.2020
220 Clouds 7 995 85 0 3.2 1 12:41 25.01.2020
221 Clouds 7 998 87 10000 2.6 320 12:20 25.01.2020
222 Clouds 7 998 87 10000 2.6 320 11:40 25.01.2020
223 Clouds 7 998 87 10000 2.6 320 11:20 25.01.2020
224 Clouds 7 998 87 10000 2.6 50 10:56 25.01.2020
225 Clouds 7 998 87 10000 2.6 50 10:38 25.01.2020
226 Clouds 7 998 87 10000 2.6 50 10:38 25.01.2020
227 Clouds 7 998 87 10000 2.6 50 10:38 25.01.2020
228 Clouds 7 998 87 10000 2.6 50 10:19 25.01.2020
229 Rain 7 998 93 10000 3.6 50 09:40 25.01.2020
230 Rain 7 998 93 10000 3.6 50 09:20 25.01.2020
231 Clear 3 998 96 0 1.91 5 08:43 25.01.2020
232 Drizzle 8 999 93 10000 1.21 343 08:00 25.01.2020
233 Drizzle 8 999 93 10000 1.21 343 07:40 25.01.2020
234 Clouds 3 998 97 0 1.21 343 06:44 25.01.2020
235 Clouds 9 999 81 10000 2.1 90 06:24 25.01.2020
236 Clouds 9 999 81 10000 2.1 90 05:44 25.01.2020
237 Clouds 9 999 87 10000 2.6 70 04:25 25.01.2020
238 Clouds 9 999 81 10000 1.24 37 03:50 25.01.2020
239 Rain 9 998 81 10000 2.6 140 02:40 25.01.2020
240 Rain 11 997 71 10000 1.5 90 01:58 25.01.2020
241 Rain 11 997 71 10000 1.5 90 01:34 25.01.2020
242 Clouds 11 996 76 10000 1.58 119 00:41 25.01.2020
243 Clouds 11 996 76 10000 1.58 119 00:23 25.01.2020
244 Clouds 12 994 62 10000 6.2 140 23:42 24.01.2020
245 Clouds 12 994 62 10000 6.2 140 23:24 24.01.2020
246 Clouds 13 994 54 10000 3.26 149 22:56 24.01.2020
247 Clouds 13 994 54 10000 3.26 149 22:37 24.01.2020
248 Clouds 13 994 54 10000 3.26 149 22:19 24.01.2020
249 Clouds 13 993 54 10000 3.26 149 21:41 24.01.2020
250 Clouds 13 993 54 10000 3.26 149 21:19 24.01.2020
251 Clouds 13 992 54 10000 3.26 149 20:44 24.01.2020
252 Clouds 13 992 54 10000 3.15 148 20:23 24.01.2020
253 Clouds 13 991 54 10000 0.92 19 19:59 24.01.2020
254 Clouds 13 991 54 10000 0.92 19 19:41 24.01.2020
255 Clouds 13 991 54 10000 0.92 19 19:22 24.01.2020
256 Clouds 13 991 54 10000 0.92 19 18:58 24.01.2020
257 Clouds 13 991 54 10000 0.92 19 18:40 24.01.2020
258 Clouds 13 991 54 10000 0.92 19 18:22 24.01.2020
259 Clouds 12 992 54 10000 2.1 90 17:45 24.01.2020
260 Clouds 12 992 54 10000 2.1 90 17:22 24.01.2020
261 Clouds 11 992 71 10000 2.6 180 16:57 24.01.2020
262 Clouds 11 992 71 10000 2.6 180 16:38 24.01.2020
263 Clouds 11 992 71 10000 2.6 180 16:19 24.01.2020
264 Clouds 10 992 71 10000 2.6 180 15:42 24.01.2020
265 Clouds 10 992 71 10000 2.6 180 15:21 24.01.2020
266 Clouds 9 993 70 10000 3.1 320 14:55 24.01.2020
267 Clouds 9 993 70 10000 3.1 320 14:36 24.01.2020
268 Clouds 9 993 70 10000 3.1 320 14:18 24.01.2020
269 Clouds 8 993 75 10000 2 320 13:41 24.01.2020
270 Clouds 8 993 75 10000 2.05 322 13:21 24.01.2020
271 Clouds 7 991 75 10000 2.05 322 12:43 24.01.2020
272 Clouds 7 991 75 10000 2.05 322 12:20 24.01.2020
273 Clouds 6 993 81 10000 4.1 340 11:45 24.01.2020
274 Clouds 6 993 81 10000 4.1 340 11:19 24.01.2020
275 Clouds 6 993 81 10000 4.1 340 11:19 24.01.2020
276 Clouds 6 993 81 10000 4.1 340 11:19 24.01.2020
277 Clouds 6 993 81 10000 3.1 320 10:58 24.01.2020
278 Clouds 6 993 81 10000 3.1 320 10:40 24.01.2020
279 Clouds 6 993 81 10000 3.1 320 10:19 24.01.2020
280 Clouds 1 993 97 0 1.27 314 09:41 24.01.2020
281 Clouds 1 993 97 0 1.27 314 09:23 24.01.2020
282 Clouds 1 993 97 0 1.27 314 08:41 24.01.2020
283 Clouds 1 993 97 0 1.27 314 08:41 24.01.2020
284 Clouds 6 992 75 10000 4.1 320 08:21 24.01.2020
285 Clouds 6 992 75 10000 4.1 320 07:59 24.01.2020
286 Clouds 6 992 75 10000 4.1 320 07:39 24.01.2020
287 Rain 3 993 98 0 2.01 1 06:54 24.01.2020
288 Rain 3 993 98 0 2.01 1 06:33 24.01.2020
289 Clouds 7 993 70 10000 4.6 320 05:59 24.01.2020
290 Clouds 7 993 70 10000 4.6 320 05:18 24.01.2020
291 Clouds 9 992 70 10000 3.6 320 02:54 24.01.2020
292 Clouds 9 992 70 10000 3.6 320 02:27 24.01.2020
293 Clouds 9 992 76 10000 1.5 320 01:56 24.01.2020
294 Clouds 9 992 76 10000 1.5 320 01:35 24.01.2020
295 Drizzle 10 992 71 10000 5.1 230 00:33 24.01.2020
296 Drizzle 10 991 71 10000 10.8 230 23:58 23.01.2020
297 Drizzle 10 991 71 10000 10.8 230 23:40 23.01.2020
298 Drizzle 10 991 71 10000 10.8 230 23:21 23.01.2020
299 Clouds 11 990 66 10000 5.1 90 22:55 23.01.2020
300 Clouds 11 990 66 10000 5.1 90 22:36 23.01.2020
301 Clouds 12 990 66 10000 5.1 90 22:18 23.01.2020
302 Clouds 14 990 58 10000 0.72 57 21:55 23.01.2020
303 Clouds 14 990 58 10000 0.72 57 21:37 23.01.2020
304 Clouds 14 990 58 10000 0.72 57 21:18 23.01.2020
305 Clouds 12 991 76 10000 2.1 90 20:41 23.01.2020
306 Clouds 12 991 76 10000 2.1 90 20:22 23.01.2020
307 Clouds 13 991 66 10000 3.6 180 19:57 23.01.2020
308 Clouds 13 991 66 10000 3.6 180 19:39 23.01.2020
309 Clouds 13 991 66 10000 3.6 180 19:21 23.01.2020
310 Clouds 11 992 76 10000 3.1 180 18:56 23.01.2020
311 Clouds 11 992 76 10000 3.1 180 18:38 23.01.2020
312 Clouds 11 992 76 10000 3.1 180 18:19 23.01.2020
313 Drizzle 10 992 87 10000 3.1 180 17:45 23.01.2020
314 Drizzle 10 992 87 10000 3.1 180 17:21 23.01.2020
315 Drizzle 13 993 66 10000 1.5 360 16:59 23.01.2020
316 Drizzle 13 993 66 10000 1.5 360 16:39 23.01.2020
317 Drizzle 13 993 66 10000 1.5 360 16:19 23.01.2020
318 Clouds 12 993 62 10000 6.2 360 15:58 23.01.2020
319 Clouds 12 993 62 10000 6.2 360 15:38 23.01.2020
320 Clouds 12 993 62 10000 6.2 360 15:38 23.01.2020
321 Clouds 12 993 62 10000 6.2 360 15:19 23.01.2020
322 Clouds 12 994 62 10000 8.2 360 14:58 23.01.2020
323 Clouds 12 994 62 10000 8.2 360 14:40 23.01.2020
324 Clouds 12 994 62 10000 8.2 360 14:21 23.01.2020
325 Clouds 11 995 66 10000 3.1 320 13:46 23.01.2020
326 Clouds 11 995 66 10000 3.1 320 13:21 23.01.2020
327 Clouds 10 996 66 10000 2.89 356 12:57 23.01.2020
328 Clouds 10 996 66 10000 2.89 356 12:57 23.01.2020
329 Clouds 10 996 66 10000 2.89 356 12:39 23.01.2020
330 Clouds 10 996 66 10000 2.89 356 12:21 23.01.2020
331 Clouds 9 998 70 10000 4.1 290 11:54 23.01.2020
332 Clouds 9 998 70 10000 4.1 290 11:36 23.01.2020
333 Clouds 9 998 70 10000 4.1 290 11:18 23.01.2020
334 Clouds 9 998 70 10000 1.5 270 10:41 23.01.2020
335 Clouds 9 998 70 10000 1.5 270 10:19 23.01.2020
336 Clouds 9 998 70 10000 1.5 270 10:19 23.01.2020
337 Clouds 10 999 61 10000 2.1 290 09:41 23.01.2020
338 Clouds 10 999 61 10000 2.1 290 09:22 23.01.2020
339 Clouds 7 999 87 10000 2.03 26 08:57 23.01.2020
340 Clouds 7 999 87 10000 2.03 26 08:38 23.01.2020
341 Clouds 7 999 87 10000 1.82 34 08:19 23.01.2020
342 Clouds 7 1000 93 10000 3.1 110 07:42 23.01.2020
343 Clouds 7 1000 93 10000 3.1 110 07:21 23.01.2020
344 Clouds 7 1000 93 10000 3.1 110 07:21 23.01.2020
345 Clouds 8 1002 87 10000 2.6 70 06:44 23.01.2020
346 Clouds 8 1002 87 10000 2.6 70 06:19 23.01.2020
347 Clouds 9 1004 81 10000 3.1 50 04:44 23.01.2020
348 Clouds 9 1004 81 10000 3.1 50 04:21 23.01.2020
349 Clouds 10 1005 71 10000 2.6 50 01:58 23.01.2020
350 Clouds 12 1006 58 10000 1.53 105 00:47 23.01.2020
351 Clouds 12 1006 58 10000 1.53 105 00:26 23.01.2020
352 Clouds 12 1007 50 10000 1.53 105 23:47 22.01.2020
353 Clouds 12 1007 50 10000 1.53 105 23:28 22.01.2020
354 Clouds 12 1007 52 10000 1.4 152 22:55 22.01.2020
355 Clouds 12 1007 52 10000 1.4 152 22:37 22.01.2020
356 Clouds 12 1007 52 10000 1.4 152 22:19 22.01.2020
357 Clouds 12 1007 54 10000 1.4 152 21:38 22.01.2020
358 Clouds 12 1007 54 10000 1.4 152 21:20 22.01.2020
359 Clouds 13 1008 54 10000 1.4 152 20:56 22.01.2020
360 Clouds 13 1008 54 10000 1.4 152 20:36 22.01.2020
361 Clouds 13 1008 54 10000 1.4 152 20:36 22.01.2020
362 Clouds 13 1008 54 10000 1.07 300 20:18 22.01.2020
363 Clouds 14 1008 47 10000 3.6 230 19:55 22.01.2020
364 Clouds 14 1008 47 10000 3.6 230 19:36 22.01.2020
365 Clouds 14 1008 47 10000 3.6 230 19:18 22.01.2020
366 Clouds 12 1009 54 10000 3.1 230 18:55 22.01.2020
367 Clouds 12 1009 54 10000 3.1 230 18:36 22.01.2020
368 Clouds 12 1009 54 10000 3.1 230 18:18 22.01.2020
369 Clouds 12 1010 50 10000 1.07 300 17:39 22.01.2020
370 Clouds 12 1010 50 10000 2.19 304 17:20 22.01.2020
371 Clouds 11 1010 57 10000 4.1 230 16:57 22.01.2020
372 Clouds 11 1010 57 10000 4.1 230 16:39 22.01.2020
373 Clouds 11 1010 57 10000 4.1 230 16:20 22.01.2020
374 Clouds 10 1011 61 10000 5.1 230 15:55 22.01.2020
375 Clouds 10 1011 61 10000 5.1 230 15:37 22.01.2020
376 Clouds 10 1011 61 10000 5.1 230 15:18 22.01.2020
377 Clouds 10 1011 57 10000 7.7 230 14:39 22.01.2020
378 Clouds 10 1011 57 10000 7.7 230 14:20 22.01.2020
379 Clouds 9 1011 61 10000 1.75 324 13:57 22.01.2020
380 Clouds 9 1011 61 10000 1.75 324 13:37 22.01.2020
381 Clouds 9 1011 61 10000 1.76 305 13:19 22.01.2020
382 Clouds 8 1011 65 10000 2.6 320 12:57 22.01.2020
383 Clouds 8 1011 65 10000 2.6 320 12:38 22.01.2020
384 Clouds 8 1011 65 10000 2.6 320 12:19 22.01.2020
385 Clouds 7 1010 70 10000 2.6 320 11:57 22.01.2020
386 Clouds 7 1010 70 10000 2.6 320 11:39 22.01.2020
387 Clouds 7 1010 70 10000 2.6 320 11:19 22.01.2020
388 Clouds 7 1010 75 10000 5.7 340 10:45 22.01.2020
389 Clouds 7 1010 75 10000 5.7 340 10:21 22.01.2020
390 Clouds 7 1010 75 10000 6.7 250 09:58 22.01.2020
391 Clouds 7 1010 75 10000 6.7 250 09:40 22.01.2020
392 Clouds 7 1010 75 10000 6.7 250 09:21 22.01.2020
393 Clouds 7 1009 75 10000 5.1 230 08:55 22.01.2020
394 Clouds 7 1009 75 10000 5.1 230 08:37 22.01.2020
395 Clouds 7 1009 75 10000 5.1 230 08:19 22.01.2020
396 Clouds 8 1009 65 10000 3.6 270 07:44 22.01.2020
397 Clouds 8 1009 65 10000 3.6 270 07:26 22.01.2020
398 Clouds 8 1009 65 10000 7.7 230 06:34 22.01.2020
399 Clouds 8 1009 65 10000 7.2 230 05:54 22.01.2020
400 Rain 7 1007 81 10000 10.3 230 04:25 22.01.2020
401 Rain 7 1007 81 10000 10.3 230 03:26 22.01.2020
402 Rain 8 1006 75 9000 12.3 230 02:42 22.01.2020
403 Clouds 11 1005 57 9000 10.8 230 00:47 22.01.2020
404 Clouds 11 1005 57 9000 10.8 230 00:27 22.01.2020
405 Clouds 12 1005 66 10000 11.8 230 23:57 21.01.2020
406 Clouds 12 1005 66 10000 11.8 230 23:37 21.01.2020
407 Clouds 12 1005 66 10000 11.8 230 23:19 21.01.2020
408 Clouds 11 1004 57 10000 11.8 230 22:40 21.01.2020
409 Clouds 12 1004 57 10000 11.8 230 22:21 21.01.2020
410 Clouds 12 1004 57 10000 11.8 230 21:58 21.01.2020
411 Clouds 13 1004 54 10000 12.9 230 21:39 21.01.2020
412 Clouds 13 1004 54 10000 12.9 230 21:20 21.01.2020
413 Clouds 13 1004 54 10000 11.8 230 20:57 21.01.2020
414 Clouds 13 1004 54 10000 11.8 230 20:38 21.01.2020
415 Clouds 13 1004 54 10000 11.8 230 20:20 21.01.2020
416 Clouds 13 1004 54 10000 12.3 230 19:57 21.01.2020
417 Clouds 13 1004 54 10000 12.3 230 19:39 21.01.2020
418 Clouds 13 1004 54 10000 12.3 230 19:20 21.01.2020
419 Clouds 14 1004 50 10000 12.3 230 18:55 21.01.2020
420 Clouds 14 1004 50 10000 12.3 230 18:37 21.01.2020
421 Clouds 14 1004 50 10000 12.3 230 18:19 21.01.2020
422 Clouds 13 1004 58 10000 12.9 230 17:45 21.01.2020
423 Clouds 13 1004 58 10000 12.9 230 17:20 21.01.2020
424 Clouds 13 1004 58 10000 11.3 230 16:59 21.01.2020
425 Clouds 13 1004 58 10000 11.3 230 16:37 21.01.2020
426 Clouds 13 1004 58 10000 11.3 230 16:19 21.01.2020
427 Clouds 12 1004 71 10000 11.8 230 15:56 21.01.2020
428 Clouds 12 1004 71 10000 11.8 230 15:36 21.01.2020
429 Clouds 12 1004 71 10000 11.8 230 15:18 21.01.2020
430 Clouds 10 1004 71 10000 11.3 230 14:38 21.01.2020
431 Clouds 11 1004 71 10000 11.3 230 14:20 21.01.2020
432 Clouds 10 1004 87 10000 10.3 230 13:40 21.01.2020
433 Clouds 10 1004 87 10000 10.3 230 13:19 21.01.2020
434 Clouds 9 1003 81 10000 12.9 230 12:56 21.01.2020
435 Clouds 9 1003 81 10000 12.9 230 12:37 21.01.2020
436 Clouds 9 1003 81 10000 12.9 230 12:19 21.01.2020
437 Clouds 7 1004 87 10000 5.7 270 11:40 21.01.2020
438 Clouds 7 1004 87 10000 5.7 270 11:21 21.01.2020
439 Clouds 8 1003 87 10000 4.6 270 10:57 21.01.2020
440 Clouds 8 1003 87 10000 4.6 270 10:57 21.01.2020
441 Clouds 8 1003 87 10000 4.6 270 10:57 21.01.2020
442 Clouds 8 1003 87 10000 4.6 270 10:39 21.01.2020
443 Clouds 8 1003 87 10000 4.6 270 10:20 21.01.2020
444 Clouds 8 1003 87 10000 1.71 243 09:42 21.01.2020
445 Clouds 8 1003 87 10000 1.71 243 09:23 21.01.2020
446 Clouds 8 1003 87 10000 2.6 250 08:50 21.01.2020
447 Clouds 8 1003 87 10000 2.6 250 08:32 21.01.2020
448 Rain 8 1003 87 10000 2.1 50 07:59 21.01.2020
449 Rain 8 1003 87 10000 2.1 50 07:40 21.01.2020
450 Rain 8 1003 87 10000 2.1 50 07:22 21.01.2020
451 Rain 8 1003 93 10000 3.1 70 06:49 21.01.2020
452 Rain 8 1003 93 10000 3.1 70 06:29 21.01.2020
453 Rain 8 1003 93 10000 3.1 70 06:29 21.01.2020
454 Rain 8 1003 93 10000 3.1 70 06:29 21.01.2020
455 Drizzle 8 1003 93 10000 6.2 70 05:42 21.01.2020
456 Clouds 10 1004 71 10000 4.1 90 04:40 21.01.2020
457 Clouds 10 1005 76 10000 2.6 320 02:57 21.01.2020
458 Clouds 10 1005 81 10000 2.6 270 01:56 21.01.2020
459 Clouds 10 1005 81 10000 2.6 270 01:26 21.01.2020
460 Clouds 11 1005 76 10000 0.65 53 00:37 21.01.2020
461 Clouds 11 1005 76 10000 0.65 53 23:59 20.01.2020
462 Clouds 11 1005 76 10000 0.65 53 23:41 20.01.2020
463 Clouds 11 1005 76 10000 1.76 241 23:19 20.01.2020
464 Clouds 12 1004 66 10000 6.7 230 22:56 20.01.2020
465 Clouds 12 1004 66 10000 6.7 230 22:38 20.01.2020
466 Clouds 12 1004 66 10000 6.7 230 22:20 20.01.2020
467 Clouds 11 1004 66 10000 6.7 230 21:57 20.01.2020
468 Clouds 12 1003 62 10000 9.3 230 21:37 20.01.2020
469 Clouds 12 1003 62 10000 9.3 230 21:19 20.01.2020
470 Clouds 12 1003 62 10000 8.7 230 20:56 20.01.2020
471 Clouds 12 1003 62 10000 8.7 230 20:56 20.01.2020
472 Clouds 12 1003 62 10000 8.7 230 20:38 20.01.2020
473 Clouds 12 1003 62 10000 8.7 230 20:18 20.01.2020
474 Clouds 11 1003 66 10000 10.3 230 19:56 20.01.2020
475 Clouds 11 1003 66 10000 10.3 230 19:56 20.01.2020
476 Clouds 11 1003 66 10000 10.3 230 19:37 20.01.2020
477 Clouds 11 1003 66 10000 10.3 230 19:18 20.01.2020
478 Clouds 11 1003 71 10000 10.3 230 18:44 20.01.2020
479 Clouds 11 1003 71 10000 10.3 230 18:22 20.01.2020
480 Clouds 11 1002 71 10000 11.8 230 17:41 20.01.2020
481 Clouds 11 1002 71 10000 11.8 230 17:20 20.01.2020
482 Rain 10 1002 76 10000 11.3 230 16:59 20.01.2020
483 Rain 10 1002 76 10000 11.3 230 16:39 20.01.2020
484 Rain 10 1002 76 10000 11.3 230 16:19 20.01.2020
485 Rain 10 1002 76 10000 11.3 230 16:19 20.01.2020
486 Rain 10 1002 76 10000 11.3 230 16:19 20.01.2020
487 Rain 10 1002 76 10000 11.3 230 16:19 20.01.2020
488 Rain 10 1002 76 10000 11.3 230 16:19 20.01.2020
489 Clouds 10 1002 81 10000 11.3 230 15:56 20.01.2020
490 Clouds 10 1002 81 10000 11.3 230 15:38 20.01.2020
491 Clouds 10 1002 81 10000 11.3 230 15:20 20.01.2020
492 Clouds 9 1002 76 10000 12.9 230 14:41 20.01.2020
493 Clouds 9 1002 76 10000 12.9 230 14:22 20.01.2020
494 Clouds 8 1001 75 10000 13.4 230 13:58 20.01.2020
495 Clouds 8 1001 75 10000 13.4 230 13:40 20.01.2020
496 Clouds 8 1001 75 10000 13.4 230 13:21 20.01.2020
497 Clouds 8 1002 81 10000 10.8 230 12:46 20.01.2020
498 Clouds 8 1002 81 10000 10.8 230 12:28 20.01.2020
499 Rain 7 1001 87 10000 11.3 230 11:58 20.01.2020
500 Rain 7 1001 87 10000 11.3 230 11:39 20.01.2020
501 Rain 7 1001 87 10000 11.3 230 11:20 20.01.2020
502 Drizzle 7 1000 87 7000 8.7 230 10:48 20.01.2020
503 Drizzle 7 1000 87 7000 8.7 230 10:22 20.01.2020
504 Drizzle 7 999 81 10000 11.3 230 09:57 20.01.2020
505 Drizzle 7 999 81 10000 11.3 230 09:39 20.01.2020
506 Drizzle 7 999 81 10000 11.3 230 09:20 20.01.2020
507 Drizzle 7 999 81 10000 13.9 230 08:44 20.01.2020
508 Drizzle 7 999 81 10000 13.9 230 08:26 20.01.2020
509 Rain 7 999 75 10000 13.9 230 07:45 20.01.2020
510 Rain 7 999 75 10000 13.9 230 07:25 20.01.2020
511 Rain 4 1000 90 0 6.83 249 06:48 20.01.2020
512 Rain 4 1000 90 0 6.83 249 06:27 20.01.2020
513 Rain 4 1000 90 0 6.83 249 05:42 20.01.2020
514 Rain 8 998 75 10000 14.9 230 05:22 20.01.2020
515 Rain 8 998 75 10000 14.9 230 04:42 20.01.2020
516 Rain 8 997 70 10000 13.4 230 02:57 20.01.2020
517 Rain 8 997 70 10000 13.4 230 02:57 20.01.2020
518 Drizzle 8 996 81 10000 13.4 230 01:54 20.01.2020
519 Drizzle 8 996 81 10000 13.4 230 01:35 20.01.2020
520 Rain 8 995 75 10000 18 230 00:44 20.01.2020
521 Rain 8 994 75 10000 16.5 230 00:23 20.01.2020
522 Rain 9 994 76 10000 13.9 230 23:39 19.01.2020
523 Rain 9 994 76 10000 13.9 230 23:20 19.01.2020
524 Rain 9 994 76 10000 13.9 230 23:20 19.01.2020
525 Drizzle 9 993 81 10000 20.1 230 22:56 19.01.2020
526 Drizzle 9 993 81 10000 20.1 230 22:38 19.01.2020
527 Drizzle 9 993 81 10000 20.1 230 22:20 19.01.2020
528 Rain 10 993 81 10000 17 230 21:56 19.01.2020
529 Rain 10 993 81 10000 17 230 21:38 19.01.2020
530 Rain 10 993 81 10000 17 230 21:20 19.01.2020
531 Drizzle 10 993 81 10000 15.9 230 20:57 19.01.2020
532 Drizzle 10 993 81 10000 15.9 230 20:39 19.01.2020
533 Drizzle 10 993 81 10000 15.9 230 20:20 19.01.2020
534 Rain 11 993 71 10000 11.3 230 19:57 19.01.2020
535 Rain 11 993 71 10000 11.3 230 19:39 19.01.2020
536 Rain 11 993 71 10000 11.3 230 19:39 19.01.2020
537 Rain 11 993 71 10000 11.3 230 19:20 19.01.2020
538 Rain 11 992 71 10000 12.3 230 18:57 19.01.2020
539 Rain 11 992 71 10000 12.3 230 18:38 19.01.2020
540 Rain 11 992 71 10000 12.3 230 18:20 19.01.2020
541 Rain 10 993 71 10000 12.3 230 17:58 19.01.2020
542 Rain 10 993 71 10000 12.3 230 17:40 19.01.2020
543 Rain 10 993 71 10000 12.3 230 17:21 19.01.2020
544 Rain 10 992 71 10000 12.3 230 16:59 19.01.2020
545 Rain 10 992 71 10000 12.3 230 16:38 19.01.2020
546 Rain 10 992 71 10000 12.3 230 16:38 19.01.2020
547 Rain 10 992 71 10000 12.3 230 16:20 19.01.2020
548 Rain 10 992 71 10000 17 230 15:58 19.01.2020
549 Rain 10 992 71 10000 17 230 15:58 19.01.2020
550 Rain 10 992 71 10000 17 230 15:38 19.01.2020
551 Rain 10 992 71 10000 17 230 15:20 19.01.2020
552 Rain 9 991 76 10000 12.9 230 14:58 19.01.2020
553 Rain 9 991 76 10000 12.9 230 14:39 19.01.2020
554 Rain 9 991 76 10000 12.9 230 14:18 19.01.2020
555 Clouds 9 991 81 10000 8.7 230 13:57 19.01.2020
556 Clouds 9 991 81 10000 8.7 230 13:38 19.01.2020
557 Clouds 9 991 81 10000 8.7 230 13:19 19.01.2020
558 Clouds 8 992 87 10000 7.7 230 12:55 19.01.2020
559 Clouds 8 992 87 10000 7.7 230 12:36 19.01.2020
560 Clouds 8 992 87 10000 7.7 230 12:18 19.01.2020
561 Drizzle 8 992 81 10000 7.7 230 11:42 19.01.2020
562 Drizzle 8 992 81 10000 7.7 230 11:20 19.01.2020
563 Drizzle 8 992 87 10000 6.2 230 10:56 19.01.2020
564 Drizzle 8 992 87 10000 6.2 230 10:38 19.01.2020
565 Drizzle 8 992 87 10000 6.2 230 10:19 19.01.2020
566 Drizzle 8 992 87 10000 2.1 230 09:55 19.01.2020
567 Drizzle 8 992 87 10000 2.1 230 09:55 19.01.2020
568 Drizzle 8 992 87 10000 2.1 230 09:36 19.01.2020
569 Drizzle 8 992 87 10000 2.1 230 09:18 19.01.2020
570 Clouds 8 992 87 10000 3.1 230 08:44 19.01.2020
571 Clouds 8 992 87 10000 3.1 230 08:26 19.01.2020
572 Clouds 8 993 87 10000 3.1 320 07:42 19.01.2020
573 Clouds 8 993 87 10000 3.1 320 07:22 19.01.2020
574 Clouds 8 993 93 10000 2.6 320 06:53 19.01.2020
575 Clouds 8 993 93 10000 2.6 320 06:21 19.01.2020
576 Drizzle 9 994 81 10000 10.3 230 02:44 19.01.2020
577 Drizzle 9 994 81 10000 10.3 230 02:21 19.01.2020
578 Rain 9 993 81 10000 10.3 230 01:25 19.01.2020
579 Drizzle 10 993 76 10000 11.8 230 00:50 19.01.2020
580 Rain 10 993 76 10000 12.9 230 00:29 19.01.2020
581 Rain 10 993 76 10000 12.9 230 23:58 18.01.2020
582 Rain 10 993 76 10000 12.9 230 23:40 18.01.2020
583 Rain 10 993 76 10000 12.9 230 23:21 18.01.2020
584 Rain 12 992 66 10000 12.9 230 22:55 18.01.2020
585 Rain 12 992 66 10000 12.9 230 22:37 18.01.2020
586 Rain 12 992 66 10000 12.9 230 22:37 18.01.2020
587 Rain 12 992 66 10000 12.9 230 22:19 18.01.2020
588 Rain 12 992 66 10000 12.9 230 22:19 18.01.2020
589 Clouds 13 992 62 10000 11.8 230 21:57 18.01.2020
590 Clouds 13 992 62 10000 11.8 230 21:37 18.01.2020
591 Clouds 13 992 62 10000 11.8 230 21:37 18.01.2020
592 Clouds 13 992 62 10000 11.8 230 21:19 18.01.2020
593 Clouds 13 992 62 10000 11.8 230 20:43 18.01.2020
594 Clouds 13 992 62 10000 11.8 230 20:21 18.01.2020
595 Clouds 12 993 66 10000 10.3 230 19:57 18.01.2020
596 Clouds 12 993 66 10000 10.3 230 19:39 18.01.2020
597 Clouds 12 993 66 10000 10.3 230 19:21 18.01.2020
598 Clouds 12 994 66 10000 8.7 230 18:42 18.01.2020
599 Clouds 12 994 66 10000 8.7 230 18:21 18.01.2020
600 Clouds 12 994 66 10000 8.2 200 17:55 18.01.2020
601 Clouds 12 994 66 10000 8.2 200 17:37 18.01.2020
602 Clouds 12 994 66 10000 8.2 200 17:18 18.01.2020
603 Clouds 11 994 66 10000 9.3 230 16:42 18.01.2020
604 Clouds 11 994 66 10000 9.3 230 16:24 18.01.2020
605 Clouds 12 994 62 10000 10.3 230 15:59 18.01.2020
606 Clouds 12 994 62 10000 10.3 230 15:41 18.01.2020
607 Clouds 12 994 62 10000 10.3 230 15:22 18.01.2020
608 Clouds 11 994 71 10000 10.8 230 14:54 18.01.2020
609 Clouds 11 994 71 10000 10.8 230 14:36 18.01.2020
610 Clouds 11 994 71 10000 10.8 230 14:18 18.01.2020
611 Clouds 12 995 58 10000 13.9 290 13:43 18.01.2020
612 Clouds 11 995 58 10000 13.9 290 13:24 18.01.2020
613 Clouds 10 996 71 10000 3.6 230 12:56 18.01.2020
614 Clouds 10 996 71 10000 3.6 230 12:38 18.01.2020
615 Clouds 10 996 71 10000 3.6 230 12:19 18.01.2020
616 Clouds 9 996 76 10000 6.2 230 11:44 18.01.2020
617 Clouds 9 996 76 10000 6.2 230 11:21 18.01.2020
618 Rain 7 997 93 10000 2.6 230 10:56 18.01.2020
619 Rain 7 997 93 10000 2.6 230 10:38 18.01.2020
620 Rain 7 997 93 10000 2.6 230 10:18 18.01.2020
621 Rain 7 997 93 10000 2.6 230 10:18 18.01.2020
622 Drizzle 7 997 87 10000 10.3 230 09:42 18.01.2020
623 Drizzle 7 997 87 10000 10.3 230 09:20 18.01.2020
624 Rain 5 996 96 0 2.6 266 08:55 18.01.2020
625 Rain 5 996 96 0 2.6 266 08:37 18.01.2020
626 Rain 7 997 100 6000 6.2 230 08:18 18.01.2020
627 Rain 7 997 100 6000 6.2 230 07:40 18.01.2020
628 Rain 7 997 100 6000 6.2 230 07:21 18.01.2020
629 Rain 4 996 97 0 3.04 295 06:45 18.01.2020
630 Rain 7 996 93 10000 9.8 230 05:53 18.01.2020
631 Drizzle 8 996 81 10000 5.7 230 04:29 18.01.2020
632 Rain 7 995 87 10000 11.3 230 02:49 18.01.2020
633 Rain 8 994 87 10000 13.4 230 01:51 18.01.2020
634 Rain 8 994 87 10000 10.3 230 00:40 18.01.2020
635 Rain 8 994 87 10000 10.3 230 00:21 18.01.2020
636 Rain 9 993 87 10000 11.8 230 23:59 17.01.2020
637 Rain 9 993 87 10000 11.8 230 23:40 17.01.2020
638 Rain 9 993 87 10000 11.8 230 23:19 17.01.2020
639 Rain 10 993 76 10000 11.3 230 22:43 17.01.2020
640 Rain 10 993 76 10000 11.3 230 22:21 17.01.2020
641 Rain 11 992 71 10000 10.8 230 21:57 17.01.2020
642 Rain 11 992 71 10000 10.8 230 21:39 17.01.2020
643 Rain 11 992 71 10000 10.8 230 21:20 17.01.2020
644 Rain 10 992 71 10000 10.8 230 20:55 17.01.2020
645 Rain 10 992 71 10000 10.8 230 20:36 17.01.2020
646 Rain 10 992 71 10000 10.8 230 20:18 17.01.2020
647 Rain 11 991 71 10000 11.8 230 19:54 17.01.2020
648 Rain 11 991 71 10000 11.8 230 19:36 17.01.2020
649 Rain 11 991 71 10000 11.8 230 19:18 17.01.2020
650 Rain 11 990 71 10000 17 230 18:44 17.01.2020
651 Drizzle 11 989 71 10000 16.5 230 18:26 17.01.2020
652 Drizzle 12 989 66 10000 15.9 230 17:56 17.01.2020
653 Rain 12 989 66 10000 9.3 230 17:38 17.01.2020
654 Rain 12 989 66 10000 9.3 230 17:19 17.01.2020
655 Drizzle 11 990 66 10000 10.3 230 16:42 17.01.2020
656 Drizzle 11 990 66 10000 10.3 230 16:20 17.01.2020
657 Drizzle 12 990 66 10000 6.7 230 15:48 17.01.2020
658 Drizzle 12 990 66 10000 6.7 230 15:27 17.01.2020
659 Clouds 12 991 66 10000 5.7 230 14:56 17.01.2020
660 Clouds 12 991 66 10000 5.7 230 14:38 17.01.2020
661 Clouds 12 991 66 10000 5.7 230 14:20 17.01.2020
662 Clouds 12 991 66 10000 5.7 230 14:20 17.01.2020
663 Clouds 11 992 81 10000 9.3 230 13:41 17.01.2020
664 Clouds 11 992 81 10000 9.3 230 13:22 17.01.2020
665 Clouds 10 993 81 10000 1.94 299 12:45 17.01.2020
666 Clouds 10 993 81 10000 1.94 299 12:23 17.01.2020
667 Clouds 10 993 81 10000 1.94 299 12:23 17.01.2020
668 Clouds 10 993 76 10000 3.6 360 11:41 17.01.2020
669 Clouds 10 993 76 10000 3.6 360 11:20 17.01.2020
670 Clouds 10 994 81 10000 4.1 340 10:55 17.01.2020
671 Clouds 10 994 81 10000 4.1 340 10:36 17.01.2020
672 Clouds 10 994 81 10000 4.1 340 10:18 17.01.2020
673 Clouds 10 995 76 10000 3.1 320 09:42 17.01.2020
674 Clouds 10 995 76 10000 3.1 320 09:21 17.01.2020
675 Clouds 11 996 71 10000 4.1 320 08:56 17.01.2020
676 Clouds 11 996 71 10000 4.1 320 08:38 17.01.2020
677 Clouds 11 996 71 10000 4.1 320 08:19 17.01.2020
678 Clouds 9 996 76 10000 4.6 320 07:43 17.01.2020
679 Clouds 9 996 76 10000 4.6 320 07:25 17.01.2020
680 Clouds 8 998 75 10000 4.6 320 06:47 17.01.2020
681 Clouds 8 998 75 10000 4.6 320 06:29 17.01.2020
682 Clouds 5 997 97 0 2.38 327 04:27 17.01.2020
683 Clouds 5 997 97 0 2.38 327 02:56 17.01.2020
684 Clouds 5 997 97 0 2.38 327 02:56 17.01.2020
685 Clouds 5 997 97 0 2.38 327 02:32 17.01.2020
686 Rain 5 998 98 0 2.18 340 01:44 17.01.2020
687 Rain 5 998 98 0 2.18 340 01:22 17.01.2020
688 Rain 6 998 98 0 2.07 336 00:37 17.01.2020
689 Clouds 9 1001 81 10000 2.1 50 23:59 16.01.2020
690 Clouds 9 1001 81 10000 2.1 50 23:41 16.01.2020
691 Clouds 9 1001 81 10000 2.1 50 23:22 16.01.2020
692 Clouds 9 1002 76 10000 1.06 16 22:41 16.01.2020
693 Clouds 9 1002 76 10000 1.06 16 22:21 16.01.2020
694 Drizzle 10 1002 76 10000 2.1 90 21:57 16.01.2020
695 Drizzle 10 1002 76 10000 2.1 90 21:57 16.01.2020
696 Drizzle 10 1002 76 10000 2.1 90 21:38 16.01.2020
697 Drizzle 10 1002 76 10000 2.1 90 21:19 16.01.2020
698 Drizzle 10 1003 71 10000 2.1 90 20:57 16.01.2020
699 Drizzle 10 1003 71 10000 2.1 90 20:38 16.01.2020
700 Drizzle 10 1003 71 10000 2.1 90 20:19 16.01.2020
701 Drizzle 10 1004 71 10000 1.88 291 19:56 16.01.2020
702 Drizzle 10 1004 71 10000 1.88 291 19:37 16.01.2020
703 Drizzle 10 1004 71 10000 1.88 291 19:19 16.01.2020
704 Drizzle 10 1004 71 10000 1.88 291 19:19 16.01.2020
705 Drizzle 9 1005 70 10000 1 230 18:55 16.01.2020
706 Drizzle 9 1005 70 10000 1 230 18:37 16.01.2020
707 Drizzle 9 1005 70 10000 1 230 18:18 16.01.2020
708 Drizzle 9 1005 76 10000 5.1 230 17:42 16.01.2020
709 Drizzle 9 1005 76 10000 5.1 230 17:23 16.01.2020
710 Clouds 10 1005 76 10000 9.3 230 16:57 16.01.2020
711 Clouds 10 1005 76 10000 9.3 230 16:39 16.01.2020
712 Clouds 10 1005 76 10000 9.3 230 16:19 16.01.2020
713 Clouds 9 1006 75 10000 7.7 230 15:44 16.01.2020
714 Clouds 9 1006 75 10000 7.7 230 15:23 16.01.2020
715 Clouds 8 1006 75 10000 9.3 230 14:57 16.01.2020
716 Clouds 8 1006 75 10000 9.3 230 14:39 16.01.2020
717 Clouds 8 1006 75 10000 9.3 230 14:20 16.01.2020
718 Clouds 7 1006 81 10000 10.3 230 13:45 16.01.2020
719 Clouds 7 1006 81 10000 10.3 230 13:26 16.01.2020
720 Rain 7 1006 81 10000 17 230 12:47 16.01.2020
721 Rain 7 1006 81 10000 17 230 12:28 16.01.2020
722 Drizzle 6 1005 87 10000 15.4 230 11:59 16.01.2020
723 Drizzle 6 1005 87 10000 15.4 230 11:41 16.01.2020
724 Drizzle 6 1005 87 10000 15.4 230 11:22 16.01.2020
725 Rain 6 1006 81 10000 14.4 230 10:55 16.01.2020
726 Rain 6 1006 81 10000 14.4 230 10:36 16.01.2020
727 Rain 6 1006 81 10000 14.4 230 10:18 16.01.2020
728 Rain 6 1004 81 10000 15.9 230 09:41 16.01.2020
729 Rain 6 1004 81 10000 15.9 230 09:23 16.01.2020
730 Rain 6 1004 81 10000 14.9 230 08:55 16.01.2020
731 Rain 6 1004 81 10000 14.9 230 08:36 16.01.2020
732 Rain 5 1004 93 10000 14.9 230 07:59 16.01.2020
733 Rain 5 1004 93 10000 14.9 230 07:41 16.01.2020
734 Rain 5 1004 93 10000 14.9 230 07:23 16.01.2020
735 Rain 5 1004 93 8000 11.3 230 06:46 16.01.2020
736 Rain 5 1004 93 8000 11.3 230 06:28 16.01.2020
737 Rain 5 1004 93 8000 11.3 230 06:28 16.01.2020
738 Rain 5 1003 93 8000 13.4 230 05:46 16.01.2020
739 Rain 4 1001 96 0 5.47 230 04:46 16.01.2020
740 Rain 4 1001 96 0 5.47 230 04:46 16.01.2020
741 Drizzle 5 1001 86 5000 17 230 03:29 16.01.2020
742 Drizzle 5 1000 86 6000 14.4 230 02:44 16.01.2020
743 Drizzle 5 999 75 6000 14.4 230 01:24 16.01.2020
744 Rain 6 998 75 6000 13.9 230 00:41 16.01.2020
745 Rain 6 998 75 6000 13.9 230 00:19 16.01.2020
746 Drizzle 5 998 100 10000 10.8 230 23:40 15.01.2020
747 Drizzle 5 998 100 10000 10.8 230 23:20 15.01.2020
748 Drizzle 5 997 100 10000 12.9 230 22:56 15.01.2020
749 Drizzle 5 997 100 10000 12.9 230 22:37 15.01.2020
750 Drizzle 6 997 100 10000 12.9 230 22:18 15.01.2020
751 Rain 6 995 93 8000 18.5 230 21:55 15.01.2020
752 Rain 6 995 93 8000 18.5 230 21:36 15.01.2020
753 Rain 6 995 93 8000 18.5 230 21:18 15.01.2020
754 Rain 7 995 93 8000 12.9 230 20:54 15.01.2020
755 Rain 7 995 93 8000 12.9 230 20:36 15.01.2020
756 Rain 7 995 93 8000 12.9 230 20:18 15.01.2020
757 Rain 6 994 93 5000 12.3 230 19:54 15.01.2020
758 Rain 6 994 93 5000 12.3 230 19:36 15.01.2020
759 Rain 7 994 93 5000 12.3 230 19:18 15.01.2020
760 Rain 7 994 93 5000 13.4 230 18:55 15.01.2020
761 Rain 7 994 93 5000 13.4 230 18:55 15.01.2020
762 Rain 7 994 93 5000 13.4 230 18:55 15.01.2020
763 Rain 7 994 93 5000 13.4 230 18:36 15.01.2020
764 Rain 7 994 93 5000 13.4 230 18:18 15.01.2020
765 Rain 7 994 93 5000 13.4 230 18:18 15.01.2020
766 Rain 7 993 100 8000 11.3 230 17:40 15.01.2020
767 Rain 7 993 100 8000 11.3 230 17:22 15.01.2020
768 Rain 7 993 93 9000 9.8 230 16:57 15.01.2020
769 Rain 7 993 93 9000 9.8 230 16:38 15.01.2020
770 Rain 7 993 93 9000 9.8 230 16:20 15.01.2020
771 Rain 7 993 93 9000 9.8 230 16:20 15.01.2020
772 Rain 7 993 93 9000 9.8 230 16:20 15.01.2020
773 Rain 7 993 93 9000 9.8 230 16:20 15.01.2020
774 Rain 7 993 93 9000 9.8 230 16:20 15.01.2020
775 Rain 8 992 87 5000 12.9 230 15:43 15.01.2020
776 Rain 8 992 87 5000 12.9 230 15:21 15.01.2020
777 Rain 8 992 81 10000 11.3 230 14:57 15.01.2020
778 Rain 8 992 81 10000 11.3 230 14:39 15.01.2020
779 Rain 8 992 81 10000 11.3 230 14:18 15.01.2020
780 Clouds 9 992 92 10000 10.8 230 13:44 15.01.2020
781 Clouds 9 992 92 10000 10.8 230 13:24 15.01.2020
782 Rain 6 992 75 10000 11.8 230 12:57 15.01.2020
783 Rain 6 992 75 10000 11.8 230 12:39 15.01.2020
784 Rain 6 992 75 10000 11.8 230 12:19 15.01.2020
785 Clouds 6 992 75 10000 11.8 230 11:55 15.01.2020
786 Clouds 6 992 75 10000 11.8 230 11:36 15.01.2020
787 Clouds 6 992 75 10000 11.8 230 11:36 15.01.2020
788 Clouds 6 992 75 10000 11.8 230 11:18 15.01.2020
789 Rain 6 991 70 10000 11.8 230 10:41 15.01.2020
790 Rain 6 991 70 10000 11.8 230 10:23 15.01.2020
791 Rain 6 991 70 10000 11.8 230 09:42 15.01.2020
792 Rain 6 991 70 10000 11.8 230 09:22 15.01.2020
793 Clouds 6 991 87 10000 13.4 230 08:55 15.01.2020
794 Clouds 6 991 87 10000 13.4 230 08:55 15.01.2020
795 Clouds 6 991 87 10000 13.4 230 08:37 15.01.2020
796 Clouds 6 991 87 10000 13.4 230 08:19 15.01.2020
797 Clouds 6 991 87 10000 12.3 230 07:43 15.01.2020
798 Clouds 6 991 87 10000 12.3 230 07:24 15.01.2020
799 Clouds 6 992 75 10000 13.4 230 06:44 15.01.2020
800 Clouds 6 992 75 10000 11.8 230 05:57 15.01.2020
801 Rain 6 992 75 10000 11.8 230 03:56 15.01.2020
802 Rain 7 992 81 6500 11.8 230 02:28 15.01.2020
803 Drizzle 8 991 81 10000 9.3 230 01:22 15.01.2020
804 Drizzle 8 992 81 5000 4.1 230 00:45 15.01.2020
805 Drizzle 8 992 81 5000 4.1 230 00:26 15.01.2020
806 Drizzle 9 991 70 10000 3.1 230 23:47 14.01.2020
807 Drizzle 9 991 70 10000 3.1 230 23:29 14.01.2020
808 Rain 10 991 76 10000 5.1 200 22:59 14.01.2020
809 Rain 10 991 76 10000 5.1 200 22:40 14.01.2020
810 Rain 9 991 76 10000 5.1 200 22:19 14.01.2020
811 Rain 9 991 76 10000 5.1 200 21:58 14.01.2020
812 Rain 9 990 81 9000 4.6 260 21:39 14.01.2020
813 Rain 10 990 81 9000 4.6 260 21:20 14.01.2020
814 Rain 10 991 71 10000 1.5 90 20:57 14.01.2020
815 Rain 6 990 94 0 1.23 159 20:39 14.01.2020
816 Rain 9 991 71 10000 2.1 90 20:19 14.01.2020
817 Rain 9 991 71 10000 2.1 90 19:55 14.01.2020
818 Rain 9 991 71 10000 2.1 90 19:37 14.01.2020
819 Rain 9 991 71 10000 2.1 90 19:18 14.01.2020
820 Rain 9 990 82 0 1.07 351 18:41 14.01.2020
821 Rain 9 991 76 10000 2.1 360 18:20 14.01.2020
822 Rain 9 991 76 10000 2.1 360 17:59 14.01.2020
823 Rain 9 991 76 10000 2.1 360 17:37 14.01.2020
824 Rain 9 991 76 10000 2.1 360 17:18 14.01.2020
825 Rain 9 991 76 10000 2.1 360 17:18 14.01.2020
826 Rain 9 992 70 10000 2.1 360 16:54 14.01.2020
827 Rain 9 992 70 10000 2.1 360 16:36 14.01.2020
828 Rain 9 992 70 10000 2.1 360 16:18 14.01.2020
829 Clouds 9 992 75 10000 2.24 158 15:42 14.01.2020
830 Clouds 9 992 75 10000 2.24 158 15:19 14.01.2020
831 Drizzle 8 992 81 10000 2.24 158 14:46 14.01.2020
832 Drizzle 8 992 81 10000 2.24 158 14:22 14.01.2020
833 Rain 7 993 87 10000 2.1 360 13:58 14.01.2020
834 Rain 7 993 87 10000 2.1 360 13:39 14.01.2020
835 Rain 8 993 87 10000 2.1 360 13:19 14.01.2020
836 Drizzle 8 994 93 10000 3.1 340 12:42 14.01.2020
837 Drizzle 8 994 93 10000 3.1 340 12:22 14.01.2020
838 Drizzle 7 993 100 10000 2.1 340 11:56 14.01.2020
839 Drizzle 7 994 100 2500 2.61 154 11:37 14.01.2020
840 Drizzle 7 994 100 2500 2.61 154 11:37 14.01.2020
841 Drizzle 7 994 100 2500 2.34 143 11:19 14.01.2020
842 Drizzle 7 994 100 2500 2.1 90 10:41 14.01.2020
843 Drizzle 7 994 100 2500 2.1 90 10:20 14.01.2020
844 Drizzle 7 994 100 1200 3.1 70 09:59 14.01.2020
845 Drizzle 7 994 100 1200 3.1 70 09:40 14.01.2020
846 Drizzle 7 994 100 1200 3.1 70 09:21 14.01.2020
847 Drizzle 7 994 100 3000 2.6 50 08:57 14.01.2020
848 Drizzle 7 994 100 3000 2.6 50 08:39 14.01.2020
849 Drizzle 7 994 100 3000 2.6 50 08:20 14.01.2020
850 Drizzle 8 994 100 3000 4.1 70 07:38 14.01.2020
851 Rain 9 995 93 2000 3.1 70 06:59 14.01.2020
852 Rain 9 995 93 2000 3.1 70 06:40 14.01.2020
853 Rain 9 995 100 3000 3.6 50 05:35 14.01.2020
854 Drizzle 10 996 87 5000 2 128 04:23 14.01.2020
855 Drizzle 10 996 93 5000 4.1 230 03:43 14.01.2020
856 Drizzle 10 996 93 5000 4.1 230 02:26 14.01.2020
857 Drizzle 10 995 93 10000 3.1 230 01:18 14.01.2020
858 Drizzle 12 995 87 10000 3.6 230 00:39 14.01.2020
859 Drizzle 12 995 87 10000 3.6 230 00:21 14.01.2020
860 Clouds 12 995 87 10000 5.7 230 23:38 13.01.2020
861 Clouds 12 995 87 10000 5.7 230 23:18 13.01.2020
862 Clouds 13 995 76 10000 4.1 230 22:54 13.01.2020
863 Clouds 13 995 76 10000 4.1 230 22:36 13.01.2020
864 Clouds 16 995 76 10000 4.1 230 22:18 13.01.2020
865 Clouds 16 995 76 10000 4.1 230 21:54 13.01.2020
866 Clouds 16 995 76 10000 4.1 230 21:54 13.01.2020
867 Clouds 16 995 76 10000 4.1 230 21:54 13.01.2020
868 Clouds 15 995 76 10000 2.1 230 21:36 13.01.2020
869 Clouds 15 995 76 10000 2.1 230 21:18 13.01.2020
870 Drizzle 15 995 71 10000 1.5 50 20:42 13.01.2020
871 Drizzle 15 995 71 10000 1.5 50 20:22 13.01.2020
872 Drizzle 15 996 71 10000 2.6 230 19:59 13.01.2020
873 Drizzle 15 996 71 10000 2.6 230 19:40 13.01.2020
874 Drizzle 15 996 71 10000 2.6 230 19:20 13.01.2020
875 Clouds 13 996 87 10000 2.1 230 18:58 13.01.2020
876 Clouds 13 996 87 10000 2.1 230 18:37 13.01.2020
877 Clouds 13 996 87 10000 2.1 230 18:19 13.01.2020
878 Clouds 12 997 87 10000 1.9 149 17:55 13.01.2020
879 Clouds 12 997 87 10000 1.9 149 17:36 13.01.2020
880 Clouds 12 997 87 10000 1.22 262 17:18 13.01.2020
881 Clouds 12 998 79 0 1.22 262 16:40 13.01.2020
882 Clouds 12 998 79 0 1.22 262 16:40 13.01.2020
883 Clouds 12 998 79 0 1.22 262 16:21 13.01.2020
884 Clouds 12 998 79 0 1.22 262 15:55 13.01.2020
885 Clouds 12 998 79 0 1.22 262 15:36 13.01.2020
886 Clouds 12 998 79 0 1.22 262 15:18 13.01.2020
887 Clouds 12 998 79 0 1.22 262 14:42 13.01.2020
888 Clouds 12 998 79 0 1.22 262 14:23 13.01.2020
889 Clouds 11 1000 80 0 1.96 358 13:58 13.01.2020
890 Clouds 11 1000 80 0 1.96 358 13:39 13.01.2020
891 Clouds 12 1000 78 0 1.57 348 13:21 13.01.2020
892 Clouds 12 1000 78 0 1.57 348 12:55 13.01.2020
893 Clouds 12 1000 78 0 1.57 348 12:36 13.01.2020
894 Clouds 9 1001 93 10000 1.57 348 12:18 13.01.2020
895 Clouds 9 1001 93 10000 1.57 348 11:39 13.01.2020
896 Clouds 9 1001 93 10000 1.74 1 11:20 13.01.2020
897 Clouds 9 1002 93 10000 2.1 230 10:57 13.01.2020
898 Clouds 9 1002 93 10000 2.1 230 10:57 13.01.2020
899 Clouds 9 1002 93 10000 2.1 230 10:39 13.01.2020
900 Clouds 9 1002 93 10000 2.1 230 10:20 13.01.2020
901 Clouds 9 1002 93 10000 1.74 1 09:56 13.01.2020
902 Clouds 9 1002 93 10000 1.74 1 09:38 13.01.2020
903 Clouds 9 1002 93 10000 1.74 1 09:19 13.01.2020
904 Clouds 10 1003 87 10000 2.6 230 08:39 13.01.2020
905 Clouds 10 1003 87 10000 2.6 230 08:20 13.01.2020
906 Clouds 10 1003 87 10000 1.68 341 07:47 13.01.2020
907 Clouds 10 1003 87 10000 1.68 341 07:27 13.01.2020
908 Rain 8 1002 93 0 1.68 341 06:42 13.01.2020
909 Clouds 10 1003 87 10000 2.6 50 06:20 13.01.2020
910 Clouds 10 1003 87 10000 2.6 50 05:23 13.01.2020
911 Drizzle 10 1003 87 10000 1.5 200 03:54 13.01.2020
912 Drizzle 10 1003 87 10000 1.5 200 03:22 13.01.2020
913 Rain 11 1003 76 10000 2.1 230 02:44 13.01.2020
914 Rain 11 1003 76 10000 2.1 230 02:24 13.01.2020
915 Rain 12 1003 71 10000 5.1 230 01:18 13.01.2020
916 Rain 12 1003 71 10000 6.2 230 00:41 13.01.2020
917 Rain 12 1003 71 10000 6.2 230 00:22 13.01.2020
918 Clouds 13 1003 62 10000 7.2 230 23:42 12.01.2020
919 Clouds 13 1003 62 10000 7.2 230 23:23 12.01.2020
920 Clouds 12 1003 58 10000 7.2 230 22:58 12.01.2020
921 Clouds 12 1003 58 10000 7.2 230 22:58 12.01.2020
922 Clouds 12 1003 58 10000 7.2 230 22:39 12.01.2020
923 Clouds 12 1003 58 10000 7.2 230 22:21 12.01.2020
924 Clouds 12 1003 58 10000 7.2 230 21:56 12.01.2020
925 Clouds 11 1004 71 10000 8.2 230 21:38 12.01.2020
926 Clouds 11 1004 71 10000 8.2 230 21:19 12.01.2020
927 Clouds 12 1003 62 10000 8.7 230 20:56 12.01.2020
928 Clouds 12 1003 62 10000 8.7 230 20:37 12.01.2020
929 Clouds 12 1003 62 10000 8.7 230 20:19 12.01.2020
930 Clouds 12 1003 62 10000 8.7 230 20:19 12.01.2020
931 Clouds 12 1003 66 10000 9.3 230 19:55 12.01.2020
932 Clouds 12 1003 66 10000 9.3 230 19:37 12.01.2020
933 Clouds 12 1003 66 10000 9.3 230 19:18 12.01.2020
934 Clouds 13 1003 62 10000 10.3 230 18:57 12.01.2020
935 Clouds 13 1003 62 10000 10.3 230 18:38 12.01.2020
936 Clouds 13 1003 62 10000 10.3 230 18:20 12.01.2020
937 Clouds 12 1003 66 10000 9.8 230 17:42 12.01.2020
938 Clouds 12 1003 66 10000 9.8 230 17:23 12.01.2020
939 Clouds 12 1002 66 10000 9.8 230 16:59 12.01.2020
940 Clouds 12 1002 66 10000 9.8 230 16:39 12.01.2020
941 Clouds 12 1002 66 10000 9.8 230 16:20 12.01.2020
942 Clouds 12 1002 66 10000 10.3 230 15:57 12.01.2020
943 Clouds 12 1002 66 10000 10.3 230 15:38 12.01.2020
944 Clouds 12 1002 66 10000 10.3 230 15:20 12.01.2020
945 Clouds 12 1002 66 10000 10.3 230 14:43 12.01.2020
946 Clouds 12 1002 66 10000 10.3 230 14:24 12.01.2020
947 Clouds 11 1002 71 10000 9.8 230 13:57 12.01.2020
948 Clouds 11 1002 71 10000 9.8 230 13:57 12.01.2020
949 Clouds 11 1002 71 10000 9.8 230 13:39 12.01.2020
950 Clouds 11 1002 71 10000 9.8 230 13:20 12.01.2020
951 Clouds 11 1002 71 10000 9.8 230 13:20 12.01.2020
952 Drizzle 10 1002 76 10000 8.7 230 12:57 12.01.2020
953 Drizzle 10 1002 76 10000 8.7 230 12:38 12.01.2020
954 Drizzle 10 1002 76 10000 8.7 230 12:19 12.01.2020
955 Clouds 11 1001 76 10000 4.6 230 11:42 12.01.2020
956 Clouds 11 1001 76 10000 4.6 230 11:22 12.01.2020
957 Rain 10 1001 81 10000 6.2 230 10:58 12.01.2020
958 Rain 10 1001 81 10000 6.2 230 10:40 12.01.2020
959 Rain 10 1001 81 10000 6.2 230 10:20 12.01.2020
960 Drizzle 10 1000 81 10000 7.2 230 09:43 12.01.2020
961 Drizzle 10 1000 81 10000 7.2 230 09:24 12.01.2020
962 Rain 9 999 93 10000 1.45 334 08:48 12.01.2020
963 Rain 9 999 93 10000 1.45 334 08:25 12.01.2020
964 Clouds 8 999 93 10000 2.1 230 07:58 12.01.2020
965 Clouds 8 999 93 10000 2.1 230 07:38 12.01.2020
966 Clouds 8 999 93 10000 2.1 230 07:19 12.01.2020
967 Rain 7 998 96 0 1.85 340 06:40 12.01.2020
968 Rain 7 998 96 0 1.85 340 05:58 12.01.2020
969 Clouds 9 999 87 10000 1.99 5 05:20 12.01.2020
970 Rain 9 999 93 10000 1.99 5 03:44 12.01.2020
971 Drizzle 10 1000 87 10000 1.5 200 02:55 12.01.2020
972 Drizzle 10 1000 87 10000 1.5 200 02:30 12.01.2020
973 Drizzle 10 1000 81 10000 3.6 230 01:40 12.01.2020
974 Drizzle 10 1000 81 10000 3.6 230 01:21 12.01.2020
975 Drizzle 11 1000 76 10000 5.7 230 00:40 12.01.2020
976 Drizzle 11 1000 76 10000 5.7 230 00:18 12.01.2020
977 Clouds 12 1000 66 10000 6.2 230 23:41 11.01.2020
978 Clouds 12 1000 66 10000 6.2 230 23:19 11.01.2020
979 Clouds 11 1000 66 10000 8.2 230 22:57 11.01.2020
980 Clouds 11 1000 66 10000 8.2 230 22:38 11.01.2020
981 Clouds 11 1000 66 10000 8.2 230 22:20 11.01.2020
982 Clouds 11 1000 66 10000 8.2 230 21:54 11.01.2020
983 Clouds 12 1000 66 10000 9.3 230 21:36 11.01.2020
984 Clouds 12 1000 66 10000 9.3 230 21:18 11.01.2020
985 Clouds 13 1000 62 10000 9.8 230 20:40 11.01.2020
986 Clouds 13 1000 62 10000 9.8 230 20:20 11.01.2020
987 Clouds 13 1000 58 10000 9.3 230 19:58 11.01.2020
988 Clouds 13 1000 58 10000 9.3 230 19:38 11.01.2020
989 Clouds 13 1000 58 10000 9.3 230 19:20 11.01.2020
990 Clouds 13 1000 62 10000 11.3 230 18:57 11.01.2020
991 Clouds 13 1000 62 10000 11.3 230 18:37 11.01.2020
992 Clouds 13 1000 62 10000 11.3 230 18:19 11.01.2020
993 Clouds 13 1000 66 10000 11.3 230 17:57 11.01.2020
994 Clouds 13 1000 66 10000 11.3 230 17:39 11.01.2020
995 Clouds 13 1000 66 10000 11.3 230 17:19 11.01.2020
996 Clouds 11 999 66 10000 12.9 230 16:44 11.01.2020
997 Clouds 11 999 66 10000 12.9 230 16:26 11.01.2020
998 Clouds 11 999 71 10000 11.8 230 15:58 11.01.2020
999 Clouds 11 999 71 10000 11.8 230 15:40 11.01.2020
1000 Clouds 11 999 71 10000 11.8 230 15:20 11.01.2020
1001 Clouds 10 998 76 10000 11.8 230 14:56 11.01.2020
1002 Clouds 10 998 76 10000 11.8 230 14:38 11.01.2020
1003 Clouds 10 998 76 10000 11.8 230 14:19 11.01.2020
1004 Clouds 10 998 76 10000 12.9 230 13:39 11.01.2020
1005 Clouds 10 998 76 10000 12.9 230 13:20 11.01.2020
1006 Clouds 9 997 76 10000 11.8 230 12:57 11.01.2020
1007 Clouds 9 997 76 10000 11.8 230 12:38 11.01.2020
1008 Clouds 9 997 76 10000 11.8 230 12:20 11.01.2020
1009 Rain 8 997 75 10000 10.3 230 11:46 11.01.2020
1010 Rain 8 997 75 10000 10.3 230 11:25 11.01.2020
1011 Rain 8 996 81 10000 10.8 230 10:50 11.01.2020
1012 Rain 8 996 81 10000 10.8 230 10:30 11.01.2020
1013 Rain 8 995 81 10000 9.8 230 09:55 11.01.2020
1014 Rain 8 995 81 10000 9.8 230 09:37 11.01.2020
1015 Rain 8 995 81 10000 9.8 230 09:18 11.01.2020
1016 Clouds 8 994 87 10000 11.3 230 08:41 11.01.2020
1017 Clouds 8 994 87 10000 11.3 230 08:21 11.01.2020
1018 Clouds 8 993 87 10000 11.3 230 07:43 11.01.2020
1019 Clouds 8 993 87 10000 11.3 230 07:25 11.01.2020
1020 Drizzle 9 993 87 10000 8.2 230 06:45 11.01.2020
1021 Drizzle 9 993 87 10000 2.1 230 05:33 11.01.2020
1022 Drizzle 9 992 93 10000 3.6 230 04:45 11.01.2020
1023 Drizzle 9 992 93 10000 3.6 230 04:27 11.01.2020
1024 Drizzle 9 991 93 10000 1 349 02:48 11.01.2020
1025 Drizzle 10 991 87 10000 1.45 168 01:51 11.01.2020
1026 Drizzle 10 991 87 10000 1.56 188 01:32 11.01.2020
1027 Drizzle 10 990 87 10000 3.1 230 00:58 11.01.2020
1028 Drizzle 10 990 87 10000 3.1 230 00:32 11.01.2020
1029 Drizzle 11 990 76 10000 5.1 230 23:59 10.01.2020
1030 Drizzle 11 990 76 10000 5.1 230 23:39 10.01.2020
1031 Drizzle 11 990 76 10000 5.1 230 23:21 10.01.2020
1032 Drizzle 12 990 58 10000 2.44 224 22:56 10.01.2020
1033 Drizzle 12 990 58 10000 2.44 224 22:38 10.01.2020
1034 Drizzle 12 990 58 10000 2.44 224 22:19 10.01.2020
1035 Drizzle 12 990 50 10000 2.1 360 21:55 10.01.2020
1036 Drizzle 12 990 50 10000 2.1 360 21:36 10.01.2020
1037 Drizzle 12 990 50 10000 2.1 360 21:18 10.01.2020
1038 Drizzle 12 990 54 10000 2.44 224 20:42 10.01.2020
1039 Drizzle 12 990 54 10000 1.29 256 20:24 10.01.2020
1040 Clouds 13 990 47 10000 2.78 20 19:55 10.01.2020
1041 Clouds 13 990 47 10000 2.78 20 19:37 10.01.2020
1042 Clouds 13 990 47 10000 2.78 20 19:19 10.01.2020
1043 Clouds 12 990 54 10000 2.78 20 18:41 10.01.2020
1044 Clouds 12 990 54 10000 2.78 20 18:19 10.01.2020
1045 Clouds 12 990 54 10000 2.78 20 18:19 10.01.2020
1046 Clouds 11 991 53 10000 2.78 20 17:57 10.01.2020
1047 Clouds 11 991 53 10000 2.78 20 17:39 10.01.2020
1048 Clouds 11 991 53 10000 0.98 62 17:20 10.01.2020
1049 Clouds 12 991 40 10000 0.98 62 16:55 10.01.2020
1050 Clouds 12 991 40 10000 0.98 62 16:37 10.01.2020
1051 Clouds 12 991 40 10000 0.98 62 16:19 10.01.2020
1052 Clouds 10 992 61 10000 0.98 62 15:55 10.01.2020
1053 Clouds 10 992 61 10000 0.98 62 15:36 10.01.2020
1054 Clouds 10 992 61 10000 0.98 62 15:18 10.01.2020
1055 Clouds 9 993 70 10000 0.98 62 14:54 10.01.2020
1056 Clouds 9 993 70 10000 0.98 62 14:36 10.01.2020
1057 Clouds 9 993 70 10000 2.1 349 14:18 10.01.2020
1058 Clouds 8 993 70 10000 2.1 349 13:41 10.01.2020
1059 Clouds 8 993 70 10000 2.08 348 13:23 10.01.2020
1060 Clouds 8 993 65 10000 2.08 348 12:58 10.01.2020
1061 Clouds 8 993 65 10000 2.08 348 12:38 10.01.2020
1062 Clouds 8 993 65 10000 2.08 348 12:19 10.01.2020
1063 Clouds 6 994 70 10000 2.08 348 11:55 10.01.2020
1064 Clouds 6 994 70 10000 2.08 348 11:37 10.01.2020
1065 Clouds 6 994 70 10000 1.16 316 11:18 10.01.2020
1066 Clouds 6 994 70 10000 1.16 316 11:18 10.01.2020
1067 Clouds 6 995 98 10000 6.7 230 10:43 10.01.2020
1068 Clouds 6 995 98 10000 6.7 230 10:24 10.01.2020
1069 Clouds 7 994 98 10000 6.2 230 09:59 10.01.2020
1070 Clouds 7 994 98 10000 6.2 230 09:40 10.01.2020
1071 Clouds 7 994 98 10000 6.2 230 09:22 10.01.2020
1072 Clouds 7 994 98 10000 10.3 230 08:43 10.01.2020
1073 Clouds 7 994 97 10000 10.3 230 08:24 10.01.2020
1074 Clouds 6 994 75 10000 11.3 230 07:46 10.01.2020
1075 Clouds 6 994 75 10000 11.3 230 07:28 10.01.2020
1076 Clouds 6 994 75 10000 13.4 230 06:50 10.01.2020
1077 Clouds 6 994 75 10000 13.4 230 06:26 10.01.2020
1078 Clouds 6 994 75 10000 13.4 230 05:52 10.01.2020
1079 Clouds 6 994 70 10000 13.4 230 03:46 10.01.2020
1080 Clouds 6 994 70 10000 13.4 230 03:46 10.01.2020
1081 Clouds 6 994 70 10000 13.4 230 03:27 10.01.2020
1082 Clouds 6 993 75 10000 13.9 230 02:51 10.01.2020
1083 Clouds 7 992 70 10000 14.4 230 01:49 10.01.2020
1084 Clouds 7 992 70 10000 14.4 230 01:28 10.01.2020
1085 Clouds 6 991 75 10000 15.9 230 00:47 10.01.2020
1086 Clouds 6 991 75 10000 15.9 230 00:29 10.01.2020
1087 Drizzle 7 990 75 10000 14.9 230 23:39 09.01.2020
1088 Drizzle 7 990 75 10000 14.9 230 23:39 09.01.2020
1089 Drizzle 7 990 75 10000 14.9 230 23:39 09.01.2020
1090 Drizzle 7 990 75 10000 14.9 230 23:39 09.01.2020
1091 Drizzle 7 990 75 10000 14.9 230 23:21 09.01.2020
1092 Rain 6 989 81 10000 14.9 230 22:58 09.01.2020
1093 Rain 6 989 81 10000 14.9 230 22:39 09.01.2020
1094 Rain 6 989 81 10000 14.9 230 22:19 09.01.2020
1095 -273 0 0 0 0 0 21:57 09.01.2020
1096 Rain 6 988 87 10000 17 230 21:57 09.01.2020
1097 Rain 6 988 87 10000 17 230 21:38 09.01.2020
1098 Rain 6 988 87 10000 17 230 21:20 09.01.2020
1099 Rain 6 988 87 10000 17 230 20:58 09.01.2020
1100 Rain 6 988 87 10000 17 230 20:39 09.01.2020
1101 Rain 6 988 87 10000 17 230 20:20 09.01.2020
1102 Rain 6 986 87 10000 16.5 230 19:58 09.01.2020
1103 Rain 6 986 87 10000 16.5 230 19:39 09.01.2020
1104 Rain 6 986 87 10000 16.5 230 19:20 09.01.2020
1105 Rain 6 986 87 10000 18 230 18:56 09.01.2020
1106 Rain 6 986 87 10000 18 230 18:38 09.01.2020
1107 Rain 6 986 87 10000 18 230 18:20 09.01.2020
1108 Rain 6 985 81 10000 17 230 17:41 09.01.2020
1109 Rain 6 985 81 10000 17 230 17:19 09.01.2020
1110 Rain 6 985 81 10000 16.5 230 16:56 09.01.2020
1111 Rain 6 985 81 10000 16.5 230 16:37 09.01.2020
1112 Rain 6 985 81 10000 16.5 230 16:19 09.01.2020
1113 Drizzle 6 984 81 10000 15.9 230 15:42 09.01.2020
1114 Drizzle 6 984 81 10000 15.9 230 15:21 09.01.2020
1115 Drizzle 6 984 87 10000 17 230 14:57 09.01.2020
1116 Drizzle 6 984 87 10000 17 230 14:38 09.01.2020
1117 Drizzle 6 984 87 10000 17 230 14:18 09.01.2020
1118 Drizzle 6 984 70 10000 16.5 230 13:55 09.01.2020
1119 Drizzle 6 984 70 10000 16.5 230 13:37 09.01.2020
1120 Drizzle 6 984 70 10000 16.5 230 13:18 09.01.2020
1121 Drizzle 6 983 81 10000 12.3 230 12:42 09.01.2020
1122 Drizzle 6 983 81 10000 12.3 230 12:24 09.01.2020
1123 Rain 6 983 81 10000 15.4 230 11:59 09.01.2020
1124 Rain 6 983 81 10000 15.4 230 11:41 09.01.2020
1125 Rain 6 983 81 10000 15.4 230 11:23 09.01.2020
1126 Rain 6 983 75 10000 15.4 230 10:57 09.01.2020
1127 Rain 6 983 75 10000 15.4 230 10:39 09.01.2020
1128 Rain 6 983 75 10000 15.4 230 10:20 09.01.2020
1129 Rain 6 982 75 10000 15.4 230 09:41 09.01.2020
1130 Rain 6 982 75 10000 15.4 230 09:41 09.01.2020
1131 Rain 6 982 75 10000 15.4 230 09:23 09.01.2020
1132 Rain 6 981 81 10000 17 230 08:57 09.01.2020
1133 Rain 6 981 81 10000 17 230 08:38 09.01.2020
1134 Rain 6 981 81 10000 17 230 08:20 09.01.2020
1135 Rain 6 981 81 10000 14.4 250 07:46 09.01.2020
1136 Rain 6 981 81 10000 14.4 250 07:28 09.01.2020
1137 Rain 6 981 93 10000 12.9 230 06:40 09.01.2020
1138 Rain 6 981 93 10000 12.9 230 06:21 09.01.2020
1139 Rain 6 981 93 10000 11.3 250 05:51 09.01.2020
1140 Rain 7 981 81 10000 12.9 230 04:54 09.01.2020
1141 Rain 7 981 81 10000 12.9 230 04:36 09.01.2020
1142 Rain 7 980 81 10000 12.3 230 03:26 09.01.2020
1143 Rain 7 980 81 10000 11.8 230 02:33 09.01.2020
1144 Rain 7 980 81 10000 12.3 230 01:41 09.01.2020
1145 Rain 7 979 87 10000 12.9 230 00:56 09.01.2020
1146 Rain 7 979 87 10000 12.9 230 00:36 09.01.2020
1147 Rain 7 979 87 10000 12.9 230 00:18 09.01.2020
1148 Rain 7 979 87 10000 13.4 230 23:39 08.01.2020
1149 Rain 7 979 87 10000 13.4 230 23:20 08.01.2020
1150 Rain 7 979 87 10000 11.8 230 22:40 08.01.2020
1151 Rain 7 979 87 10000 11.8 230 22:21 08.01.2020
1152 Rain 7 979 93 10000 9.3 230 21:58 08.01.2020
1153 Rain 7 979 93 10000 9.3 230 21:40 08.01.2020
1154 Rain 7 979 93 10000 9.3 230 21:40 08.01.2020
1155 Rain 7 979 93 10000 9.3 230 21:20 08.01.2020
1156 Rain 6 979 93 10000 10.3 230 20:59 08.01.2020
1157 Rain 6 979 93 10000 10.3 230 20:40 08.01.2020
1158 Rain 6 979 93 10000 10.3 230 20:21 08.01.2020
1159 Drizzle 6 979 87 10000 10.3 230 19:58 08.01.2020
1160 Drizzle 6 979 87 10000 10.3 230 19:38 08.01.2020
1161 Drizzle 6 979 87 10000 10.3 230 19:19 08.01.2020
1162 Rain 7 979 87 10000 10.3 230 18:57 08.01.2020
1163 Rain 7 979 87 10000 10.3 230 18:38 08.01.2020
1164 Rain 7 979 87 10000 10.3 230 18:19 08.01.2020
1165 Rain 6 979 87 5000 8.7 230 17:56 08.01.2020
1166 Rain 6 979 87 5000 8.7 230 17:37 08.01.2020
1167 Rain 6 979 87 5000 8.7 230 17:18 08.01.2020
1168 Rain 6 979 87 6000 7.2 230 16:55 08.01.2020
1169 Rain 6 979 87 6000 7.2 230 16:37 08.01.2020
1170 Rain 6 979 87 6000 7.2 230 16:18 08.01.2020
1171 Rain 6 979 93 6000 8.2 230 15:44 08.01.2020
1172 Rain 6 979 93 6000 8.2 230 15:21 08.01.2020
1173 Rain 6 979 87 8000 7.2 230 14:58 08.01.2020
1174 Rain 6 979 87 8000 7.2 230 14:58 08.01.2020
1175 Rain 6 979 87 8000 7.2 230 14:40 08.01.2020
1176 Rain 6 979 87 8000 7.2 230 14:20 08.01.2020
1177 Rain 6 979 87 8000 7.2 230 14:20 08.01.2020
1178 Rain 6 979 87 6000 7.2 230 13:41 08.01.2020
1179 Rain 6 979 87 6000 7.2 230 13:21 08.01.2020
1180 Rain 5 979 93 6000 7.2 230 12:54 08.01.2020
1181 Rain 5 979 93 6000 7.2 230 12:36 08.01.2020
1182 Rain 5 979 93 6000 7.2 230 12:18 08.01.2020
1183 Rain 6 979 87 6000 7.7 230 11:47 08.01.2020
1184 Rain 6 979 87 6000 7.7 230 11:19 08.01.2020
1185 Rain 6 978 93 8000 9.3 230 10:57 08.01.2020
1186 Rain 6 978 93 8000 9.3 230 10:39 08.01.2020
1187 Rain 6 978 93 8000 9.3 230 10:19 08.01.2020
1188 Rain 7 978 93 8000 7.2 230 09:42 08.01.2020
1189 Rain 7 978 93 8000 7.2 230 09:20 08.01.2020
1190 Rain 7 978 93 10000 5.7 230 08:57 08.01.2020
1191 Rain 7 978 93 10000 5.7 230 08:38 08.01.2020
1192 Rain 7 978 93 10000 5.7 230 08:20 08.01.2020
1193 Rain 7 979 100 10000 3.6 200 07:50 08.01.2020
1194 Rain 7 979 100 10000 3.6 200 07:32 08.01.2020
1195 Rain 8 980 93 10000 1.5 250 06:50 08.01.2020
1196 Rain 8 980 93 10000 1.5 250 06:32 08.01.2020
1197 Rain 8 980 93 10000 3.1 230 05:54 08.01.2020
1198 Rain 8 980 93 10000 3.1 230 05:18 08.01.2020
1199 Drizzle 8 981 93 10000 3.6 90 04:27 08.01.2020
1200 Drizzle 9 980 87 10000 7.7 140 02:45 08.01.2020
1201 Drizzle 9 980 87 10000 7.7 140 02:27 08.01.2020
1202 Clouds 10 980 87 10000 4.6 140 01:50 08.01.2020
1203 Clouds 10 980 87 10000 4.6 140 01:26 08.01.2020
1204 Rain 10 980 87 10000 2.6 90 00:42 08.01.2020
1205 Rain 10 980 87 10000 2.6 90 00:21 08.01.2020
1206 Drizzle 10 980 93 10000 4.1 90 23:44 07.01.2020
1207 Drizzle 10 980 93 10000 4.1 90 23:20 07.01.2020
1208 Drizzle 11 980 81 10000 4.1 50 22:41 07.01.2020
1209 Drizzle 11 980 81 10000 4.1 50 22:21 07.01.2020
1210 Drizzle 11 980 81 10000 4.6 90 21:57 07.01.2020
1211 Drizzle 11 980 81 10000 4.6 90 21:39 07.01.2020
1212 Drizzle 11 980 81 10000 4.6 90 21:21 07.01.2020
1213 Drizzle 13 981 66 10000 5.1 290 20:57 07.01.2020
1214 Drizzle 13 981 66 10000 5.1 290 20:38 07.01.2020
1215 Drizzle 13 981 66 10000 5.1 290 20:20 07.01.2020
1216 Drizzle 14 980 62 10000 4.6 320 19:55 07.01.2020
1217 Drizzle 14 980 62 10000 4.6 320 19:36 07.01.2020
1218 Drizzle 14 980 62 10000 4.6 320 19:18 07.01.2020
1219 Drizzle 14 980 62 10000 4.6 320 19:18 07.01.2020
1220 Clouds 15 980 59 10000 7.2 320 18:55 07.01.2020
1221 Clouds 15 980 59 10000 7.2 320 18:36 07.01.2020
1222 Clouds 15 980 59 10000 7.2 320 18:18 07.01.2020
1223 Clouds 16 981 62 10000 3.1 320 17:40 07.01.2020
1224 Clouds 16 981 62 10000 3.1 320 17:22 07.01.2020
1225 Clouds 15 981 58 10000 3.6 320 16:57 07.01.2020
1226 Clouds 15 981 58 10000 3.6 320 16:38 07.01.2020
1227 Clouds 15 981 58 10000 3.6 320 16:38 07.01.2020
1228 Clouds 15 981 58 10000 3.6 320 16:38 07.01.2020
1229 Clouds 15 981 58 10000 3.6 320 16:19 07.01.2020
1230 Clouds 14 982 58 10000 5.69 3 15:58 07.01.2020
1231 Clouds 14 982 58 10000 5.69 3 15:40 07.01.2020
1232 Clouds 14 982 58 10000 5.69 3 15:22 07.01.2020
1233 Clouds 15 982 54 10000 5.69 3 14:55 07.01.2020
1234 Clouds 15 982 54 10000 5.69 3 14:37 07.01.2020
1235 Clouds 15 982 54 10000 4.99 343 14:18 07.01.2020
1236 Clouds 15 982 54 10000 4.99 343 13:40 07.01.2020
1237 Clouds 15 982 54 10000 5.45 356 13:19 07.01.2020
1238 Clouds 14 983 62 10000 3.6 180 12:42 07.01.2020
1239 Clouds 14 983 62 10000 3.6 180 12:42 07.01.2020
1240 Clouds 14 983 62 10000 3.6 180 12:21 07.01.2020
1241 Clouds 14 983 58 10000 5.45 356 11:57 07.01.2020
1242 Clouds 14 983 58 10000 5.45 356 11:38 07.01.2020
1243 Clouds 14 983 58 10000 2.99 10 11:20 07.01.2020
1244 Clouds 14 983 58 10000 6.7 320 10:42 07.01.2020
1245 Clouds 14 983 58 10000 6.7 320 10:24 07.01.2020
1246 Clouds 13 983 62 10000 8.2 340 09:59 07.01.2020
1247 Clouds 13 983 62 10000 8.2 340 09:38 07.01.2020
1248 Clouds 13 983 62 10000 8.2 340 09:20 07.01.2020
1249 Clouds 13 983 62 10000 8.2 340 08:46 07.01.2020
1250 Clouds 13 983 62 10000 8.2 340 08:26 07.01.2020
1251 Clouds 14 984 58 10000 7.2 340 07:54 07.01.2020
1252 Clouds 14 984 58 10000 7.2 340 07:28 07.01.2020
1253 Clouds 12 985 71 10000 2.6 320 06:54 07.01.2020
1254 Clouds 12 985 71 10000 2.6 320 06:34 07.01.2020
1255 Clouds 12 985 71 10000 2.6 320 05:55 07.01.2020
1256 Clouds 12 985 71 10000 2.6 320 05:35 07.01.2020
1257 Clouds 12 986 62 10000 2.1 230 03:29 07.01.2020
1258 Clouds 9 987 70 10000 1.5 180 02:24 07.01.2020
1259 Clouds 10 988 66 10000 3.1 90 01:57 07.01.2020
1260 Clouds 10 988 66 10000 3.1 90 01:32 07.01.2020
1261 Clouds 12 988 58 10000 2.6 140 00:37 07.01.2020
1262 Clouds 12 988 58 10000 2.6 140 00:19 07.01.2020
1263 Clouds 13 988 54 10000 3.1 140 23:55 06.01.2020
1264 Clouds 13 988 54 10000 3.1 140 23:36 06.01.2020
1265 Clouds 13 988 54 10000 3.1 140 23:36 06.01.2020
1266 Clouds 13 988 54 10000 3.1 140 23:18 06.01.2020
1267 Clouds 10 989 61 10000 2.6 140 22:42 06.01.2020
1268 Clouds 11 989 61 10000 2.6 140 22:22 06.01.2020
1269 Clouds 11 989 66 10000 1.5 140 21:57 06.01.2020
1270 Clouds 11 989 66 10000 1.5 140 21:38 06.01.2020
1271 Clouds 11 989 66 10000 1.5 140 21:20 06.01.2020
1272 Clouds 11 989 66 10000 1.5 140 21:20 06.01.2020
1273 Clouds 11 989 66 10000 1.5 140 21:20 06.01.2020
1274 Clouds 11 990 71 10000 2.1 140 20:56 06.01.2020
1275 Clouds 11 990 71 10000 2.1 140 20:38 06.01.2020
1276 Clouds 11 990 71 10000 2.1 140 20:20 06.01.2020
1277 Rain 11 990 66 10000 3.1 140 19:56 06.01.2020
1278 Rain 11 990 66 10000 3.1 140 19:56 06.01.2020
1279 Rain 11 990 66 10000 3.1 140 19:37 06.01.2020
1280 Rain 11 990 66 10000 3.1 140 19:19 06.01.2020
1281 Rain 11 990 66 10000 3.1 140 19:19 06.01.2020
1282 Drizzle 11 991 66 10000 2.6 140 18:46 06.01.2020
1283 Drizzle 11 991 66 10000 2.6 140 18:21 06.01.2020
1284 Clouds 11 991 66 10000 3.1 180 17:57 06.01.2020
1285 Clouds 11 991 66 10000 3.1 180 17:37 06.01.2020
1286 Clouds 11 991 66 10000 3.1 180 17:37 06.01.2020
1287 Clouds 11 991 66 10000 3.1 180 17:18 06.01.2020
1288 Clouds 10 992 71 10000 4.1 140 16:44 06.01.2020
1289 Clouds 11 992 71 10000 4.1 140 16:24 06.01.2020
1290 Clouds 11 992 76 10000 4.39 0 15:59 06.01.2020
1291 Clouds 11 992 76 10000 4.39 0 15:38 06.01.2020
1292 Clouds 11 992 76 10000 4.39 0 15:18 06.01.2020
1293 Clouds 8 993 81 10000 3.1 90 14:56 06.01.2020
1294 Clouds 8 993 81 10000 3.1 90 14:37 06.01.2020
1295 Clouds 8 993 81 10000 3.1 90 14:18 06.01.2020
1296 Clouds 8 993 81 10000 3.1 90 14:18 06.01.2020
1297 Clouds 8 993 81 10000 3.1 90 14:18 06.01.2020
1298 Clouds 7 993 87 10000 4.1 90 13:41 06.01.2020
1299 Rain 8 994 87 10000 2.6 90 13:22 06.01.2020
1300 Clouds 7 995 81 10000 2.6 50 12:59 06.01.2020
1301 Clouds 7 995 81 10000 2.6 50 12:41 06.01.2020
1302 Clouds 7 995 81 10000 2.6 50 12:20 06.01.2020
1303 Clouds 7 995 81 10000 2.6 50 12:20 06.01.2020
1304 Rain 7 995 81 10000 2.6 360 11:56 06.01.2020
1305 Rain 7 995 81 10000 2.6 360 11:38 06.01.2020
1306 Rain 7 995 81 10000 2.6 360 11:20 06.01.2020
1307 Drizzle 7 996 75 10000 2.6 320 10:42 06.01.2020
1308 Drizzle 7 996 75 10000 2.6 320 10:42 06.01.2020
1309 Drizzle 7 996 75 10000 2.6 320 10:21 06.01.2020
1310 Drizzle 7 996 93 10000 4.1 270 09:42 06.01.2020
1311 Drizzle 7 996 93 10000 4.1 270 09:24 06.01.2020
1312 Drizzle 7 996 93 10000 4.1 270 09:24 06.01.2020
1313 Clouds 7 996 93 10000 7.2 230 08:58 06.01.2020
1314 Clouds 7 996 93 10000 7.2 230 08:58 06.01.2020
1315 Clouds 7 996 93 10000 7.2 230 08:58 06.01.2020
1316 Clouds 7 996 93 10000 7.2 230 08:39 06.01.2020
1317 Clouds 7 996 92 10000 7.2 230 08:21 06.01.2020
1318 Clouds 7 996 65 10000 8.7 230 07:46 06.01.2020
1319 Clouds 7 996 65 10000 8.7 230 07:21 06.01.2020
1320 Clouds 7 996 75 10000 9.3 230 06:38 06.01.2020
1321 Rain 8 997 65 10000 10.3 230 05:49 06.01.2020
1322 Rain 8 997 65 10000 10.3 230 05:28 06.01.2020
1323 Clouds 8 996 75 10000 10.8 230 04:24 06.01.2020
1324 Clouds 8 996 75 10000 11.8 230 03:52 06.01.2020
1325 Clouds 9 996 70 10000 11.3 230 02:32 06.01.2020
1326 Clouds 10 995 66 10000 11.8 230 01:55 06.01.2020
1327 Clouds 10 995 66 10000 11.8 230 01:32 06.01.2020
1328 Clouds 11 994 62 10000 11.3 230 00:48 06.01.2020
1329 Clouds 11 994 62 10000 11.3 230 00:29 06.01.2020
1330 Clouds 11 994 62 10000 11.8 230 23:59 05.01.2020
1331 Clouds 11 994 62 10000 11.8 230 23:40 05.01.2020
1332 Clouds 11 994 62 10000 11.8 230 23:21 05.01.2020
1333 Clouds 10 993 66 10000 11.3 230 22:40 05.01.2020
1334 Clouds 10 993 66 10000 11.3 230 22:40 05.01.2020
1335 Clouds 10 993 66 10000 11.3 230 22:21 05.01.2020
1336 Rain 10 993 76 10000 12.3 230 21:59 05.01.2020
1337 Rain 10 993 76 10000 12.3 230 21:40 05.01.2020
1338 Rain 10 993 76 10000 12.3 230 21:20 05.01.2020
1339 Rain 11 992 76 10000 14.4 230 20:58 05.01.2020
1340 Rain 11 992 76 10000 14.4 230 20:39 05.01.2020
1341 Rain 11 992 76 10000 14.4 230 20:19 05.01.2020
1342 Drizzle 14 992 54 10000 5.7 230 19:58 05.01.2020
1343 Drizzle 14 992 54 10000 5.7 230 19:39 05.01.2020
1344 Drizzle 14 992 54 10000 5.7 230 19:39 05.01.2020
1345 Drizzle 14 992 54 10000 5.7 230 19:20 05.01.2020
1346 Clouds 15 992 44 10000 2.1 90 18:56 05.01.2020
1347 Clouds 15 992 44 10000 2.1 90 18:38 05.01.2020
1348 Clouds 15 992 44 10000 2.1 90 18:19 05.01.2020
1349 Clouds 15 992 44 10000 2.1 90 18:19 05.01.2020
1350 Clouds 15 992 44 10000 3.1 140 17:58 05.01.2020
1351 Clouds 15 992 44 10000 3.1 140 17:39 05.01.2020
1352 Clouds 15 992 44 10000 3.1 140 17:20 05.01.2020
1353 Clouds 15 992 47 10000 5.1 360 16:57 05.01.2020
1354 Clouds 15 992 47 10000 5.1 360 16:39 05.01.2020
1355 Clouds 14 992 47 10000 5.1 360 16:19 05.01.2020
1356 Clouds 14 992 47 10000 6.7 360 15:40 05.01.2020
1357 Clouds 14 992 47 10000 6.7 360 15:20 05.01.2020
1358 Clouds 12 992 54 10000 5.7 320 14:56 05.01.2020
1359 Clouds 12 992 54 10000 5.7 320 14:38 05.01.2020
1360 Clouds 12 992 54 10000 5.7 320 14:20 05.01.2020
1361 Clouds 11 993 54 10000 8.2 320 13:57 05.01.2020
1362 Clouds 11 993 54 10000 8.2 320 13:38 05.01.2020
1363 Clouds 11 993 54 10000 8.2 320 13:38 05.01.2020
1364 Clouds 11 993 54 10000 8.2 320 13:19 05.01.2020
1365 Clouds 11 993 54 10000 8.2 320 13:19 05.01.2020
1366 Clouds 12 993 54 10000 10.3 320 12:56 05.01.2020
1367 Clouds 12 993 54 10000 10.3 320 12:37 05.01.2020
1368 Clouds 12 993 54 10000 10.3 320 12:19 05.01.2020
1369 Clouds 11 994 53 10000 8.7 320 11:44 05.01.2020
1370 Clouds 11 994 53 10000 8.7 320 11:20 05.01.2020
1371 Clouds 10 994 57 10000 7.7 340 10:59 05.01.2020
1372 Clouds 10 994 57 10000 7.7 340 10:40 05.01.2020
1373 Clouds 10 994 57 10000 7.7 340 10:19 05.01.2020
1374 Clouds 10 995 66 10000 4.6 320 09:42 05.01.2020
1375 Clouds 10 995 66 10000 4.6 320 09:22 05.01.2020
1376 Clouds 10 995 57 10000 5.1 340 08:52 05.01.2020
1377 Clouds 10 995 57 10000 5.1 340 08:32 05.01.2020
1378 Clouds 10 996 66 10000 4.6 320 07:59 05.01.2020
1379 Clouds 10 996 66 10000 4.6 320 07:39 05.01.2020
1380 Clouds 10 996 66 10000 4.6 320 07:20 05.01.2020
1381 Clouds 9 997 76 10000 5.1 360 06:44 05.01.2020
1382 Clouds 10 998 71 10000 5.7 20 05:38 05.01.2020
1383 Clouds 11 1000 62 10000 5.1 360 04:55 05.01.2020
1384 Clouds 11 1000 62 10000 5.1 360 04:18 05.01.2020
1385 Clouds 11 1000 62 10000 5.1 360 04:18 05.01.2020
1386 Clouds 11 1000 62 10000 4.6 360 03:26 05.01.2020
1387 Clouds 11 1001 62 10000 5.1 360 02:32 05.01.2020
1388 Clouds 11 1001 62 10000 3.1 90 01:49 05.01.2020
1389 Clouds 11 1001 62 10000 3.1 90 01:20 05.01.2020
1390 Rain 12 1002 54 10000 7.7 90 00:57 05.01.2020
1391 Rain 12 1002 54 10000 7.7 90 00:57 05.01.2020
1392 Rain 12 1002 54 10000 7.7 90 00:39 05.01.2020
1393 Rain 12 1002 54 10000 7.7 90 00:19 05.01.2020
1394 Clouds 14 1002 88 10000 3.6 90 23:41 04.01.2020
1395 Clouds 14 1002 63 10000 3.6 90 23:20 04.01.2020
1396 Clouds 15 1003 38 10000 2.6 230 22:56 04.01.2020
1397 Clouds 15 1003 38 10000 2.6 230 22:38 04.01.2020
1398 Clouds 15 1003 38 10000 2.6 230 22:20 04.01.2020
1399 Clouds 15 1004 38 10000 2.6 230 21:55 04.01.2020
1400 Clouds 15 1004 38 10000 2.6 230 21:36 04.01.2020
1401 Clouds 14 1004 38 10000 2.6 230 21:18 04.01.2020
1402 Clouds 14 1004 63 10000 2.6 230 20:41 04.01.2020
1403 Clouds 14 1004 63 10000 2.6 230 20:22 04.01.2020
1404 Clouds 15 1004 41 10000 4.6 230 19:57 04.01.2020
1405 Clouds 15 1004 41 10000 4.6 230 19:39 04.01.2020
1406 Clouds 15 1004 41 10000 4.6 230 19:21 04.01.2020
1407 Clouds 14 1005 43 10000 5.1 230 18:57 04.01.2020
1408 Clouds 14 1005 43 10000 5.1 230 18:38 04.01.2020
1409 Clouds 14 1005 43 10000 5.1 230 18:19 04.01.2020
1410 Clouds 12 1005 50 10000 6.2 230 17:42 04.01.2020
1411 Clouds 12 1005 50 10000 6.2 230 17:24 04.01.2020
1412 Clouds 12 1006 50 10000 4.6 230 16:59 04.01.2020
1413 Clouds 12 1006 50 10000 4.6 230 16:40 04.01.2020
1414 Clouds 12 1006 50 10000 4.6 230 16:22 04.01.2020
1415 Clouds 10 1006 50 10000 5.1 230 15:56 04.01.2020
1416 Clouds 10 1006 50 10000 5.1 230 15:38 04.01.2020
1417 Clouds 10 1006 50 10000 5.1 230 15:19 04.01.2020
1418 Clouds 10 1006 71 0 5.1 230 14:55 04.01.2020
1419 Clouds 10 1006 71 0 5.1 230 14:55 04.01.2020
1420 Clouds 10 1006 71 0 5.1 230 14:36 04.01.2020
1421 Clouds 10 1006 71 0 5.1 230 14:18 04.01.2020
1422 Clouds 9 1006 76 0 1.53 321 13:54 04.01.2020
1423 Clouds 9 1006 76 0 1.53 321 13:36 04.01.2020
1424 Clouds 9 1007 76 10000 3.1 280 13:18 04.01.2020
1425 Clouds 9 1006 76 10000 1.5 324 12:41 04.01.2020
1426 Clouds 8 1007 75 10000 1.5 324 12:19 04.01.2020
1427 Clouds 8 1007 75 10000 1.5 324 11:57 04.01.2020
1428 Clouds 8 1007 75 10000 1.5 324 11:38 04.01.2020
1429 Clouds 8 1007 75 10000 1.39 356 11:19 04.01.2020
1430 Clouds 8 1007 70 10000 2.1 320 10:42 04.01.2020
1431 Clouds 8 1007 70 10000 2.1 320 10:23 04.01.2020
1432 Clouds 7 1006 75 10000 3.6 230 09:58 04.01.2020
1433 Clouds 7 1006 75 10000 3.6 230 09:39 04.01.2020
1434 Clouds 7 1006 75 10000 3.6 230 09:21 04.01.2020
1435 Clouds 8 1006 70 10000 4.1 230 08:41 04.01.2020
1436 Clouds 8 1006 70 10000 4.1 230 08:21 04.01.2020
1437 Clouds 8 1006 70 10000 6.7 230 07:42 04.01.2020
1438 Clouds 8 1006 70 10000 6.7 230 07:20 04.01.2020
1439 Clouds 9 1006 66 10000 6.7 230 06:33 04.01.2020
1440 Clouds 9 1006 66 10000 4.1 230 05:22 04.01.2020
1441 Clouds 9 1007 61 10000 6.7 230 04:42 04.01.2020
1442 Clouds 9 1007 61 10000 6.7 230 04:24 04.01.2020
1443 Clouds 9 1006 66 10000 5.7 230 03:18 04.01.2020
1444 Rain 9 1006 70 10000 6.7 230 02:21 04.01.2020
1445 Rain 9 1006 70 10000 9.3 230 01:55 04.01.2020
1446 Rain 9 1006 70 10000 9.3 230 01:32 04.01.2020
1447 Clouds 10 1006 66 10000 8.2 230 00:46 04.01.2020
1448 Clouds 10 1006 66 10000 8.2 230 00:26 04.01.2020
1449 Clouds 11 1005 62 10000 4.1 140 23:48 03.01.2020
1450 Clouds 11 1005 62 10000 4.1 140 23:25 03.01.2020
1451 Clouds 13 1005 54 10000 7.7 140 22:54 03.01.2020
1452 Clouds 13 1005 54 10000 7.7 140 22:36 03.01.2020
1453 Clouds 14 1005 54 10000 7.7 140 22:18 03.01.2020
1454 Clouds 15 1004 38 10000 5.1 230 21:54 03.01.2020
1455 Clouds 15 1004 38 10000 5.1 230 21:36 03.01.2020
1456 Clouds 15 1004 38 10000 5.1 230 21:18 03.01.2020
1457 Clouds 16 1005 76 10000 3.1 180 20:41 03.01.2020
1458 Clouds 16 1005 49 10000 3.1 180 20:19 03.01.2020
1459 Clouds 14 1005 49 10000 3.1 180 19:57 03.01.2020
1460 Clouds 14 1005 49 10000 3.1 180 19:39 03.01.2020
1461 Clouds 14 1005 49 10000 3.1 180 19:21 03.01.2020
1462 Clouds 13 1005 43 10000 3.6 230 18:44 03.01.2020
1463 Clouds 13 1005 43 10000 3.6 230 18:44 03.01.2020
1464 Clouds 13 1005 43 10000 3.6 230 18:26 03.01.2020
1465 Clouds 12 1006 43 10000 4.1 230 17:56 03.01.2020
1466 Clouds 12 1006 43 10000 4.1 230 17:38 03.01.2020
1467 Clouds 12 1006 43 10000 4.1 230 17:19 03.01.2020
1468 Clouds 11 1005 54 10000 4.6 230 16:43 03.01.2020
1469 Clouds 11 1005 54 10000 4.6 230 16:24 03.01.2020
1470 Clouds 11 1006 50 10000 3.1 230 15:58 03.01.2020
1471 Clouds 11 1006 50 10000 3.1 230 15:40 03.01.2020
1472 Clouds 11 1006 50 10000 3.1 230 15:18 03.01.2020
1473 Clouds 10 1006 53 10000 3.6 290 14:39 03.01.2020
1474 Clouds 10 1006 53 10000 3.6 290 14:20 03.01.2020
1475 Clouds 9 1007 53 10000 2.6 290 13:56 03.01.2020
1476 Clouds 9 1007 53 10000 2.6 290 13:37 03.01.2020
1477 Clouds 9 1007 53 10000 2.6 290 13:19 03.01.2020
1478 Clouds 8 1007 75 10000 3.6 290 12:39 03.01.2020
1479 Clouds 8 1007 75 10000 3.6 290 12:21 03.01.2020
1480 Clouds 7 1007 70 10000 3.1 270 11:49 03.01.2020
1481 Clouds 7 1007 70 10000 3.1 270 11:30 03.01.2020
1482 Clouds 7 1007 83 10000 4.1 290 10:47 03.01.2020
1483 Clouds 7 1007 83 10000 4.1 290 10:28 03.01.2020
1484 Clouds 7 1007 83 10000 3.6 290 09:59 03.01.2020
1485 Clouds 7 1007 83 10000 3.6 290 09:41 03.01.2020
1486 Clouds 7 1007 83 10000 3.6 290 09:22 03.01.2020
1487 Clouds 7 1007 83 10000 5.1 270 08:57 03.01.2020
1488 Clouds 7 1007 83 10000 5.1 270 08:38 03.01.2020
1489 Clouds 7 1007 76 10000 5.1 270 08:20 03.01.2020
1490 Clouds 8 1007 76 10000 4.1 290 07:41 03.01.2020
1491 Clouds 8 1007 76 10000 4.1 290 07:19 03.01.2020
1492 Clouds 9 1007 49 10000 7.2 230 06:54 03.01.2020
1493 Clouds 9 1007 49 10000 7.2 230 06:35 03.01.2020
1494 Clouds 9 1007 49 10000 7.7 230 05:47 03.01.2020
1495 Clouds 9 1006 49 10000 8.7 230 04:31 03.01.2020
1496 Clouds 10 1006 74 10000 9.8 230 03:18 03.01.2020
1497 Clouds 11 1005 74 10000 12.9 230 02:45 03.01.2020
1498 Clouds 11 1004 60 10000 12.9 230 01:45 03.01.2020
1499 Clouds 12 1003 40 10000 12.9 230 00:56 03.01.2020
1500 Clouds 12 1003 40 10000 12.9 230 00:32 03.01.2020
1501 Clouds 14 1003 65 10000 11.8 230 23:58 02.01.2020
1502 Clouds 14 1003 65 10000 11.8 230 23:39 02.01.2020
1503 Clouds 14 1003 68 10000 11.8 230 23:19 02.01.2020
1504 Clouds 14 1002 68 10000 10.8 230 22:58 02.01.2020
1505 Clouds 14 1002 68 10000 10.8 230 22:39 02.01.2020
1506 Clouds 13 1002 68 10000 10.8 230 22:19 02.01.2020
1507 Clouds 12 1002 76 10000 11.3 230 21:54 02.01.2020
1508 Clouds 12 1002 76 10000 11.3 230 21:36 02.01.2020
1509 Clouds 12 1002 76 10000 11.3 230 21:36 02.01.2020
1510 Clouds 12 1002 76 10000 11.3 230 21:18 02.01.2020
1511 Clouds 12 1001 71 10000 11.3 230 20:40 02.01.2020
1512 Clouds 12 1001 71 10000 11.3 230 20:21 02.01.2020
1513 Clouds 12 1001 71 10000 7.2 230 19:56 02.01.2020
1514 Clouds 12 1001 71 10000 7.2 230 19:56 02.01.2020
1515 Clouds 12 1001 71 10000 7.2 230 19:38 02.01.2020
1516 Clouds 11 1001 71 10000 7.2 230 19:19 02.01.2020
1517 Clouds 11 1001 76 10000 8.2 230 18:59 02.01.2020
1518 Clouds 11 1001 76 10000 8.2 230 18:40 02.01.2020
1519 Clouds 11 1001 76 10000 8.2 230 18:22 02.01.2020
1520 Clouds 11 1001 76 10000 8.2 230 18:22 02.01.2020
1521 Clouds 10 1001 81 10000 7.2 230 17:57 02.01.2020
1522 Clouds 10 1001 81 10000 7.2 230 17:37 02.01.2020
1523 Clouds 10 1001 81 10000 7.2 230 17:19 02.01.2020
1524 Clouds 10 1000 81 10000 7.7 230 16:57 02.01.2020
1525 Clouds 10 1000 81 10000 7.7 230 16:38 02.01.2020
1526 Clouds 10 1000 81 10000 7.7 230 16:20 02.01.2020
1527 Rain 10 1000 87 10000 8.7 230 15:56 02.01.2020
1528 Rain 10 1000 87 10000 8.7 230 15:37 02.01.2020
1529 Rain 10 1000 87 10000 8.7 230 15:19 02.01.2020
1530 Rain 11 1000 87 10000 7.7 230 14:54 02.01.2020
1531 Rain 11 1000 87 10000 7.7 230 14:54 02.01.2020
1532 Rain 11 1000 87 10000 7.7 230 14:36 02.01.2020
1533 Rain 11 1000 87 10000 7.7 230 14:18 02.01.2020
1534 Rain 12 999 87 10000 6.2 230 13:45 02.01.2020
1535 Rain 12 999 87 10000 6.2 230 13:26 02.01.2020
1536 Clouds 13 998 87 10000 7.7 230 12:43 02.01.2020
1537 Clouds 13 997 87 10000 6.7 230 12:24 02.01.2020
1538 Clouds 13 997 87 10000 6.7 230 11:43 02.01.2020
1539 Clouds 13 997 87 10000 6.7 230 11:25 02.01.2020
1540 Clouds 16 997 55 10000 2.6 270 10:57 02.01.2020
1541 Clouds 16 997 55 10000 2.6 270 10:38 02.01.2020
1542 Clouds 16 997 55 10000 2.6 270 10:19 02.01.2020
1543 Clouds 16 997 55 10000 2.6 270 09:41 02.01.2020
1544 Clouds 16 997 55 10000 2.6 270 09:22 02.01.2020
1545 Rain 9 1000 97 0 0.65 111 08:44 02.01.2020
1546 Rain 9 1000 97 0 0.65 111 08:25 02.01.2020
1547 Clouds 8 999 96 0 2.43 15 07:49 02.01.2020
1548 Clouds 17 998 48 10000 2.43 15 07:30 02.01.2020
1549 Clouds 17 998 48 10000 2.43 15 06:44 02.01.2020
1550 Clouds 17 998 48 10000 2.43 15 06:26 02.01.2020
1551 Clouds 18 999 39 10000 6.2 290 04:40 02.01.2020
1552 Clouds 18 999 39 10000 6.2 290 04:21 02.01.2020
1553 Rain 16 1000 55 10000 3.1 230 02:28 02.01.2020
1554 Clouds 16 1000 59 10000 5.7 230 01:58 02.01.2020
1555 Clouds 16 1000 59 10000 5.7 230 01:32 02.01.2020
1556 Drizzle 18 1001 42 10000 5.7 250 00:53 02.01.2020
1557 Drizzle 18 1001 42 10000 5.7 250 00:33 02.01.2020
1558 Drizzle 19 1001 39 10000 5.7 270 23:49 01.01.2020
1559 Rain 19 1001 37 10000 5.7 290 23:26 01.01.2020
1560 Clouds 20 1002 32 10000 6.2 320 22:56 01.01.2020
1561 Clouds 20 1002 32 10000 6.2 320 22:37 01.01.2020
1562 Clouds 20 1002 32 10000 6.2 320 22:19 01.01.2020
1563 Clouds 21 1002 32 10000 7.2 320 21:55 01.01.2020
1564 Clouds 21 1002 32 10000 7.2 320 21:37 01.01.2020
1565 Clouds 21 1002 32 10000 7.2 320 21:18 01.01.2020
1566 Clouds 21 1003 32 10000 6.2 320 20:42 01.01.2020
1567 Clouds 21 1003 32 10000 6.2 320 20:22 01.01.2020
1568 Clouds 20 1005 32 10000 7.2 320 19:58 01.01.2020
1569 Clouds 20 1005 32 10000 7.2 320 19:39 01.01.2020
1570 Clouds 20 1005 32 10000 7.2 320 19:21 01.01.2020
1571 Clouds 20 1005 32 10000 7.7 320 18:59 01.01.2020
1572 Clouds 20 1005 32 10000 7.7 320 18:39 01.01.2020
1573 Clouds 20 1005 32 10000 7.7 320 18:20 01.01.2020
1574 Clouds 20 1006 32 10000 7.7 320 17:59 01.01.2020
1575 Clouds 20 1006 32 10000 7.7 320 17:40 01.01.2020
1576 Clouds 18 1006 32 10000 7.7 320 17:20 01.01.2020
1577 Clouds 17 1006 55 10000 3.1 50 16:59 01.01.2020
1578 Clouds 17 1006 55 10000 3.1 50 16:59 01.01.2020
1579 Clouds 17 1006 55 10000 3.1 50 16:38 01.01.2020
1580 Clouds 17 1006 55 10000 3.1 50 16:20 01.01.2020
1581 Clouds 16 1007 51 10000 2.98 319 15:57 01.01.2020
1582 Clouds 16 1007 51 10000 2.98 319 15:38 01.01.2020
1583 Clouds 16 1007 51 10000 2.98 319 15:20 01.01.2020
1584 Clouds 14 1008 54 10000 2.98 319 14:56 01.01.2020
1585 Clouds 14 1008 54 10000 2.98 319 14:38 01.01.2020
1586 Clouds 14 1008 54 10000 2.95 355 14:19 01.01.2020
1587 Clouds 14 1008 54 10000 2.95 355 14:19 01.01.2020
1588 Clouds 12 1009 58 10000 2.95 355 13:55 01.01.2020
1589 Clouds 12 1009 58 10000 2.95 355 13:36 01.01.2020
1590 Clouds 12 1009 58 10000 3.29 359 13:18 01.01.2020
1591 Clouds 12 1009 58 10000 3.29 359 13:18 01.01.2020
1592 Clouds 12 1009 62 10000 3.29 359 12:54 01.01.2020
1593 Clouds 12 1009 62 10000 3.29 359 12:54 01.01.2020
1594 Clouds 12 1009 62 10000 3.29 359 12:36 01.01.2020
1595 Clouds 12 1009 62 10000 3.29 359 12:18 01.01.2020
1596 Clouds 10 1009 71 10000 2.6 180 11:42 01.01.2020
1597 Clouds 10 1009 71 10000 2.6 180 11:21 01.01.2020
1598 Clouds 10 1009 71 10000 2.6 180 11:21 01.01.2020
1599 Clouds 10 1011 66 10000 2.6 270 10:56 01.01.2020
1600 Clouds 10 1011 66 10000 2.6 270 10:38 01.01.2020
1601 Clouds 10 1011 66 10000 2.6 270 10:19 01.01.2020
1602 Clouds 10 1011 66 10000 2.6 270 09:42 01.01.2020
1603 Clouds 10 1011 66 10000 2.6 270 09:22 01.01.2020
1604 Clouds 5 1010 95 0 3 8 08:57 01.01.2020
1605 Clouds 5 1010 95 0 3 8 08:38 01.01.2020
1606 Clouds 4 1011 95 0 2.52 8 08:20 01.01.2020
1607 Clouds 4 1011 95 0 2.52 8 07:58 01.01.2020
1608 Clouds 4 1011 95 0 2.52 8 07:40 01.01.2020
1609 Clouds 11 1011 57 10000 2.52 8 07:20 01.01.2020
1610 Clouds 11 1011 57 10000 2.52 8 06:40 01.01.2020
1611 Clouds 11 1011 57 10000 2.52 8 06:18 01.01.2020
1612 Clouds 10 1012 66 10000 0.73 292 04:36 01.01.2020
1613 Clouds 11 1012 62 10000 3.6 140 03:40 01.01.2020
1614 Clouds 11 1012 62 10000 3.6 140 03:21 01.01.2020
1615 Clouds 11 1013 62 10000 0.73 292 02:43 01.01.2020
1616 Clouds 11 1013 62 10000 0.73 292 02:24 01.01.2020
1617 Clouds 11 1013 62 10000 1.28 33 01:45 01.01.2020
1618 Clouds 11 1013 62 10000 1.28 33 01:23 01.01.2020
1619 Clouds 11 1013 62 10000 1 110 00:45 01.01.2020
1620 Clouds 11 1013 62 10000 1 110 00:26 01.01.2020
1621 Clouds 12 1013 54 10000 1.5 90 23:58 31.12.2019
1622 Clouds 12 1013 54 10000 1.5 90 23:38 31.12.2019
1623 Clouds 12 1013 54 10000 1.5 90 23:18 31.12.2019
1624 Clouds 10 1014 66 10000 1.5 360 22:56 31.12.2019
1625 Clouds 10 1014 66 10000 1.5 360 22:37 31.12.2019
1626 Clouds 11 1014 66 10000 1.5 360 22:18 31.12.2019
1627 Clouds 12 1014 62 10000 2.1 230 21:43 31.12.2019
1628 Clouds 12 1014 62 10000 2.1 230 21:25 31.12.2019
1629 Clouds 12 1014 62 10000 2.6 230 20:57 31.12.2019
1630 Clouds 12 1014 62 10000 2.6 230 20:39 31.12.2019
1631 Clouds 12 1014 62 10000 2.6 230 20:21 31.12.2019
1632 Clouds 12 1014 42 10000 2.25 310 19:58 31.12.2019
1633 Clouds 12 1014 42 10000 2.25 310 19:40 31.12.2019
1634 Clouds 12 1014 42 10000 2.25 310 19:21 31.12.2019
1635 Clouds 11 1014 46 10000 2.1 200 18:57 31.12.2019
1636 Clouds 11 1014 46 10000 2.1 200 18:38 31.12.2019
1637 Clouds 11 1014 46 10000 2.1 200 18:38 31.12.2019
1638 Clouds 11 1014 46 10000 2.1 200 18:19 31.12.2019
1639 Clouds 12 1014 46 10000 1.5 200 17:56 31.12.2019
1640 Clouds 12 1014 46 10000 1.5 200 17:56 31.12.2019
1641 Clouds 12 1014 46 10000 1.5 200 17:36 31.12.2019
1642 Clouds 12 1014 46 10000 1.5 200 17:18 31.12.2019
1643 Clouds 12 1014 46 10000 1.5 200 17:18 31.12.2019
1644 Clouds 11 1015 53 10000 2.09 305 16:56 31.12.2019
1645 Clouds 11 1015 53 10000 2.09 305 16:37 31.12.2019
1646 Clouds 11 1015 53 10000 2.09 305 16:18 31.12.2019
1647 Clouds 10 1015 53 10000 2.09 305 15:56 31.12.2019
1648 Clouds 10 1015 53 10000 2.09 305 15:38 31.12.2019
1649 Clouds 10 1015 53 10000 2.09 305 15:19 31.12.2019
1650 Clouds 10 1015 53 10000 2.09 305 14:55 31.12.2019
1651 Clouds 10 1015 53 10000 2.09 305 14:37 31.12.2019
1652 Clouds 10 1015 53 10000 2.09 329 14:18 31.12.2019
1653 Clouds 10 1016 57 10000 2.6 50 13:56 31.12.2019
1654 Clouds 10 1016 57 10000 2.6 50 13:38 31.12.2019
1655 Clouds 10 1016 57 10000 2.6 50 13:19 31.12.2019
1656 Clouds 9 1016 70 10000 3.1 360 12:55 31.12.2019
1657 Clouds 9 1016 70 10000 3.1 360 12:37 31.12.2019
1658 Clouds 9 1016 70 10000 3.1 360 12:37 31.12.2019
1659 Clouds 9 1016 70 10000 3.1 360 12:18 31.12.2019
1660 Clouds 7 1016 70 10000 4.1 320 11:55 31.12.2019
1661 Clouds 7 1016 70 10000 4.1 320 11:37 31.12.2019
1662 Clouds 7 1016 70 10000 4.1 320 11:19 31.12.2019
1663 Clouds 7 1016 70 10000 4.1 320 11:19 31.12.2019
1664 Clouds 5 1016 75 10000 5.1 340 10:56 31.12.2019
1665 Clouds 5 1016 75 10000 5.1 340 10:37 31.12.2019
1666 Clouds 5 1016 75 10000 5.1 340 10:19 31.12.2019
1667 Clouds 6 1015 88 10000 4.1 340 09:57 31.12.2019
1668 Clouds 6 1015 88 10000 4.1 340 09:57 31.12.2019
1669 Clouds 6 1015 88 10000 4.1 340 09:38 31.12.2019
1670 Clouds 6 1014 88 10000 3.6 340 09:19 31.12.2019
1671 Clouds 6 1014 88 10000 3.6 340 08:42 31.12.2019
1672 Clouds 6 1014 88 10000 3.6 340 08:23 31.12.2019
1673 Clouds 7 1014 56 10000 3.1 250 07:58 31.12.2019
1674 Clouds 7 1014 56 10000 3.1 250 07:40 31.12.2019
1675 Clouds 7 1014 56 10000 3.1 250 07:19 31.12.2019
1676 Clouds 8 1014 49 10000 8.2 230 06:40 31.12.2019
1677 Clouds 8 1014 49 10000 3.6 250 05:28 31.12.2019
1678 Clouds 9 1013 45 10000 8.7 230 04:25 31.12.2019
1679 Clouds 10 1012 43 10000 12.3 230 02:59 31.12.2019
1680 Clouds 10 1012 43 10000 12.3 230 02:34 31.12.2019
1681 Clouds 11 1011 40 10000 9.3 230 01:51 31.12.2019
1682 Clouds 11 1011 40 10000 9.3 230 01:32 31.12.2019
1683 Clouds 11 1010 43 10000 12.3 230 00:54 31.12.2019
1684 Clouds 11 1010 43 10000 12.3 230 00:36 31.12.2019
1685 Clouds 11 1010 43 10000 12.3 230 00:18 31.12.2019
1686 Clouds 11 1009 53 10000 15.9 230 23:54 30.12.2019
1687 Clouds 11 1009 53 10000 15.9 230 23:36 30.12.2019
1688 Clouds 11 1009 53 10000 15.9 230 23:18 30.12.2019
1689 Clouds 12 1008 72 10000 12.3 230 22:54 30.12.2019
1690 Clouds 12 1008 72 10000 12.3 230 22:36 30.12.2019
1691 Clouds 12 1008 72 10000 12.3 230 22:18 30.12.2019
1692 Drizzle 12 1007 54 10000 13.4 230 21:55 30.12.2019
1693 Drizzle 12 1007 54 10000 13.4 230 21:37 30.12.2019
1694 Drizzle 12 1007 54 10000 13.4 230 21:18 30.12.2019
1695 Rain 15 1006 47 10000 11.3 230 20:42 30.12.2019
1696 Rain 15 1006 47 10000 11.3 230 20:21 30.12.2019
1697 Rain 16 1005 39 10000 18.5 230 19:59 30.12.2019
1698 Rain 16 1005 39 10000 18.5 230 19:59 30.12.2019
1699 Rain 16 1005 39 10000 18.5 230 19:40 30.12.2019
1700 Clouds 16 1005 39 10000 6.2 230 19:20 30.12.2019
1701 Clouds 16 1005 39 10000 6.2 230 19:20 30.12.2019
1702 Clouds 16 1005 39 10000 8.7 320 18:59 30.12.2019
1703 Clouds 16 1005 39 10000 8.7 320 18:41 30.12.2019
1704 Clouds 16 1005 39 10000 8.7 320 18:21 30.12.2019
1705 Clouds 16 1005 41 10000 9.8 320 17:59 30.12.2019
1706 Clouds 16 1005 41 10000 9.8 320 17:40 30.12.2019
1707 Clouds 16 1005 41 10000 9.8 320 17:19 30.12.2019
1708 Clouds 15 1005 41 10000 4.1 360 16:59 30.12.2019
1709 Clouds 15 1005 41 10000 4.1 360 16:40 30.12.2019
1710 Clouds 15 1005 41 10000 4.1 360 16:20 30.12.2019
1711 Clouds 12 1005 50 10000 1.5 180 15:57 30.12.2019
1712 Clouds 12 1005 50 10000 1.5 180 15:38 30.12.2019
1713 Clouds 12 1005 50 10000 1.5 180 15:19 30.12.2019
1714 Clouds 13 1005 33 10000 5.1 320 14:55 30.12.2019
1715 Clouds 13 1005 33 10000 5.1 320 14:37 30.12.2019
1716 Clouds 13 1005 33 10000 5.1 320 14:18 30.12.2019
1717 Clouds 13 1006 50 10000 2.69 330 13:42 30.12.2019
1718 Clouds 13 1006 50 10000 2.44 329 13:23 30.12.2019
1719 Clouds 12 1006 54 10000 2.6 140 12:58 30.12.2019
1720 Clouds 12 1006 54 10000 2.6 140 12:40 30.12.2019
1721 Clouds 12 1006 54 10000 2.6 140 12:19 30.12.2019
1722 Clouds 11 1006 62 10000 2.6 320 11:56 30.12.2019
1723 Clouds 11 1006 62 10000 2.6 320 11:37 30.12.2019
1724 Clouds 11 1006 62 10000 2.6 320 11:18 30.12.2019
1725 Clouds 10 1006 53 10000 2.6 320 10:42 30.12.2019
1726 Clouds 10 1006 53 10000 2.6 320 10:42 30.12.2019
1727 Clouds 10 1006 53 10000 2.6 320 10:20 30.12.2019
1728 Clouds 10 1006 61 10000 5.1 320 09:44 30.12.2019
1729 Clouds 10 1006 61 10000 5.1 320 09:22 30.12.2019
1730 Clouds 3 1008 91 0 2.04 351 08:57 30.12.2019
1731 Clouds 3 1008 91 0 2.04 351 08:39 30.12.2019
1732 Clouds 10 1006 53 10000 3.1 360 08:21 30.12.2019
1733 Clouds 10 1006 53 10000 3.1 360 07:49 30.12.2019
1734 Clouds 10 1006 53 10000 3.1 360 07:25 30.12.2019
1735 Clouds 10 1006 53 10000 4.1 90 06:39 30.12.2019
1736 Clear 11 1007 43 10000 2.1 50 04:32 30.12.2019
1737 Clear 10 1007 66 10000 2.6 290 03:51 30.12.2019
1738 Clear 11 1007 57 10000 3.1 250 02:47 30.12.2019
1739 Clear 11 1007 57 10000 3.1 250 02:27 30.12.2019
1740 Clouds 13 1007 43 10000 2.6 200 01:39 30.12.2019
1741 Clouds 12 1007 43 10000 2.6 200 01:19 30.12.2019
1742 Clouds 12 1006 47 10000 5.7 230 00:42 30.12.2019
1743 Clouds 14 1006 66 10000 7.2 230 23:58 29.12.2019
1744 Clouds 14 1006 66 10000 7.2 230 23:37 29.12.2019
1745 Clouds 14 1006 48 10000 7.2 230 23:19 29.12.2019
1746 Clouds 14 1006 35 10000 9.8 230 22:41 29.12.2019
1747 Clouds 14 1006 35 10000 9.8 230 22:22 29.12.2019
1748 Clouds 13 1005 35 10000 11.3 230 21:56 29.12.2019
1749 Clouds 13 1005 35 10000 11.3 230 21:38 29.12.2019
1750 Clouds 13 1005 35 10000 11.3 230 21:19 29.12.2019
1751 Clouds 11 1004 53 10000 11.3 230 20:56 29.12.2019
1752 Clouds 11 1004 53 10000 11.3 230 20:38 29.12.2019
1753 Clouds 11 1004 53 10000 11.3 230 20:20 29.12.2019
1754 Clouds 11 1004 53 10000 11.3 230 19:58 29.12.2019
1755 Clouds 11 1004 53 10000 11.3 230 19:39 29.12.2019
1756 Clouds 11 1004 53 10000 11.3 230 19:20 29.12.2019
1757 Clouds 12 1002 50 10000 12.9 230 18:55 29.12.2019
1758 Clouds 12 1002 50 10000 12.9 230 18:37 29.12.2019
1759 Clouds 12 1002 50 10000 12.9 230 18:19 29.12.2019
1760 Clouds 11 1002 53 10000 14.4 230 17:56 29.12.2019
1761 Clouds 11 1002 53 10000 14.4 230 17:38 29.12.2019
1762 Clouds 11 1002 53 10000 14.4 230 17:19 29.12.2019
1763 Clouds 11 1000 53 10000 15.9 230 16:56 29.12.2019
1764 Clouds 11 1000 53 10000 15.9 230 16:36 29.12.2019
1765 Clouds 11 1000 53 10000 15.9 230 16:18 29.12.2019
1766 Clouds 12 999 50 10000 14.4 230 15:56 29.12.2019
1767 Clouds 12 999 50 10000 14.4 230 15:38 29.12.2019
1768 Clouds 12 999 50 10000 14.4 230 15:19 29.12.2019
1769 Clouds 11 998 53 10000 12.9 230 14:55 29.12.2019
1770 Clouds 11 998 53 10000 12.9 230 14:37 29.12.2019
1771 Clouds 11 998 53 10000 12.9 230 14:37 29.12.2019
1772 Clouds 11 998 53 10000 12.9 230 14:18 29.12.2019
1773 Clouds 11 997 53 10000 14.9 230 13:55 29.12.2019
1774 Clouds 11 997 53 10000 14.9 230 13:37 29.12.2019
1775 Clouds 11 997 53 10000 14.9 230 13:18 29.12.2019
1776 Clouds 11 996 72 10000 13.9 230 12:42 29.12.2019
1777 Clouds 11 996 72 10000 13.9 230 12:24 29.12.2019
1778 Clouds 11 995 40 10000 9.3 230 11:56 29.12.2019
1779 Clouds 11 995 40 10000 9.3 230 11:37 29.12.2019
1780 Clouds 11 995 40 10000 9.3 230 11:19 29.12.2019
1781 Clouds 10 994 57 10000 10.3 230 10:42 29.12.2019
1782 Clouds 10 994 57 10000 10.3 230 10:22 29.12.2019
1783 Clouds 11 992 96 10000 5.7 230 09:56 29.12.2019
1784 Clouds 11 992 96 10000 5.7 230 09:38 29.12.2019
1785 Clouds 11 992 96 10000 5.7 230 09:19 29.12.2019
1786 Clouds 11 991 43 10000 6.2 230 08:46 29.12.2019
1787 Clouds 11 991 43 10000 6.2 230 08:24 29.12.2019
1788 Clouds 12 991 40 10000 6.7 320 07:54 29.12.2019
1789 Clouds 12 991 40 10000 6.7 320 07:28 29.12.2019
1790 Clouds 12 991 37 10000 6.7 320 06:53 29.12.2019
1791 Clouds 12 991 37 10000 6.7 320 06:24 29.12.2019
1792 Clouds 13 991 50 10000 9.3 320 05:51 29.12.2019
1793 Clouds 13 991 37 10000 7.7 290 04:36 29.12.2019
1794 Clouds 13 990 83 10000 8.7 290 03:43 29.12.2019
1795 Clouds 13 990 83 10000 8.7 290 03:20 29.12.2019
1796 Clouds 13 990 47 10000 8.2 290 02:20 29.12.2019
1797 Clouds 14 990 54 10000 9.8 290 01:31 29.12.2019
1798 Clouds 14 990 54 10000 9.8 290 00:57 29.12.2019
1799 Clouds 14 990 54 10000 9.8 290 00:39 29.12.2019
1800 Clouds 14 990 54 10000 9.8 290 00:21 29.12.2019
1801 Drizzle 13 990 58 10000 5.1 230 23:42 28.12.2019
1802 Drizzle 13 990 58 10000 5.1 230 23:18 28.12.2019
1803 Drizzle 15 990 44 10000 5.7 230 22:39 28.12.2019
1804 Drizzle 15 990 44 10000 5.7 230 22:39 28.12.2019
1805 Drizzle 15 990 44 10000 5.7 230 22:20 28.12.2019
1806 Drizzle 15 991 41 10000 8.2 320 21:58 28.12.2019
1807 Drizzle 15 991 41 10000 8.2 320 21:58 28.12.2019
1808 Drizzle 15 991 41 10000 8.2 320 21:39 28.12.2019
1809 Drizzle 15 991 41 10000 8.2 320 21:21 28.12.2019
1810 Drizzle 15 991 41 10000 8.2 320 21:21 28.12.2019
1811 Clouds 15 992 38 10000 8.2 320 20:57 28.12.2019
1812 Clouds 15 992 38 10000 8.2 320 20:37 28.12.2019
1813 Clouds 15 992 38 10000 8.2 320 20:19 28.12.2019
1814 Clouds 14 992 44 10000 8.7 320 19:56 28.12.2019
1815 Clouds 14 992 44 10000 8.7 320 19:38 28.12.2019
1816 Clouds 14 992 44 10000 8.7 320 19:19 28.12.2019
1817 Clouds 14 993 44 10000 9.8 320 18:56 28.12.2019
1818 Clouds 14 993 44 10000 9.8 320 18:38 28.12.2019
1819 Clouds 13 993 44 10000 9.8 320 18:18 28.12.2019
1820 Clouds 13 993 44 10000 7.7 340 17:43 28.12.2019
1821 Clouds 13 993 44 10000 7.7 340 17:21 28.12.2019
1822 Clouds 12 994 43 10000 9.3 360 16:59 28.12.2019
1823 Clouds 12 994 43 10000 9.3 360 16:41 28.12.2019
1824 Clouds 12 994 43 10000 9.3 360 16:23 28.12.2019
1825 Clouds 12 994 54 10000 3.6 320 15:44 28.12.2019
1826 Clouds 12 994 54 10000 3.6 320 15:23 28.12.2019
1827 Clouds 10 994 66 10000 3.85 348 14:57 28.12.2019
1828 Clouds 10 994 66 10000 3.85 348 14:38 28.12.2019
1829 Clouds 10 994 66 10000 1.82 324 14:20 28.12.2019
1830 Clouds 10 995 66 10000 1.82 324 13:43 28.12.2019
1831 Clouds 10 995 66 10000 1.82 324 13:22 28.12.2019
1832 Clouds 10 995 66 10000 3.1 230 12:59 28.12.2019
1833 Clouds 10 995 66 10000 3.1 230 12:40 28.12.2019
1834 Clouds 10 995 66 10000 3.1 230 12:21 28.12.2019
1835 Clouds 9 994 70 10000 2.6 360 11:54 28.12.2019
1836 Clouds 9 994 70 10000 2.6 360 11:36 28.12.2019
1837 Clouds 9 994 70 10000 2.6 360 11:18 28.12.2019
1838 Clouds 9 990 66 10000 8.2 230 10:41 28.12.2019
1839 Clouds 9 990 66 10000 8.2 230 10:20 28.12.2019
1840 Clouds 9 990 66 10000 8.2 230 09:55 28.12.2019
1841 Clouds 9 990 66 10000 8.2 230 09:37 28.12.2019
1842 Clouds 9 990 66 10000 8.2 230 09:18 28.12.2019
1843 Clouds 9 990 66 10000 8.2 230 09:18 28.12.2019
1844 Clouds 3 994 94 0 1.21 332 08:43 28.12.2019
1845 Clear 3 995 93 0 1.2 328 08:25 28.12.2019
1846 Rain 3 992 94 0 0.96 309 07:49 28.12.2019
1847 Rain 3 992 94 0 0.96 309 07:25 28.12.2019
1848 Rain 9 990 70 10000 8.2 250 05:53 28.12.2019
1849 Drizzle 11 988 66 10000 13.4 230 03:52 28.12.2019
1850 Drizzle 11 988 66 10000 13.4 230 03:33 28.12.2019
1851 Rain 11 987 66 10000 11.8 230 02:43 28.12.2019
1852 Clouds 13 987 54 10000 4.6 230 01:59 28.12.2019
1853 Clouds 13 987 54 10000 4.6 230 01:25 28.12.2019
1854 Clouds 14 986 47 10000 6.7 230 00:51 28.12.2019
1855 Clouds 14 986 47 10000 6.7 230 00:32 28.12.2019
1856 Clouds 14 986 47 10000 6.7 230 00:32 28.12.2019
1857 Clouds 15 986 44 10000 6.7 230 23:59 27.12.2019
1858 Clouds 15 986 44 10000 6.7 230 23:41 27.12.2019
1859 Clouds 15 986 44 10000 6.7 230 23:19 27.12.2019
1860 Clouds 16 986 41 10000 4.1 230 22:57 27.12.2019
1861 Clouds 16 986 41 10000 4.1 230 22:57 27.12.2019
1862 Clouds 16 986 41 10000 4.1 230 22:38 27.12.2019
1863 Clouds 16 986 41 10000 4.1 230 22:38 27.12.2019
1864 Clouds 16 986 41 10000 4.1 230 22:20 27.12.2019
1865 Clouds 16 986 41 10000 4.1 230 22:20 27.12.2019
1866 Clouds 16 986 41 10000 5.7 230 21:54 27.12.2019
1867 Clouds 16 986 41 10000 5.7 230 21:36 27.12.2019
1868 Clouds 17 986 41 10000 5.7 230 21:18 27.12.2019
1869 Clouds 18 986 39 10000 7.7 340 20:40 27.12.2019
1870 Clouds 18 986 39 10000 7.7 340 20:21 27.12.2019
1871 Clouds 16 986 41 10000 3.6 250 19:42 27.12.2019
1872 Clouds 16 986 41 10000 3.6 250 19:20 27.12.2019
1873 Clouds 16 986 41 10000 7.2 360 18:59 27.12.2019
1874 Clouds 16 986 41 10000 7.2 360 18:38 27.12.2019
1875 Clouds 16 986 41 10000 7.2 360 18:20 27.12.2019
1876 Clouds 15 986 38 10000 4.6 320 17:57 27.12.2019
1877 Clouds 15 986 38 10000 4.6 320 17:39 27.12.2019
1878 Clouds 15 986 38 10000 4.6 320 17:19 27.12.2019
1879 Clouds 16 985 36 10000 6.7 320 16:58 27.12.2019
1880 Clouds 16 985 36 10000 6.7 320 16:38 27.12.2019
1881 Clouds 16 985 36 10000 6.7 320 16:19 27.12.2019
1882 Clouds 16 985 36 10000 6.7 320 16:19 27.12.2019
1883 Clouds 15 984 51 10000 9.8 320 15:43 27.12.2019
1884 Clouds 15 984 51 10000 9.8 320 15:20 27.12.2019
1885 Clouds 15 984 38 10000 8.7 320 14:57 27.12.2019
1886 Clouds 15 984 38 10000 8.7 320 14:39 27.12.2019
1887 Clouds 15 984 38 10000 8.7 320 14:20 27.12.2019
1888 Clouds 14 984 58 10000 6.7 320 13:48 27.12.2019
1889 Clouds 14 984 58 10000 6.7 320 13:25 27.12.2019
1890 Clouds 14 984 58 10000 6.7 320 13:25 27.12.2019
1891 Clouds 14 983 58 10000 4.12 343 12:58 27.12.2019
1892 Clouds 14 983 58 10000 4.12 343 12:40 27.12.2019
1893 Clouds 14 983 58 10000 4.12 343 12:21 27.12.2019
1894 Clouds 12 982 76 10000 2.1 180 11:45 27.12.2019
1895 Clouds 12 982 76 10000 2.1 180 11:26 27.12.2019
1896 Clouds 11 981 71 10000 5.1 230 10:56 27.12.2019
1897 Clouds 11 981 71 10000 5.1 230 10:38 27.12.2019
1898 Clouds 11 981 71 10000 5.1 230 10:20 27.12.2019
1899 Clouds 11 981 76 10000 2.24 356 09:43 27.12.2019
1900 Clouds 11 981 76 10000 2.24 356 09:21 27.12.2019
1901 Clouds 6 984 97 0 2.24 356 08:59 27.12.2019
1902 Clouds 6 984 97 0 2.24 356 08:36 27.12.2019
1903 Drizzle 11 981 76 10000 6.11 22 07:52 27.12.2019
1904 Drizzle 11 981 76 10000 6.11 22 07:33 27.12.2019
1905 Rain 11 982 71 10000 3.1 360 06:38 27.12.2019
1906 Rain 11 984 71 10000 5.7 360 05:38 27.12.2019
1907 Clouds 13 987 50 10000 5.7 50 03:47 27.12.2019
1908 Clouds 13 988 54 10000 2.1 140 02:23 27.12.2019
1909 Clouds 14 989 50 10000 2.39 8 01:42 27.12.2019
1910 Clouds 14 989 50 10000 2.16 355 01:20 27.12.2019
1911 Clouds 15 990 51 10000 4.6 320 00:44 27.12.2019
1912 Clouds 15 990 51 10000 4.6 320 00:24 27.12.2019
1913 Rain 15 990 67 10000 8.2 360 23:42 26.12.2019
1914 Rain 15 990 67 10000 8.2 360 23:23 26.12.2019
1915 Clouds 15 991 48 10000 4.6 320 22:57 26.12.2019
1916 Clouds 15 991 48 10000 4.6 320 22:37 26.12.2019
1917 Clouds 16 991 48 10000 4.6 320 22:18 26.12.2019
1918 Clouds 16 991 36 10000 6.7 320 21:39 26.12.2019
1919 Clouds 16 991 36 10000 6.7 320 21:39 26.12.2019
1920 Clouds 16 991 36 10000 6.7 320 21:21 26.12.2019
1921 Clouds 16 991 36 10000 6.7 320 21:21 26.12.2019
1922 Clouds 18 990 33 10000 9.3 270 20:47 26.12.2019
1923 Clouds 18 990 33 10000 9.3 270 20:24 26.12.2019
1924 Clouds 17 991 50 10000 5.7 320 19:59 26.12.2019
1925 Clouds 17 991 50 10000 5.7 320 19:40 26.12.2019
1926 Clouds 17 991 50 10000 5.7 320 19:22 26.12.2019
1927 Clouds 16 991 50 10000 8.2 320 18:59 26.12.2019
1928 Clouds 16 991 50 10000 8.2 320 18:40 26.12.2019
1929 Clouds 16 991 50 10000 8.2 320 18:20 26.12.2019
1930 Clouds 16 990 50 10000 2.6 230 17:58 26.12.2019
1931 Clouds 16 990 50 10000 2.6 230 17:40 26.12.2019
1932 Clouds 16 990 68 10000 2.6 230 17:19 26.12.2019
1933 Clouds 14 990 38 10000 7.2 290 16:46 26.12.2019
1934 Clouds 14 990 38 10000 7.2 290 16:26 26.12.2019
1935 Clouds 15 990 41 10000 6.2 320 15:56 26.12.2019
1936 Clouds 15 990 41 10000 6.2 320 15:38 26.12.2019
1937 Clouds 15 990 41 10000 6.2 320 15:18 26.12.2019
1938 Clouds 15 990 41 10000 6.2 320 15:18 26.12.2019
1939 Clouds 14 989 47 10000 6.7 340 14:41 26.12.2019
1940 Clouds 14 989 47 10000 6.7 340 14:23 26.12.2019
1941 Clouds 12 989 50 10000 7.2 340 13:45 26.12.2019
1942 Clouds 12 989 50 10000 7.2 340 13:24 26.12.2019
1943 Clouds 11 989 53 10000 2.1 110 12:59 26.12.2019
1944 Clouds 11 989 53 10000 2.1 110 12:59 26.12.2019
1945 Clouds 11 989 53 10000 2.1 110 12:40 26.12.2019
1946 Clouds 11 989 53 10000 2.1 110 12:21 26.12.2019
1947 Clouds 10 988 61 10000 2.6 140 11:58 26.12.2019
1948 Clouds 10 988 61 10000 2.6 140 11:58 26.12.2019
1949 Clouds 10 988 61 10000 2.6 140 11:40 26.12.2019
1950 Clouds 10 988 61 10000 2.6 140 11:20 26.12.2019
1951 Clouds 9 988 61 10000 3.6 140 10:49 26.12.2019
1952 Clouds 9 988 61 10000 3.6 140 10:24 26.12.2019
1953 Clouds 8 987 65 10000 2.48 12 09:54 26.12.2019
1954 Clouds 8 987 65 10000 2.48 12 09:32 26.12.2019
1955 Clouds 8 986 70 10000 4.6 140 08:57 26.12.2019
1956 Clouds 8 986 70 10000 4.6 140 08:38 26.12.2019
1957 Clouds 8 986 70 10000 4.6 140 08:20 26.12.2019
1958 Clouds 8 986 70 10000 4.6 140 08:20 26.12.2019
1959 Clouds 9 986 57 10000 3.1 320 07:31 26.12.2019
1960 Clouds 9 986 49 10000 1.5 360 06:56 26.12.2019
1961 Clouds 9 986 49 10000 1.5 360 06:34 26.12.2019
1962 Clouds 9 986 95 10000 2.65 346 05:57 26.12.2019
1963 Clouds 9 986 95 10000 2.65 346 05:38 26.12.2019
1964 Clouds 9 986 66 10000 3.1 320 04:32 26.12.2019
1965 Clouds 11 986 53 10000 3.1 230 03:20 26.12.2019
1966 Rain 10 985 61 10000 5.1 230 02:40 26.12.2019
1967 Rain 11 985 61 10000 5.1 230 02:20 26.12.2019
1968 Clouds 12 984 50 10000 5.7 280 01:42 26.12.2019
1969 Clouds 13 984 50 10000 5.7 280 01:24 26.12.2019
1970 Clouds 13 984 37 10000 7.2 270 00:42 26.12.2019
1971 Clouds 13 984 37 10000 7.2 270 00:22 26.12.2019
1972 Clouds 13 984 47 10000 5.1 320 23:56 25.12.2019
1973 Clouds 13 984 47 10000 5.1 320 23:36 25.12.2019
1974 Clouds 13 984 47 10000 5.1 320 23:18 25.12.2019
1975 Rain 15 984 33 10000 6.7 290 22:55 25.12.2019
1976 Rain 15 984 33 10000 6.7 290 22:37 25.12.2019
1977 Rain 15 984 33 10000 6.7 290 22:18 25.12.2019
1978 Clouds 15 984 38 10000 7.7 340 21:41 25.12.2019
1979 Clouds 15 984 38 10000 7.7 340 21:23 25.12.2019
1980 Clouds 15 984 38 10000 7.2 320 20:59 25.12.2019
1981 Clouds 15 984 38 10000 7.2 320 20:40 25.12.2019
1982 Clouds 15 984 38 10000 7.2 320 20:19 25.12.2019
1983 Clouds 14 984 44 10000 8.2 320 19:57 25.12.2019
1984 Clouds 14 984 44 10000 8.2 320 19:39 25.12.2019
1985 Clouds 14 984 44 10000 8.2 320 19:21 25.12.2019
1986 Rain 14 984 50 10000 7.7 340 18:39 25.12.2019
1987 Rain 14 984 50 10000 7.7 340 18:20 25.12.2019
1988 Rain 14 984 47 10000 7.2 320 17:57 25.12.2019
1989 Rain 14 984 47 10000 7.2 320 17:36 25.12.2019
1990 Rain 14 984 47 10000 7.2 320 17:18 25.12.2019
1991 Clouds 14 985 47 10000 5.1 360 16:39 25.12.2019
1992 Clouds 14 985 47 10000 5.1 360 16:19 25.12.2019
1993 Clouds 14 985 54 10000 8.7 360 15:58 25.12.2019
1994 Clouds 14 985 54 10000 8.7 360 15:39 25.12.2019
1995 Clouds 14 985 54 10000 8.7 360 15:21 25.12.2019
1996 Clouds 13 986 54 10000 6.2 360 14:58 25.12.2019
1997 Clouds 13 986 54 10000 6.2 360 14:40 25.12.2019
1998 Clouds 13 986 54 10000 6.2 360 14:21 25.12.2019
1999 Clouds 13 986 54 10000 6.2 360 14:21 25.12.2019
2000 Clouds 13 986 54 10000 6.2 360 14:21 25.12.2019
2001 Clouds 11 986 57 10000 8.7 360 13:57 25.12.2019
2002 Clouds 11 986 57 10000 8.7 360 13:38 25.12.2019
2003 Clouds 11 986 57 10000 8.7 360 13:19 25.12.2019
2004 Clouds 11 986 53 10000 7.7 360 12:42 25.12.2019
2005 Clouds 11 986 53 10000 7.7 360 12:20 25.12.2019
2006 Clouds 10 986 57 10000 7.7 360 11:57 25.12.2019
2007 Clouds 10 986 57 10000 7.7 360 11:38 25.12.2019
2008 Clouds 10 986 57 10000 7.7 360 11:18 25.12.2019
2009 Clouds 10 987 53 10000 7.7 340 10:38 25.12.2019
2010 Clouds 10 987 53 10000 7.7 340 10:20 25.12.2019
2011 Clouds 10 987 92 10000 7.7 360 09:51 25.12.2019
2012 Clouds 10 987 92 10000 7.7 360 09:32 25.12.2019
2013 Clouds 10 987 53 10000 7.2 360 08:51 25.12.2019
2014 Clouds 10 987 53 10000 7.2 360 08:31 25.12.2019
2015 Clouds 9 988 57 10000 8.2 340 07:53 25.12.2019
2016 Clouds 9 988 57 10000 8.2 340 07:34 25.12.2019
2017 Clouds 10 989 91 10000 7.2 360 06:58 25.12.2019
2018 Clouds 10 989 91 10000 7.2 360 06:23 25.12.2019
2019 Clouds 10 989 91 10000 6.7 360 05:31 25.12.2019
2020 Clouds 9 990 57 10000 3.1 320 04:39 25.12.2019
2021 Clouds 9 990 57 10000 3.1 320 04:20 25.12.2019
2022 Clouds 9 991 61 10000 2.6 50 03:43 25.12.2019
2023 Clouds 10 991 57 10000 3.6 90 02:56 25.12.2019
2024 Clouds 10 991 57 10000 3.6 90 02:27 25.12.2019
2025 Clouds 10 991 57 10000 5.1 230 01:26 25.12.2019
2026 Clouds 10 991 57 10000 5.1 230 00:56 25.12.2019
2027 Clouds 10 991 57 10000 5.1 230 00:33 25.12.2019
2028 Clouds 10 991 57 10000 6.7 230 23:58 24.12.2019
2029 Clouds 10 991 57 10000 6.7 230 23:39 24.12.2019
2030 Clouds 10 991 57 10000 6.7 230 23:20 24.12.2019
2031 Clouds 9 991 57 10000 6.2 230 22:41 24.12.2019
2032 Clouds 10 991 57 10000 6.2 230 22:23 24.12.2019
2033 Clouds 11 991 53 10000 9.3 230 21:44 24.12.2019
2034 Clouds 11 991 53 10000 9.3 230 21:23 24.12.2019
2035 Clouds 12 991 53 10000 8.7 230 20:59 24.12.2019
2036 Clouds 12 991 53 10000 8.7 230 20:41 24.12.2019
2037 Clouds 12 991 53 10000 8.7 230 20:19 24.12.2019
2038 Clouds 11 991 57 10000 9.8 230 19:45 24.12.2019
2039 Clouds 11 991 57 10000 9.8 230 19:22 24.12.2019
2040 Clouds 11 991 56 10000 6.7 230 18:58 24.12.2019
2041 Clouds 11 991 56 10000 6.7 230 18:40 24.12.2019
2042 Clouds 11 991 56 10000 6.7 230 18:18 24.12.2019
2043 Clouds 11 991 56 10000 3.1 230 17:42 24.12.2019
2044 Clouds 11 991 52 10000 3.1 230 17:21 24.12.2019
2045 Clouds 11 991 50 10000 2.87 298 16:58 24.12.2019
2046 Clouds 11 991 50 10000 2.87 298 16:58 24.12.2019
2047 Clouds 11 991 50 10000 2.87 298 16:39 24.12.2019
2048 Clouds 11 991 50 10000 2.87 298 16:20 24.12.2019
2049 Clouds 10 991 70 10000 2.87 298 15:56 24.12.2019
2050 Clouds 10 991 70 10000 2.87 298 15:36 24.12.2019
2051 Clouds 10 991 70 10000 2.87 298 15:18 24.12.2019
2052 Clouds 9 991 70 10000 2.87 298 14:57 24.12.2019
2053 Clouds 9 991 70 10000 2.87 298 14:39 24.12.2019
2054 Clouds 9 991 70 10000 2.41 330 14:21 24.12.2019
2055 Clouds 8 991 61 10000 2.41 330 13:56 24.12.2019
2056 Clouds 8 991 61 10000 2.41 330 13:37 24.12.2019
2057 Clouds 8 991 61 10000 2.41 330 13:19 24.12.2019
2058 Clouds 8 991 61 10000 2.32 326 13:19 24.12.2019
2059 Clouds 7 991 70 10000 2.32 326 12:56 24.12.2019
2060 Clouds 7 991 70 10000 2.32 326 12:37 24.12.2019
2061 Clouds 7 991 70 10000 2.32 326 12:19 24.12.2019
2062 Clouds 7 991 70 10000 2.32 326 12:19 24.12.2019
2063 Clouds 6 991 70 10000 2.32 326 11:56 24.12.2019
2064 Clouds 6 991 70 10000 2.32 326 11:37 24.12.2019
2065 Clouds 6 991 70 10000 1.97 341 11:19 24.12.2019
2066 Clouds 4 990 86 10000 1.97 341 10:56 24.12.2019
2067 Clouds 4 990 86 10000 1.97 341 10:37 24.12.2019
2068 Clouds 4 990 86 10000 1.97 341 10:19 24.12.2019
2069 Clouds 4 990 80 10000 1.97 341 09:55 24.12.2019
2070 Clouds 4 990 80 10000 1.97 341 09:37 24.12.2019
2071 Clouds 4 990 80 10000 1.97 341 09:19 24.12.2019
2072 Clouds 5 990 80 10000 3.1 230 08:45 24.12.2019
2073 Clouds 5 990 80 10000 3.1 230 08:24 24.12.2019
2074 Clouds 5 991 80 10000 2.1 230 07:46 24.12.2019
2075 Clouds 5 991 80 10000 2.1 230 07:26 24.12.2019
2076 Clouds 5 991 80 10000 2.1 320 06:58 24.12.2019
2077 Clouds 5 991 80 10000 2.1 320 06:38 24.12.2019
2078 Clouds 5 991 80 10000 2.1 320 06:19 24.12.2019
2079 Clouds 5 991 86 10000 2.1 320 05:46 24.12.2019
2080 Clouds 5 991 86 10000 2.1 320 05:18 24.12.2019
2081 Clouds 6 991 81 10000 3.1 270 03:55 24.12.2019
2082 Clouds 6 991 81 10000 3.1 270 03:25 24.12.2019
2083 Clouds 6 991 81 10000 5.1 250 02:25 24.12.2019
2084 Clouds 7 990 75 10000 2.6 290 01:52 24.12.2019
2085 Clouds 7 990 75 10000 2.6 290 01:23 24.12.2019
2086 Rain 6 990 81 10000 8.7 250 00:47 24.12.2019
2087 Rain 6 990 81 10000 8.7 250 00:26 24.12.2019
2088 Rain 7 989 81 10000 13.9 230 23:59 23.12.2019
2089 Rain 7 989 81 10000 13.9 230 23:41 23.12.2019
2090 Rain 7 989 81 10000 13.9 230 23:23 23.12.2019
2091 Clouds 10 988 53 10000 12.9 230 22:56 23.12.2019
2092 Clouds 10 988 53 10000 12.9 230 22:56 23.12.2019
2093 Clouds 10 988 53 10000 12.9 230 22:56 23.12.2019
2094 Clouds 10 988 53 10000 12.9 230 22:37 23.12.2019
2095 Clouds 10 988 53 10000 12.9 230 22:19 23.12.2019
2096 Clouds 10 988 55 10000 10.3 230 21:55 23.12.2019
2097 Clouds 10 988 55 10000 10.3 230 21:36 23.12.2019
2098 Clouds 10 988 55 10000 10.3 230 21:18 23.12.2019
2099 Clouds 10 987 87 10000 11.8 230 20:57 23.12.2019
2100 Clouds 10 987 87 10000 11.8 230 20:39 23.12.2019
2101 Clouds 10 987 87 10000 11.8 230 20:18 23.12.2019
2102 Clouds 9 987 93 10000 10.3 230 19:56 23.12.2019
2103 Clouds 9 987 93 10000 10.3 230 19:56 23.12.2019
2104 Clouds 9 987 93 10000 10.3 230 19:38 23.12.2019
2105 Clouds 9 987 93 10000 10.3 230 19:19 23.12.2019
2106 Clouds 9 987 93 10000 10.3 230 19:19 23.12.2019
2107 Rain 10 986 81 10000 13.4 230 18:57 23.12.2019
2108 Rain 10 986 81 10000 13.4 230 18:38 23.12.2019
2109 Rain 10 986 81 10000 13.4 230 18:20 23.12.2019
2110 Rain 9 986 87 10000 13.9 230 17:56 23.12.2019
2111 Rain 9 986 87 10000 13.9 230 17:37 23.12.2019
2112 Rain 9 986 87 10000 13.9 230 17:19 23.12.2019
2113 Drizzle 9 986 87 10000 10.3 230 16:54 23.12.2019
2114 Drizzle 9 986 87 10000 10.3 230 16:36 23.12.2019
2115 Drizzle 9 986 87 10000 10.3 230 16:18 23.12.2019
2116 Clouds 9 986 81 10000 9.3 230 15:55 23.12.2019
2117 Clouds 9 986 81 10000 9.3 230 15:36 23.12.2019
2118 Clouds 9 986 81 10000 9.3 230 15:18 23.12.2019
2119 Drizzle 9 985 81 10000 10.3 230 14:42 23.12.2019
2120 Drizzle 9 985 81 10000 10.3 230 14:24 23.12.2019
2121 Clouds 8 984 81 10000 14.4 230 13:59 23.12.2019
2122 Clouds 8 984 81 10000 14.4 230 13:41 23.12.2019
2123 Clouds 8 984 81 10000 14.4 230 13:22 23.12.2019
2124 Clouds 7 984 81 10000 7.7 230 12:58 23.12.2019
2125 Clouds 7 984 81 10000 7.7 230 12:58 23.12.2019
2126 Clouds 7 984 81 10000 7.7 230 12:39 23.12.2019
2127 Clouds 7 984 81 10000 7.7 230 12:20 23.12.2019
2128 Clouds 7 984 81 10000 9.3 230 11:55 23.12.2019
2129 Clouds 7 984 81 10000 9.3 230 11:37 23.12.2019
2130 Clouds 7 984 81 10000 9.3 230 11:18 23.12.2019
2131 Rain 7 982 75 10000 14.4 230 10:54 23.12.2019
2132 Rain 7 982 75 10000 14.4 230 10:36 23.12.2019
2133 Rain 7 982 75 10000 14.4 230 10:18 23.12.2019
2134 Rain 7 981 75 10000 15.4 230 09:40 23.12.2019
2135 Rain 7 981 75 10000 15.4 230 09:22 23.12.2019
2136 Rain 7 978 70 10000 15.9 230 08:58 23.12.2019
2137 Rain 7 978 70 10000 15.9 230 08:40 23.12.2019
2138 Rain 7 978 70 10000 15.9 230 08:22 23.12.2019
2139 Rain 9 976 81 10000 18.5 230 07:48 23.12.2019
2140 Rain 9 976 81 10000 18.5 230 07:21 23.12.2019
2141 Clouds 9 975 76 10000 12.3 230 06:57 23.12.2019
2142 Clouds 9 975 76 10000 12.3 230 06:27 23.12.2019
2143 Clouds 11 974 62 10000 5.99 229 05:56 23.12.2019
2144 Clouds 11 974 62 10000 5.99 229 05:29 23.12.2019
2145 Clouds 11 974 66 10000 6.2 320 04:34 23.12.2019
2146 Clouds 10 974 71 10000 3.1 340 03:28 23.12.2019
2147 Clouds 10 975 71 10000 1.5 180 02:43 23.12.2019
2148 Clouds 10 975 71 10000 1.5 180 02:19 23.12.2019
2149 Clouds 10 976 76 10000 2.6 50 01:44 23.12.2019
2150 Clouds 10 976 76 10000 2.6 50 01:26 23.12.2019
2151 Clouds 11 976 66 10000 4.6 180 00:44 23.12.2019
2152 Clouds 11 976 66 10000 4.6 180 00:44 23.12.2019
2153 Clouds 11 976 66 10000 4.6 180 00:23 23.12.2019
2154 Clouds 12 976 54 10000 6.7 180 23:40 22.12.2019
2155 Thunderstorm 13 977 47 8000 11.3 230 23:22 22.12.2019
2156 Thunderstorm 13 977 47 8000 11.3 230 23:22 22.12.2019
2157 Rain 14 975 44 10000 3.6 90 22:58 22.12.2019
2158 Rain 14 975 44 10000 3.6 90 22:40 22.12.2019
2159 Rain 14 975 44 10000 3.6 90 22:22 22.12.2019
2160 Clouds 11 977 66 10000 9.3 320 21:59 22.12.2019
2161 Clouds 11 977 66 10000 9.3 320 21:40 22.12.2019
2162 Clouds 11 977 66 10000 9.3 320 21:21 22.12.2019
2163 Clouds 11 977 66 10000 9.3 320 21:21 22.12.2019
2164 Clouds 11 977 66 10000 2.6 230 20:59 22.12.2019
2165 Clouds 11 977 66 10000 2.6 230 20:39 22.12.2019
2166 Clouds 11 977 66 10000 2.6 230 20:19 22.12.2019
2167 Clouds 11 979 71 10000 4.6 50 19:57 22.12.2019
2168 Clouds 11 979 71 10000 4.6 50 19:39 22.12.2019
2169 Clouds 11 979 71 10000 4.6 50 19:19 22.12.2019
2170 Drizzle 10 979 76 10000 5.7 160 18:42 22.12.2019
2171 Drizzle 10 979 76 10000 5.7 160 18:24 22.12.2019
2172 Clouds 11 979 71 10000 2.6 230 17:56 22.12.2019
2173 Clouds 11 979 71 10000 2.6 230 17:38 22.12.2019
2174 Clouds 11 979 71 10000 2.6 230 17:19 22.12.2019
2175 Clouds 11 979 71 10000 2.6 230 17:19 22.12.2019
2176 Drizzle 11 981 66 10000 3.1 270 16:57 22.12.2019
2177 Drizzle 11 981 66 10000 3.1 270 16:39 22.12.2019
2178 Drizzle 11 981 66 10000 3.1 270 16:21 22.12.2019
2179 Drizzle 9 982 57 10000 8.7 320 15:56 22.12.2019
2180 Drizzle 9 982 57 10000 8.7 320 15:38 22.12.2019
2181 Drizzle 8 985 79 10000 9.3 320 15:20 22.12.2019
2182 Drizzle 8 985 79 10000 9.3 320 14:55 22.12.2019
2183 Drizzle 8 985 79 10000 9.3 320 14:37 22.12.2019
2184 Drizzle 8 985 94 10000 9.3 320 14:18 22.12.2019
2185 Drizzle 8 985 94 10000 9.3 320 14:18 22.12.2019
2186 Clouds 8 988 61 10000 5.7 320 13:55 22.12.2019
2187 Clouds 8 988 61 10000 5.7 320 13:37 22.12.2019
2188 Clouds 8 988 61 10000 5.7 320 13:18 22.12.2019
2189 Drizzle 9 990 57 10000 8.2 360 12:56 22.12.2019
2190 Drizzle 9 990 57 10000 8.2 360 12:37 22.12.2019
2191 Drizzle 9 990 57 10000 8.2 360 12:18 22.12.2019
2192 Drizzle 9 992 57 10000 5.1 360 11:56 22.12.2019
2193 Drizzle 9 992 57 10000 5.1 360 11:38 22.12.2019
2194 Drizzle 9 992 57 10000 5.1 360 11:18 22.12.2019
2195 Clouds 8 994 65 10000 8.7 320 10:55 22.12.2019
2196 Clouds 8 994 65 10000 8.7 320 10:36 22.12.2019
2197 Clouds 8 994 65 10000 8.7 320 10:18 22.12.2019
2198 Clouds 5 995 86 10000 3.6 320 09:57 22.12.2019
2199 Clouds 5 995 86 10000 3.6 320 09:38 22.12.2019
2200 Clouds 5 995 86 10000 3.6 320 09:20 22.12.2019
2201 Clouds 5 995 86 10000 2.92 2 08:42 22.12.2019
2202 Clouds 5 995 86 10000 2.04 2 08:21 22.12.2019
2203 Clouds 6 996 81 10000 3.1 90 07:42 22.12.2019
2204 Clouds 6 996 81 10000 3.1 90 07:21 22.12.2019
2205 Clouds 7 996 70 10000 1.92 357 06:52 22.12.2019
2206 Clouds 7 996 70 10000 1.92 357 06:22 22.12.2019
2207 Clouds 7 996 70 10000 2.6 270 05:29 22.12.2019
2208 Clouds 7 996 75 10000 7.2 230 04:46 22.12.2019
2209 Clouds 7 996 75 10000 7.2 230 04:46 22.12.2019
2210 Clouds 7 996 75 10000 7.2 230 04:24 22.12.2019
2211 Clouds 8 995 65 10000 8.7 230 02:43 22.12.2019
2212 Clouds 8 995 65 10000 8.7 230 02:20 22.12.2019
2213 Clouds 8 993 65 10000 11.8 230 01:31 22.12.2019
2214 Rain 9 992 57 10000 12.9 230 00:54 22.12.2019
2215 Rain 9 992 57 10000 12.9 230 00:36 22.12.2019
2216 Rain 9 992 57 10000 12.9 230 00:18 22.12.2019
2217 Rain 10 991 61 10000 11.8 230 23:40 21.12.2019
2218 Rain 10 991 61 10000 11.8 230 23:21 21.12.2019
2219 Clouds 10 990 66 10000 10.8 230 22:47 21.12.2019
2220 Clouds 10 990 66 10000 10.8 230 22:20 21.12.2019
2221 Rain 10 989 66 10000 14.9 230 21:58 21.12.2019
2222 Rain 10 989 66 10000 14.9 230 21:40 21.12.2019
2223 Rain 10 989 66 10000 14.9 230 21:21 21.12.2019
2224 Clouds 11 988 62 10000 13.4 230 20:59 21.12.2019
2225 Clouds 11 988 62 10000 13.4 230 20:59 21.12.2019
2226 Clouds 11 988 62 10000 13.4 230 20:41 21.12.2019
2227 Clouds 11 988 62 10000 13.4 230 20:22 21.12.2019
2228 Clouds 12 987 58 10000 8.2 230 19:59 21.12.2019
2229 Clouds 12 987 58 10000 8.2 230 19:41 21.12.2019
2230 Clouds 12 987 58 10000 8.2 230 19:20 21.12.2019
2231 Clouds 12 987 58 10000 10.8 230 18:59 21.12.2019
2232 Clouds 12 987 58 10000 10.8 230 18:40 21.12.2019
2233 Clouds 15 987 58 10000 10.8 230 18:22 21.12.2019
2234 Rain 15 986 50 10000 12.3 230 17:55 21.12.2019
2235 Rain 15 986 50 10000 12.3 230 17:37 21.12.2019
2236 Rain 15 986 50 10000 12.3 230 17:18 21.12.2019
2237 Rain 15 987 47 10000 4.6 320 16:54 21.12.2019
2238 Rain 15 987 47 10000 4.6 320 16:36 21.12.2019
2239 Rain 15 987 47 10000 4.6 320 16:36 21.12.2019
2240 Rain 15 987 47 10000 4.6 320 16:18 21.12.2019
2241 Clouds 15 987 51 10000 7.7 320 15:55 21.12.2019
2242 Clouds 15 987 51 10000 7.7 320 15:36 21.12.2019
2243 Clouds 15 987 51 10000 7.7 320 15:18 21.12.2019
2244 Rain 15 987 47 10000 8.7 320 14:40 21.12.2019
2245 Rain 15 987 47 10000 8.7 320 14:40 21.12.2019
2246 Rain 15 987 47 10000 8.7 320 14:22 21.12.2019
2247 Rain 15 987 47 10000 8.7 320 14:22 21.12.2019
2248 Rain 14 987 50 10000 10.8 320 13:57 21.12.2019
2249 Rain 14 987 50 10000 10.8 320 13:39 21.12.2019
2250 Rain 14 987 50 10000 10.8 320 13:19 21.12.2019
2251 Clouds 12 988 54 10000 7.7 320 12:56 21.12.2019
2252 Clouds 12 988 54 10000 7.7 320 12:38 21.12.2019
2253 Clouds 12 988 54 10000 7.7 320 12:38 21.12.2019
2254 Clouds 12 988 54 10000 7.7 320 12:19 21.12.2019
2255 Clouds 12 989 58 10000 4.1 320 11:45 21.12.2019
2256 Clouds 12 989 58 10000 4.1 320 11:26 21.12.2019
2257 Clouds 13 990 50 10000 5.7 320 10:58 21.12.2019
2258 Clouds 13 990 50 10000 5.7 320 10:39 21.12.2019
2259 Clouds 13 990 50 10000 5.7 320 10:21 21.12.2019
2260 Clouds 13 991 50 10000 7.7 360 09:57 21.12.2019
2261 Clouds 13 991 50 10000 7.7 360 09:39 21.12.2019
2262 Clouds 13 991 50 10000 7.7 360 09:19 21.12.2019
2263 Clouds 13 992 50 10000 9.3 360 08:47 21.12.2019
2264 Clouds 13 992 50 10000 9.3 360 08:26 21.12.2019
2265 Clouds 13 993 54 10000 8.2 320 07:47 21.12.2019
2266 Clouds 13 993 54 10000 8.2 320 07:23 21.12.2019
2267 Clouds 13 994 47 10000 8.2 320 06:49 21.12.2019
2268 Clouds 13 994 47 10000 8.2 320 06:31 21.12.2019
2269 Clouds 14 994 44 10000 6.7 320 05:59 21.12.2019
2270 Clouds 13 995 47 10000 7.2 340 04:59 21.12.2019
2271 Clouds 13 995 47 10000 7.2 340 04:33 21.12.2019
2272 Clouds 13 996 47 10000 8.2 320 03:56 21.12.2019
2273 Rain 13 996 47 10000 7.7 320 02:23 21.12.2019
2274 Clouds 13 997 47 10000 6.2 320 01:42 21.12.2019
2275 Clouds 13 997 47 10000 6.2 320 01:23 21.12.2019
2276 Drizzle 13 998 47 10000 6.7 340 00:39 21.12.2019
2277 Drizzle 13 998 47 10000 6.7 340 00:20 21.12.2019
2278 Drizzle 13 998 47 10000 9.3 340 23:39 20.12.2019
2279 Drizzle 13 998 47 10000 9.3 340 23:20 20.12.2019
2280 Drizzle 13 999 47 10000 7.7 360 22:57 20.12.2019
2281 Drizzle 13 999 47 10000 7.7 360 22:38 20.12.2019
2282 Drizzle 13 999 47 10000 7.7 360 22:18 20.12.2019
2283 Clouds 13 1000 54 10000 6.7 360 21:41 20.12.2019
2284 Clouds 15 1000 54 10000 6.7 360 21:21 20.12.2019
2285 Clouds 16 1001 71 10000 6.7 320 20:57 20.12.2019
2286 Clouds 16 1001 71 10000 6.7 320 20:38 20.12.2019
2287 Clouds 16 1001 55 10000 6.7 320 20:19 20.12.2019
2288 Clouds 16 1002 38 10000 5.1 320 19:42 20.12.2019
2289 Clouds 16 1002 38 10000 5.1 320 19:21 20.12.2019
2290 Clouds 15 1002 44 10000 1.5 0 18:58 20.12.2019
2291 Clouds 15 1002 44 10000 1.5 0 18:40 20.12.2019
2292 Clouds 14 1002 44 10000 1.5 0 18:21 20.12.2019
2293 Clouds 14 1002 44 10000 1.5 0 18:21 20.12.2019
2294 Clouds 14 1002 54 10000 5.76 325 17:56 20.12.2019
2295 Clouds 14 1002 54 10000 5.76 325 17:56 20.12.2019
2296 Clouds 14 1002 54 10000 5.76 325 17:38 20.12.2019
2297 Clouds 14 1002 54 10000 3.72 326 17:20 20.12.2019
2298 Clouds 13 1002 62 10000 3.72 326 16:56 20.12.2019
2299 Clouds 13 1002 62 10000 3.72 326 16:37 20.12.2019
2300 Clouds 13 1002 62 10000 3.72 326 16:19 20.12.2019
2301 Clouds 13 1002 62 10000 3.72 326 15:54 20.12.2019
2302 Clouds 13 1002 62 10000 3.72 326 15:54 20.12.2019
2303 Clouds 13 1002 62 10000 3.72 326 15:36 20.12.2019
2304 Clouds 13 1002 62 10000 3.72 326 15:36 20.12.2019
2305 Clouds 13 1002 62 10000 3.72 326 15:18 20.12.2019
2306 Clouds 11 1002 62 10000 3.1 230 14:42 20.12.2019
2307 Clouds 11 1002 62 10000 3.1 230 14:23 20.12.2019
2308 Clouds 10 1003 66 10000 6.2 230 13:57 20.12.2019
2309 Clouds 10 1003 66 10000 6.2 230 13:37 20.12.2019
2310 Clouds 10 1003 66 10000 6.2 230 13:18 20.12.2019
2311 Clouds 10 1003 66 10000 6.2 230 13:18 20.12.2019
2312 Clouds 8 1002 87 10000 9.8 230 12:55 20.12.2019
2313 Clouds 8 1002 87 10000 9.8 230 12:36 20.12.2019
2314 Clouds 8 1002 87 10000 9.8 230 12:18 20.12.2019
2315 Clouds 10 1002 53 10000 5.1 230 11:57 20.12.2019
2316 Clouds 10 1002 53 10000 5.1 230 11:38 20.12.2019
2317 Clouds 10 1002 53 10000 5.1 230 11:18 20.12.2019
2318 Clouds 10 1001 53 10000 3.6 290 10:55 20.12.2019
2319 Clouds 10 1001 53 10000 3.6 290 10:37 20.12.2019
2320 Clouds 10 1001 53 10000 3.6 290 10:19 20.12.2019
2321 Clouds 10 1001 53 10000 5.1 320 09:42 20.12.2019
2322 Clouds 10 1001 53 10000 5.1 320 09:21 20.12.2019
2323 Clouds 9 1001 61 10000 5.1 320 08:54 20.12.2019
2324 Clouds 9 1001 61 10000 5.1 320 08:54 20.12.2019
2325 Clouds 9 1001 61 10000 5.1 320 08:36 20.12.2019
2326 Clouds 9 1001 61 10000 5.1 320 08:18 20.12.2019
2327 Clouds 9 1001 61 10000 2.1 290 07:55 20.12.2019
2328 Clouds 9 1001 61 10000 2.1 290 07:36 20.12.2019
2329 Clouds 9 1001 61 10000 2.1 290 07:18 20.12.2019
2330 Clouds 9 1001 70 10000 2.1 160 06:43 20.12.2019
2331 Clouds 9 1001 70 10000 2.1 160 06:25 20.12.2019
2332 Clouds 9 1001 70 10000 2.6 110 05:47 20.12.2019
2333 Clouds 9 1002 70 10000 5.7 320 04:57 20.12.2019
2334 Clouds 10 1002 61 10000 2.1 140 03:48 20.12.2019
2335 Clouds 12 1001 40 10000 2.56 342 02:46 20.12.2019
2336 Clouds 12 1000 66 10000 1.39 120 01:59 20.12.2019
2337 Clouds 12 1000 66 10000 1.39 120 01:35 20.12.2019
2338 Clouds 12 1001 46 10000 2.1 230 00:54 20.12.2019
2339 Clouds 12 1001 46 10000 2.1 230 00:35 20.12.2019
2340 Clouds 12 1000 70 10000 1.7 91 23:57 19.12.2019
2341 Clouds 12 1000 70 10000 1.7 91 23:39 19.12.2019
2342 Clouds 12 1000 42 10000 3.19 233 23:19 19.12.2019
2343 Clouds 12 1000 42 10000 5.7 230 22:39 19.12.2019
2344 Clouds 12 1000 42 10000 5.7 230 22:21 19.12.2019
2345 Clouds 12 1000 46 10000 8.7 230 21:56 19.12.2019
2346 Clouds 12 1000 46 10000 8.7 230 21:38 19.12.2019
2347 Clouds 12 1000 46 10000 8.7 230 21:19 19.12.2019
2348 Clouds 12 999 50 10000 10.3 230 20:56 19.12.2019
2349 Clouds 12 999 50 10000 10.3 230 20:37 19.12.2019
2350 Clouds 12 999 50 10000 10.3 230 20:19 19.12.2019
2351 Clouds 11 999 53 10000 10.8 230 19:58 19.12.2019
2352 Clouds 11 999 53 10000 10.8 230 19:58 19.12.2019
2353 Clouds 11 999 53 10000 10.8 230 19:39 19.12.2019
2354 Clouds 11 999 53 10000 10.8 230 19:19 19.12.2019
2355 Clouds 11 999 53 10000 10.8 230 19:19 19.12.2019
2356 Clouds 11 999 53 10000 9.8 230 18:57 19.12.2019
2357 Clouds 11 999 53 10000 9.8 230 18:39 19.12.2019
2358 Clouds 11 999 53 10000 9.8 230 18:19 19.12.2019
2359 Clouds 11 998 57 10000 10.3 230 17:55 19.12.2019
2360 Clouds 11 998 57 10000 10.3 230 17:37 19.12.2019
2361 Clouds 11 998 57 10000 10.3 230 17:18 19.12.2019
2362 Clouds 11 998 61 10000 11.3 230 16:55 19.12.2019
2363 Clouds 11 998 61 10000 11.3 230 16:55 19.12.2019
2364 Clouds 11 998 61 10000 11.3 230 16:37 19.12.2019
2365 Clouds 11 998 61 10000 11.3 230 16:19 19.12.2019
2366 Clouds 10 997 61 10000 9.8 230 15:55 19.12.2019
2367 Clouds 10 997 61 10000 9.8 230 15:37 19.12.2019
2368 Clouds 10 997 61 10000 9.8 230 15:18 19.12.2019
2369 Clouds 8 996 70 10000 9.8 230 14:42 19.12.2019
2370 Clouds 8 996 70 10000 9.8 230 14:20 19.12.2019
2371 Drizzle 8 996 75 10000 9.8 230 13:58 19.12.2019
2372 Drizzle 8 996 75 10000 9.8 230 13:38 19.12.2019
2373 Drizzle 8 996 75 10000 9.8 230 13:19 19.12.2019
2374 Clouds 8 995 65 10000 5.1 230 12:57 19.12.2019
2375 Clouds 8 995 65 10000 5.1 230 12:39 19.12.2019
2376 Clouds 8 995 65 10000 5.1 230 12:19 19.12.2019
2377 Clouds 7 995 70 10000 5.7 270 11:58 19.12.2019
2378 Clouds 7 995 70 10000 5.7 270 11:40 19.12.2019
2379 Clouds 7 995 70 10000 5.7 270 11:18 19.12.2019
2380 Clouds 7 994 65 10000 6.2 250 10:58 19.12.2019
2381 Clouds 7 994 65 10000 6.2 250 10:38 19.12.2019
2382 Clouds 7 994 65 10000 6.2 250 10:20 19.12.2019
2383 Clouds 7 993 65 10000 6.2 250 09:54 19.12.2019
2384 Clouds 7 993 65 10000 6.2 250 09:36 19.12.2019
2385 Clouds 7 993 65 10000 6.2 250 09:18 19.12.2019
2386 Clouds 6 992 75 10000 7.2 250 08:41 19.12.2019
2387 Clouds 6 992 75 10000 7.2 250 08:19 19.12.2019
2388 Clouds 7 992 70 10000 6.7 250 07:58 19.12.2019
2389 Clouds 7 992 70 10000 6.7 250 07:38 19.12.2019
2390 Clouds 7 992 70 10000 6.7 250 07:20 19.12.2019
2391 Clouds 7 990 75 10000 10.3 230 06:50 19.12.2019
2392 Clouds 7 990 75 10000 10.3 230 06:30 19.12.2019
2393 Rain 7 990 75 10000 7.2 250 05:55 19.12.2019
2394 Rain 7 990 75 10000 7.2 250 05:36 19.12.2019
2395 Clouds 7 989 87 10000 7.2 230 04:52 19.12.2019
2396 Drizzle 7 988 87 10000 8.2 230 03:23 19.12.2019
2397 Rain 7 988 87 10000 7.7 230 02:24 19.12.2019
2398 Rain 8 987 87 8000 3.6 200 01:23 19.12.2019
2399 Drizzle 8 986 87 10000 3.1 180 00:44 19.12.2019
2400 Drizzle 8 986 87 10000 3.1 180 00:24 19.12.2019
2401 Drizzle 9 985 87 10000 3.1 140 23:58 18.12.2019
2402 Drizzle 9 985 87 10000 3.1 140 23:38 18.12.2019
2403 Drizzle 9 985 87 10000 3.1 140 23:19 18.12.2019
2404 Drizzle 9 984 87 10000 4.1 180 22:56 18.12.2019
2405 Drizzle 9 984 87 10000 4.1 180 22:37 18.12.2019
2406 Drizzle 9 984 87 10000 4.1 180 22:19 18.12.2019
2407 Drizzle 9 982 87 10000 5.1 180 21:56 18.12.2019
2408 Drizzle 9 982 87 10000 5.1 180 21:38 18.12.2019
2409 Drizzle 9 982 87 10000 5.1 180 21:19 18.12.2019
2410 Drizzle 9 982 87 10000 3.1 180 20:55 18.12.2019
2411 Drizzle 9 982 87 10000 3.1 180 20:37 18.12.2019
2412 Drizzle 9 982 87 10000 3.1 180 20:19 18.12.2019
2413 Drizzle 9 981 87 10000 4.1 180 19:55 18.12.2019
2414 Drizzle 9 981 87 10000 4.1 180 19:37 18.12.2019
2415 Drizzle 9 981 87 10000 4.1 180 19:18 18.12.2019
2416 Drizzle 9 981 87 10000 4.1 180 19:18 18.12.2019
2417 Drizzle 9 981 81 10000 4.1 180 18:44 18.12.2019
2418 Drizzle 9 981 81 10000 4.1 180 18:25 18.12.2019
2419 Drizzle 9 981 81 10000 4.1 180 18:25 18.12.2019
2420 Drizzle 8 980 100 10000 4.1 180 17:57 18.12.2019
2421 Drizzle 8 980 100 10000 4.1 180 17:39 18.12.2019
2422 Drizzle 8 980 100 10000 4.1 180 17:19 18.12.2019
2423 Drizzle 8 980 100 10000 4.1 180 17:19 18.12.2019
2424 Drizzle 8 979 93 10000 2.1 180 16:56 18.12.2019
2425 Drizzle 8 979 93 10000 2.1 180 16:56 18.12.2019
2426 Drizzle 8 979 93 10000 2.1 180 16:38 18.12.2019
2427 Drizzle 8 979 93 10000 2.1 180 16:20 18.12.2019
2428 Drizzle 9 980 93 10000 3.6 230 15:55 18.12.2019
2429 Drizzle 9 980 93 10000 3.6 230 15:37 18.12.2019
2430 Drizzle 9 980 93 10000 3.6 230 15:18 18.12.2019
2431 Drizzle 8 979 93 7000 3.1 230 14:42 18.12.2019
2432 Drizzle 8 979 93 7000 3.1 230 14:42 18.12.2019
2433 Drizzle 8 980 93 10000 1.16 168 14:22 18.12.2019
2434 Drizzle 8 979 93 10000 2.1 300 13:57 18.12.2019
2435 Drizzle 8 979 93 10000 2.1 300 13:38 18.12.2019
2436 Clouds 8 981 93 10000 0.73 163 13:20 18.12.2019
2437 Drizzle 8 980 93 10000 0.73 163 12:58 18.12.2019
2438 Drizzle 8 980 93 10000 0.73 163 12:38 18.12.2019
2439 Drizzle 8 980 93 10000 0.73 163 12:20 18.12.2019
2440 Drizzle 7 980 93 10000 0.73 163 11:56 18.12.2019
2441 Drizzle 7 980 93 10000 0.73 163 11:38 18.12.2019
2442 Drizzle 7 980 93 10000 1.41 131 11:19 18.12.2019
2443 Drizzle 7 980 93 10000 1.41 131 11:19 18.12.2019
2444 Drizzle 8 980 93 10000 1.41 131 10:55 18.12.2019
2445 Drizzle 8 980 93 10000 1.41 131 10:37 18.12.2019
2446 Drizzle 8 980 93 10000 1.41 131 10:19 18.12.2019
2447 Clouds 8 981 93 10000 2.1 50 09:50 18.12.2019
2448 Clouds 8 981 93 10000 2.1 50 09:50 18.12.2019
2449 Clouds 8 981 93 10000 2.1 50 09:18 18.12.2019
2450 Clouds 8 981 93 10000 3.1 90 08:41 18.12.2019
2451 Clouds 8 981 93 10000 3.1 90 08:22 18.12.2019
2452 Drizzle 8 982 93 10000 3.6 50 07:45 18.12.2019
2453 Drizzle 8 982 93 10000 3.6 50 07:24 18.12.2019
2454 Drizzle 8 982 93 10000 4.1 90 06:57 18.12.2019
2455 Drizzle 8 982 93 10000 4.1 90 06:28 18.12.2019
2456 Drizzle 8 983 93 10000 4.6 90 05:57 18.12.2019
2457 Drizzle 8 983 93 10000 4.6 90 05:22 18.12.2019
2458 Rain 9 984 81 10000 1.48 121 03:31 18.12.2019
2459 Rain 10 984 76 10000 2.6 230 02:38 18.12.2019
2460 Rain 10 984 76 10000 2.6 230 02:20 18.12.2019
2461 Rain 10 984 76 10000 1.5 250 01:42 18.12.2019
2462 Clouds 10 984 76 10000 2.6 270 01:23 18.12.2019
2463 Clouds 11 984 71 10000 6.2 230 00:42 18.12.2019
2464 Clouds 11 984 71 10000 6.2 230 00:23 18.12.2019
2465 Drizzle 11 984 66 10000 3.1 230 23:57 17.12.2019
2466 Drizzle 11 984 66 10000 3.1 230 23:39 17.12.2019
2467 Drizzle 12 984 66 10000 3.1 230 23:19 17.12.2019
2468 Drizzle 13 984 62 10000 3.1 230 22:56 17.12.2019
2469 Drizzle 13 984 62 10000 3.1 230 22:38 17.12.2019
2470 Drizzle 13 984 62 10000 3.1 230 22:19 17.12.2019
2471 Clouds 14 984 62 10000 1.5 230 21:55 17.12.2019
2472 Clouds 14 984 62 10000 1.5 230 21:37 17.12.2019
2473 Clouds 14 984 62 10000 1.5 230 21:19 17.12.2019
2474 Clouds 12 985 58 10000 1.5 140 20:57 17.12.2019
2475 Clouds 12 985 58 10000 1.5 140 20:38 17.12.2019
2476 Clouds 12 985 58 10000 1.5 140 20:18 17.12.2019
2477 Clouds 12 985 58 10000 1.5 140 20:18 17.12.2019
2478 Clouds 13 985 62 10000 2.6 50 19:56 17.12.2019
2479 Clouds 13 985 62 10000 2.6 50 19:37 17.12.2019
2480 Clouds 13 985 62 10000 2.6 50 19:18 17.12.2019
2481 Clouds 13 985 62 10000 2.6 50 19:18 17.12.2019
2482 Clouds 11 986 62 10000 4.1 50 18:54 17.12.2019
2483 Clouds 11 986 62 10000 4.1 50 18:36 17.12.2019
2484 Clouds 11 986 62 10000 4.1 50 18:18 17.12.2019
2485 Clouds 11 987 66 10000 3.1 50 17:42 17.12.2019
2486 Clouds 11 987 66 10000 3.1 50 17:20 17.12.2019
2487 Clouds 10 987 62 10000 3.1 50 16:56 17.12.2019
2488 Clouds 10 987 62 10000 3.1 50 16:38 17.12.2019
2489 Clouds 10 987 62 10000 3.1 50 16:19 17.12.2019
2490 Clouds 9 988 66 10000 2.34 341 15:58 17.12.2019
2491 Clouds 9 988 66 10000 2.34 341 15:37 17.12.2019
2492 Clouds 9 988 66 10000 2.34 341 15:19 17.12.2019
2493 Clouds 9 988 66 10000 2.34 341 14:56 17.12.2019
2494 Clouds 9 988 66 10000 2.34 341 14:37 17.12.2019
2495 Clouds 9 988 66 10000 2.45 0 14:18 17.12.2019
2496 Clouds 9 988 66 10000 2.45 0 14:18 17.12.2019
2497 Clouds 9 988 66 10000 2.45 0 14:18 17.12.2019
2498 Clouds 8 990 70 10000 3.6 140 13:56 17.12.2019
2499 Clouds 8 990 70 10000 3.6 140 13:38 17.12.2019
2500 Clouds 8 990 70 10000 3.6 140 13:18 17.12.2019
2501 Clouds 7 990 70 10000 2.63 343 12:55 17.12.2019
2502 Clouds 7 990 70 10000 2.63 343 12:37 17.12.2019
2503 Clouds 7 990 70 10000 2.63 343 12:18 17.12.2019
2504 Drizzle 6 992 87 10000 2.63 343 11:55 17.12.2019
2505 Drizzle 6 992 87 10000 2.63 343 11:36 17.12.2019
2506 Drizzle 6 992 87 10000 2.92 4 11:18 17.12.2019
2507 Drizzle 6 992 87 10000 2.92 4 11:18 17.12.2019
2508 Drizzle 6 993 70 10000 2.1 140 10:55 17.12.2019
2509 Drizzle 6 993 70 10000 2.1 140 10:36 17.12.2019
2510 Drizzle 6 993 70 10000 2.1 140 10:18 17.12.2019
2511 Clouds 6 994 70 10000 2.6 320 09:42 17.12.2019
2512 Clouds 6 994 70 10000 2.6 320 09:21 17.12.2019
2513 Drizzle 6 995 70 10000 5.7 360 08:58 17.12.2019
2514 Drizzle 6 995 70 10000 5.7 360 08:39 17.12.2019
2515 Drizzle 6 995 70 10000 5.7 360 08:21 17.12.2019
2516 Drizzle 6 996 92 10000 3.13 19 07:57 17.12.2019
2517 Drizzle 6 996 92 10000 3.13 19 07:38 17.12.2019
2518 Drizzle 6 996 92 10000 3.13 19 07:18 17.12.2019
2519 Clouds 6 998 92 10000 2.1 320 06:36 17.12.2019
2520 Clouds 6 998 92 10000 2.1 320 06:18 17.12.2019
2521 Clouds 6 999 92 10000 5.1 230 05:38 17.12.2019
2522 Clouds 6 1000 96 10000 3.1 50 04:46 17.12.2019
2523 Clouds 7 1002 56 10000 1.6 59 02:47 17.12.2019
2524 Clouds 3 1002 79 0 0.91 116 01:56 17.12.2019
2525 Clouds 7 1004 80 10000 5.7 230 01:20 17.12.2019
2526 Clouds 7 1004 80 10000 5.7 230 00:38 17.12.2019
2527 Clouds 8 1004 80 10000 5.7 230 00:20 17.12.2019
2528 Clouds 8 1004 70 10000 7.7 230 23:42 16.12.2019
2529 Clouds 8 1004 70 10000 7.7 230 23:19 16.12.2019
2530 Clouds 7 1004 75 10000 8.7 230 22:58 16.12.2019
2531 Clouds 7 1004 75 10000 8.7 230 22:38 16.12.2019
2532 Clouds 7 1004 75 10000 8.7 230 22:20 16.12.2019
2533 Clouds 7 1004 75 10000 8.7 230 22:20 16.12.2019
2534 Clouds 7 1004 81 10000 11.3 230 21:56 16.12.2019
2535 Clouds 7 1004 81 10000 11.3 230 21:38 16.12.2019
2536 Clouds 7 1004 81 10000 11.3 230 21:20 16.12.2019
2537 Clouds 7 1005 81 10000 7.2 230 20:58 16.12.2019
2538 Clouds 7 1005 81 10000 7.2 230 20:38 16.12.2019
2539 Clouds 7 1005 81 10000 7.2 230 20:19 16.12.2019
2540 Clouds 7 1004 81 10000 9.8 230 19:56 16.12.2019
2541 Clouds 7 1004 81 10000 9.8 230 19:37 16.12.2019
2542 Clouds 7 1004 81 10000 9.8 230 19:19 16.12.2019
2543 Clouds 8 1005 87 10000 10.3 230 18:56 16.12.2019
2544 Clouds 8 1005 87 10000 10.3 230 18:56 16.12.2019
2545 Clouds 8 1005 87 10000 10.3 230 18:38 16.12.2019
2546 Clouds 8 1005 87 10000 10.3 230 18:19 16.12.2019
2547 Clouds 7 1004 87 10000 9.8 230 17:57 16.12.2019
2548 Clouds 7 1004 87 10000 9.8 230 17:38 16.12.2019
2549 Clouds 7 1004 87 10000 9.8 230 17:20 16.12.2019
2550 Clouds 7 1004 87 10000 9.8 230 17:20 16.12.2019
2551 Clouds 6 1004 81 10000 8.7 230 16:57 16.12.2019
2552 Clouds 6 1004 81 10000 8.7 230 16:38 16.12.2019
2553 Clouds 6 1004 81 10000 8.7 230 16:19 16.12.2019
2554 Clouds 7 1004 87 10000 9.8 230 15:57 16.12.2019
2555 Clouds 7 1004 87 10000 9.8 230 15:38 16.12.2019
2556 Clouds 7 1004 87 10000 9.8 230 15:20 16.12.2019
2557 Clouds 5 1004 81 10000 8.7 230 14:55 16.12.2019
2558 Clouds 5 1004 81 10000 8.7 230 14:37 16.12.2019
2559 Clouds 5 1004 81 10000 8.7 230 14:18 16.12.2019
2560 Clouds 5 1004 81 10000 8.7 230 14:18 16.12.2019
2561 Drizzle 4 1004 80 10000 9.8 230 13:56 16.12.2019
2562 Drizzle 4 1004 80 10000 9.8 230 13:37 16.12.2019
2563 Drizzle 4 1004 80 10000 9.8 230 13:19 16.12.2019
2564 Drizzle 3 1004 86 10000 11.3 230 12:57 16.12.2019
2565 Drizzle 3 1004 86 10000 11.3 230 12:39 16.12.2019
2566 Drizzle 3 1004 86 10000 11.3 230 12:18 16.12.2019
2567 Drizzle 3 1003 86 10000 10.8 230 11:57 16.12.2019
2568 Drizzle 3 1003 86 10000 10.8 230 11:39 16.12.2019
2569 Drizzle 3 1003 86 10000 10.8 230 11:19 16.12.2019
2570 Drizzle 3 1003 90 10000 10.8 230 10:55 16.12.2019
2571 Drizzle 3 1003 90 10000 10.8 230 10:36 16.12.2019
2572 Drizzle 3 1003 90 10000 10.8 230 10:18 16.12.2019
2573 Rain 4 1002 90 10000 11.3 230 09:44 16.12.2019
2574 Rain 4 1002 90 10000 11.3 230 09:26 16.12.2019
2575 Clouds 4 1002 64 10000 11.8 230 08:41 16.12.2019
2576 Clouds 4 1002 64 10000 11.8 230 08:20 16.12.2019
2577 Drizzle 4 1002 69 10000 11.3 230 07:53 16.12.2019
2578 Drizzle 4 1002 69 10000 11.3 230 07:33 16.12.2019
2579 Drizzle 4 1002 89 10000 9.8 230 06:59 16.12.2019
2580 Drizzle 4 1002 89 10000 9.8 230 06:40 16.12.2019
2581 Drizzle 4 1002 89 10000 9.8 230 06:21 16.12.2019
2582 Drizzle 4 1001 89 10000 12.3 230 05:41 16.12.2019
2583 Drizzle 4 1001 89 10000 12.3 230 05:23 16.12.2019
2584 Rain 6 1000 75 10000 12.9 230 03:33 16.12.2019
2585 Rain 7 998 75 10000 13.4 230 01:52 16.12.2019
2586 Rain 7 998 75 10000 13.4 230 01:33 16.12.2019
2587 Rain 8 998 70 10000 13.9 230 00:41 16.12.2019
2588 Rain 8 998 70 10000 13.9 230 00:21 16.12.2019
2589 Rain 8 997 70 10000 12.9 230 23:57 15.12.2019
2590 Rain 8 997 70 10000 12.9 230 23:37 15.12.2019
2591 Rain 8 997 70 10000 12.9 230 23:19 15.12.2019
2592 Clouds 8 996 70 10000 14.4 230 22:54 15.12.2019
2593 Clouds 8 996 70 10000 14.4 230 22:36 15.12.2019
2594 Clouds 8 996 70 10000 14.4 230 22:18 15.12.2019
2595 Drizzle 10 995 66 10000 13.9 230 21:54 15.12.2019
2596 Drizzle 10 995 66 10000 13.9 230 21:36 15.12.2019
2597 Drizzle 10 995 66 10000 13.9 230 21:18 15.12.2019
2598 Drizzle 9 994 70 10000 12.3 230 20:54 15.12.2019
2599 Drizzle 9 994 70 10000 12.3 230 20:36 15.12.2019
2600 Drizzle 11 994 70 10000 12.3 230 20:18 15.12.2019
2601 Drizzle 11 994 66 10000 13.4 230 19:54 15.12.2019
2602 Drizzle 11 994 66 10000 13.4 230 19:36 15.12.2019
2603 Drizzle 11 994 66 10000 13.4 230 19:18 15.12.2019
2604 Drizzle 11 993 70 10000 12.9 230 18:54 15.12.2019
2605 Drizzle 11 993 70 10000 12.9 230 18:36 15.12.2019
2606 Drizzle 11 993 70 10000 12.9 230 18:18 15.12.2019
2607 Clouds 10 992 66 10000 12.9 230 17:54 15.12.2019
2608 Clouds 10 992 66 10000 12.9 230 17:36 15.12.2019
2609 Clouds 10 992 66 10000 12.9 230 17:18 15.12.2019
2610 Clouds 10 992 70 10000 11.3 230 16:42 15.12.2019
2611 Clouds 10 992 70 10000 11.3 230 16:22 15.12.2019
2612 Clouds 10 992 61 10000 13.4 230 15:57 15.12.2019
2613 Clouds 10 992 61 10000 13.4 230 15:38 15.12.2019
2614 Clouds 10 992 61 10000 13.4 230 15:19 15.12.2019
2615 Clouds 11 992 57 10000 10.8 230 14:56 15.12.2019
2616 Clouds 11 992 57 10000 10.8 230 14:37 15.12.2019
2617 Clouds 11 992 57 10000 10.8 230 14:19 15.12.2019
2618 Clouds 11 992 62 10000 12.3 230 13:58 15.12.2019
2619 Clouds 11 992 62 10000 12.3 230 13:38 15.12.2019
2620 Clouds 11 992 62 10000 12.3 230 13:19 15.12.2019
2621 Rain 10 992 81 10000 7.7 230 12:57 15.12.2019
2622 Rain 10 992 81 10000 7.7 230 12:39 15.12.2019
2623 Rain 10 992 81 10000 7.7 230 12:21 15.12.2019
2624 Clouds 9 992 70 10000 7.2 230 11:58 15.12.2019
2625 Clouds 9 992 70 10000 7.2 230 11:37 15.12.2019
2626 Clouds 9 992 70 10000 7.2 230 11:19 15.12.2019
2627 Clouds 9 992 70 10000 4.1 230 10:55 15.12.2019
2628 Clouds 9 992 70 10000 4.1 230 10:37 15.12.2019
2629 Clouds 9 992 70 10000 4.1 230 10:19 15.12.2019
2630 Clouds 8 992 81 10000 1.32 274 09:41 15.12.2019
2631 Clouds 8 992 81 10000 1.32 274 09:20 15.12.2019
2632 Clouds 9 992 70 10000 4.1 250 08:59 15.12.2019
2633 Clouds 9 992 70 10000 4.1 250 08:41 15.12.2019
2634 Clouds 9 992 70 10000 4.1 250 08:22 15.12.2019
2635 Clouds 9 992 70 10000 2.6 230 07:56 15.12.2019
2636 Clouds 9 992 70 10000 2.6 230 07:35 15.12.2019
2637 Clouds 9 992 76 10000 2.1 230 06:52 15.12.2019
2638 Clouds 9 992 76 10000 2.1 230 06:20 15.12.2019
2639 Clouds 9 991 76 10000 3.6 230 05:37 15.12.2019
2640 Clouds 9 991 76 10000 3.6 230 05:18 15.12.2019
2641 Clouds 10 992 71 10000 1.46 333 03:54 15.12.2019
2642 Clouds 11 992 66 10000 3.1 320 02:34 15.12.2019
2643 Clouds 11 991 62 10000 2.1 360 01:50 15.12.2019
2644 Clouds 11 991 62 10000 2.1 360 01:28 15.12.2019
2645 Clouds 12 992 62 10000 0.67 9 00:59 15.12.2019
2646 Clouds 12 992 62 10000 0.67 9 00:41 15.12.2019
2647 Clouds 12 992 62 10000 0.67 9 00:23 15.12.2019
2648 Drizzle 12 992 62 10000 1.5 90 23:40 14.12.2019
2649 Drizzle 12 992 62 10000 1.5 90 23:21 14.12.2019
2650 Clouds 12 992 62 10000 4.1 160 22:58 14.12.2019
2651 Clouds 12 992 62 10000 4.1 160 22:40 14.12.2019
2652 Clouds 12 992 62 10000 4.1 160 22:21 14.12.2019
2653 Clouds 12 992 58 10000 3.1 160 21:56 14.12.2019
2654 Clouds 12 992 58 10000 3.1 160 21:38 14.12.2019
2655 Clouds 12 992 58 10000 3.1 160 21:19 14.12.2019
2656 Rain 12 993 54 10000 4.1 70 20:57 14.12.2019
2657 Rain 12 993 54 10000 4.1 70 20:39 14.12.2019
2658 Rain 13 993 54 10000 4.1 70 20:19 14.12.2019
2659 Rain 13 993 50 10000 7.2 340 19:57 14.12.2019
2660 Rain 13 993 50 10000 7.2 340 19:37 14.12.2019
2661 Rain 13 993 50 10000 7.2 340 19:19 14.12.2019
2662 Clouds 12 993 47 10000 6.2 340 18:56 14.12.2019
2663 Clouds 12 993 47 10000 6.2 340 18:37 14.12.2019
2664 Clouds 12 993 47 10000 6.2 340 18:19 14.12.2019
2665 Clouds 12 993 47 10000 6.2 340 18:19 14.12.2019
2666 Clouds 11 994 54 10000 4.8 344 17:43 14.12.2019
2667 Clouds 11 994 54 10000 4.8 344 17:24 14.12.2019
2668 Clouds 10 995 62 10000 4.29 352 16:58 14.12.2019
2669 Clouds 10 995 62 10000 4.29 352 16:38 14.12.2019
2670 Clouds 10 995 62 10000 4.29 352 16:38 14.12.2019
2671 Clouds 10 995 62 10000 4.29 352 16:18 14.12.2019
2672 Clouds 9 995 81 10000 4.29 352 15:43 14.12.2019
2673 Clouds 9 995 81 10000 4.29 352 15:22 14.12.2019
2674 Clouds 11 996 81 10000 3.1 90 14:59 14.12.2019
2675 Clouds 11 996 81 10000 3.1 90 14:38 14.12.2019
2676 Clouds 11 996 81 10000 3.1 90 14:19 14.12.2019
2677 Clouds 10 997 81 10000 3.1 90 13:55 14.12.2019
2678 Clouds 10 997 81 10000 3.1 90 13:37 14.12.2019
2679 Clouds 10 997 81 10000 3.1 90 13:18 14.12.2019
2680 Clouds 8 997 81 10000 2.6 90 12:54 14.12.2019
2681 Clouds 8 997 81 10000 2.6 90 12:36 14.12.2019
2682 Clouds 8 997 81 10000 2.6 90 12:18 14.12.2019
2683 Clouds 7 998 93 10000 3.1 360 11:54 14.12.2019
2684 Clouds 7 998 93 10000 3.1 360 11:36 14.12.2019
2685 Clouds 7 998 93 10000 3.1 360 11:18 14.12.2019
2686 Clouds 6 998 93 10000 1.53 346 10:55 14.12.2019
2687 Clouds 6 998 93 10000 1.48 344 10:36 14.12.2019
2688 Clouds 6 998 93 10000 1.53 346 10:18 14.12.2019
2689 Clouds 6 998 93 10000 1.48 344 09:40 14.12.2019
2690 Clouds 6 998 93 10000 1.48 344 09:20 14.12.2019
2691 Clouds 7 997 87 10000 1.48 344 08:44 14.12.2019
2692 Clouds 7 997 87 10000 1.81 355 08:20 14.12.2019
2693 Clouds 6 998 100 10000 2.1 20 07:57 14.12.2019
2694 Clouds 6 998 100 10000 2.1 20 07:38 14.12.2019
2695 Clouds 6 998 100 10000 2.1 20 07:19 14.12.2019
2696 Clouds 7 998 87 10000 1.81 355 06:39 14.12.2019
2697 Clouds 7 998 87 10000 1.81 355 06:20 14.12.2019
2698 Clouds 7 998 93 10000 2.1 50 05:22 14.12.2019
2699 Clouds 8 997 75 10000 4.6 90 02:49 14.12.2019
2700 Clouds 8 997 75 10000 4.6 90 02:22 14.12.2019
2701 Drizzle 8 997 75 10000 6.2 90 01:43 14.12.2019
2702 Rain 8 997 81 10000 6.7 90 00:54 14.12.2019
2703 Rain 8 997 81 10000 6.7 90 00:36 14.12.2019
2704 Rain 8 997 81 10000 6.7 90 00:18 14.12.2019
2705 Clouds 9 997 70 10000 6.7 90 23:39 13.12.2019
2706 Clouds 9 997 70 10000 6.7 90 23:19 13.12.2019
2707 Rain 10 997 66 10000 5.7 70 22:55 13.12.2019
2708 Rain 10 997 66 10000 5.7 70 22:36 13.12.2019
2709 Rain 10 997 66 10000 5.7 70 22:18 13.12.2019
2710 Rain 10 997 66 10000 4.1 50 21:40 13.12.2019
2711 Rain 9 997 66 10000 4.1 50 21:21 13.12.2019
2712 Drizzle 8 997 70 10000 3.1 160 20:57 13.12.2019
2713 Drizzle 9 997 70 10000 3.1 160 20:38 13.12.2019
2714 Drizzle 9 997 70 10000 2.1 140 20:19 13.12.2019
2715 Drizzle 9 997 70 10000 2.1 140 19:56 13.12.2019
2716 Drizzle 9 997 70 10000 2.1 140 19:37 13.12.2019
2717 Drizzle 9 997 70 10000 2.1 140 19:18 13.12.2019
2718 Drizzle 8 996 70 10000 3.1 180 18:42 13.12.2019
2719 Drizzle 8 996 70 10000 3.1 180 18:20 13.12.2019
2720 Drizzle 8 996 70 10000 3.1 180 18:20 13.12.2019
2721 Rain 10 996 61 10000 2.6 230 17:59 13.12.2019
2722 Rain 10 996 61 10000 2.6 230 17:39 13.12.2019
2723 Rain 9 996 61 10000 2.6 230 17:18 13.12.2019
2724 Rain 9 996 61 10000 2.6 230 17:18 13.12.2019
2725 Drizzle 9 997 70 10000 7.7 360 16:56 13.12.2019
2726 Drizzle 9 997 70 10000 7.7 360 16:38 13.12.2019
2727 Drizzle 9 997 70 10000 7.7 360 16:19 13.12.2019
2728 Clouds 9 997 70 10000 6.7 360 15:42 13.12.2019
2729 Clouds 9 997 70 10000 6.7 360 15:21 13.12.2019
2730 Clouds 9 998 65 10000 3.65 356 14:57 13.12.2019
2731 Clouds 9 998 65 10000 3.65 356 14:37 13.12.2019
2732 Clouds 9 998 65 10000 2.57 17 14:18 13.12.2019
2733 Clouds 8 998 70 10000 2.57 17 13:43 13.12.2019
2734 Clouds 8 998 70 10000 3.03 13 13:24 13.12.2019
2735 Clouds 7 999 81 10000 3.03 13 12:57 13.12.2019
2736 Clouds 7 999 81 10000 3.03 13 12:39 13.12.2019
2737 Clouds 7 999 81 10000 3.03 13 12:18 13.12.2019
2738 Clouds 5 1000 80 10000 2.1 360 11:43 13.12.2019
2739 Clouds 5 1000 80 10000 2.1 360 11:25 13.12.2019
2740 Clouds 5 1000 80 10000 4.1 50 10:56 13.12.2019
2741 Clouds 5 1000 80 10000 4.1 50 10:38 13.12.2019
2742 Clouds 5 1000 80 10000 4.1 50 10:20 13.12.2019
2743 Clouds 4 1001 80 10000 6.2 70 09:42 13.12.2019
2744 Clouds 4 1001 80 10000 6.2 70 09:21 13.12.2019
2745 Clouds 4 1001 80 10000 3.1 50 08:45 13.12.2019
2746 Clouds 4 1001 80 10000 3.1 50 08:27 13.12.2019
2747 Clouds 4 1002 80 10000 5.1 70 07:50 13.12.2019
2748 Clouds 4 1002 80 10000 5.1 70 07:26 13.12.2019
2749 Clouds 5 1003 75 10000 4.1 90 06:57 13.12.2019
2750 Clouds 5 1003 75 10000 4.1 90 06:32 13.12.2019
2751 Clouds 5 1003 75 10000 4.6 70 05:52 13.12.2019
2752 Clouds 5 1003 75 10000 4.6 70 05:33 13.12.2019
2753 Drizzle 6 1004 70 10000 5.1 50 04:54 13.12.2019
2754 Drizzle 6 1004 70 10000 4.1 50 03:52 13.12.2019
2755 Clouds 8 1004 65 10000 3.1 140 02:35 13.12.2019
2756 Clouds 8 1004 65 10000 4.6 140 01:54 13.12.2019
2757 Clouds 8 1004 65 10000 4.6 140 01:27 13.12.2019
2758 Clouds 8 1003 61 10000 9.3 230 00:47 13.12.2019
2759 Clouds 8 1003 61 10000 9.3 230 00:26 13.12.2019
2760 Clouds 9 1003 61 10000 10.3 230 23:42 12.12.2019
2761 Clouds 9 1003 61 10000 10.3 230 23:24 12.12.2019
2762 Clouds 9 1003 66 10000 10.3 230 22:56 12.12.2019
2763 Clouds 9 1003 66 10000 10.3 230 22:38 12.12.2019
2764 Clouds 9 1003 66 10000 10.3 230 22:19 12.12.2019
2765 Clouds 10 1003 70 10000 12.3 230 21:56 12.12.2019
2766 Clouds 10 1003 70 10000 12.3 230 21:37 12.12.2019
2767 Clouds 10 1003 70 10000 12.3 230 21:19 12.12.2019
2768 Clouds 10 1003 66 10000 13.4 230 20:58 12.12.2019
2769 Clouds 10 1003 66 10000 13.4 230 20:40 12.12.2019
2770 Clouds 10 1003 66 10000 13.4 230 20:21 12.12.2019
2771 Clouds 9 1003 70 10000 11.3 230 19:56 12.12.2019
2772 Clouds 9 1003 70 10000 11.3 230 19:37 12.12.2019
2773 Clouds 9 1003 70 10000 11.3 230 19:18 12.12.2019
2774 Clouds 9 1002 66 10000 10.3 230 18:55 12.12.2019
2775 Clouds 9 1002 66 10000 10.3 230 18:37 12.12.2019
2776 Clouds 9 1002 66 10000 10.3 230 18:19 12.12.2019
2777 Clouds 8 1002 66 10000 11.3 230 17:55 12.12.2019
2778 Clouds 8 1002 66 10000 11.3 230 17:37 12.12.2019
2779 Clouds 8 1002 66 10000 11.3 230 17:19 12.12.2019
2780 Clouds 8 1002 70 10000 11.3 230 16:54 12.12.2019
2781 Clouds 8 1002 70 10000 11.3 230 16:36 12.12.2019
2782 Clouds 8 1002 70 10000 11.3 230 16:18 12.12.2019
2783 Clouds 6 1003 75 10000 9.8 230 15:42 12.12.2019
2784 Clouds 6 1003 75 10000 9.8 230 15:20 12.12.2019
2785 Clouds 6 1003 75 10000 9.8 230 15:20 12.12.2019
2786 Clouds 7 1003 81 10000 7.7 230 14:57 12.12.2019
2787 Clouds 7 1003 81 10000 7.7 230 14:57 12.12.2019
2788 Clouds 7 1003 81 10000 7.7 230 14:37 12.12.2019
2789 Clouds 7 1003 81 10000 7.7 230 14:19 12.12.2019
2790 Clouds 5 1004 93 10000 2.03 240 13:55 12.12.2019
2791 Clouds 5 1004 93 10000 2.03 240 13:37 12.12.2019
2792 Clouds 5 1004 93 10000 2.03 240 13:19 12.12.2019
2793 Drizzle 5 1004 93 10000 3.1 290 12:55 12.12.2019
2794 Drizzle 5 1004 93 10000 3.1 290 12:37 12.12.2019
2795 Drizzle 5 1004 93 10000 3.1 290 12:18 12.12.2019
2796 Rain 4 1004 86 10000 2.6 270 11:43 12.12.2019
2797 Rain 4 1004 86 10000 2.6 270 11:22 12.12.2019
2798 Rain 4 1004 86 10000 5.1 270 10:59 12.12.2019
2799 Rain 4 1004 86 10000 5.1 270 10:41 12.12.2019
2800 Rain 4 1004 86 10000 5.1 270 10:23 12.12.2019
2801 Drizzle 4 1004 86 10000 4.1 270 09:58 12.12.2019
2802 Drizzle 4 1004 86 10000 4.1 270 09:40 12.12.2019
2803 Drizzle 4 1004 86 10000 4.1 270 09:21 12.12.2019
2804 Drizzle 5 1003 80 10000 5.7 230 08:54 12.12.2019
2805 Drizzle 5 1003 80 10000 5.7 230 08:36 12.12.2019
2806 Drizzle 5 1003 80 10000 5.7 230 08:18 12.12.2019
2807 Drizzle 5 1003 80 10000 6.7 230 07:41 12.12.2019
2808 Drizzle 5 1003 80 10000 6.7 230 07:21 12.12.2019
2809 Drizzle 5 1003 80 10000 7.7 230 06:43 12.12.2019
2810 Drizzle 5 1003 80 10000 7.7 230 06:23 12.12.2019
2811 Drizzle 5 1003 80 10000 9.3 230 05:35 12.12.2019
2812 Rain 7 1004 81 10000 11.8 230 04:49 12.12.2019
2813 Clouds 7 1002 70 10000 14.4 230 02:44 12.12.2019
2814 Clouds 7 1002 70 10000 14.4 230 02:26 12.12.2019
2815 Clouds 9 1001 65 10000 12.9 230 01:59 12.12.2019
2816 Clouds 9 1001 65 10000 12.9 230 01:36 12.12.2019
2817 Rain 9 1001 61 10000 9.3 230 00:58 12.12.2019
2818 Rain 9 1001 61 10000 9.3 230 00:38 12.12.2019
2819 Rain 9 1001 61 10000 9.3 230 00:18 12.12.2019
2820 Clouds 10 1001 53 10000 8.2 230 23:40 11.12.2019
2821 Clouds 10 1001 53 10000 8.2 230 23:20 11.12.2019
2822 Clouds 10 1001 53 10000 8.7 230 22:57 11.12.2019
2823 Clouds 10 1001 53 10000 8.7 230 22:57 11.12.2019
2824 Clouds 10 1001 53 10000 8.7 230 22:38 11.12.2019
2825 Clouds 10 1001 53 10000 8.7 230 22:19 11.12.2019
2826 Clouds 10 1000 66 10000 7.7 230 21:56 11.12.2019
2827 Clouds 10 1000 66 10000 7.7 230 21:37 11.12.2019
2828 Clouds 10 1000 66 10000 7.7 230 21:37 11.12.2019
2829 Clouds 10 1000 66 10000 7.7 230 21:19 11.12.2019
2830 Clouds 10 1000 66 10000 7.7 230 21:19 11.12.2019
2831 Clouds 11 1000 53 10000 10.3 230 20:56 11.12.2019
2832 Clouds 11 1000 53 10000 10.3 230 20:37 11.12.2019
2833 Clouds 11 1000 53 10000 10.3 230 20:19 11.12.2019
2834 Clouds 11 1000 53 10000 9.8 230 19:57 11.12.2019
2835 Clouds 11 1000 53 10000 9.8 230 19:38 11.12.2019
2836 Clouds 11 1000 53 10000 9.8 230 19:18 11.12.2019
2837 Clouds 9 1000 61 10000 10.3 230 18:40 11.12.2019
2838 Clouds 9 1000 61 10000 10.3 230 18:21 11.12.2019
2839 Clouds 9 1000 57 10000 3.56 197 17:57 11.12.2019
2840 Clouds 9 1000 57 10000 3.56 197 17:38 11.12.2019
2841 Clouds 9 1000 57 10000 2.35 225 17:18 11.12.2019
2842 Clouds 9 1000 57 10000 7.7 200 16:57 11.12.2019
2843 Clouds 9 1000 57 10000 7.7 200 16:38 11.12.2019
2844 Clouds 9 1000 57 10000 7.7 200 16:20 11.12.2019
2845 Clouds 9 999 61 10000 7.7 230 15:58 11.12.2019
2846 Clouds 9 999 61 10000 7.7 230 15:39 11.12.2019
2847 Clouds 9 999 61 10000 7.7 230 15:20 11.12.2019
2848 Clouds 8 999 65 10000 5.1 200 14:56 11.12.2019
2849 Clouds 8 999 65 10000 5.1 200 14:37 11.12.2019
2850 Clouds 8 999 65 10000 5.1 200 14:37 11.12.2019
2851 Clouds 8 999 65 10000 5.1 200 14:19 11.12.2019
2852 Clouds 7 999 61 10000 5.1 230 13:54 11.12.2019
2853 Clouds 7 999 61 10000 5.1 230 13:36 11.12.2019
2854 Clouds 7 999 61 10000 5.1 230 13:18 11.12.2019
2855 Clouds 7 999 61 10000 5.1 230 12:54 11.12.2019
2856 Clouds 7 999 61 10000 5.1 230 12:36 11.12.2019
2857 Clouds 7 999 61 10000 5.1 230 12:18 11.12.2019
2858 Clouds 6 999 70 10000 1.1 239 11:55 11.12.2019
2859 Clouds 6 999 70 10000 1.1 239 11:37 11.12.2019
2860 Clouds 6 999 70 10000 1.08 343 11:18 11.12.2019
2861 Clouds 5 999 70 10000 2.1 270 10:41 11.12.2019
2862 Clouds 5 999 70 10000 2.1 270 10:23 11.12.2019
2863 Clouds 4 999 75 10000 2.1 230 09:58 11.12.2019
2864 Clouds 4 999 75 10000 2.1 230 09:38 11.12.2019
2865 Clouds 4 999 75 10000 2.1 230 09:20 11.12.2019
2866 Clouds 5 999 80 10000 3.6 270 08:56 11.12.2019
2867 Clouds 5 999 80 10000 3.6 270 08:37 11.12.2019
2868 Clouds 5 999 80 10000 3.6 270 08:18 11.12.2019
2869 Clouds 6 999 81 10000 2.1 230 07:44 11.12.2019
2870 Clouds 5 999 81 10000 2.1 230 07:25 11.12.2019
2871 Clouds 5 999 81 10000 5.7 230 06:46 11.12.2019
2872 Clouds 5 999 81 10000 5.7 230 06:25 11.12.2019
2873 Clouds 6 999 81 10000 6.7 230 05:56 11.12.2019
2874 Clouds 6 999 81 10000 6.7 230 05:36 11.12.2019
2875 Clouds 7 1000 70 10000 7.7 230 04:55 11.12.2019
2876 Clouds 8 1000 75 10000 7.2 230 03:41 11.12.2019
2877 Clouds 8 1000 70 10000 9.8 230 02:39 11.12.2019
2878 Clouds 9 999 70 10000 10.8 230 01:22 11.12.2019
2879 Clouds 10 999 61 10000 9.8 200 00:45 11.12.2019
2880 Clouds 10 999 61 10000 9.8 200 00:21 11.12.2019
2881 Clouds 10 999 53 10000 11.8 200 23:46 10.12.2019
2882 Clouds 11 999 53 10000 11.8 200 23:27 10.12.2019
2883 Clouds 12 998 53 10000 12.9 230 22:57 10.12.2019
2884 Clouds 12 998 53 10000 12.9 230 22:39 10.12.2019
2885 Clouds 12 998 53 10000 12.9 230 22:21 10.12.2019
2886 Clouds 12 998 57 10000 13.9 230 21:55 10.12.2019
2887 Clouds 12 998 57 10000 13.9 230 21:37 10.12.2019
2888 Clouds 12 998 57 10000 13.9 230 21:18 10.12.2019
2889 Clouds 12 998 57 10000 13.9 230 20:56 10.12.2019
2890 Clouds 12 998 57 10000 13.9 230 20:37 10.12.2019
2891 Clouds 12 998 57 10000 13.9 230 20:18 10.12.2019
2892 Clouds 11 998 57 10000 15.4 230 19:54 10.12.2019
2893 Clouds 11 998 57 10000 15.4 230 19:36 10.12.2019
2894 Clouds 11 998 57 10000 15.4 230 19:36 10.12.2019
2895 Clouds 11 998 57 10000 15.4 230 19:18 10.12.2019
2896 Clouds 11 997 61 10000 15.9 230 18:39 10.12.2019
2897 Clouds 11 997 61 10000 15.9 230 18:39 10.12.2019
2898 Clouds 11 997 61 10000 15.9 230 18:20 10.12.2019
2899 Clouds 11 996 61 10000 15.9 230 17:57 10.12.2019
2900 Clouds 11 996 61 10000 15.9 230 17:39 10.12.2019
2901 Clouds 11 996 61 10000 15.9 230 17:20 10.12.2019
2902 Clouds 10 996 66 10000 13.4 230 16:43 10.12.2019
2903 Clouds 10 996 66 10000 13.4 230 16:20 10.12.2019
2904 Clouds 10 995 75 10000 16.5 230 15:59 10.12.2019
2905 Clouds 10 995 75 10000 16.5 230 15:37 10.12.2019
2906 Clouds 10 995 75 10000 16.5 230 15:18 10.12.2019
2907 Clouds 8 995 81 10000 15.4 230 14:55 10.12.2019
2908 Clouds 8 995 81 10000 15.4 230 14:37 10.12.2019
2909 Clouds 8 995 81 10000 15.4 230 14:19 10.12.2019
2910 Drizzle 7 995 86 10000 14.9 230 13:56 10.12.2019
2911 Drizzle 7 995 86 10000 14.9 230 13:38 10.12.2019
2912 Drizzle 7 995 86 10000 14.9 230 13:18 10.12.2019
2913 Rain 7 995 75 10000 11.3 230 12:41 10.12.2019
2914 Rain 7 995 75 10000 11.3 230 12:22 10.12.2019
2915 Drizzle 6 994 80 10000 11.8 230 11:44 10.12.2019
2916 Drizzle 6 994 80 10000 11.8 230 11:25 10.12.2019
2917 Rain 6 994 80 10000 11.8 230 10:57 10.12.2019
2918 Rain 6 994 80 10000 11.8 230 10:39 10.12.2019
2919 Rain 6 994 80 10000 11.8 230 10:39 10.12.2019
2920 Rain 6 994 80 10000 11.8 230 10:21 10.12.2019
2921 Drizzle 6 994 70 10000 12.3 230 09:56 10.12.2019
2922 Drizzle 6 994 70 10000 12.3 230 09:38 10.12.2019
2923 Drizzle 6 994 70 10000 12.3 230 09:38 10.12.2019
2924 Drizzle 6 994 70 10000 12.3 230 09:20 10.12.2019
2925 Drizzle 6 993 70 10000 14.4 230 08:57 10.12.2019
2926 Drizzle 6 993 70 10000 14.4 230 08:38 10.12.2019
2927 Drizzle 6 993 70 10000 14.4 230 08:19 10.12.2019
2928 Clouds 6 993 75 10000 14.4 230 07:44 10.12.2019
2929 Clouds 6 993 75 10000 14.4 230 07:26 10.12.2019
2930 Clouds 6 992 70 10000 10.8 230 06:49 10.12.2019
2931 Clouds 6 992 70 10000 10.8 230 06:24 10.12.2019
2932 Rain 7 991 70 10000 14.9 230 05:55 10.12.2019
2933 Rain 7 990 65 10000 14.4 230 04:58 10.12.2019
2934 Rain 8 990 65 10000 13.4 230 03:47 10.12.2019
2935 Rain 8 988 70 10000 14.9 230 02:48 10.12.2019
2936 Rain 9 987 65 10000 17 230 01:51 10.12.2019
2937 Rain 9 987 65 10000 17 230 01:26 10.12.2019
2938 Rain 8 986 70 10000 19 230 00:49 10.12.2019
2939 Rain 11 986 70 10000 19 230 00:24 10.12.2019
2940 Rain 11 985 61 10000 17 230 23:43 09.12.2019
2941 Rain 11 985 61 10000 17 230 23:24 09.12.2019
2942 Drizzle 11 984 76 10000 16.5 230 22:59 09.12.2019
2943 Drizzle 11 984 76 10000 16.5 230 22:40 09.12.2019
2944 Drizzle 11 984 76 10000 16.5 230 22:21 09.12.2019
2945 Drizzle 11 984 76 10000 13.9 230 21:58 09.12.2019
2946 Drizzle 11 984 76 10000 13.9 230 21:39 09.12.2019
2947 Drizzle 11 984 76 10000 13.9 230 21:19 09.12.2019
2948 Drizzle 10 983 76 10000 14.9 230 20:57 09.12.2019
2949 Drizzle 10 983 76 10000 14.9 230 20:39 09.12.2019
2950 Drizzle 10 983 76 10000 14.9 230 20:20 09.12.2019
2951 Rain 10 982 71 10000 12.3 200 19:57 09.12.2019
2952 Rain 10 982 71 10000 12.3 200 19:39 09.12.2019
2953 Rain 10 982 71 10000 12.3 200 19:20 09.12.2019
2954 Rain 10 982 71 10000 12.3 200 19:20 09.12.2019
2955 Rain 10 982 71 10000 12.3 200 19:20 09.12.2019
2956 Drizzle 13 981 66 10000 10.8 200 18:59 09.12.2019
2957 Drizzle 13 981 66 10000 10.8 200 18:40 09.12.2019
2958 Drizzle 13 981 66 10000 10.8 200 18:20 09.12.2019
2959 Clouds 13 981 58 10000 3.1 200 17:59 09.12.2019
2960 Clouds 13 981 58 10000 3.1 200 17:59 09.12.2019
2961 Clouds 13 981 58 10000 3.1 200 17:41 09.12.2019
2962 Clouds 13 981 58 10000 3.1 200 17:21 09.12.2019
2963 Drizzle 13 981 62 10000 5.1 230 16:57 09.12.2019
2964 Drizzle 13 981 62 10000 5.1 230 16:39 09.12.2019
2965 Drizzle 13 981 62 10000 5.1 230 16:20 09.12.2019
2966 -273 0 0 0 0 0 15:56 09.12.2019
2967 Clouds 13 982 71 10000 4.1 322 15:38 09.12.2019
2968 Clouds 13 982 71 10000 4.1 322 15:19 09.12.2019
2969 Clouds 12 982 87 10000 4.1 322 14:59 09.12.2019
2970 Clouds 12 982 87 10000 4.1 322 14:40 09.12.2019
2971 Clouds 12 982 87 10000 1.08 275 14:18 09.12.2019
2972 Clouds 12 983 81 10000 1.08 275 13:55 09.12.2019
2973 Clouds 12 983 81 10000 1.08 275 13:36 09.12.2019
2974 Clouds 12 983 81 10000 2.44 279 13:18 09.12.2019
2975 Clouds 8 983 81 10000 2.44 279 12:54 09.12.2019
2976 Clouds 8 983 81 10000 2.44 279 12:36 09.12.2019
2977 Clouds 8 983 81 10000 2.44 279 12:18 09.12.2019
2978 Clouds 7 984 93 10000 2.44 279 11:40 09.12.2019
2979 Clouds 7 984 93 10000 1.1 359 11:22 09.12.2019
2980 Drizzle 7 985 93 10000 1.1 359 10:59 09.12.2019
2981 Drizzle 7 985 93 10000 1.1 359 10:39 09.12.2019
2982 Drizzle 7 985 93 10000 1.1 359 10:39 09.12.2019
2983 Drizzle 7 985 93 10000 1.1 359 10:19 09.12.2019
2984 Rain 7 985 93 10000 1.5 270 09:45 09.12.2019
2985 Rain 7 985 93 10000 1.5 270 09:25 09.12.2019
2986 Rain 7 986 93 10000 1.5 360 08:57 09.12.2019
2987 Rain 7 986 93 10000 1.5 360 08:39 09.12.2019
2988 Rain 7 986 93 10000 1.5 360 08:21 09.12.2019
2989 Rain 7 986 93 10000 1.46 347 07:52 09.12.2019
2990 Rain 7 986 93 10000 1.46 347 07:33 09.12.2019
2991 Rain 7 986 93 10000 1.46 347 07:33 09.12.2019
2992 Rain 6 987 93 10000 2.6 90 06:58 09.12.2019
2993 Rain 6 987 93 10000 2.6 90 06:31 09.12.2019
2994 Rain 7 988 93 10000 3.6 90 05:48 09.12.2019
2995 Rain 7 988 93 10000 3.6 90 05:23 09.12.2019
2996 Rain 7 990 87 10000 1.5 50 04:28 09.12.2019
2997 Rain 7 992 87 10000 3.6 50 02:29 09.12.2019
2998 Drizzle 7 993 87 10000 4.1 50 01:47 09.12.2019
2999 Drizzle 7 994 87 10000 6.2 70 00:59 09.12.2019
3000 Drizzle 7 994 87 10000 6.2 70 00:33 09.12.2019
3001 Drizzle 9 995 66 10000 2.1 230 23:57 08.12.2019
3002 Drizzle 9 995 66 10000 2.1 230 23:37 08.12.2019
3003 Drizzle 9 995 66 10000 2.1 230 23:19 08.12.2019
3004 Rain 10 996 57 10000 3.1 180 22:56 08.12.2019
3005 Rain 10 996 57 10000 3.1 180 22:38 08.12.2019
3006 Rain 10 996 57 10000 3.1 180 22:18 08.12.2019
3007 Rain 10 996 53 10000 3.6 230 21:56 08.12.2019
3008 Rain 10 996 53 10000 3.6 230 21:37 08.12.2019
3009 Rain 11 996 53 10000 3.6 230 21:19 08.12.2019
3010 Rain 11 997 71 10000 3.6 230 20:56 08.12.2019
3011 Rain 11 997 71 10000 3.6 230 20:37 08.12.2019
3012 Rain 11 997 71 10000 3.6 230 20:19 08.12.2019
3013 Clouds 10 998 70 10000 3.6 230 19:55 08.12.2019
3014 Clouds 10 998 70 10000 3.6 230 19:37 08.12.2019
3015 Clouds 10 998 70 10000 3.6 230 19:19 08.12.2019
3016 Clouds 10 998 70 10000 5.7 230 18:55 08.12.2019
3017 Clouds 10 998 70 10000 5.7 230 18:36 08.12.2019
3018 Clouds 10 998 70 10000 5.7 230 18:36 08.12.2019
3019 Clouds 10 998 70 10000 5.7 230 18:18 08.12.2019
3020 Clouds 9 999 75 10000 7.7 230 17:55 08.12.2019
3021 Clouds 9 999 75 10000 7.7 230 17:37 08.12.2019
3022 Clouds 9 999 75 10000 7.7 230 17:19 08.12.2019
3023 Clouds 9 1000 70 10000 6.7 230 16:55 08.12.2019
3024 Clouds 9 1000 70 10000 6.7 230 16:37 08.12.2019
3025 Clouds 9 1000 70 10000 6.7 230 16:18 08.12.2019
3026 Clouds 8 1000 65 10000 8.7 230 15:38 08.12.2019
3027 Clouds 8 1000 65 10000 8.7 230 15:19 08.12.2019
3028 Clouds 8 1000 65 10000 8.7 230 15:19 08.12.2019
3029 Clouds 7 1000 70 10000 9.8 230 14:58 08.12.2019
3030 Clouds 7 1000 70 10000 9.8 230 14:39 08.12.2019
3031 Clouds 7 1000 70 10000 9.8 230 14:39 08.12.2019
3032 Clouds 7 1000 70 10000 9.8 230 14:21 08.12.2019
3033 Clouds 8 1000 65 10000 11.3 230 13:54 08.12.2019
3034 Clouds 8 1000 65 10000 11.3 230 13:36 08.12.2019
3035 Clouds 8 1000 65 10000 11.3 230 13:18 08.12.2019
3036 Rain 7 1000 70 10000 10.8 230 12:42 08.12.2019
3037 Rain 7 1000 70 10000 10.8 230 12:23 08.12.2019
3038 Rain 7 1000 72 10000 12.9 230 12:00 08.12.2019
3039 Clouds 5 1000 72 0 3.47 260 11:38 08.12.2019
3040 Rain 6 1000 75 10000 12.9 230 11:19 08.12.2019
3041 Rain 6 1000 75 10000 12.9 230 10:58 08.12.2019
3042 Rain 6 1000 75 10000 12.9 230 10:38 08.12.2019
3043 Rain 6 1000 75 10000 12.9 230 10:19 08.12.2019
3044 Rain 6 1000 75 10000 14.9 230 09:56 08.12.2019
3045 Rain 6 1000 75 10000 14.9 230 09:37 08.12.2019
3046 Rain 6 1000 75 10000 14.9 230 09:19 08.12.2019
3047 Rain 6 1000 75 10000 14.9 230 09:19 08.12.2019
3048 Rain 6 1000 70 10000 15.4 230 08:57 08.12.2019
3049 Rain 6 1000 70 10000 15.4 230 08:57 08.12.2019
3050 Rain 6 1000 70 10000 15.4 230 08:36 08.12.2019
3051 Rain 6 1000 70 10000 15.4 230 08:18 08.12.2019
3052 Clouds 6 1000 75 10000 17 230 07:42 08.12.2019
3053 Clouds 6 1000 75 10000 17 230 07:19 08.12.2019
3054 Clouds 5 1000 80 10000 15.9 230 06:47 08.12.2019
3055 Clouds 5 1000 80 10000 15.9 230 06:22 08.12.2019
3056 Clouds 6 1000 75 10000 13.4 230 05:35 08.12.2019
3057 Clouds 6 1000 81 10000 12.9 230 04:59 08.12.2019
3058 Rain 6 1000 81 10000 13.9 230 03:49 08.12.2019
3059 Rain 6 1000 81 10000 13.9 230 03:21 08.12.2019
3060 Clouds 6 1000 81 10000 14.9 230 02:38 08.12.2019
3061 Rain 6 1000 75 10000 11.3 230 01:54 08.12.2019
3062 Rain 6 1000 75 10000 11.3 230 01:19 08.12.2019
3063 Rain 6 1000 81 10000 13.4 230 00:40 08.12.2019
3064 Rain 6 1000 81 10000 13.4 230 00:20 08.12.2019
3065 Drizzle 6 999 81 10000 12.9 230 23:40 07.12.2019
3066 Drizzle 6 999 81 10000 12.9 230 23:21 07.12.2019
3067 Rain 7 999 75 10000 12.9 230 22:57 07.12.2019
3068 Rain 7 999 75 10000 12.9 230 22:39 07.12.2019
3069 Rain 7 999 75 10000 12.9 230 22:21 07.12.2019
3070 Rain 7 999 75 10000 12.9 230 21:56 07.12.2019
3071 Rain 7 999 75 10000 12.9 230 21:38 07.12.2019
3072 Rain 7 999 75 10000 12.9 230 21:19 07.12.2019
3073 Rain 8 998 65 10000 13.9 230 20:59 07.12.2019
3074 Rain 8 998 65 10000 13.9 230 20:36 07.12.2019
3075 Rain 10 998 65 10000 13.9 230 20:18 07.12.2019
3076 Rain 10 998 65 10000 13.4 230 19:56 07.12.2019
3077 Rain 10 998 65 10000 13.4 230 19:38 07.12.2019
3078 Rain 10 998 65 10000 13.4 230 19:20 07.12.2019
3079 Rain 9 999 75 10000 14.4 230 18:44 07.12.2019
3080 Rain 9 999 75 10000 14.4 230 18:19 07.12.2019
3081 Rain 9 999 70 10000 15.4 230 17:58 07.12.2019
3082 Rain 9 999 70 10000 15.4 230 17:40 07.12.2019
3083 Rain 9 999 70 10000 15.4 230 17:21 07.12.2019
3084 Rain 8 1000 70 10000 14.9 230 16:56 07.12.2019
3085 Rain 8 1000 70 10000 14.9 230 16:38 07.12.2019
3086 Rain 8 1000 70 10000 14.9 230 16:19 07.12.2019
3087 Rain 8 999 70 10000 16.5 230 15:56 07.12.2019
3088 Rain 8 999 70 10000 16.5 230 15:38 07.12.2019
3089 Rain 8 999 70 10000 16.5 230 15:18 07.12.2019
3090 Rain 9 1001 65 10000 12.9 230 14:42 07.12.2019
3091 Rain 9 1001 65 10000 12.9 230 14:19 07.12.2019
3092 Rain 8 1002 70 10000 12.3 230 13:55 07.12.2019
3093 Rain 8 1002 70 10000 12.3 230 13:37 07.12.2019
3094 Rain 8 1002 70 10000 12.3 230 13:18 07.12.2019
3095 Clouds 7 1001 70 10000 12.3 230 12:41 07.12.2019
3096 Clouds 7 1001 70 10000 12.3 230 12:22 07.12.2019
3097 Clouds 6 1001 75 10000 12.9 230 11:58 07.12.2019
3098 Clouds 6 1001 75 10000 12.9 230 11:40 07.12.2019
3099 Clouds 6 1001 75 10000 12.9 230 11:21 07.12.2019
3100 Rain 6 1002 81 10000 10.3 230 10:38 07.12.2019
3101 Rain 6 1002 81 10000 10.3 230 10:20 07.12.2019
3102 Rain 5 1002 93 10000 12.9 230 09:58 07.12.2019
3103 Rain 5 1002 93 10000 12.9 230 09:37 07.12.2019
3104 Rain 5 1002 93 10000 12.9 230 09:18 07.12.2019
3105 Clouds 6 1002 81 10000 10.8 230 08:41 07.12.2019
3106 Clouds 6 1002 81 10000 10.8 230 08:21 07.12.2019
3107 Clouds 6 1002 81 10000 10.8 230 07:46 07.12.2019
3108 Clouds 6 1002 81 10000 10.8 230 07:26 07.12.2019
3109 Clouds 7 1002 75 10000 12.9 230 06:50 07.12.2019
3110 Clouds 7 1002 75 10000 12.9 230 06:25 07.12.2019
3111 Clouds 3 1002 86 0 8.87 240 05:34 07.12.2019
3112 Clouds 7 1002 75 10000 13.4 230 04:19 07.12.2019
3113 Clouds 7 1002 75 10000 13.9 230 03:44 07.12.2019
3114 Clouds 7 1001 75 10000 17.5 230 02:21 07.12.2019
3115 Clouds 9 1000 66 10000 15.9 230 01:35 07.12.2019
3116 Clouds 9 1001 66 10000 18 230 00:55 07.12.2019
3117 Clouds 9 1001 66 10000 18 230 00:20 07.12.2019
3118 Clouds 9 1000 70 10000 15.4 230 23:56 06.12.2019
3119 Clouds 9 1000 70 10000 15.4 230 23:38 06.12.2019
3120 Clouds 9 1000 70 10000 15.4 230 23:18 06.12.2019
3121 Rain 9 1002 70 10000 14.4 230 22:38 06.12.2019
3122 Rain 9 1002 70 10000 14.4 230 22:20 06.12.2019
3123 Rain 9 1002 70 10000 13.9 230 21:58 06.12.2019
3124 Rain 9 1002 70 10000 13.9 230 21:39 06.12.2019
3125 Rain 9 1002 70 10000 13.9 230 21:19 06.12.2019
3126 Rain 10 1002 66 10000 12.9 230 20:42 06.12.2019
3127 Rain 10 1002 66 10000 12.9 230 20:42 06.12.2019
3128 Rain 10 1002 66 10000 12.9 230 20:42 06.12.2019
3129 Rain 10 1002 66 10000 12.9 230 20:24 06.12.2019
3130 Rain 10 1002 66 10000 12.9 230 20:24 06.12.2019
3131 Clouds 10 1003 66 10000 13.4 230 19:59 06.12.2019
3132 Clouds 10 1003 66 10000 13.4 230 19:40 06.12.2019
3133 Clouds 10 1003 66 10000 13.4 230 19:22 06.12.2019
3134 Clouds 10 1003 66 10000 13.4 230 19:22 06.12.2019
3135 Clouds 10 1003 66 10000 13.4 230 19:22 06.12.2019
3136 Clouds 10 1004 71 10000 13.9 230 18:57 06.12.2019
3137 Clouds 10 1004 71 10000 13.9 230 18:39 06.12.2019
3138 Clouds 10 1004 71 10000 13.9 230 18:19 06.12.2019
3139 Clouds 11 1004 71 10000 15.4 230 17:56 06.12.2019
3140 Clouds 11 1004 71 10000 15.4 230 17:37 06.12.2019
3141 Clouds 11 1004 71 10000 15.4 230 17:19 06.12.2019
3142 Clouds 12 1004 71 10000 13.9 230 16:43 06.12.2019
3143 Clouds 12 1004 71 10000 13.9 230 16:25 06.12.2019
3144 Rain 11 1005 66 10000 14.9 230 15:59 06.12.2019
3145 Rain 11 1005 66 10000 14.9 230 15:40 06.12.2019
3146 Rain 11 1005 66 10000 14.9 230 15:18 06.12.2019
3147 Drizzle 10 1005 70 10000 14.9 230 14:56 06.12.2019
3148 Drizzle 10 1005 70 10000 14.9 230 14:38 06.12.2019
3149 Drizzle 10 1005 70 10000 14.9 230 14:18 06.12.2019
3150 Clouds 10 1005 70 10000 13.9 230 13:43 06.12.2019
3151 Clouds 10 1005 70 10000 13.9 230 13:25 06.12.2019
3152 Rain 7 1005 75 10000 13.9 230 12:42 06.12.2019
3153 Rain 7 1005 75 10000 13.9 230 12:22 06.12.2019
3154 Clouds 6 1006 87 0 3.26 237 11:58 06.12.2019
3155 Clouds 6 1006 87 0 3.26 237 11:39 06.12.2019
3156 Rain 7 1005 70 10000 16.5 230 11:20 06.12.2019
3157 Rain 7 1005 70 10000 16.5 230 10:43 06.12.2019
3158 Rain 7 1005 70 10000 16.5 230 10:21 06.12.2019
3159 Rain 7 1005 70 10000 16.5 230 09:58 06.12.2019
3160 Rain 7 1005 70 10000 16.5 230 09:37 06.12.2019
3161 Rain 7 1005 70 10000 16.5 230 09:37 06.12.2019
3162 Rain 7 1005 70 10000 16.5 230 09:37 06.12.2019
3163 Rain 7 1005 70 10000 16.5 230 09:19 06.12.2019
3164 Clouds 7 1004 70 10000 17.5 230 08:45 06.12.2019
3165 Clouds 7 1004 70 10000 17.5 230 08:27 06.12.2019
3166 Clouds 6 1002 81 10000 20.1 230 07:56 06.12.2019
3167 Clouds 6 1002 81 10000 20.1 230 07:36 06.12.2019
3168 Clouds 6 1002 81 10000 20.1 230 07:18 06.12.2019
3169 Clouds 6 1002 81 10000 19.5 230 06:29 06.12.2019
3170 Rain 6 1002 81 10000 19 230 05:53 06.12.2019
3171 Rain 6 1002 81 10000 19 230 05:33 06.12.2019
3172 Rain 6 1003 81 10000 18 230 02:19 06.12.2019
3173 Rain 6 1002 81 10000 17.5 230 01:30 06.12.2019
3174 Drizzle 7 1002 75 10000 16.5 230 00:41 06.12.2019
3175 Drizzle 7 1002 75 10000 16.5 230 00:20 06.12.2019
3176 Drizzle 7 1002 81 10000 15.4 230 23:47 05.12.2019
3177 Drizzle 7 1002 81 10000 15.4 230 23:19 05.12.2019
3178 Rain 5 1002 86 10000 13.4 230 22:57 05.12.2019
3179 Rain 5 1002 86 10000 13.4 230 22:38 05.12.2019
3180 Rain 6 1002 86 10000 13.4 230 22:18 05.12.2019
3181 Rain 6 1002 86 10000 13.4 230 22:18 05.12.2019
3182 Rain 7 1001 87 10000 13.4 230 21:44 05.12.2019
3183 Rain 7 1001 87 10000 13.4 230 21:25 05.12.2019
3184 Rain 8 1000 87 10000 13.9 230 20:59 05.12.2019
3185 Rain 8 1000 87 10000 13.9 230 20:40 05.12.2019
3186 Rain 8 1000 87 10000 13.9 230 20:40 05.12.2019
3187 Rain 8 1000 87 10000 13.9 230 20:21 05.12.2019
3188 Drizzle 8 999 87 10000 15.9 230 19:58 05.12.2019
3189 Drizzle 8 999 87 10000 15.9 230 19:58 05.12.2019
3190 Drizzle 8 999 87 10000 15.9 230 19:58 05.12.2019
3191 Drizzle 8 999 87 10000 15.9 230 19:40 05.12.2019
3192 Drizzle 8 999 87 10000 15.9 230 19:20 05.12.2019
3193 Drizzle 7 998 93 10000 17 230 18:57 05.12.2019
3194 Drizzle 7 998 93 10000 17 230 18:38 05.12.2019
3195 Drizzle 7 998 93 10000 17 230 18:20 05.12.2019
3196 Rain 8 997 87 8000 17 230 17:39 05.12.2019
3197 Rain 8 997 87 8000 17 230 17:20 05.12.2019
3198 Rain 7 995 93 10000 12.9 230 16:57 05.12.2019
3199 Rain 7 995 93 10000 12.9 230 16:39 05.12.2019
3200 Rain 7 995 93 10000 12.9 230 16:21 05.12.2019
3201 Rain 6 994 93 10000 14.9 230 15:57 05.12.2019
3202 Rain 6 994 93 10000 14.9 230 15:38 05.12.2019
3203 Rain 6 994 93 10000 14.9 230 15:20 05.12.2019
3204 Rain 4 993 93 8000 12.9 230 14:55 05.12.2019
3205 Rain 4 993 93 8000 12.9 230 14:37 05.12.2019
3206 Rain 4 993 93 8000 12.9 230 14:19 05.12.2019
3207 Rain 4 992 86 10000 12.3 230 13:56 05.12.2019
3208 Rain 4 992 86 10000 12.3 230 13:38 05.12.2019
3209 Rain 4 992 86 10000 12.3 230 13:19 05.12.2019
3210 Rain 5 993 93 8000 11.8 230 12:56 05.12.2019
3211 Rain 5 993 93 8000 11.8 230 12:38 05.12.2019
3212 Rain 5 993 93 8000 11.8 230 12:19 05.12.2019
3213 Rain 5 993 93 10000 7.2 230 11:39 05.12.2019
3214 Rain 5 993 93 10000 7.2 230 11:21 05.12.2019
3215 Rain 5 993 93 10000 7.2 230 11:21 05.12.2019
3216 Rain 5 992 86 10000 7.2 230 10:58 05.12.2019
3217 Rain 5 992 86 10000 7.2 230 10:40 05.12.2019
3218 Rain 5 992 86 10000 7.2 230 10:19 05.12.2019
3219 Rain 5 993 86 10000 8.2 230 09:55 05.12.2019
3220 Rain 5 993 86 10000 8.2 230 09:36 05.12.2019
3221 Rain 5 993 86 10000 8.2 230 09:18 05.12.2019
3222 Rain 6 993 75 10000 8.7 250 08:39 05.12.2019
3223 Rain 6 993 75 10000 8.7 250 08:20 05.12.2019
3224 Rain 6 993 81 10000 14.9 230 07:58 05.12.2019
3225 Rain 6 993 81 10000 14.9 230 07:38 05.12.2019
3226 Rain 6 993 81 10000 14.9 230 07:20 05.12.2019
3227 Clouds 7 993 70 10000 13.4 230 06:45 05.12.2019
3228 Clouds 7 993 70 10000 13.4 230 06:23 05.12.2019
3229 Clouds 7 995 75 10000 12.9 230 05:48 05.12.2019
3230 Clouds 7 995 75 10000 12.9 230 05:23 05.12.2019
3231 Clouds 7 998 70 10000 11.3 230 04:27 05.12.2019
3232 Rain 8 998 70 10000 12.9 230 02:55 05.12.2019
3233 Rain 8 998 70 10000 12.9 230 02:25 05.12.2019
3234 Rain 9 998 65 10000 12.3 230 01:59 05.12.2019
3235 Rain 9 998 65 10000 12.3 230 01:40 05.12.2019
3236 Rain 9 998 65 10000 12.3 230 01:20 05.12.2019
3237 Rain 11 999 66 10000 15.9 230 00:37 05.12.2019
3238 Rain 11 999 66 10000 15.9 230 00:18 05.12.2019
3239 Rain 11 999 66 10000 14.4 230 23:42 04.12.2019
3240 Rain 11 999 66 10000 14.4 230 23:22 04.12.2019
3241 Rain 10 999 61 10000 13.4 230 22:57 04.12.2019
3242 Rain 10 999 61 10000 13.4 230 22:36 04.12.2019
3243 Rain 10 999 61 10000 13.4 230 22:18 04.12.2019
3244 Rain 10 999 61 10000 14.9 230 21:55 04.12.2019
3245 Rain 10 999 61 10000 14.9 230 21:37 04.12.2019
3246 Rain 13 999 61 10000 14.9 230 21:18 04.12.2019
3247 Rain 13 999 61 10000 14.9 230 21:18 04.12.2019
3248 Rain 13 999 61 10000 13.9 230 20:56 04.12.2019
3249 Rain 13 999 61 10000 13.9 230 20:38 04.12.2019
3250 Rain 13 999 61 10000 13.9 230 20:19 04.12.2019
3251 Rain 13 998 76 10000 13.4 230 19:40 04.12.2019
3252 Rain 13 998 76 10000 13.4 230 19:22 04.12.2019
3253 Rain 12 999 81 10000 12.9 230 18:59 04.12.2019
3254 Rain 12 999 81 10000 12.9 230 18:40 04.12.2019
3255 Rain 12 999 81 10000 12.9 230 18:22 04.12.2019
3256 Rain 13 998 58 10000 13.4 230 17:58 04.12.2019
3257 Rain 13 998 58 10000 13.4 230 17:38 04.12.2019
3258 Rain 13 999 58 10000 6.7 230 17:18 04.12.2019
3259 Clouds 12 1000 58 10000 7.2 180 16:41 04.12.2019
3260 Clouds 12 1000 58 10000 7.2 180 16:20 04.12.2019
3261 Clouds 11 1000 58 10000 3.6 180 15:59 04.12.2019
3262 Clouds 11 1000 58 10000 3.6 180 15:41 04.12.2019
3263 Clouds 11 1000 58 10000 3.6 180 15:21 04.12.2019
3264 Clouds 11 1001 62 10000 1.26 311 14:59 04.12.2019
3265 Clouds 11 1001 62 10000 1.26 311 14:41 04.12.2019
3266 Clouds 11 1001 62 10000 2.54 345 14:21 04.12.2019
3267 Clouds 11 1003 62 10000 2.6 320 13:56 04.12.2019
3268 Clouds 11 1003 62 10000 2.6 320 13:36 04.12.2019
3269 Clouds 11 1003 62 10000 2.6 320 13:18 04.12.2019
3270 Clouds 12 1003 62 10000 4.1 360 12:41 04.12.2019
3271 Clouds 12 1003 62 10000 4.1 360 12:23 04.12.2019
3272 Clouds 11 1004 66 10000 3.6 360 11:44 04.12.2019
3273 Clouds 11 1004 66 10000 3.6 360 11:44 04.12.2019
3274 Clouds 11 1004 66 10000 3.6 360 11:26 04.12.2019
3275 Clouds 11 1005 66 10000 4.6 320 10:58 04.12.2019
3276 Clouds 11 1005 66 10000 4.6 320 10:40 04.12.2019
3277 Clouds 11 1005 66 10000 4.6 320 10:22 04.12.2019
3278 Clouds 12 1005 62 10000 4.1 290 09:44 04.12.2019
3279 Clouds 12 1005 62 10000 4.1 290 09:24 04.12.2019
3280 Clouds 10 1006 71 10000 8.2 270 08:56 04.12.2019
3281 Clouds 10 1006 71 10000 8.2 270 08:38 04.12.2019
3282 Clouds 10 1006 71 10000 8.2 270 08:19 04.12.2019
3283 Clouds 10 1007 97 10000 3.1 320 07:42 04.12.2019
3284 Clouds 10 1007 97 10000 3.1 320 07:22 04.12.2019
3285 Clouds 11 1007 66 10000 8.7 250 06:33 04.12.2019
3286 Clouds 11 1008 66 10000 6.2 270 05:47 04.12.2019
3287 Clouds 10 1009 76 10000 7.2 250 04:43 04.12.2019
3288 Clouds 10 1009 71 10000 8.2 230 03:53 04.12.2019
3289 Clouds 10 1009 71 10000 9.3 230 02:21 04.12.2019
3290 Clouds 10 1010 66 10000 10.8 230 00:50 04.12.2019
3291 Clouds 10 1010 66 10000 10.8 230 00:23 04.12.2019
3292 Clouds 10 1010 66 10000 10.8 230 23:56 03.12.2019
3293 Clouds 10 1010 66 10000 10.8 230 23:37 03.12.2019
3294 Clouds 12 1010 66 10000 10.8 230 23:18 03.12.2019
3295 Clouds 12 1011 66 10000 11.3 230 22:40 03.12.2019
3296 Clouds 12 1011 66 10000 11.3 230 22:19 03.12.2019
3297 Clouds 12 1011 62 10000 10.3 230 21:57 03.12.2019
3298 Clouds 12 1011 62 10000 10.3 230 21:37 03.12.2019
3299 Clouds 12 1011 62 10000 10.3 230 21:19 03.12.2019
3300 Clouds 13 1012 54 10000 4.6 230 20:56 03.12.2019
3301 Clouds 13 1012 54 10000 4.6 230 20:38 03.12.2019
3302 Clouds 13 1012 54 10000 4.6 230 20:18 03.12.2019
3303 Clouds 12 1012 54 10000 9.8 230 19:54 03.12.2019
3304 Clouds 12 1012 54 10000 9.8 230 19:36 03.12.2019
3305 Clouds 12 1012 54 10000 9.8 230 19:18 03.12.2019
3306 Clouds 13 1012 50 10000 8.7 230 18:55 03.12.2019
3307 Clouds 13 1012 50 10000 8.7 230 18:37 03.12.2019
3308 Clouds 13 1012 50 10000 8.7 230 18:18 03.12.2019
3309 Clouds 13 1013 47 10000 10.8 230 17:40 03.12.2019
3310 Clouds 13 1013 47 10000 10.8 230 17:19 03.12.2019
3311 Clouds 12 1014 50 10000 9.3 230 16:59 03.12.2019
3312 Clouds 12 1014 50 10000 9.3 230 16:40 03.12.2019
3313 Clouds 12 1014 50 10000 9.3 230 16:21 03.12.2019
3314 Clouds 11 1014 56 10000 8.7 230 15:59 03.12.2019
3315 Clouds 11 1014 56 10000 8.7 230 15:39 03.12.2019
3316 Clouds 11 1014 56 10000 8.7 230 15:20 03.12.2019
3317 Clouds 11 1014 56 10000 8.7 230 15:20 03.12.2019
3318 Clouds 10 1015 57 10000 7.2 230 14:56 03.12.2019
3319 Clouds 10 1015 57 10000 7.2 230 14:38 03.12.2019
3320 Clouds 10 1015 57 10000 7.2 230 14:18 03.12.2019
3321 Clouds 10 1015 61 10000 9.3 230 13:38 03.12.2019
3322 Clouds 10 1015 61 10000 9.3 230 13:20 03.12.2019
3323 Clouds 10 1015 61 10000 9.3 230 13:20 03.12.2019
3324 Clouds 7 1015 70 10000 10.3 230 12:58 03.12.2019
3325 Clouds 7 1015 70 10000 10.3 230 12:37 03.12.2019
3326 Clouds 7 1015 70 10000 10.3 230 12:18 03.12.2019
3327 Clouds 7 1014 70 10000 9.3 230 11:57 03.12.2019
3328 Clouds 7 1014 70 10000 9.3 230 11:38 03.12.2019
3329 Clouds 7 1014 70 10000 9.3 230 11:19 03.12.2019
3330 -273 0 0 0 0 0 10:56 03.12.2019
3331 Clouds 8 1014 65 10000 8.2 230 10:38 03.12.2019
3332 Clouds 8 1014 65 10000 8.2 230 10:18 03.12.2019
3333 Clouds 8 1013 70 10000 9.3 230 09:42 03.12.2019
3334 Clouds 8 1013 70 10000 9.3 230 09:24 03.12.2019
3335 Clouds 8 1013 75 10000 8.7 230 08:56 03.12.2019
3336 Clouds 8 1013 75 10000 8.7 230 08:38 03.12.2019
3337 Clouds 8 1013 81 10000 7.2 230 08:20 03.12.2019
3338 Clouds 2 1012 92 0 0.81 313 07:51 03.12.2019
3339 Clouds 2 1012 92 0 0.81 313 07:28 03.12.2019
3340 Clouds 2 1012 92 0 0.81 313 06:42 03.12.2019
3341 Clouds 9 1012 70 10000 10.3 230 06:20 03.12.2019
3342 Clouds 8 1011 81 10000 11.3 230 04:59 03.12.2019
3343 Rain 8 1010 81 10000 14.4 230 03:42 03.12.2019
3344 Rain 8 1010 81 10000 14.4 230 03:21 03.12.2019
3345 Clouds 10 1010 76 10000 10.8 230 02:52 03.12.2019
3346 Clouds 10 1010 76 10000 10.8 230 02:32 03.12.2019
3347 Clouds 11 1010 71 10000 0.79 126 01:58 03.12.2019
3348 Clouds 11 1010 71 10000 0.79 126 01:38 03.12.2019
3349 Clouds 11 1010 71 10000 1.26 105 01:18 03.12.2019
3350 Clouds 12 1009 71 10000 10.8 250 00:41 03.12.2019
3351 Clouds 12 1009 71 10000 10.8 250 00:41 03.12.2019
3352 Clouds 12 1009 71 10000 10.8 250 00:41 03.12.2019
3353 Clouds 12 1009 71 10000 10.8 250 00:23 03.12.2019
3354 Clouds 12 1009 62 10000 1.5 90 23:44 02.12.2019
3355 Clouds 12 1009 62 10000 1.5 90 23:22 02.12.2019
3356 Rain 10 1009 81 10000 3.1 50 22:56 02.12.2019
3357 Rain 10 1009 81 10000 3.1 50 22:37 02.12.2019
3358 Rain 12 1009 81 10000 3.1 50 22:19 02.12.2019
3359 Rain 12 1008 81 8000 4.1 180 21:39 02.12.2019
3360 Rain 12 1008 81 8000 4.1 180 21:20 02.12.2019
3361 Rain 12 1008 81 8000 4.1 180 21:20 02.12.2019
3362 Clouds 13 1007 76 10000 8.2 230 20:57 02.12.2019
3363 Clouds 13 1007 76 10000 8.2 230 20:39 02.12.2019
3364 Clouds 13 1007 76 10000 8.2 230 20:20 02.12.2019
3365 Clouds 16 1007 71 10000 1.83 167 19:57 02.12.2019
3366 Clouds 16 1007 71 10000 1.83 167 19:39 02.12.2019
3367 Clouds 16 1007 71 10000 1.83 167 19:20 02.12.2019
3368 Clouds 15 1007 76 10000 1.83 167 18:48 02.12.2019
3369 Clouds 15 1007 76 10000 1.83 167 18:24 02.12.2019
3370 Clouds 15 1007 76 10000 2.1 50 17:59 02.12.2019
3371 Clouds 15 1007 76 10000 2.1 50 17:59 02.12.2019
3372 Clouds 15 1007 76 10000 2.1 50 17:59 02.12.2019
3373 Clouds 15 1007 76 10000 2.1 50 17:41 02.12.2019
3374 Clouds 15 1007 76 10000 2.1 50 17:21 02.12.2019
3375 Clouds 15 1007 76 10000 2.1 50 17:21 02.12.2019
3376 Clouds 14 1007 76 10000 1.18 215 16:57 02.12.2019
3377 Clouds 14 1007 76 10000 1.18 215 16:39 02.12.2019
3378 Clouds 14 1007 76 10000 1.18 215 16:18 02.12.2019
3379 Clouds 11 1007 87 10000 1.18 215 15:56 02.12.2019
3380 Clouds 11 1007 87 10000 1.18 215 15:38 02.12.2019
3381 Clouds 11 1007 87 10000 1.18 215 15:20 02.12.2019
3382 Clouds 10 1008 87 10000 1.18 215 14:55 02.12.2019
3383 Clouds 10 1008 87 10000 1.18 215 14:55 02.12.2019
3384 Clouds 10 1008 87 10000 1.18 215 14:37 02.12.2019
3385 Clouds 9 1008 87 10000 1.84 346 14:18 02.12.2019
3386 Clouds 9 1008 81 10000 1.84 346 13:54 02.12.2019
3387 Clouds 9 1008 81 10000 1.84 346 13:36 02.12.2019
3388 Clouds 9 1008 81 10000 1.85 330 13:18 02.12.2019
3389 Clouds 9 1008 87 10000 2.1 360 12:41 02.12.2019
3390 Clouds 9 1008 87 10000 2.1 360 12:20 02.12.2019
3391 Clouds 8 1008 93 10000 1.85 330 11:57 02.12.2019
3392 Clouds 8 1008 93 10000 1.85 330 11:37 02.12.2019
3393 Clouds 8 1008 93 10000 1.86 15 11:19 02.12.2019
3394 Clouds 8 1008 87 10000 1.86 15 10:56 02.12.2019
3395 Clouds 8 1008 87 10000 1.86 15 10:38 02.12.2019
3396 Clouds 8 1008 87 10000 1.86 15 10:20 02.12.2019
3397 Clouds 8 1008 93 10000 1.86 15 09:42 02.12.2019
3398 Clouds 8 1008 93 10000 1.86 15 09:19 02.12.2019
3399 Clouds 8 1008 87 10000 2.1 90 08:58 02.12.2019
3400 Clouds 8 1008 87 10000 2.1 90 08:58 02.12.2019
3401 Clouds 8 1008 87 10000 2.1 90 08:40 02.12.2019
3402 Clouds 8 1008 87 10000 2.1 90 08:21 02.12.2019
3403 Clouds 8 1009 87 10000 2.1 270 07:45 02.12.2019
3404 Clouds 8 1009 87 10000 2.1 270 07:24 02.12.2019
3405 Clouds 8 1009 87 10000 4.1 50 06:58 02.12.2019
3406 Clouds 8 1009 87 10000 4.1 50 06:39 02.12.2019
3407 Clouds 9 1010 87 10000 4.1 50 05:36 02.12.2019
3408 Clouds 10 1010 81 10000 4.1 70 04:51 02.12.2019
3409 Drizzle 10 1011 87 10000 1.33 349 02:56 02.12.2019
3410 Drizzle 10 1011 87 10000 1.33 349 02:36 02.12.2019
3411 Clouds 11 1011 81 10000 2.6 230 01:28 02.12.2019
3412 Clouds 12 1011 71 10000 3.6 230 00:59 02.12.2019
3413 Clouds 12 1011 71 10000 3.6 230 00:30 02.12.2019
3414 Clouds 12 1013 71 10000 4.6 230 23:57 01.12.2019
3415 Clouds 12 1013 71 10000 4.6 230 23:38 01.12.2019
3416 Clouds 13 1013 71 10000 4.6 230 23:19 01.12.2019
3417 Rain 14 1011 66 10000 3.6 230 22:56 01.12.2019
3418 Rain 14 1011 66 10000 3.6 230 22:37 01.12.2019
3419 Rain 14 1011 66 10000 3.6 230 22:18 01.12.2019
3420 Rain 14 1011 66 10000 2.6 230 21:56 01.12.2019
3421 Rain 14 1011 66 10000 2.6 230 21:56 01.12.2019
3422 Rain 14 1011 66 10000 2.6 230 21:38 01.12.2019
3423 Rain 14 1011 66 10000 2.6 230 21:38 01.12.2019
3424 Rain 14 1011 66 10000 2.6 230 21:18 01.12.2019
3425 Rain 13 1011 62 10000 0.6 147 20:56 01.12.2019
3426 Rain 13 1011 62 10000 0.6 147 20:37 01.12.2019
3427 Rain 13 1011 62 10000 1.12 251 20:19 01.12.2019
3428 Clouds 13 1011 58 10000 1.12 251 19:55 01.12.2019
3429 Clouds 13 1011 58 10000 1.12 251 19:36 01.12.2019
3430 Clouds 13 1011 58 10000 1.12 251 19:36 01.12.2019
3431 Clouds 13 1011 58 10000 1.12 251 19:18 01.12.2019
3432 Rain 13 1011 54 10000 1.12 251 18:55 01.12.2019
3433 Rain 13 1011 54 10000 1.12 251 18:37 01.12.2019
3434 Rain 13 1011 54 10000 1.12 251 18:18 01.12.2019
3435 Rain 13 1011 54 10000 1.12 251 18:18 01.12.2019
3436 Clouds 12 1012 54 10000 1.12 251 17:55 01.12.2019
3437 Clouds 12 1012 54 10000 1.12 251 17:37 01.12.2019
3438 Clouds 12 1012 54 10000 1.85 311 17:19 01.12.2019
3439 Clouds 12 1012 50 10000 1 70 16:43 01.12.2019
3440 Clouds 12 1012 50 10000 1 70 16:24 01.12.2019
3441 Clouds 12 1012 46 10000 2.1 90 15:53 01.12.2019
3442 Clouds 12 1012 46 10000 2.1 90 15:33 01.12.2019
3443 Clouds 12 1013 50 10000 3.1 90 14:58 01.12.2019
3444 Clouds 12 1013 50 10000 3.1 90 14:58 01.12.2019
3445 Clouds 12 1013 50 10000 3.1 90 14:58 01.12.2019
3446 Clouds 12 1013 50 10000 3.1 90 14:38 01.12.2019
3447 Clouds 12 1013 50 10000 3.1 90 14:19 01.12.2019
3448 Clouds 10 1013 53 10000 2.1 360 13:40 01.12.2019
3449 Clouds 10 1013 53 10000 2.1 360 13:40 01.12.2019
3450 Clouds 10 1013 53 10000 2.1 360 13:21 01.12.2019
3451 Clouds 9 1013 57 10000 5.7 320 12:47 01.12.2019
3452 Clouds 9 1013 57 10000 5.7 320 12:19 01.12.2019
3453 Clouds 7 1013 78 10000 3.6 320 11:44 01.12.2019
3454 Clouds 7 1013 78 10000 3.6 320 11:24 01.12.2019
3455 Clouds 6 1013 70 10000 4.1 230 10:55 01.12.2019
3456 Clouds 6 1013 70 10000 4.1 230 10:37 01.12.2019
3457 Clouds 6 1013 70 10000 4.1 230 10:18 01.12.2019
3458 Clouds 6 1013 97 10000 5.1 230 09:41 01.12.2019
3459 Clouds 6 1013 97 10000 5.1 230 09:21 01.12.2019
3460 Clouds 7 1012 65 10000 7.7 230 08:49 01.12.2019
3461 Clouds 7 1012 65 10000 7.7 230 08:23 01.12.2019
3462 Clouds 6 1012 70 10000 9.3 230 07:53 01.12.2019
3463 Clouds 6 1012 70 10000 9.3 230 07:32 01.12.2019
3464 Clouds 6 1012 75 10000 7.7 230 06:58 01.12.2019
3465 Clouds 6 1012 75 10000 7.7 230 06:40 01.12.2019
3466 Clouds 6 1012 75 10000 8.7 230 05:55 01.12.2019
3467 Clouds 7 1011 75 10000 7.2 230 04:53 01.12.2019
3468 Clouds 7 1011 75 10000 7.2 230 04:21 01.12.2019
3469 Clouds 7 1011 75 10000 8.2 230 02:38 01.12.2019
3470 Clouds 7 1011 75 10000 8.2 230 02:20 01.12.2019
3471 Rain 7 1010 75 10000 10.8 230 01:52 01.12.2019
3472 Rain 7 1010 75 10000 10.8 230 01:26 01.12.2019
3473 Rain 7 1010 75 10000 10.8 230 01:26 01.12.2019
3474 Rain 8 1009 70 10000 11.3 230 00:44 01.12.2019
3475 Rain 8 1009 70 10000 11.3 230 00:24 01.12.2019
3476 Rain 8 1008 70 10000 11.8 230 23:44 30.11.2019
3477 Rain 8 1008 70 10000 11.8 230 23:25 30.11.2019
3478 Rain 9 1007 66 10000 11.3 230 22:58 30.11.2019
3479 Rain 9 1007 66 10000 11.3 230 22:39 30.11.2019
3480 Rain 9 1007 66 10000 11.3 230 22:20 30.11.2019
3481 Rain 9 1007 70 10000 12.3 230 21:47 30.11.2019
3482 Rain 9 1007 70 10000 12.3 230 21:28 30.11.2019
3483 Rain 9 1007 70 10000 12.3 230 21:28 30.11.2019
3484 Rain 9 1006 70 10000 10.8 230 20:58 30.11.2019
3485 Rain 9 1006 70 10000 10.8 230 20:39 30.11.2019
3486 Rain 8 1006 70 10000 10.8 230 20:19 30.11.2019
3487 Rain 9 1005 66 10000 13.4 230 19:56 30.11.2019
3488 Rain 9 1005 66 10000 13.4 230 19:38 30.11.2019
3489 Rain 9 1005 66 10000 13.4 230 19:20 30.11.2019
3490 Rain 9 1005 70 10000 9.8 230 18:58 30.11.2019
3491 Rain 9 1005 70 10000 9.8 230 18:38 30.11.2019
3492 Rain 9 1005 70 10000 9.8 230 18:20 30.11.2019
3493 Rain 8 1004 66 10000 12.3 230 17:58 30.11.2019
3494 Rain 8 1004 66 10000 12.3 230 17:39 30.11.2019
3495 Rain 8 1004 66 10000 12.3 230 17:20 30.11.2019
3496 Clouds 9 1004 66 10000 13.9 230 16:57 30.11.2019
3497 Clouds 9 1004 66 10000 13.9 230 16:39 30.11.2019
3498 Clouds 9 1004 66 10000 13.9 230 16:20 30.11.2019
3499 Clouds 8 1003 66 10000 13.4 230 15:42 30.11.2019
3500 Clouds 8 1003 66 10000 13.4 230 15:19 30.11.2019
3501 Rain 8 1003 70 10000 9.3 230 14:57 30.11.2019
3502 Rain 8 1003 70 10000 9.3 230 14:38 30.11.2019
3503 Rain 8 1003 70 10000 9.3 230 14:19 30.11.2019
3504 Rain 7 1002 70 10000 8.7 230 13:58 30.11.2019
3505 Rain 7 1002 70 10000 8.7 230 13:38 30.11.2019
3506 Rain 7 1002 70 10000 8.7 230 13:19 30.11.2019
3507 Clouds 6 1002 75 10000 9.8 230 12:47 30.11.2019
3508 Clouds 6 1002 75 10000 9.8 230 12:29 30.11.2019
3509 Drizzle 6 1001 70 10000 9.3 230 11:58 30.11.2019
3510 Drizzle 6 1001 70 10000 9.3 230 11:39 30.11.2019
3511 Drizzle 6 1001 70 10000 9.3 230 11:18 30.11.2019
3512 Rain 6 1001 70 10000 9.3 230 10:45 30.11.2019
3513 Rain 6 1001 70 10000 9.3 230 10:21 30.11.2019
3514 Clouds 6 1000 70 10000 10.3 230 09:50 30.11.2019
3515 Clouds 6 1000 70 10000 10.3 230 09:30 30.11.2019
3516 Clouds 6 1000 97 10000 9.8 230 08:57 30.11.2019
3517 Clouds 6 1000 97 10000 9.8 230 08:38 30.11.2019
3518 Clouds 6 1000 90 10000 9.8 230 08:18 30.11.2019
3519 Clouds 6 999 70 10000 10.8 230 07:42 30.11.2019
3520 Clouds 6 999 70 10000 10.8 230 07:23 30.11.2019
3521 Drizzle 6 999 60 10000 10.8 230 06:46 30.11.2019
3522 Drizzle 6 999 60 10000 10.8 230 06:27 30.11.2019
3523 Drizzle 6 998 70 10000 10.3 230 05:23 30.11.2019
3524 Clouds 6 998 70 10000 8.2 230 03:38 30.11.2019
3525 Clouds 6 998 70 10000 9.8 230 02:26 30.11.2019
3526 Clouds 6 998 70 10000 9.8 230 02:26 30.11.2019
3527 Clouds 6 997 75 10000 10.8 250 01:51 30.11.2019
3528 Clouds 6 997 75 10000 10.8 250 01:24 30.11.2019
3529 Clouds 7 996 65 10000 10.3 230 00:45 30.11.2019
3530 Clouds 7 996 65 10000 10.3 230 00:27 30.11.2019
3531 Rain 8 996 83 10000 10.8 230 23:45 29.11.2019
3532 Rain 8 996 83 10000 10.8 230 23:25 29.11.2019
3533 Rain 8 996 83 10000 10.8 230 23:25 29.11.2019
3534 Rain 8 995 68 10000 10.3 230 22:49 29.11.2019
3535 Rain 8 995 68 10000 10.3 230 22:28 29.11.2019
3536 Rain 9 995 68 10000 9.8 230 21:59 29.11.2019
3537 Rain 9 995 68 10000 9.8 230 21:41 29.11.2019
3538 Rain 9 995 68 10000 9.8 230 21:22 29.11.2019
3539 Rain 9 994 57 10000 10.8 230 20:56 29.11.2019
3540 Rain 9 994 57 10000 10.8 230 20:37 29.11.2019
3541 Rain 9 994 57 10000 10.8 230 20:18 29.11.2019
3542 Rain 9 994 57 10000 10.3 230 19:55 29.11.2019
3543 Rain 9 994 57 10000 10.3 230 19:37 29.11.2019
3544 Rain 9 994 57 10000 10.3 230 19:18 29.11.2019
3545 Clouds 9 994 62 10000 10.8 230 18:42 29.11.2019
3546 Clouds 9 994 62 10000 10.8 230 18:24 29.11.2019
3547 Clouds 8 993 62 10000 9.8 230 17:58 29.11.2019
3548 Clouds 8 993 62 10000 9.8 230 17:40 29.11.2019
3549 Clouds 8 993 58 10000 9.8 230 17:21 29.11.2019
3550 Rain 8 994 58 10000 9.3 230 16:43 29.11.2019
3551 Rain 8 994 58 10000 9.3 230 16:21 29.11.2019
3552 Rain 8 993 58 10000 9.3 230 15:57 29.11.2019
3553 Rain 8 993 58 10000 9.3 230 15:39 29.11.2019
3554 Rain 8 993 58 10000 9.3 230 15:20 29.11.2019
3555 Clouds 7 993 58 10000 8.7 230 14:40 29.11.2019
3556 Clouds 7 993 65 10000 8.7 230 14:22 29.11.2019
3557 Clouds 6 993 70 10000 7.7 230 13:58 29.11.2019
3558 Clouds 6 993 70 10000 7.7 230 13:38 29.11.2019
3559 Clouds 6 993 70 10000 7.7 230 13:20 29.11.2019
3560 Clouds 6 993 65 10000 5.1 230 12:44 29.11.2019
3561 Clouds 6 993 65 10000 5.1 230 12:25 29.11.2019
3562 Clouds 5 993 65 10000 5.1 250 11:57 29.11.2019
3563 Clouds 5 993 65 10000 5.1 250 11:38 29.11.2019
3564 Clouds 5 993 65 10000 5.1 250 11:19 29.11.2019
3565 Clouds 5 993 65 10000 4.1 270 10:58 29.11.2019
3566 Clouds 5 993 65 10000 4.1 270 10:39 29.11.2019
3567 Clouds 5 993 65 10000 4.1 270 10:21 29.11.2019
3568 Clouds 4 993 69 10000 5.1 250 09:59 29.11.2019
3569 Clouds 4 993 69 10000 5.1 250 09:39 29.11.2019
3570 Clouds 4 993 69 10000 5.1 250 09:21 29.11.2019
3571 Clouds 4 992 90 10000 4.1 230 08:55 29.11.2019
3572 Clouds 4 992 90 10000 4.1 230 08:37 29.11.2019
3573 Clouds 4 992 89 10000 4.1 230 08:19 29.11.2019
3574 Clouds 4 993 89 10000 3.1 270 07:42 29.11.2019
3575 Clouds 4 993 89 10000 3.1 270 07:23 29.11.2019
3576 Clouds 5 993 65 10000 4.6 250 06:49 29.11.2019
3577 Clouds 5 993 65 10000 4.6 250 06:28 29.11.2019
3578 Clouds 6 993 60 10000 3.6 270 05:32 29.11.2019
3579 Clouds 6 993 60 10000 3.6 270 05:32 29.11.2019
3580 Clouds 6 993 60 10000 3.6 270 05:32 29.11.2019
3581 Clouds 6 994 60 10000 3.1 250 04:57 29.11.2019
3582 Clouds 6 994 90 10000 4.1 250 03:41 29.11.2019
3583 Clouds 6 994 90 10000 4.1 250 03:19 29.11.2019
3584 Clouds 7 993 56 10000 4.6 230 02:25 29.11.2019
3585 Clouds 7 993 80 10000 5.7 230 01:49 29.11.2019
3586 Clouds 7 993 82 10000 5.7 230 01:23 29.11.2019
3587 Clouds 7 993 65 10000 5.1 230 00:41 29.11.2019
3588 Clouds 7 993 65 10000 5.1 230 00:20 29.11.2019
3589 Clouds 8 993 65 10000 7.2 230 23:44 28.11.2019
3590 Clouds 8 993 65 10000 7.2 230 23:21 28.11.2019
3591 Clouds 10 993 57 10000 7.2 230 22:58 28.11.2019
3592 Clouds 10 993 57 10000 7.2 230 22:38 28.11.2019
3593 Clouds 9 993 57 10000 7.2 230 22:20 28.11.2019
3594 Clouds 9 994 57 10000 7.7 230 21:56 28.11.2019
3595 Clouds 9 994 57 10000 7.7 230 21:37 28.11.2019
3596 Clouds 9 994 57 10000 7.7 230 21:18 28.11.2019
3597 Clouds 9 994 57 10000 8.7 230 20:54 28.11.2019
3598 Clouds 9 994 57 10000 8.7 230 20:36 28.11.2019
3599 Clouds 9 994 57 10000 8.7 230 20:18 28.11.2019
3600 Clouds 9 994 57 10000 9.3 230 19:41 28.11.2019
3601 Clouds 9 994 57 10000 9.3 230 19:22 28.11.2019
3602 Clouds 14 994 65 10000 8.2 230 18:59 28.11.2019
3603 Clouds 14 994 65 10000 8.2 230 18:39 28.11.2019
3604 Clouds 14 994 65 10000 8.2 230 18:18 28.11.2019
3605 Clouds 8 994 65 10000 7.7 230 17:59 28.11.2019
3606 Clouds 8 994 65 10000 7.7 230 17:59 28.11.2019
3607 Clouds 8 994 65 10000 7.7 230 17:41 28.11.2019
3608 Clouds 8 994 65 10000 7.7 230 17:40 28.11.2019
3609 Clouds 8 994 65 10000 7.7 230 17:20 28.11.2019
3610 Clouds 8 995 65 10000 8.7 230 16:41 28.11.2019
3611 Clouds 8 995 65 10000 8.7 230 16:41 28.11.2019
3612 Clouds 8 995 65 10000 8.7 230 16:19 28.11.2019
3613 Clouds 7 995 51 10000 7.2 230 15:59 28.11.2019
3614 Clouds 7 995 51 10000 7.2 230 15:40 28.11.2019
3615 Clouds 7 995 51 10000 7.2 230 15:20 28.11.2019
3616 Clouds 7 995 65 10000 7.2 230 14:58 28.11.2019
3617 Clouds 7 995 65 10000 7.2 230 14:39 28.11.2019
3618 Clouds 7 995 65 10000 7.2 230 14:20 28.11.2019
3619 Clouds 7 996 55 10000 5.1 230 13:55 28.11.2019
3620 Clouds 7 996 55 10000 5.1 230 13:37 28.11.2019
3621 Clouds 7 996 55 10000 5.1 230 13:19 28.11.2019
3622 Clouds 6 996 57 10000 4.6 250 12:41 28.11.2019
3623 Clouds 6 996 57 10000 4.6 250 12:22 28.11.2019
3624 Clouds 5 996 57 10000 3.6 270 11:56 28.11.2019
3625 Clouds 5 996 57 10000 3.6 270 11:38 28.11.2019
3626 Clouds 5 996 89 10000 3.6 270 11:19 28.11.2019
3627 Clouds 4 996 64 10000 4.1 270 10:42 28.11.2019
3628 Clouds 4 996 64 10000 4.1 270 10:42 28.11.2019
3629 Clouds 4 996 64 10000 4.1 270 10:22 28.11.2019
3630 Clouds 4 996 64 10000 3.1 270 09:58 28.11.2019
3631 Clouds 4 996 64 10000 3.1 270 09:40 28.11.2019
3632 Clouds 4 996 64 10000 3.1 270 09:20 28.11.2019
3633 Clouds 4 996 64 10000 3.1 270 09:20 28.11.2019
3634 Clouds 4 996 64 10000 6.7 230 08:44 28.11.2019
3635 Clouds 4 996 64 10000 6.7 230 08:23 28.11.2019
3636 Clouds 4 997 69 10000 6.7 230 07:58 28.11.2019
3637 Clouds 4 997 69 10000 6.7 230 07:58 28.11.2019
3638 Clouds 4 997 69 10000 6.7 230 07:58 28.11.2019
3639 Clouds 4 997 69 10000 6.7 230 07:40 28.11.2019
3640 Clouds 4 997 69 10000 6.7 230 07:22 28.11.2019
3641 Clouds 4 997 64 10000 7.7 230 06:43 28.11.2019
3642 Clouds 4 997 69 10000 6.7 230 05:58 28.11.2019
3643 Clouds 4 997 69 10000 6.7 230 05:40 28.11.2019
3644 Clouds 5 997 65 10000 10.8 230 04:54 28.11.2019
3645 Clouds 5 996 65 10000 11.3 230 02:33 28.11.2019
3646 Clouds 6 996 60 10000 11.8 230 01:28 28.11.2019
3647 Clouds 6 996 79 10000 10.3 230 00:42 28.11.2019
3648 Clouds 6 996 79 10000 10.3 230 00:20 28.11.2019
3649 Rain 7 995 79 10000 12.3 230 23:40 27.11.2019
3650 Rain 7 995 61 10000 12.3 230 23:21 27.11.2019
3651 Rain 8 995 61 10000 13.4 230 22:58 27.11.2019
3652 Rain 8 995 61 10000 13.4 230 22:38 27.11.2019
3653 Rain 9 995 61 10000 13.4 230 22:19 27.11.2019
3654 Rain 9 995 61 10000 11.3 230 21:56 27.11.2019
3655 Rain 9 995 61 10000 11.3 230 21:37 27.11.2019
3656 Rain 9 995 61 10000 11.3 230 21:19 27.11.2019
3657 Clouds 10 995 61 10000 12.3 230 20:57 27.11.2019
3658 Clouds 10 995 61 10000 12.3 230 20:57 27.11.2019
3659 Clouds 10 995 61 10000 12.3 230 20:38 27.11.2019
3660 Clouds 10 995 56 10000 12.3 230 20:19 27.11.2019
3661 Clouds 9 995 56 10000 11.8 230 19:56 27.11.2019
3662 Clouds 9 995 56 10000 11.8 230 19:38 27.11.2019
3663 Clouds 9 995 56 10000 11.8 230 19:19 27.11.2019
3664 Rain 9 995 61 10000 12.3 230 18:57 27.11.2019
3665 Rain 9 995 61 10000 12.3 230 18:36 27.11.2019
3666 Rain 9 995 61 10000 12.3 230 18:18 27.11.2019
3667 Rain 9 995 65 10000 12.9 230 17:55 27.11.2019
3668 Rain 9 995 65 10000 12.9 230 17:37 27.11.2019
3669 Rain 9 995 65 10000 12.9 230 17:18 27.11.2019
3670 Clouds 8 994 70 10000 10.3 230 16:55 27.11.2019
3671 -273 0 0 0 0 0 16:36 27.11.2019
3672 Clouds 8 994 70 10000 10.3 230 16:18 27.11.2019
3673 Clouds 7 994 75 10000 10.3 230 15:56 27.11.2019
3674 Clouds 7 994 75 10000 10.3 230 15:37 27.11.2019
3675 Clouds 8 994 75 10000 10.3 230 15:19 27.11.2019
3676 Clouds 8 994 81 10000 10.3 230 14:55 27.11.2019
3677 Clouds 8 994 81 10000 10.3 230 14:55 27.11.2019
3678 Clouds 8 994 81 10000 10.3 230 14:37 27.11.2019
3679 Clouds 8 994 81 10000 10.3 230 14:19 27.11.2019
3680 Clouds 7 994 75 10000 10.3 230 13:55 27.11.2019
3681 Clouds 7 993 70 10000 5.7 280 13:36 27.11.2019
3682 Clouds 6 993 70 10000 5.7 280 13:18 27.11.2019
3683 Clouds 7 993 70 10000 10.3 230 12:41 27.11.2019
3684 Clouds 7 993 70 10000 10.3 230 12:21 27.11.2019
3685 Clouds 6 993 80 10000 8.2 230 11:56 27.11.2019
3686 Clouds 6 993 80 10000 8.2 230 11:36 27.11.2019
3687 Drizzle 5 992 80 10000 9.8 230 11:18 27.11.2019
3688 Drizzle 5 992 80 10000 9.8 230 11:18 27.11.2019
3689 Drizzle 5 992 80 10000 9.8 230 10:46 27.11.2019
3690 Drizzle 5 992 80 10000 9.8 230 10:46 27.11.2019
3691 Drizzle 5 992 80 10000 9.8 230 10:24 27.11.2019
3692 Drizzle 5 992 80 10000 9.8 230 09:57 27.11.2019
3693 Drizzle 5 992 80 10000 9.8 230 09:39 27.11.2019
3694 Drizzle 5 992 80 10000 9.8 230 09:18 27.11.2019
3695 Clouds 5 991 80 10000 10.3 230 08:42 27.11.2019
3696 Clouds 5 991 80 10000 10.3 230 08:23 27.11.2019
3697 Clouds 5 991 80 10000 11.3 230 07:49 27.11.2019
3698 Clouds 5 991 80 10000 11.3 230 07:29 27.11.2019
3699 Drizzle 6 991 70 10000 4.6 270 06:55 27.11.2019
3700 Drizzle 6 991 70 10000 4.6 270 06:36 27.11.2019
3701 Drizzle 6 991 70 10000 4.6 270 05:53 27.11.2019
3702 Drizzle 6 991 70 10000 4.6 270 05:26 27.11.2019
3703 Clouds 6 991 70 10000 7.2 230 04:49 27.11.2019
3704 Clouds 6 991 70 10000 7.2 230 04:31 27.11.2019
3705 Clouds 7 990 65 10000 8.2 230 03:45 27.11.2019
3706 Clouds 7 990 65 10000 8.2 230 03:20 27.11.2019
3707 Clouds 7 990 65 10000 7.2 230 02:34 27.11.2019
3708 Clouds 9 990 61 10000 7.2 230 00:55 27.11.2019
3709 Clouds 9 990 61 10000 7.2 230 00:37 27.11.2019
3710 Clouds 9 990 61 10000 7.2 230 00:19 27.11.2019
3711 Rain 9 989 61 10000 8.2 230 23:42 26.11.2019
3712 Rain 9 989 61 10000 8.2 230 23:23 26.11.2019
3713 Rain 9 989 61 10000 8.7 230 22:40 26.11.2019
3714 Rain 10 989 61 10000 8.7 230 22:20 26.11.2019
3715 Rain 10 989 61 10000 9.3 230 22:00 26.11.2019
3716 Rain 10 989 61 10000 9.3 230 21:39 26.11.2019
3717 Rain 10 989 61 10000 9.3 230 21:21 26.11.2019
3718 Rain 10 989 61 10000 9.3 230 21:21 26.11.2019
3719 Rain 9 988 61 10000 10.8 230 20:57 26.11.2019
3720 Rain 9 988 61 10000 10.8 230 20:38 26.11.2019
3721 Rain 9 988 61 10000 10.8 230 20:19 26.11.2019
3722 Drizzle 8 988 61 10000 9.3 230 19:56 26.11.2019
3723 Drizzle 8 988 61 10000 9.3 230 19:38 26.11.2019
3724 Drizzle 8 988 61 10000 9.3 230 19:19 26.11.2019
3725 Drizzle 9 988 75 10000 8.2 230 18:58 26.11.2019
3726 Drizzle 9 988 75 10000 8.2 230 18:39 26.11.2019
3727 Drizzle 9 988 75 10000 8.2 230 18:21 26.11.2019
3728 Drizzle 10 988 75 10000 7.2 230 17:59 26.11.2019
3729 Drizzle 10 988 75 10000 7.2 230 17:40 26.11.2019
3730 Drizzle 10 988 75 10000 7.2 230 17:22 26.11.2019
3731 Drizzle 9 988 75 10000 7.7 230 16:57 26.11.2019
3732 Drizzle 9 988 75 10000 7.7 230 16:38 26.11.2019
3733 Drizzle 9 988 75 10000 7.7 230 16:19 26.11.2019
3734 Clouds 9 987 65 10000 8.7 230 15:59 26.11.2019
3735 Clouds 9 987 65 10000 8.7 230 15:38 26.11.2019
3736 Clouds 9 987 65 10000 8.7 230 15:20 26.11.2019
3737 Clouds 8 988 65 10000 8.2 230 14:51 26.11.2019
3738 Clouds 8 988 65 10000 8.2 230 14:26 26.11.2019
3739 Clouds 8 988 75 10000 7.2 230 13:59 26.11.2019
3740 Clouds 8 988 75 10000 7.2 230 13:40 26.11.2019
3741 Clouds 8 988 75 10000 7.2 230 13:22 26.11.2019
3742 Rain 6 988 93 10000 8.2 250 12:40 26.11.2019
3743 Rain 6 988 93 10000 8.2 250 12:22 26.11.2019
3744 Rain 6 987 87 10000 7.7 230 11:59 26.11.2019
3745 Rain 6 987 87 10000 7.7 230 11:40 26.11.2019
3746 Rain 6 987 87 10000 7.7 230 11:20 26.11.2019
3747 Rain 7 987 87 10000 8.2 230 10:59 26.11.2019
3748 Rain 7 987 87 10000 8.2 230 10:41 26.11.2019
3749 Rain 7 987 87 10000 8.2 230 10:21 26.11.2019
3750 Drizzle 7 987 87 10000 7.2 230 09:58 26.11.2019
3751 Drizzle 7 987 87 10000 7.2 230 09:38 26.11.2019
3752 Drizzle 7 987 87 10000 7.2 230 09:20 26.11.2019
3753 Clouds 7 987 93 10000 3.1 230 08:44 26.11.2019
3754 Clouds 7 987 93 10000 3.1 230 08:25 26.11.2019
3755 Clouds 7 987 93 10000 1.5 250 07:47 26.11.2019
3756 Clouds 7 987 93 10000 1.5 250 07:29 26.11.2019
3757 Clouds 7 987 93 10000 1.5 250 07:29 26.11.2019
3758 Clouds 7 988 93 10000 0.93 17 06:56 26.11.2019
3759 Clouds 7 988 93 10000 0.93 17 06:35 26.11.2019
3760 Rain 8 989 87 10000 0.93 17 05:54 26.11.2019
3761 Clouds 7 989 93 10000 2.6 230 04:47 26.11.2019
3762 Drizzle 7 991 93 10000 5.1 90 02:53 26.11.2019
3763 Rain 8 992 87 8000 6.7 90 01:34 26.11.2019
3764 Rain 8 993 81 10000 8.2 90 00:53 26.11.2019
3765 Rain 8 993 81 10000 8.2 90 00:31 26.11.2019
3766 Rain 10 994 66 10000 9.3 70 23:56 25.11.2019
3767 Rain 10 994 66 10000 9.3 70 23:37 25.11.2019
3768 Rain 11 994 66 10000 9.3 70 23:18 25.11.2019
3769 Rain 11 996 66 10000 8.2 90 22:39 25.11.2019
3770 Rain 11 996 66 10000 8.2 90 22:19 25.11.2019
3771 Clouds 11 998 58 10000 7.7 90 21:59 25.11.2019
3772 Clouds 11 998 58 10000 7.7 90 21:40 25.11.2019
3773 Clouds 11 998 58 10000 7.7 90 21:21 25.11.2019
3774 Clouds 12 1000 58 10000 5.1 70 20:57 25.11.2019
3775 Clouds 12 1000 58 10000 5.1 70 20:57 25.11.2019
3776 Clouds 12 1000 58 10000 5.1 70 20:39 25.11.2019
3777 Clouds 12 1000 58 10000 5.1 70 20:20 25.11.2019
3778 Clouds 13 1001 54 10000 4.1 90 19:56 25.11.2019
3779 Clouds 13 1001 54 10000 4.1 90 19:38 25.11.2019
3780 Clouds 13 1001 54 10000 4.1 90 19:19 25.11.2019
3781 Clouds 14 1003 50 10000 4.6 70 18:57 25.11.2019
3782 Clouds 14 1003 50 10000 4.6 70 18:39 25.11.2019
3783 Clouds 14 1003 50 10000 4.6 70 18:21 25.11.2019
3784 Clouds 12 1004 54 10000 3.1 140 17:58 25.11.2019
3785 Clouds 12 1004 54 10000 3.1 140 17:58 25.11.2019
3786 Clouds 12 1004 54 10000 3.1 140 17:39 25.11.2019
3787 Clouds 12 1004 54 10000 3.1 140 17:20 25.11.2019
3788 Clouds 13 1005 50 10000 2.6 160 16:57 25.11.2019
3789 Clouds 13 1005 50 10000 2.6 160 16:39 25.11.2019
3790 Clouds 13 1005 50 10000 2.6 160 16:21 25.11.2019
3791 Clouds 12 1006 57 10000 3.6 230 15:55 25.11.2019
3792 Clouds 12 1006 57 10000 3.6 230 15:37 25.11.2019
3793 Clouds 12 1006 57 10000 3.6 230 15:18 25.11.2019
3794 Clouds 12 1007 57 10000 3.1 360 14:42 25.11.2019
3795 Clouds 12 1007 57 10000 3.1 360 14:23 25.11.2019
3796 Clouds 12 1008 66 10000 3.1 360 13:55 25.11.2019
3797 Clouds 12 1008 66 10000 3.1 360 13:36 25.11.2019
3798 Clouds 12 1008 66 10000 3.1 360 13:18 25.11.2019
3799 Clouds 12 1008 66 10000 3.1 360 13:18 25.11.2019
3800 Clouds 10 1009 66 10000 2.6 230 12:55 25.11.2019
3801 Clouds 10 1009 66 10000 2.6 230 12:36 25.11.2019
3802 Clouds 10 1009 66 10000 2.6 230 12:18 25.11.2019
3803 Clouds 8 1009 65 10000 2.52 357 11:40 25.11.2019
3804 Clouds 8 1009 65 10000 2.29 7 11:21 25.11.2019
3805 Clouds 7 1010 70 10000 5.1 320 10:58 25.11.2019
3806 Clouds 7 1010 70 10000 5.1 320 10:39 25.11.2019
3807 Clouds 7 1010 70 10000 5.1 320 10:19 25.11.2019
3808 Clouds 9 1009 97 10000 8.2 360 09:42 25.11.2019
3809 Clouds 9 1009 97 10000 8.2 360 09:24 25.11.2019
3810 Clouds 8 1010 61 10000 6.7 360 08:42 25.11.2019
3811 Clouds 8 1010 61 10000 6.7 360 08:24 25.11.2019
3812 Clouds 8 1010 61 10000 6.7 360 07:56 25.11.2019
3813 Clouds 8 1010 61 10000 6.7 360 07:37 25.11.2019
3814 Clouds 8 1010 61 10000 6.7 360 07:18 25.11.2019
3815 Clouds 6 1010 75 10000 5.7 360 06:38 25.11.2019
3816 Clouds 6 1009 75 10000 2.6 270 06:18 25.11.2019
3817 Clouds 6 1009 75 10000 2.6 270 05:32 25.11.2019
3818 Clouds 7 1009 75 10000 1.8 358 04:49 25.11.2019
3819 Clouds 8 1009 87 10000 3.6 50 02:36 25.11.2019
3820 Clouds 8 1008 87 10000 5.7 70 01:56 25.11.2019
3821 Clouds 8 1008 87 10000 5.7 70 01:36 25.11.2019
3822 Clouds 8 1008 87 10000 5.7 70 01:18 25.11.2019
3823 Clouds 9 1007 76 10000 4.6 70 00:21 25.11.2019
3824 Clouds 10 1006 71 10000 4.1 50 23:45 24.11.2019
3825 Clouds 10 1006 71 10000 4.1 50 23:45 24.11.2019
3826 Clouds 10 1006 71 10000 4.1 50 23:45 24.11.2019
3827 Clouds 10 1006 71 10000 4.1 50 23:21 24.11.2019
3828 Clouds 11 1006 66 10000 3.1 90 22:59 24.11.2019
3829 Clouds 11 1006 66 10000 3.1 90 22:59 24.11.2019
3830 Clouds 11 1006 66 10000 3.1 90 22:40 24.11.2019
3831 Clouds 11 1006 66 10000 3.1 90 22:20 24.11.2019
3832 Clouds 11 1005 62 10000 2.6 50 21:58 24.11.2019
3833 Clouds 11 1005 62 10000 2.6 50 21:40 24.11.2019
3834 Clouds 11 1005 62 10000 2.6 50 21:21 24.11.2019
3835 Clouds 10 1005 71 10000 3.1 270 20:58 24.11.2019
3836 Clouds 10 1005 71 10000 3.1 270 20:38 24.11.2019
3837 Clouds 10 1005 71 10000 3.1 270 20:19 24.11.2019
3838 Rain 8 1005 81 10000 3.6 230 19:56 24.11.2019
3839 Rain 8 1005 81 10000 3.6 230 19:38 24.11.2019
3840 Rain 8 1005 81 10000 3.6 230 19:20 24.11.2019
3841 Rain 7 1004 93 10000 7.7 230 18:58 24.11.2019
3842 Rain 7 1004 93 10000 7.7 230 18:37 24.11.2019
3843 Rain 7 1003 93 6000 8.2 230 18:19 24.11.2019
3844 Rain 7 1003 93 6000 8.2 230 18:19 24.11.2019
3845 Rain 7 1003 93 6000 8.2 230 17:56 24.11.2019
3846 Rain 7 1003 93 6000 8.2 230 17:37 24.11.2019
3847 Rain 7 1003 93 6000 8.2 230 17:19 24.11.2019
3848 Rain 8 1002 93 8000 1.71 212 16:57 24.11.2019
3849 Rain 8 1002 93 8000 1.71 212 16:38 24.11.2019
3850 Rain 8 1002 93 8000 1.71 212 16:20 24.11.2019
3851 Rain 8 1002 93 8000 2.1 230 15:44 24.11.2019
3852 Rain 8 1002 93 8000 2.1 230 15:26 24.11.2019
3853 Rain 9 1002 87 8000 1.5 90 14:58 24.11.2019
3854 Rain 9 1002 87 8000 1.5 90 14:38 24.11.2019
3855 Rain 9 1002 87 8000 1.5 90 14:18 24.11.2019
3856 Drizzle 9 1001 87 10000 1.77 131 13:54 24.11.2019
3857 Drizzle 9 1001 87 10000 1.77 131 13:36 24.11.2019
3858 Drizzle 9 1001 87 10000 1.77 131 13:18 24.11.2019
3859 Drizzle 9 1001 87 10000 1.76 135 12:42 24.11.2019
3860 Drizzle 9 1001 87 10000 1.76 135 12:19 24.11.2019
3861 Drizzle 8 1000 81 10000 5.7 270 11:58 24.11.2019
3862 Drizzle 8 1000 81 10000 5.7 270 11:37 24.11.2019
3863 Drizzle 8 1000 81 10000 5.7 270 11:18 24.11.2019
3864 Drizzle 9 1001 87 10000 3.6 50 10:47 24.11.2019
3865 Drizzle 9 1001 87 10000 3.6 50 10:29 24.11.2019
3866 Drizzle 9 1000 81 10000 5.7 50 09:58 24.11.2019
3867 Drizzle 9 1000 81 10000 5.7 50 09:38 24.11.2019
3868 Rain 4 1001 97 0 1.45 160 09:19 24.11.2019
3869 Rain 4 1001 97 0 1.45 160 08:56 24.11.2019
3870 Rain 4 1001 97 0 1.45 160 08:36 24.11.2019
3871 Clouds 10 1000 57 10000 2.1 320 08:18 24.11.2019
3872 Clouds 10 1000 57 10000 2.1 320 07:45 24.11.2019
3873 Clouds 10 1000 57 10000 2.1 320 07:20 24.11.2019
3874 Clouds 11 1000 87 10000 7.7 360 06:21 24.11.2019
3875 Clouds 5 1002 82 0 3.22 16 04:54 24.11.2019
3876 Clouds 5 1002 82 0 3.22 16 04:35 24.11.2019
3877 Clouds 13 1001 37 10000 5.1 50 02:32 24.11.2019
3878 Clouds 14 1002 58 10000 7.7 360 01:42 24.11.2019
3879 Clouds 14 1002 56 10000 7.7 360 01:22 24.11.2019
3880 Clouds 17 1002 25 10000 7.2 360 00:48 24.11.2019
3881 Clouds 17 1002 25 10000 7.2 360 00:24 24.11.2019
3882 Clouds 19 1002 22 10000 10.8 340 23:56 23.11.2019
3883 Clouds 19 1002 22 10000 10.8 340 23:37 23.11.2019
3884 Clouds 19 1002 22 10000 10.8 340 23:19 23.11.2019
3885 Clouds 19 1002 24 10000 11.8 340 22:55 23.11.2019
3886 Clouds 19 1002 24 10000 11.8 340 22:55 23.11.2019
3887 Clouds 19 1002 24 10000 11.8 340 22:36 23.11.2019
3888 Clouds 19 1002 24 10000 11.8 340 22:18 23.11.2019
3889 Clouds 20 1002 24 10000 15.4 340 21:43 23.11.2019
3890 Clouds 20 1002 24 10000 15.4 340 21:43 23.11.2019
3891 Clouds 20 1002 24 10000 15.4 340 21:23 23.11.2019
3892 Clouds 20 1002 22 10000 16.5 340 20:59 23.11.2019
3893 Clouds 20 1002 22 10000 16.5 340 20:38 23.11.2019
3894 Clouds 20 1002 22 10000 16.5 340 20:19 23.11.2019
3895 Clouds 23 1002 41 10000 12.3 340 19:56 23.11.2019
3896 Clouds 23 1002 41 10000 12.3 340 19:38 23.11.2019
3897 Clouds 23 1002 41 10000 12.3 340 19:18 23.11.2019
3898 Clouds 22 1003 21 10000 11.8 340 18:41 23.11.2019
3899 Clouds 20 1003 21 10000 11.8 340 18:21 23.11.2019
3900 Clouds 20 1003 21 10000 11.8 340 18:21 23.11.2019
3901 Clouds 20 1003 41 10000 10.8 360 17:59 23.11.2019
3902 Clouds 20 1003 41 10000 10.8 360 17:40 23.11.2019
3903 Clouds 20 1003 48 10000 10.8 360 17:21 23.11.2019
3904 Clouds 18 1004 32 10000 10.8 360 16:56 23.11.2019
3905 Clouds 18 1004 32 10000 10.8 360 16:38 23.11.2019
3906 Clouds 18 1004 32 10000 10.8 360 16:20 23.11.2019
3907 Clouds 17 1005 48 10000 9.8 360 15:57 23.11.2019
3908 Clouds 17 1005 48 10000 9.8 360 15:38 23.11.2019
3909 Clouds 17 1005 48 10000 9.8 360 15:19 23.11.2019
3910 Clouds 15 1006 54 10000 5.7 360 14:55 23.11.2019
3911 Clouds 15 1006 54 10000 5.7 360 14:37 23.11.2019
3912 Clouds 15 1006 54 10000 5.7 360 14:18 23.11.2019
3913 Clouds 13 1007 58 10000 4.84 14 13:42 23.11.2019
3914 Clouds 13 1007 58 10000 4.84 14 13:19 23.11.2019
3915 Clouds 11 1008 66 10000 5.08 12 12:55 23.11.2019
3916 Clouds 11 1008 66 10000 5.08 12 12:37 23.11.2019
3917 Clouds 11 1008 66 10000 5.08 12 12:19 23.11.2019
3918 Clouds 9 1008 70 10000 5.08 12 11:42 23.11.2019
3919 Clouds 9 1008 70 10000 2.71 21 11:20 23.11.2019
3920 Clouds 9 1009 70 10000 6.7 90 10:45 23.11.2019
3921 Clouds 9 1009 70 10000 6.7 90 10:21 23.11.2019
3922 Clouds 7 1010 87 10000 3.6 70 09:42 23.11.2019
3923 Clouds 7 1010 87 10000 3.6 70 09:42 23.11.2019
3924 Clouds 7 1010 87 10000 3.6 70 09:20 23.11.2019
3925 Clouds 7 1011 81 10000 2.1 70 08:45 23.11.2019
3926 Clouds 7 1011 81 10000 2.1 70 08:20 23.11.2019
3927 Clouds 7 1012 87 10000 3.1 90 07:54 23.11.2019
3928 Clouds 7 1012 87 10000 3.1 90 07:35 23.11.2019
3929 Clouds 8 1013 75 10000 1.5 90 06:47 23.11.2019
3930 Clouds 8 1013 75 10000 1.5 90 06:21 23.11.2019
3931 Clouds 10 1012 61 10000 2.1 140 05:51 23.11.2019
3932 Clouds 10 1012 61 10000 2.1 140 05:29 23.11.2019
3933 Clouds 9 1013 66 10000 2.1 16 04:50 23.11.2019
3934 Clouds 9 1013 66 10000 2.1 16 04:28 23.11.2019
3935 Clouds 10 1012 61 10000 3.6 230 02:53 23.11.2019
3936 Clouds 10 1012 61 10000 3.6 230 02:24 23.11.2019
3937 Clouds 13 1012 54 10000 4.1 230 01:38 23.11.2019
3938 Clouds 14 1011 47 10000 1.77 8 00:43 23.11.2019
3939 Clouds 14 1011 47 10000 1.77 8 00:19 23.11.2019
3940 Clouds 14 1011 47 10000 5.7 320 23:42 22.11.2019
3941 Clouds 14 1011 47 10000 5.7 320 23:21 22.11.2019
3942 Clouds 13 1011 54 10000 2.58 323 22:58 22.11.2019
3943 Clouds 13 1011 54 10000 2.58 323 22:39 22.11.2019
3944 Clouds 13 1011 54 10000 2.58 323 22:20 22.11.2019
3945 Clouds 14 1011 47 10000 2.6 140 21:59 22.11.2019
3946 Clouds 14 1011 47 10000 2.6 140 21:39 22.11.2019
3947 Clouds 13 1011 47 10000 2.6 140 21:20 22.11.2019
3948 Clouds 12 1010 58 10000 2.58 323 20:43 22.11.2019
3949 Clouds 12 1010 58 10000 3.85 322 20:22 22.11.2019
3950 Drizzle 13 1009 58 10000 4.6 180 19:58 22.11.2019
3951 Drizzle 13 1009 58 10000 4.6 180 19:38 22.11.2019
3952 Drizzle 13 1009 58 10000 4.6 180 19:19 22.11.2019
3953 Clouds 14 1009 50 10000 2.6 140 18:58 22.11.2019
3954 Clouds 14 1009 50 10000 2.6 140 18:36 22.11.2019
3955 Clouds 14 1009 50 10000 2.6 140 18:18 22.11.2019
3956 Clouds 14 1009 50 10000 2.6 140 18:18 22.11.2019
3957 Clouds 14 1008 47 10000 2.1 180 17:41 22.11.2019
3958 Clouds 14 1008 47 10000 2.1 180 17:22 22.11.2019
3959 Clouds 12 1008 50 10000 2.1 180 16:48 22.11.2019
3960 Clouds 12 1008 50 10000 2.1 180 16:29 22.11.2019
3961 Clouds 13 1008 58 10000 2.1 180 15:54 22.11.2019
3962 Clouds 13 1008 58 10000 2.1 180 15:36 22.11.2019
3963 Clouds 13 1008 58 10000 2.1 180 15:18 22.11.2019
3964 Clouds 11 1008 58 10000 1.5 180 14:54 22.11.2019
3965 Clouds 11 1008 58 10000 1.5 180 14:36 22.11.2019
3966 Clouds 11 1008 58 10000 1.5 180 14:18 22.11.2019
3967 Clouds 11 1008 58 10000 1.5 180 14:18 22.11.2019
3968 Clouds 10 1007 61 10000 1.5 180 13:38 22.11.2019
3969 Clouds 10 1007 61 10000 1.5 180 13:19 22.11.2019
3970 Clouds 9 1007 57 10000 4.1 230 12:58 22.11.2019
3971 Clouds 9 1007 57 10000 4.1 230 12:40 22.11.2019
3972 Clouds 9 1007 57 10000 4.1 230 12:19 22.11.2019
3973 Clouds 9 1006 66 10000 3.1 230 11:56 22.11.2019
3974 Clouds 9 1006 66 10000 3.1 230 11:36 22.11.2019
3975 Clouds 9 1006 66 10000 3.1 230 11:36 22.11.2019
3976 Clouds 9 1006 66 10000 3.1 230 11:18 22.11.2019
3977 Clouds 8 1005 70 10000 5.7 230 10:42 22.11.2019
3978 Clouds 8 1005 70 10000 5.7 230 10:23 22.11.2019
3979 Clouds 8 1004 70 10000 2.1 230 09:59 22.11.2019
3980 Clouds 8 1004 70 10000 2.1 230 09:40 22.11.2019
3981 Clouds 8 1004 70 10000 2.1 230 09:21 22.11.2019
3982 Rain 4 1006 97 0 1.07 78 08:57 22.11.2019
3983 Rain 4 1006 97 0 1.07 78 08:57 22.11.2019
3984 Rain 4 1006 97 0 1.07 78 08:38 22.11.2019
3985 Clouds 10 1003 53 10000 4.6 320 08:20 22.11.2019
3986 Clouds 10 1003 53 10000 4.6 320 07:41 22.11.2019
3987 Clouds 10 1003 53 10000 4.6 320 07:19 22.11.2019
3988 Clouds 10 1002 46 10000 5.7 320 06:47 22.11.2019
3989 Clouds 10 1002 46 10000 5.7 320 06:27 22.11.2019
3990 Clouds 10 1002 46 10000 5.7 320 05:33 22.11.2019
3991 Clouds 10 1003 40 10000 6.2 320 03:26 22.11.2019
3992 Clouds 10 1003 40 10000 4.6 320 02:43 22.11.2019
3993 Clouds 10 1003 40 10000 4.6 320 02:23 22.11.2019
3994 Clouds 11 1003 37 10000 5.7 320 01:43 22.11.2019
3995 Clouds 11 1003 37 10000 5.7 320 01:18 22.11.2019
3996 Clouds 12 1003 37 10000 5.1 320 00:43 22.11.2019
3997 Clouds 12 1003 37 10000 5.1 320 00:22 22.11.2019
3998 Clouds 12 1003 37 10000 6.2 320 23:43 21.11.2019
3999 Clouds 12 1003 37 10000 6.2 320 23:24 21.11.2019
4000 Clouds 13 1003 58 10000 3.6 320 22:56 21.11.2019
4001 Clouds 13 1003 58 10000 3.6 320 22:38 21.11.2019
4002 Clouds 13 1003 58 10000 3.6 320 22:19 21.11.2019
4003 Clouds 13 1003 46 10000 1.5 90 21:55 21.11.2019
4004 Clouds 13 1003 46 10000 1.5 90 21:36 21.11.2019
4005 Clouds 13 1003 46 10000 1.5 90 21:18 21.11.2019
4006 Clouds 14 1003 58 10000 2.1 140 20:57 21.11.2019
4007 Clouds 14 1003 58 10000 2.1 140 20:37 21.11.2019
4008 Clouds 14 1003 49 10000 2.1 140 20:18 21.11.2019
4009 Clouds 13 1003 49 10000 3.1 200 19:57 21.11.2019
4010 Clouds 13 1003 49 10000 3.1 200 19:38 21.11.2019
4011 Clouds 13 1003 49 10000 3.1 200 19:19 21.11.2019
4012 Clouds 12 1003 49 10000 1.5 140 18:54 21.11.2019
4013 Clouds 12 1003 49 10000 1.5 140 18:36 21.11.2019
4014 Clouds 12 1003 49 10000 1.5 140 18:36 21.11.2019
4015 Clouds 12 1003 49 10000 1.5 140 18:18 21.11.2019
4016 Clouds 13 1002 40 10000 2.1 200 17:40 21.11.2019
4017 Clouds 13 1002 40 10000 2.1 200 17:22 21.11.2019
4018 Clouds 11 1002 43 10000 3.1 200 16:59 21.11.2019
4019 Clouds 11 1002 43 10000 3.1 200 16:40 21.11.2019
4020 Clouds 11 1002 43 10000 3.1 200 16:21 21.11.2019
4021 Clouds 11 1002 71 10000 2.6 180 15:56 21.11.2019
4022 Clouds 11 1002 71 10000 2.6 180 15:37 21.11.2019
4023 Clouds 11 1002 71 10000 2.6 180 15:19 21.11.2019
4024 Clouds 9 1002 66 10000 3.1 140 14:39 21.11.2019
4025 Clouds 9 1002 66 10000 3.1 140 14:21 21.11.2019
4026 Clouds 8 1002 67 10000 2.17 321 13:59 21.11.2019
4027 Clouds 8 1002 67 10000 2.17 321 13:38 21.11.2019
4028 Clouds 8 1002 71 10000 2.37 324 13:19 21.11.2019
4029 Clouds 8 1002 71 10000 2.37 324 13:19 21.11.2019
4030 Clouds 6 1002 81 10000 2.37 324 12:54 21.11.2019
4031 Clouds 6 1002 75 10000 1.5 10 12:36 21.11.2019
4032 Clouds 6 1002 75 10000 1.5 10 12:18 21.11.2019
4033 Clouds 5 1002 70 10000 2.37 324 11:40 21.11.2019
4034 Clouds 5 1002 70 10000 1.83 330 11:21 21.11.2019
4035 Clouds 3 1002 93 10000 1.83 330 10:57 21.11.2019
4036 Clouds 3 1002 93 10000 1.83 330 10:39 21.11.2019
4037 Clouds 3 1002 93 10000 1.83 330 10:20 21.11.2019
4038 Clouds 5 1001 93 10000 2.1 360 09:43 21.11.2019
4039 Clouds 5 1001 93 10000 2.1 360 09:23 21.11.2019
4040 Clouds 4 1001 80 10000 2.1 360 08:59 21.11.2019
4041 Clouds 4 1001 80 10000 2.1 360 08:40 21.11.2019
4042 Clouds 4 1001 80 10000 2.1 360 08:40 21.11.2019
4043 Clouds 4 1001 80 10000 2.1 360 08:18 21.11.2019
4044 Clouds 4 1001 97 10000 1.46 345 07:40 21.11.2019
4045 Clouds 4 1001 97 10000 1.46 345 07:18 21.11.2019
4046 Clouds 4 1001 80 10000 3.6 320 06:51 21.11.2019
4047 Clouds 4 1001 80 10000 3.6 320 06:33 21.11.2019
4048 Clouds 6 1001 70 10000 4.1 270 05:31 21.11.2019
4049 Clouds 7 1000 70 10000 4.6 270 03:32 21.11.2019
4050 Clouds 7 1000 70 10000 5.7 230 02:40 21.11.2019
4051 Clouds 7 999 75 10000 8.2 230 01:53 21.11.2019
4052 Clouds 7 999 75 10000 8.2 230 01:26 21.11.2019
4053 Clouds 8 999 70 10000 9.8 230 00:54 21.11.2019
4054 Clouds 8 999 70 10000 9.8 230 00:54 21.11.2019
4055 Clouds 8 999 70 10000 9.8 230 00:21 21.11.2019
4056 Rain 8 998 70 10000 10.3 230 23:55 20.11.2019
4057 Rain 8 998 70 10000 10.3 230 23:37 20.11.2019
4058 Rain 8 998 70 10000 10.3 230 23:19 20.11.2019
4059 Rain 9 998 65 10000 10.3 230 22:55 20.11.2019
4060 Rain 9 998 65 10000 10.3 230 22:36 20.11.2019
4061 Rain 9 998 65 10000 10.3 230 22:18 20.11.2019
4062 Rain 9 998 65 10000 10.3 230 22:18 20.11.2019
4063 Rain 8 998 70 10000 11.3 230 21:54 20.11.2019
4064 Rain 8 998 70 10000 11.3 230 21:36 20.11.2019
4065 Rain 8 998 70 10000 11.3 230 21:18 20.11.2019
4066 Rain 9 997 70 10000 11.8 230 20:54 20.11.2019
4067 Rain 9 997 70 10000 11.8 230 20:36 20.11.2019
4068 Rain 9 997 70 10000 11.8 230 20:18 20.11.2019
4069 Rain 8 996 65 10000 11.3 230 19:54 20.11.2019
4070 Rain 8 996 65 10000 11.3 230 19:36 20.11.2019
4071 Rain 8 996 65 10000 11.3 230 19:18 20.11.2019
4072 Clouds 9 995 61 10000 12.3 230 18:40 20.11.2019
4073 Clouds 9 995 61 10000 12.3 230 18:22 20.11.2019
4074 Clouds 9 995 61 10000 11.8 230 17:59 20.11.2019
4075 Clouds 9 995 61 10000 11.8 230 17:39 20.11.2019
4076 Clouds 9 995 61 10000 11.8 230 17:21 20.11.2019
4077 Clouds 7 995 70 10000 10.3 230 16:59 20.11.2019
4078 Clouds 7 995 70 10000 10.3 230 16:41 20.11.2019
4079 Clouds 7 995 70 10000 10.3 230 16:20 20.11.2019
4080 Clouds 8 994 70 10000 10.3 230 15:57 20.11.2019
4081 Clouds 8 994 70 10000 10.3 230 15:38 20.11.2019
4082 Clouds 8 994 70 10000 10.3 230 15:19 20.11.2019
4083 Clouds 7 994 81 10000 12.3 230 14:55 20.11.2019
4084 Clouds 7 994 81 10000 12.3 230 14:37 20.11.2019
4085 Clouds 7 994 81 10000 12.3 230 14:18 20.11.2019
4086 Drizzle 6 993 86 10000 12.9 230 13:55 20.11.2019
4087 Drizzle 6 993 86 10000 12.9 230 13:36 20.11.2019
4088 Drizzle 6 993 86 10000 12.9 230 13:18 20.11.2019
4089 Drizzle 4 992 93 10000 11.3 230 12:38 20.11.2019
4090 Drizzle 4 992 93 10000 11.3 230 12:19 20.11.2019
4091 Drizzle 4 992 93 10000 10.3 230 11:46 20.11.2019
4092 Drizzle 4 992 93 10000 10.3 230 11:23 20.11.2019
4093 Clouds 4 991 86 10000 13.4 230 10:58 20.11.2019
4094 Clouds 4 991 86 10000 13.4 230 10:39 20.11.2019
4095 Clouds 4 991 86 10000 13.4 230 10:20 20.11.2019
4096 Clouds 5 989 80 10000 11.8 230 09:59 20.11.2019
4097 Clouds 5 989 80 10000 11.8 230 09:41 20.11.2019
4098 Clouds 5 989 80 10000 11.8 230 09:19 20.11.2019
4099 Clouds 5 989 80 10000 9.8 230 08:43 20.11.2019
4100 Clouds 5 989 80 10000 9.8 230 08:24 20.11.2019
4101 Clouds 5 989 80 10000 7.7 230 07:52 20.11.2019
4102 Clouds 5 989 80 10000 7.7 230 07:34 20.11.2019
4103 Clouds 5 989 80 10000 4.1 270 06:58 20.11.2019
4104 Clouds 5 989 80 10000 4.1 270 06:38 20.11.2019
4105 Clouds 5 989 80 10000 4.1 270 06:18 20.11.2019
4106 Rain 2 988 98 0 0.82 332 04:41 20.11.2019
4107 Clouds 7 988 87 10000 3.6 230 02:28 20.11.2019
4108 Clouds 7 988 87 10000 0.89 7 01:37 20.11.2019
4109 Drizzle 8 987 81 10000 4.1 230 00:46 20.11.2019
4110 Drizzle 8 987 81 10000 4.1 230 00:21 20.11.2019
4111 Drizzle 8 987 65 10000 4.1 230 23:41 19.11.2019
4112 Drizzle 8 987 65 10000 4.1 230 23:41 19.11.2019
4113 Drizzle 8 987 65 10000 4.1 230 23:22 19.11.2019
4114 Drizzle 8 987 70 10000 4.6 180 22:56 19.11.2019
4115 Drizzle 8 987 70 10000 4.6 180 22:37 19.11.2019
4116 Rain 8 987 70 10000 5.1 180 22:18 19.11.2019
4117 Rain 7 987 75 10000 1.52 222 21:54 19.11.2019
4118 Rain 7 987 75 10000 1.52 222 21:36 19.11.2019
4119 Rain 7 987 75 10000 1.52 222 21:18 19.11.2019
4120 Drizzle 7 987 75 10000 3.1 140 20:54 19.11.2019
4121 Drizzle 7 987 75 10000 3.1 140 20:36 19.11.2019
4122 Drizzle 7 987 75 10000 3.1 140 20:18 19.11.2019
4123 Drizzle 8 988 75 10000 3.1 230 19:41 19.11.2019
4124 Drizzle 8 988 75 10000 3.1 230 19:20 19.11.2019
4125 Drizzle 9 987 75 10000 3.1 180 18:58 19.11.2019
4126 Drizzle 9 987 75 10000 3.1 180 18:39 19.11.2019
4127 Drizzle 9 987 75 10000 3.1 180 18:18 19.11.2019
4128 Drizzle 9 987 75 10000 2.1 360 17:57 19.11.2019
4129 Drizzle 9 987 75 10000 2.1 360 17:38 19.11.2019
4130 Drizzle 9 987 75 10000 2.1 360 17:19 19.11.2019
4131 Drizzle 8 988 70 10000 2.6 50 16:59 19.11.2019
4132 Drizzle 8 988 70 10000 2.6 50 16:39 19.11.2019
4133 Drizzle 8 988 70 10000 2.6 50 16:19 19.11.2019
4134 Drizzle 8 988 70 10000 1.5 70 15:45 19.11.2019
4135 Drizzle 8 988 70 10000 1.5 70 15:26 19.11.2019
4136 Clouds 8 988 81 10000 1.5 110 14:57 19.11.2019
4137 Clouds 8 988 81 10000 1.5 110 14:39 19.11.2019
4138 Clouds 8 988 81 10000 1.5 110 14:20 19.11.2019
4139 Clouds 9 989 75 10000 2.6 110 13:42 19.11.2019
4140 Clouds 9 989 75 10000 2.6 110 13:21 19.11.2019
4141 Clouds 7 990 87 10000 1.7 360 12:56 19.11.2019
4142 Clouds 7 990 87 10000 1.7 360 12:38 19.11.2019
4143 Clouds 7 990 87 10000 1.7 360 12:19 19.11.2019
4144 Clouds 6 990 87 10000 1.7 360 11:55 19.11.2019
4145 Clouds 6 990 87 10000 1.7 360 11:36 19.11.2019
4146 Clouds 6 990 87 10000 1.75 13 11:18 19.11.2019
4147 Clouds 6 991 87 10000 1.5 270 10:44 19.11.2019
4148 Clouds 6 991 87 10000 1.5 270 10:20 19.11.2019
4149 Clouds 6 991 87 10000 1.5 270 10:20 19.11.2019
4150 Clouds 6 991 87 10000 2.1 230 09:43 19.11.2019
4151 Clouds 6 991 87 10000 2.1 230 09:21 19.11.2019
4152 Clouds 6 991 87 10000 1.5 200 08:57 19.11.2019
4153 Clouds 6 991 87 10000 1.5 200 08:39 19.11.2019
4154 Clouds 6 991 87 10000 1.5 200 08:20 19.11.2019
4155 Clouds 6 991 87 10000 3.1 200 07:42 19.11.2019
4156 Clouds 6 991 87 10000 3.1 200 07:24 19.11.2019
4157 Clouds 6 992 87 10000 1.5 290 06:58 19.11.2019
4158 Clouds 6 992 87 10000 1.5 290 06:37 19.11.2019
4159 Clouds 4 992 87 10000 1.5 290 06:18 19.11.2019
4160 Clouds 5 993 75 10000 4.1 250 05:18 19.11.2019
4161 Clouds 5 993 75 10000 2.1 50 03:39 19.11.2019
4162 Clouds 5 993 75 10000 2.1 50 03:19 19.11.2019
4163 Clouds 7 994 70 10000 2.6 70 02:45 19.11.2019
4164 Clouds 8 994 61 10000 2.6 140 01:48 19.11.2019
4165 Clouds 9 994 53 10000 2.1 70 00:46 19.11.2019
4166 Clouds 9 994 53 10000 2.1 70 00:19 19.11.2019
4167 Clouds 9 994 50 10000 5.7 70 23:39 18.11.2019
4168 Clouds 9 994 50 10000 5.7 70 23:19 18.11.2019
4169 Clouds 8 994 61 10000 2.1 50 22:46 18.11.2019
4170 Clouds 8 994 61 10000 2.1 50 22:24 18.11.2019
4171 Clouds 8 994 61 10000 2.1 50 21:58 18.11.2019
4172 Clouds 8 994 61 10000 2.1 50 21:40 18.11.2019
4173 Clouds 8 994 61 10000 2.1 50 21:21 18.11.2019
4174 Clouds 10 994 70 10000 2.1 50 20:59 18.11.2019
4175 Clouds 10 994 70 10000 2.1 50 20:40 18.11.2019
4176 Clouds 10 994 70 10000 2.1 50 20:19 18.11.2019
4177 Clouds 10 995 76 10000 2.62 298 19:57 18.11.2019
4178 Clouds 10 995 76 10000 2.62 298 19:38 18.11.2019
4179 Clouds 10 995 76 10000 2.62 298 19:20 18.11.2019
4180 Drizzle 8 995 93 10000 3.1 200 18:56 18.11.2019
4181 Drizzle 8 995 93 10000 3.1 200 18:38 18.11.2019
4182 Drizzle 8 995 93 10000 3.1 200 18:19 18.11.2019
4183 Clouds 10 995 70 10000 3.1 200 17:56 18.11.2019
4184 Clouds 10 995 70 10000 3.1 200 17:37 18.11.2019
4185 Clouds 10 995 70 10000 3.1 200 17:18 18.11.2019
4186 Rain 9 995 75 10000 5.1 200 16:42 18.11.2019
4187 Rain 9 995 75 10000 5.1 200 16:24 18.11.2019
4188 Rain 8 995 75 10000 6.2 230 15:58 18.11.2019
4189 Rain 8 995 75 10000 6.2 230 15:39 18.11.2019
4190 Rain 8 995 75 10000 6.2 230 15:39 18.11.2019
4191 Rain 8 995 75 10000 6.2 230 15:20 18.11.2019
4192 Drizzle 8 995 87 10000 6.2 230 14:56 18.11.2019
4193 Drizzle 8 995 87 10000 6.2 230 14:37 18.11.2019
4194 Drizzle 8 995 87 10000 6.2 230 14:18 18.11.2019
4195 Rain 8 995 75 10000 3.1 230 13:42 18.11.2019
4196 Rain 8 995 75 10000 3.1 230 13:23 18.11.2019
4197 Clouds 7 995 75 10000 1.5 320 12:40 18.11.2019
4198 Clouds 7 995 75 10000 1.5 320 12:20 18.11.2019
4199 Rain 5 994 86 10000 6.2 230 11:56 18.11.2019
4200 Rain 5 994 86 10000 6.2 230 11:38 18.11.2019
4201 Rain 5 994 86 10000 6.2 230 11:19 18.11.2019
4202 Rain 5 994 86 10000 3.6 230 10:43 18.11.2019
4203 Rain 5 994 86 10000 3.6 230 10:25 18.11.2019
4204 Clouds 5 993 86 10000 3.6 230 09:57 18.11.2019
4205 Clouds 5 993 86 10000 3.6 230 09:57 18.11.2019
4206 Clouds 5 993 86 10000 3.6 230 09:38 18.11.2019
4207 Clouds 5 993 86 10000 3.6 230 09:20 18.11.2019
4208 Drizzle 5 992 86 6500 4.6 230 08:47 18.11.2019
4209 Drizzle 5 992 86 6500 4.6 230 08:24 18.11.2019
4210 Drizzle 6 992 81 6500 3.6 230 07:58 18.11.2019
4211 Drizzle 6 992 81 6500 3.6 230 07:38 18.11.2019
4212 Drizzle 6 992 81 6500 3.6 230 07:20 18.11.2019
4213 Drizzle 6 992 81 6500 7.2 230 06:43 18.11.2019
4214 Drizzle 6 992 81 6500 7.2 230 06:25 18.11.2019
4215 Drizzle 5 991 86 6500 7.7 230 05:41 18.11.2019
4216 Drizzle 6 989 75 10000 9.8 230 03:53 18.11.2019
4217 Clouds 6 986 75 10000 10.8 230 01:40 18.11.2019
4218 Rain 7 984 70 10000 13.4 230 00:54 18.11.2019
4219 Rain 9 984 70 10000 13.4 230 00:19 18.11.2019
4220 Rain 9 983 70 10000 15.4 230 23:41 17.11.2019
4221 Rain 9 983 70 10000 15.4 230 23:21 17.11.2019
4222 Clouds 10 981 65 10000 12.9 230 22:57 17.11.2019
4223 Clouds 10 981 65 10000 12.9 230 22:39 17.11.2019
4224 Clouds 10 981 65 10000 12.9 230 22:39 17.11.2019
4225 Clouds 10 981 65 10000 12.9 230 22:20 17.11.2019
4226 Clouds 10 980 61 10000 13.4 230 21:55 17.11.2019
4227 Clouds 10 980 61 10000 13.4 230 21:36 17.11.2019
4228 Clouds 10 980 61 10000 13.4 230 21:18 17.11.2019
4229 Clouds 10 980 61 10000 13.4 230 21:18 17.11.2019
4230 Clouds 11 978 70 10000 15.4 230 20:54 17.11.2019
4231 Clouds 11 978 70 10000 15.4 230 20:36 17.11.2019
4232 Clouds 11 978 70 10000 15.4 230 20:18 17.11.2019
4233 Clouds 9 978 70 10000 15.4 230 19:54 17.11.2019
4234 Clouds 9 978 70 10000 15.4 230 19:36 17.11.2019
4235 Clouds 9 978 70 10000 15.4 230 19:18 17.11.2019
4236 Clouds 9 977 66 10000 11.8 230 18:54 17.11.2019
4237 Clouds 9 977 66 10000 11.8 230 18:54 17.11.2019
4238 Clouds 9 977 66 10000 11.8 230 18:36 17.11.2019
4239 Clouds 9 977 66 10000 11.8 230 18:18 17.11.2019
4240 Rain 8 977 75 10000 11.8 230 17:56 17.11.2019
4241 Rain 8 977 75 10000 11.8 230 17:38 17.11.2019
4242 Rain 8 977 75 10000 11.8 230 17:18 17.11.2019
4243 Clouds 9 977 76 10000 7.7 230 16:42 17.11.2019
4244 Clouds 9 977 76 10000 7.7 230 16:22 17.11.2019
4245 Clouds 9 976 81 10000 6.7 230 15:57 17.11.2019
4246 Clouds 9 976 81 10000 6.7 230 15:39 17.11.2019
4247 Clouds 8 976 81 10000 6.7 230 15:19 17.11.2019
4248 Clouds 8 976 81 10000 5.1 230 14:57 17.11.2019
4249 Clouds 8 976 81 10000 5.1 230 14:39 17.11.2019
4250 Clouds 8 976 81 10000 5.1 230 14:20 17.11.2019
4251 Clouds 7 976 81 10000 2.17 318 13:58 17.11.2019
4252 Clouds 7 976 81 10000 2.17 318 13:40 17.11.2019
4253 Clouds 7 976 81 10000 2.4 342 13:19 17.11.2019
4254 Clouds 6 975 81 10000 3.1 250 12:45 17.11.2019
4255 Clouds 6 975 81 10000 3.1 250 12:24 17.11.2019
4256 Clouds 6 975 87 10000 2.1 180 11:59 17.11.2019
4257 Clouds 6 975 87 10000 2.1 180 11:40 17.11.2019
4258 Clouds 6 975 87 10000 2.1 180 11:21 17.11.2019
4259 Clouds 6 974 87 10000 3.6 320 10:56 17.11.2019
4260 Clouds 6 974 87 10000 3.6 320 10:36 17.11.2019
4261 Clouds 6 974 87 10000 3.6 320 10:18 17.11.2019
4262 Clouds 6 974 87 10000 2.6 320 09:41 17.11.2019
4263 Clouds 6 974 87 10000 2.6 320 09:23 17.11.2019
4264 Rain 3 975 97 0 2.4 338 08:44 17.11.2019
4265 Drizzle 6 973 87 6500 3.6 230 08:24 17.11.2019
4266 Drizzle 6 973 87 6500 3.6 230 07:57 17.11.2019
4267 Drizzle 6 973 87 6500 3.6 230 07:39 17.11.2019
4268 Drizzle 6 973 87 6500 3.6 230 07:19 17.11.2019
4269 Rain 7 973 75 5000 2.6 90 06:51 17.11.2019
4270 Rain 7 973 75 5000 2.6 90 06:29 17.11.2019
4271 Rain 7 973 75 5000 2.6 90 06:29 17.11.2019
4272 Rain 7 972 93 10000 7.7 230 04:57 17.11.2019
4273 Rain 8 972 87 10000 8.2 230 03:59 17.11.2019
4274 Rain 8 972 87 10000 8.2 230 03:59 17.11.2019
4275 Rain 8 972 87 10000 6.2 230 03:35 17.11.2019
4276 Rain 8 972 81 10000 3.1 50 02:59 17.11.2019
4277 Rain 9 972 76 10000 6.2 340 01:54 17.11.2019
4278 Rain 12 974 76 7000 5.1 290 00:59 17.11.2019
4279 Rain 12 974 76 7000 5.1 290 00:38 17.11.2019
4280 Rain 12 974 76 7000 5.1 290 00:19 17.11.2019
4281 Rain 13 973 62 10000 6.2 270 23:42 16.11.2019
4282 Rain 13 973 62 10000 6.2 270 23:42 16.11.2019
4283 Rain 13 973 62 10000 6.2 270 23:18 16.11.2019
4284 Rain 13 973 62 10000 6.2 270 23:18 16.11.2019
4285 Clouds 13 974 54 10000 5.7 360 22:42 16.11.2019
4286 Clouds 13 974 54 10000 5.7 360 22:20 16.11.2019
4287 Clouds 14 974 54 10000 5.7 320 21:59 16.11.2019
4288 Clouds 14 974 54 10000 5.7 320 21:40 16.11.2019
4289 Clouds 14 974 54 10000 5.7 320 21:21 16.11.2019
4290 Clouds 14 975 54 10000 6.2 320 20:58 16.11.2019
4291 Clouds 14 975 54 10000 6.2 320 20:39 16.11.2019
4292 Clouds 14 975 54 10000 6.2 320 20:19 16.11.2019
4293 Clouds 14 977 54 10000 4.6 340 19:54 16.11.2019
4294 Clouds 14 977 54 10000 4.6 340 19:36 16.11.2019
4295 Clouds 14 977 54 10000 4.6 340 19:18 16.11.2019
4296 Clouds 13 977 54 10000 8.7 340 18:40 16.11.2019
4297 Clouds 13 977 54 10000 8.7 340 18:20 16.11.2019
4298 Clouds 12 979 53 10000 7.7 340 17:55 16.11.2019
4299 Clouds 12 979 53 10000 7.7 340 17:37 16.11.2019
4300 Clouds 12 979 53 10000 7.7 340 17:18 16.11.2019
4301 Rain 12 980 53 10000 7.7 340 16:45 16.11.2019
4302 Rain 12 980 53 10000 7.7 340 16:26 16.11.2019
4303 Clouds 12 980 50 10000 7.7 340 15:56 16.11.2019
4304 Clouds 12 980 50 10000 7.7 340 15:56 16.11.2019
4305 Clouds 12 980 50 10000 7.7 340 15:37 16.11.2019
4306 Clouds 12 980 50 10000 7.7 340 15:18 16.11.2019
4307 Clouds 12 981 78 10000 7.7 340 14:41 16.11.2019
4308 Clouds 12 981 81 10000 7.7 340 14:21 16.11.2019
4309 Clouds 11 981 50 10000 7.7 340 13:57 16.11.2019
4310 Clouds 11 981 50 10000 7.7 340 13:38 16.11.2019
4311 Clouds 11 981 50 10000 7.7 340 13:19 16.11.2019
4312 Clouds 9 982 76 10000 2.6 320 12:59 16.11.2019
4313 Clouds 9 982 76 10000 2.6 320 12:40 16.11.2019
4314 Clouds 9 982 76 10000 2.6 320 12:20 16.11.2019
4315 Clouds 7 983 87 10000 4.1 70 11:45 16.11.2019
4316 Clouds 7 983 87 10000 4.1 70 11:27 16.11.2019
4317 Clouds 7 983 81 10000 1.96 8 10:58 16.11.2019
4318 Clouds 7 983 81 10000 1.96 8 10:39 16.11.2019
4319 Clouds 7 983 81 10000 1.96 8 10:21 16.11.2019
4320 Clouds 7 983 81 10000 1.5 250 09:45 16.11.2019
4321 Clouds 7 983 81 10000 1.5 250 09:22 16.11.2019
4322 Clouds 6 983 87 10000 2.1 340 08:59 16.11.2019
4323 Clouds 6 983 87 10000 2.1 340 08:39 16.11.2019
4324 Clouds 6 983 87 10000 2.1 340 08:19 16.11.2019
4325 Clouds 6 983 93 10000 3.6 160 07:43 16.11.2019
4326 Clouds 6 983 93 10000 3.6 160 07:21 16.11.2019
4327 Clouds 6 983 87 10000 2.6 340 06:55 16.11.2019
4328 Clouds 6 983 87 10000 2.6 340 06:34 16.11.2019
4329 Clouds 6 983 93 10000 3.1 70 05:40 16.11.2019
4330 Clouds 6 984 87 10000 5.1 90 04:20 16.11.2019
4331 Clouds 6 983 87 10000 6.7 90 03:25 16.11.2019
4332 Rain 5 984 96 0 1.17 129 01:55 16.11.2019
4333 Clouds 9 985 76 10000 1.33 12 01:27 16.11.2019
4334 Clouds 9 985 76 10000 1.33 12 00:46 16.11.2019
4335 Clouds 9 985 76 10000 1.33 12 00:27 16.11.2019
4336 Clouds 9 984 76 10000 6.7 230 23:40 15.11.2019
4337 Clouds 9 984 76 10000 6.7 230 23:21 15.11.2019
4338 Rain 11 983 81 10000 7.7 200 22:57 15.11.2019
4339 Rain 11 983 81 10000 7.7 200 22:38 15.11.2019
4340 Rain 11 983 81 10000 7.7 200 22:18 15.11.2019
4341 Rain 12 982 50 10000 2.1 180 21:54 15.11.2019
4342 Rain 12 982 50 10000 2.1 180 21:36 15.11.2019
4343 Rain 12 982 50 10000 2.1 180 21:18 15.11.2019
4344 Clouds 13 982 50 10000 5.1 160 20:54 15.11.2019
4345 Clouds 13 982 50 10000 5.1 160 20:36 15.11.2019
4346 Clouds 13 982 50 10000 5.1 160 20:18 15.11.2019
4347 Rain 13 982 54 10000 2.6 180 19:56 15.11.2019
4348 Rain 13 982 54 10000 2.6 180 19:36 15.11.2019
4349 Rain 13 982 54 10000 2.6 180 19:18 15.11.2019
4350 Clouds 13 982 50 10000 2.1 360 18:41 15.11.2019
4351 Clouds 13 982 50 10000 2.1 360 18:23 15.11.2019
4352 Clouds 13 982 47 10000 2.65 186 17:55 15.11.2019
4353 Clouds 13 982 47 10000 2.65 186 17:37 15.11.2019
4354 Clouds 13 982 47 10000 1.16 291 17:18 15.11.2019
4355 Clouds 11 983 62 10000 1.16 291 16:40 15.11.2019
4356 Clouds 11 983 62 10000 1.16 291 16:40 15.11.2019
4357 Clouds 11 983 62 10000 1.16 291 16:22 15.11.2019
4358 Clouds 10 983 62 10000 2.6 50 15:59 15.11.2019
4359 Clouds 10 983 62 10000 2.6 50 15:36 15.11.2019
4360 Clouds 10 983 62 10000 2.6 50 15:18 15.11.2019
4361 Clouds 10 984 76 10000 2.6 50 14:55 15.11.2019
4362 Clouds 10 984 76 10000 2.6 50 14:37 15.11.2019
4363 Clouds 10 984 76 10000 2.6 50 14:18 15.11.2019
4364 Clouds 9 984 76 10000 2.6 50 13:54 15.11.2019
4365 Clouds 9 984 76 10000 2.6 50 13:54 15.11.2019
4366 Clouds 9 984 76 10000 2.6 50 13:36 15.11.2019
4367 Clouds 9 984 76 10000 2.6 50 13:18 15.11.2019
4368 Clouds 9 1098 76 10000 3.6 90 12:56 15.11.2019
4369 Clouds 9 1098 76 10000 3.6 90 12:37 15.11.2019
4370 Clouds 9 1098 76 10000 3.6 90 12:18 15.11.2019
4371 Clouds 8 985 75 10000 2 340 11:39 15.11.2019
4372 Clouds 8 985 75 10000 2.09 4 11:21 15.11.2019
4373 Clouds 8 985 75 10000 3.1 140 10:58 15.11.2019
4374 Clouds 8 985 75 10000 3.1 140 10:39 15.11.2019
4375 Clouds 8 985 75 10000 3.1 140 10:20 15.11.2019
4376 Clouds 8 985 75 10000 2.1 340 09:41 15.11.2019
4377 Clouds 8 985 75 10000 2.1 340 09:20 15.11.2019
4378 Clouds 9 986 70 10000 2.09 4 08:57 15.11.2019
4379 Clouds 9 986 70 10000 2.09 4 08:57 15.11.2019
4380 Clouds 9 986 70 10000 2.09 4 08:39 15.11.2019
4381 Clouds 9 986 70 10000 2.03 339 08:18 15.11.2019
4382 Clouds 9 986 66 10000 2.6 200 07:42 15.11.2019
4383 Clouds 9 986 66 10000 2.6 200 07:22 15.11.2019
4384 Rain 11 986 53 10000 2.1 50 06:36 15.11.2019
4385 Rain 12 986 54 10000 9.3 340 05:52 15.11.2019
4386 Rain 12 986 54 10000 9.3 340 05:52 15.11.2019
4387 Rain 12 986 54 10000 9.3 340 05:28 15.11.2019
4388 Rain 13 986 62 10000 5.1 250 04:45 15.11.2019
4389 Clouds 13 986 58 10000 3.1 290 03:38 15.11.2019
4390 Rain 12 987 66 10000 2.6 270 02:32 15.11.2019
4391 Rain 11 987 76 10000 3.1 180 01:51 15.11.2019
4392 Rain 11 987 76 10000 3.1 180 01:24 15.11.2019
4393 Rain 13 988 66 10000 4.6 20 00:40 15.11.2019
4394 Rain 13 988 66 10000 4.6 20 00:20 15.11.2019
4395 Rain 10 990 81 10000 8.2 360 23:45 14.11.2019
4396 Rain 13 990 81 10000 8.2 360 23:25 14.11.2019
4397 Clouds 13 991 58 10000 7.2 340 22:42 14.11.2019
4398 Clouds 13 991 58 10000 7.2 340 22:22 14.11.2019
4399 Clouds 13 992 62 10000 6.2 340 21:58 14.11.2019
4400 Clouds 13 992 62 10000 6.2 340 21:40 14.11.2019
4401 Clouds 13 992 62 10000 6.2 340 21:22 14.11.2019
4402 Clouds 13 994 58 10000 2.1 340 20:55 14.11.2019
4403 Clouds 13 994 58 10000 2.1 340 20:37 14.11.2019
4404 Clouds 13 994 58 10000 2.1 340 20:18 14.11.2019
4405 Clouds 13 994 58 10000 2.1 340 20:18 14.11.2019
4406 Clouds 13 996 54 10000 2.6 340 19:54 14.11.2019
4407 Clouds 13 996 54 10000 2.6 340 19:36 14.11.2019
4408 Clouds 13 996 54 10000 2.6 340 19:18 14.11.2019
4409 Clouds 13 996 54 10000 2.6 340 19:18 14.11.2019
4410 Clouds 12 996 70 0 4.77 346 18:42 14.11.2019
4411 Clouds 13 998 47 10000 8.7 320 18:23 14.11.2019
4412 Clouds 13 998 47 10000 8.7 320 17:57 14.11.2019
4413 Clouds 13 998 47 10000 8.7 320 17:38 14.11.2019
4414 Clouds 13 998 47 10000 8.7 320 17:20 14.11.2019
4415 Clouds 13 998 47 10000 8.7 320 17:20 14.11.2019
4416 Clouds 12 999 76 10000 2.1 90 16:58 14.11.2019
4417 Clouds 12 999 76 10000 2.1 90 16:37 14.11.2019
4418 Clouds 12 999 76 10000 2.1 90 16:37 14.11.2019
4419 Clouds 12 999 76 10000 2.1 90 16:19 14.11.2019
4420 Clouds 10 1000 87 10000 2.1 110 15:58 14.11.2019
4421 Clouds 10 1000 87 10000 2.1 110 15:38 14.11.2019
4422 Clouds 10 1000 87 10000 2.1 110 15:20 14.11.2019
4423 Rain 9 1000 93 10000 3.88 355 14:55 14.11.2019
4424 Rain 9 1000 93 10000 3.88 355 14:55 14.11.2019
4425 Rain 9 1000 93 10000 3.88 355 14:37 14.11.2019
4426 Rain 9 1000 93 10000 2.85 5 14:18 14.11.2019
4427 Drizzle 8 1001 93 10000 2.1 50 13:41 14.11.2019
4428 Drizzle 8 1001 93 10000 2.1 50 13:22 14.11.2019
4429 Rain 8 1002 93 10000 1.5 20 12:57 14.11.2019
4430 Rain 8 1002 93 10000 1.5 20 12:38 14.11.2019
4431 Rain 8 1002 93 10000 1.5 20 12:19 14.11.2019
4432 Rain 6 1002 100 10000 4.1 50 11:55 14.11.2019
4433 Rain 6 1002 100 10000 4.1 50 11:36 14.11.2019
4434 Rain 6 1002 100 10000 4.1 50 11:18 14.11.2019
4435 Clouds 6 1002 100 10000 4.6 50 10:41 14.11.2019
4436 Clouds 6 1002 100 10000 4.6 50 10:21 14.11.2019
4437 Clouds 6 1003 93 10000 4.6 50 09:59 14.11.2019
4438 Clouds 5 1003 97 0 2.26 345 09:41 14.11.2019
4439 Clouds 6 1003 100 10000 4.1 50 09:23 14.11.2019
4440 Clouds 6 1003 100 10000 4.1 50 08:49 14.11.2019
4441 Clouds 6 1003 100 10000 4.1 50 08:28 14.11.2019
4442 Clouds 5 1002 97 0 1.62 348 07:59 14.11.2019
4443 Clouds 5 1002 97 0 1.62 348 07:38 14.11.2019
4444 Clouds 6 1003 100 10000 3.6 50 07:20 14.11.2019
4445 Clouds 6 1003 100 10000 3.6 50 06:45 14.11.2019
4446 Clouds 6 1003 100 10000 3.6 50 06:19 14.11.2019
4447 Clear 9 1003 70 10000 4.1 90 04:49 14.11.2019
4448 Clear 10 1003 66 10000 5.1 90 04:27 14.11.2019
4449 Clouds 11 1003 66 10000 5.1 90 02:49 14.11.2019
4450 Clouds 11 1003 66 10000 5.1 90 02:29 14.11.2019
4451 Clouds 11 1002 66 10000 1.29 101 01:40 14.11.2019
4452 Clouds 12 1002 62 10000 4.6 230 00:55 14.11.2019
4453 Clouds 12 1002 62 10000 4.6 230 00:36 14.11.2019
4454 Clouds 12 1002 62 10000 4.6 230 00:18 14.11.2019
4455 Clouds 12 1001 62 10000 7.7 230 23:37 13.11.2019
4456 Clouds 12 1001 62 10000 7.7 230 23:19 13.11.2019
4457 Clouds 13 1000 58 10000 8.7 230 22:41 13.11.2019
4458 Clouds 12 1000 58 10000 8.7 230 22:23 13.11.2019
4459 Clouds 13 1000 54 10000 10.3 230 21:57 13.11.2019
4460 Clouds 13 1000 54 10000 10.3 230 21:39 13.11.2019
4461 Clouds 13 1000 54 10000 10.3 230 21:20 13.11.2019
4462 Clouds 15 1000 54 10000 8.7 230 20:58 13.11.2019
4463 Clouds 15 1000 54 10000 8.7 230 20:58 13.11.2019
4464 Clouds 15 1000 54 10000 8.7 230 20:38 13.11.2019
4465 Clouds 15 1000 54 10000 8.7 230 20:19 13.11.2019
4466 Clouds 15 1000 58 10000 7.7 230 19:59 13.11.2019
4467 Clouds 15 1000 58 10000 7.7 230 19:40 13.11.2019
4468 Clouds 15 1000 58 10000 7.7 230 19:18 13.11.2019
4469 Clouds 15 1000 54 10000 6.7 230 18:55 13.11.2019
4470 Clouds 15 1000 54 10000 6.7 230 18:37 13.11.2019
4471 Clouds 15 1000 54 10000 6.7 230 18:37 13.11.2019
4472 Clouds 15 1000 54 10000 6.7 230 18:18 13.11.2019
4473 Clouds 14 1001 54 10000 3.6 230 17:56 13.11.2019
4474 Clouds 14 1001 54 10000 3.6 230 17:56 13.11.2019
4475 Clouds 14 1001 54 10000 3.6 230 17:37 13.11.2019
4476 Clouds 14 1001 54 10000 3.6 230 17:19 13.11.2019
4477 Clouds 13 1001 54 10000 4.1 230 16:56 13.11.2019
4478 Clouds 13 1001 54 10000 4.1 230 16:37 13.11.2019
4479 Clouds 13 1001 54 10000 4.1 230 16:37 13.11.2019
4480 Clouds 13 1001 54 10000 4.1 230 16:18 13.11.2019
4481 Clouds 12 1001 62 10000 3.1 230 15:56 13.11.2019
4482 Clouds 12 1001 62 10000 3.1 230 15:56 13.11.2019
4483 Clouds 12 1001 62 10000 3.1 230 15:37 13.11.2019
4484 Clouds 12 1001 62 10000 3.1 230 15:18 13.11.2019
4485 Clouds 11 1002 66 10000 1.5 140 14:41 13.11.2019
4486 Clouds 10 1002 66 10000 1.5 140 14:21 13.11.2019
4487 Clouds 10 1002 76 10000 2.1 110 13:39 13.11.2019
4488 Clouds 10 1002 76 10000 2.1 110 13:20 13.11.2019
4489 Clouds 9 1003 87 10000 1.33 325 12:59 13.11.2019
4490 Clouds 9 1003 87 10000 1.33 325 12:41 13.11.2019
4491 Clouds 9 1003 87 10000 1.33 325 12:23 13.11.2019
4492 Clouds 7 1003 87 10000 1.33 325 11:57 13.11.2019
4493 Clouds 7 1003 87 10000 1.33 325 11:38 13.11.2019
4494 Clouds 7 1003 87 10000 1.33 325 11:38 13.11.2019
4495 Clouds 7 1003 87 10000 1.72 342 11:19 13.11.2019
4496 Clouds 6 1003 93 10000 1.72 342 10:55 13.11.2019
4497 Clouds 6 1003 93 10000 1.72 342 10:37 13.11.2019
4498 Clouds 6 1003 93 10000 1.72 342 10:19 13.11.2019
4499 Clouds 6 1003 93 10000 1.72 342 09:43 13.11.2019
4500 Clouds 6 1003 93 10000 1.72 342 09:43 13.11.2019
4501 Clouds 6 1003 93 10000 1.72 342 09:21 13.11.2019
4502 Clouds 7 1003 87 10000 1.72 342 08:44 13.11.2019
4503 Clouds 7 1003 87 10000 1.35 338 08:25 13.11.2019
4504 Clouds 7 1004 87 10000 1.07 344 07:59 13.11.2019
4505 Clouds 7 1004 87 10000 1.07 344 07:40 13.11.2019
4506 Clouds 7 1004 87 10000 1.07 344 07:19 13.11.2019
4507 Clouds 8 1004 81 10000 1.5 70 06:42 13.11.2019
4508 Clouds 8 1004 81 10000 1.5 70 06:19 13.11.2019
4509 Clouds 8 1004 81 10000 1.5 70 06:19 13.11.2019
4510 Clouds 8 1005 81 10000 3.1 360 05:48 13.11.2019
4511 Clouds 8 1005 81 10000 3.1 360 05:22 13.11.2019
4512 Clouds 9 1006 76 10000 3.1 270 04:19 13.11.2019
4513 Clouds 11 1006 66 10000 4.6 230 01:52 13.11.2019
4514 Clouds 11 1006 66 10000 4.6 230 01:27 13.11.2019
4515 Clouds 11 1006 66 10000 6.2 230 00:43 13.11.2019
4516 Clouds 12 1006 58 10000 5.7 230 23:58 12.11.2019
4517 Clouds 12 1006 58 10000 5.7 230 23:40 12.11.2019
4518 Clouds 12 1006 58 10000 5.7 230 23:20 12.11.2019
4519 Clouds 11 1007 57 10000 8.2 230 22:43 12.11.2019
4520 Clouds 12 1007 57 10000 8.2 230 22:20 12.11.2019
4521 Clouds 12 1007 54 10000 8.2 230 21:58 12.11.2019
4522 Clouds 12 1007 54 10000 8.2 230 21:39 12.11.2019
4523 Clouds 12 1007 54 10000 8.2 230 21:21 12.11.2019
4524 Clouds 13 1007 58 10000 8.7 230 20:56 12.11.2019
4525 Clouds 13 1007 58 10000 8.7 230 20:37 12.11.2019
4526 Clouds 13 1007 58 10000 8.7 230 20:37 12.11.2019
4527 Clouds 13 1007 58 10000 8.7 230 20:18 12.11.2019
4528 Clouds 12 1007 54 10000 8.2 230 19:56 12.11.2019
4529 Clouds 12 1007 54 10000 8.2 230 19:38 12.11.2019
4530 Clouds 12 1007 54 10000 8.2 230 19:18 12.11.2019
4531 Clouds 12 1007 58 10000 7.2 230 18:57 12.11.2019
4532 Clouds 12 1007 58 10000 7.2 230 18:39 12.11.2019
4533 Clouds 12 1007 58 10000 7.2 230 18:21 12.11.2019
4534 Clouds 13 1008 58 10000 6.2 230 17:55 12.11.2019
4535 Clouds 13 1008 58 10000 6.2 230 17:37 12.11.2019
4536 Clouds 13 1008 58 10000 6.2 230 17:19 12.11.2019
4537 Clouds 12 1008 62 10000 2.6 340 16:44 12.11.2019
4538 Clouds 12 1008 62 10000 2.6 340 16:25 12.11.2019
4539 Clouds 11 1008 62 10000 2.1 110 15:57 12.11.2019
4540 Clouds 11 1008 62 10000 2.1 110 15:39 12.11.2019
4541 Clouds 11 1008 62 10000 2.1 110 15:20 12.11.2019
4542 Clouds 9 1009 71 10000 2.1 50 14:55 12.11.2019
4543 Clouds 9 1009 71 10000 2.1 50 14:36 12.11.2019
4544 Clouds 9 1009 71 10000 2.1 50 14:18 12.11.2019
4545 Clouds 9 1009 81 10000 1.5 140 13:54 12.11.2019
4546 Clouds 9 1009 81 10000 1.5 140 13:36 12.11.2019
4547 Clouds 9 1009 81 10000 1.5 140 13:18 12.11.2019
4548 Clouds 7 1009 87 10000 2.1 20 12:39 12.11.2019
4549 Clouds 7 1009 87 10000 2.1 20 12:19 12.11.2019
4550 Clouds 6 1009 87 10000 2.69 348 11:55 12.11.2019
4551 Clouds 6 1009 87 10000 2.98 340 11:36 12.11.2019
4552 Clouds 6 1009 87 10000 2.08 351 11:18 12.11.2019
4553 Clouds 4 1010 93 10000 2.6 360 10:55 12.11.2019
4554 Clouds 4 1010 93 10000 2.6 360 10:36 12.11.2019
4555 Clouds 4 1010 93 10000 2.6 360 10:18 12.11.2019
4556 Clouds 1 1010 95 0 1.7 340 09:39 12.11.2019
4557 Clouds 6 1010 87 10000 2.1 230 09:20 12.11.2019
4558 Clouds 6 1010 87 10000 2.1 230 08:50 12.11.2019
4559 Clouds 6 1010 87 10000 4.1 270 08:29 12.11.2019
4560 Clouds 6 1010 87 10000 4.1 270 07:43 12.11.2019
4561 Clouds 6 1010 87 10000 4.1 270 07:25 12.11.2019
4562 Clouds 7 1011 87 10000 5.1 230 06:54 12.11.2019
4563 Clouds 7 1011 87 10000 5.1 230 06:29 12.11.2019
4564 Clouds 7 1011 87 10000 6.2 230 05:57 12.11.2019
4565 Clouds 7 1011 87 10000 6.2 230 05:57 12.11.2019
4566 Clouds 7 1011 87 10000 6.2 230 05:29 12.11.2019
4567 Clouds 8 1012 81 10000 2.6 230 04:39 12.11.2019
4568 Clouds 8 1012 75 10000 4.6 230 02:48 12.11.2019
4569 Clouds 9 1012 70 10000 8.2 230 01:39 12.11.2019
4570 Clouds 9 1012 70 10000 8.2 230 01:19 12.11.2019
4571 Clouds 10 1012 66 10000 9.3 230 00:44 12.11.2019
4572 Clouds 10 1012 66 10000 9.3 230 00:21 12.11.2019
4573 Clouds 11 1012 62 10000 9.3 230 23:42 11.11.2019
4574 Clouds 11 1012 62 10000 9.3 230 23:21 11.11.2019
4575 Clouds 10 1012 81 10000 10.8 230 22:39 11.11.2019
4576 Clouds 12 1012 81 10000 10.8 230 22:20 11.11.2019
4577 Clouds 12 1012 76 10000 13.4 230 21:59 11.11.2019
4578 Clouds 12 1012 76 10000 13.4 230 21:39 11.11.2019
4579 Clouds 12 1012 76 10000 13.4 230 21:21 11.11.2019
4580 Clouds 12 1012 76 10000 9.8 230 20:59 11.11.2019
4581 Clouds 12 1012 76 10000 9.8 230 20:41 11.11.2019
4582 Clouds 12 1012 76 10000 9.8 230 20:20 11.11.2019
4583 Clouds 12 1012 76 10000 9.8 230 20:20 11.11.2019
4584 Clouds 11 1012 76 10000 9.8 230 19:56 11.11.2019
4585 Clouds 11 1012 76 10000 9.8 230 19:38 11.11.2019
4586 Clouds 11 1012 76 10000 9.8 230 19:18 11.11.2019
4587 Clouds 11 1011 81 10000 9.8 230 18:41 11.11.2019
4588 Clouds 11 1011 81 10000 9.8 230 18:21 11.11.2019
4589 Clouds 10 1011 81 10000 11.8 230 17:59 11.11.2019
4590 Clouds 10 1011 81 10000 11.8 230 17:40 11.11.2019
4591 Clouds 10 1011 81 10000 11.8 230 17:22 11.11.2019
4592 Clouds 10 1010 81 0 10.8 230 16:39 11.11.2019
4593 Clouds 10 1010 81 0 10.8 230 16:20 11.11.2019
4594 Clouds 10 1010 76 10000 11.3 230 15:55 11.11.2019
4595 Clouds 10 1010 76 10000 11.3 230 15:37 11.11.2019
4596 Clouds 10 1010 76 10000 11.3 230 15:19 11.11.2019
4597 Clouds 10 1009 81 10000 10.8 230 14:42 11.11.2019
4598 Clouds 10 1009 81 10000 10.8 230 14:24 11.11.2019
4599 Clouds 9 1009 81 10000 7.2 230 13:57 11.11.2019
4600 Clouds 9 1009 81 10000 7.2 230 13:37 11.11.2019
4601 Clouds 9 1009 76 10000 6.2 270 13:19 11.11.2019
4602 Clouds 9 1009 76 10000 7.7 230 12:56 11.11.2019
4603 Clouds 9 1009 76 10000 7.7 230 12:56 11.11.2019
4604 Clouds 9 1009 76 10000 7.7 230 12:38 11.11.2019
4605 Clouds 9 1009 76 10000 7.7 230 12:20 11.11.2019
4606 Clouds 9 1009 70 10000 0.99 311 11:42 11.11.2019
4607 Clouds 9 1009 70 10000 1.27 334 11:22 11.11.2019
4608 Clouds 9 1008 70 10000 1.5 200 10:56 11.11.2019
4609 Clouds 9 1008 70 10000 1.5 200 10:38 11.11.2019
4610 Clouds 9 1008 70 10000 1.5 200 10:18 11.11.2019
4611 Clouds 9 1008 70 10000 2.1 50 09:43 11.11.2019
4612 Clouds 9 1008 70 10000 2.1 50 09:21 11.11.2019
4613 Clouds 9 1008 70 10000 1.5 90 08:59 11.11.2019
4614 Clouds 9 1008 70 10000 1.5 90 08:37 11.11.2019
4615 Clouds 9 1008 70 10000 1.5 90 08:18 11.11.2019
4616 Clouds 10 1008 61 10000 2.1 180 07:54 11.11.2019
4617 Clouds 10 1008 61 10000 2.1 180 07:36 11.11.2019
4618 Clouds 10 1008 61 10000 2.1 180 07:18 11.11.2019
4619 Clouds 10 1008 53 10000 1.5 140 06:40 11.11.2019
4620 Clouds 10 1008 53 10000 1.5 140 06:20 11.11.2019
4621 Clouds 10 1008 57 10000 3.1 180 05:49 11.11.2019
4622 Clouds 12 1008 54 10000 5.1 340 03:56 11.11.2019
4623 Clouds 13 1009 47 10000 7.2 340 02:55 11.11.2019
4624 Clouds 13 1009 47 10000 7.2 340 02:19 11.11.2019
4625 Clear 14 1009 47 10000 6.2 340 01:51 11.11.2019
4626 Clear 14 1009 47 10000 6.2 340 01:31 11.11.2019
4627 Clear 16 1009 38 10000 5.1 340 00:41 11.11.2019
4628 Clear 16 1009 38 10000 1.1 15 23:58 10.11.2019
4629 Clear 16 1009 38 10000 1.1 15 23:39 10.11.2019
4630 Clear 16 1009 38 10000 1.32 315 23:19 10.11.2019
4631 Clear 17 1010 27 10000 4.1 140 22:57 10.11.2019
4632 Clear 17 1010 27 10000 4.1 140 22:38 10.11.2019
4633 Clear 17 1010 27 10000 4.1 140 22:20 10.11.2019
4634 Clear 17 1010 29 10000 1.5 140 21:57 10.11.2019
4635 Clear 17 1010 29 10000 1.5 140 21:38 10.11.2019
4636 Clear 16 1010 29 10000 1.5 140 21:20 10.11.2019
4637 Clear 16 1011 27 10000 2.6 140 20:43 10.11.2019
4638 Clear 16 1011 27 10000 2.6 140 20:22 10.11.2019
4639 Clear 16 1011 27 10000 2.6 140 20:22 10.11.2019
4640 Clear 16 1011 27 10000 2.6 140 20:22 10.11.2019
4641 Clear 15 1011 54 10000 2.6 140 19:57 10.11.2019
4642 Clear 15 1011 54 10000 2.6 140 19:38 10.11.2019
4643 Clear 15 1011 54 10000 2.6 140 19:19 10.11.2019
4644 Clear 13 1012 54 10000 2.1 360 18:58 10.11.2019
4645 Clear 13 1012 54 10000 2.1 360 18:58 10.11.2019
4646 Clear 13 1012 54 10000 2.1 360 18:40 10.11.2019
4647 Clear 13 1012 54 10000 2.1 360 18:20 10.11.2019
4648 Clear 13 1012 54 10000 2.1 360 18:20 10.11.2019
4649 Clear 13 1013 58 10000 2.6 90 17:57 10.11.2019
4650 Clear 13 1013 58 10000 2.6 90 17:39 10.11.2019
4651 Clear 13 1013 58 10000 2.6 90 17:20 10.11.2019
4652 Clear 13 1013 58 10000 2.6 50 16:58 10.11.2019
4653 Clear 13 1013 58 10000 2.6 50 16:40 10.11.2019
4654 Clear 13 1013 58 10000 2.6 50 16:21 10.11.2019
4655 Clear 9 1014 76 10000 2.6 50 15:56 10.11.2019
4656 Clear 9 1014 76 10000 2.6 50 15:37 10.11.2019
4657 Clear 9 1014 76 10000 2.6 50 15:37 10.11.2019
4658 Clear 9 1014 76 10000 2.6 50 15:18 10.11.2019
4659 Clear 6 1015 87 10000 2.59 350 14:55 10.11.2019
4660 Clear 6 1015 87 10000 2.59 350 14:36 10.11.2019
4661 Clouds 6 1015 87 10000 2.29 352 14:18 10.11.2019
4662 Clouds 4 1016 93 10000 2.29 352 13:42 10.11.2019
4663 Clouds 4 1016 93 10000 2.38 355 13:21 10.11.2019
4664 Clouds 3 1016 69 10000 2.38 355 12:55 10.11.2019
4665 Clouds 3 1016 69 10000 2.38 355 12:37 10.11.2019
4666 Clouds 3 1016 69 10000 2.38 355 12:18 10.11.2019
4667 Clouds 2 1014 80 10000 2.38 355 11:54 10.11.2019
4668 Clouds 2 1014 80 10000 2.38 355 11:54 10.11.2019
4669 Clouds 2 1014 80 10000 2.38 355 11:36 10.11.2019
4670 Clouds 2 1014 96 10000 1.92 3 11:18 10.11.2019
4671 Clouds 2 1017 96 10000 1.92 3 10:41 10.11.2019
4672 Clouds 2 1017 96 10000 1.92 3 10:20 10.11.2019
4673 Clouds 2 1018 80 10000 1.92 3 09:45 10.11.2019
4674 Clouds 2 1018 80 10000 1.92 3 09:27 10.11.2019
4675 Clouds 2 1018 80 10000 1.92 3 08:59 10.11.2019
4676 Clouds 2 1018 80 10000 1.92 3 08:38 10.11.2019
4677 Clouds 2 1018 80 10000 1.92 3 08:38 10.11.2019
4678 Clouds 2 1018 80 10000 1.47 351 08:19 10.11.2019
4679 Clouds 3 1019 86 10000 3.1 270 07:43 10.11.2019
4680 Clouds 3 1019 86 10000 3.1 270 07:25 10.11.2019
4681 Clouds 3 1019 86 10000 3.1 270 07:25 10.11.2019
4682 Clouds 2 1019 93 10000 2.1 270 06:38 10.11.2019
4683 Clouds 3 1020 86 10000 1.47 351 05:43 10.11.2019
4684 Clouds 5 1021 65 10000 3.1 50 03:22 10.11.2019
4685 Clouds 6 1021 56 10000 1.35 126 02:18 10.11.2019
4686 Clouds 7 1021 52 10000 3.1 140 01:19 10.11.2019
4687 Clouds 7 1021 52 10000 1.36 120 00:42 10.11.2019
4688 Clouds 7 1021 52 10000 2.1 180 23:58 09.11.2019
4689 Clouds 7 1021 52 10000 2.1 180 23:38 09.11.2019
4690 Clouds 7 1021 52 10000 2.1 180 23:18 09.11.2019
4691 Clouds 7 1021 48 10000 2.1 200 22:41 09.11.2019
4692 Clouds 7 1021 48 10000 2.1 200 22:21 09.11.2019
4693 Clouds 7 1021 48 10000 3.1 230 21:56 09.11.2019
4694 Clouds 7 1021 48 10000 3.1 230 21:38 09.11.2019
4695 Clouds 7 1021 48 10000 3.1 230 21:20 09.11.2019
4696 Clouds 7 1022 48 10000 2.1 230 20:44 09.11.2019
4697 Clouds 7 1022 48 10000 2.1 230 20:23 09.11.2019
4698 Clouds 7 1022 52 10000 4.1 230 19:58 09.11.2019
4699 Clouds 7 1022 52 10000 4.1 230 19:40 09.11.2019
4700 Clouds 7 1022 52 10000 4.1 230 19:40 09.11.2019
4701 Clouds 7 1022 52 10000 4.1 230 19:21 09.11.2019
4702 Clouds 6 1022 56 10000 4.1 230 18:57 09.11.2019
4703 Clouds 6 1022 56 10000 4.1 230 18:38 09.11.2019
4704 Clouds 6 1022 56 10000 4.1 230 18:18 09.11.2019
4705 Rain 6 1022 56 10000 6.2 230 17:41 09.11.2019
4706 Rain 6 1022 56 10000 6.2 230 17:22 09.11.2019
4707 Rain 5 1022 60 10000 6.2 230 16:56 09.11.2019
4708 Rain 5 1022 60 10000 6.2 230 16:37 09.11.2019
4709 Rain 5 1022 60 10000 6.2 230 16:37 09.11.2019
4710 Rain 5 1022 60 10000 6.2 230 16:18 09.11.2019
4711 Rain 4 1022 60 10000 7.7 230 15:41 09.11.2019
4712 Rain 4 1022 60 10000 7.7 230 15:23 09.11.2019
4713 Rain 4 1022 64 10000 7.7 230 14:46 09.11.2019
4714 Rain 4 1022 64 10000 7.7 230 14:23 09.11.2019
4715 Clouds 4 1022 64 10000 6.2 230 13:58 09.11.2019
4716 Clouds 4 1022 64 10000 6.2 230 13:40 09.11.2019
4717 Clouds 4 1022 64 10000 6.2 230 13:21 09.11.2019
4718 Rain 4 1021 64 10000 6.2 230 12:58 09.11.2019
4719 Rain 4 1021 64 10000 6.2 230 12:40 09.11.2019
4720 Rain 4 1021 64 10000 6.2 230 12:21 09.11.2019
4721 Rain 3 1020 69 10000 9.3 230 11:48 09.11.2019
4722 Rain 3 1020 69 10000 9.3 230 11:22 09.11.2019
4723 Rain 3 1020 69 10000 9.3 230 10:59 09.11.2019
4724 Rain 3 1020 69 10000 9.3 230 10:39 09.11.2019
4725 Rain 3 1020 69 10000 9.3 230 10:19 09.11.2019
4726 Rain 3 1019 69 10000 8.7 230 09:45 09.11.2019
4727 Rain 3 1019 69 10000 8.7 230 09:27 09.11.2019
4728 Rain 3 1018 69 10000 7.7 250 08:58 09.11.2019
4729 Rain 3 1018 69 10000 7.7 250 08:39 09.11.2019
4730 Rain 3 1018 69 10000 7.7 250 08:19 09.11.2019
4731 Rain 3 1018 69 10000 7.2 230 07:45 09.11.2019
4732 Rain 3 1018 69 10000 7.2 230 07:23 09.11.2019
4733 Clouds 1 1018 97 10000 6.2 200 06:49 09.11.2019
4734 Clouds 1 1018 97 10000 6.2 200 06:30 09.11.2019
4735 Clouds 2 1017 97 8000 9.3 230 05:43 09.11.2019
4736 Rain 1 1016 95 10000 9.3 230 04:58 09.11.2019
4737 Rain 2 1016 95 10000 10.3 230 03:37 09.11.2019
4738 Rain 2 1015 95 10000 8.2 230 02:43 09.11.2019
4739 Clouds 2 1014 97 8000 11.3 230 01:55 09.11.2019
4740 Rain 2 1013 97 10000 9.8 230 00:51 09.11.2019
4741 Rain 2 1013 97 10000 9.8 230 00:31 09.11.2019
4742 Clouds 2 1013 97 8000 12.9 230 23:57 08.11.2019
4743 Clouds 2 1013 97 8000 12.9 230 23:38 08.11.2019
4744 Rain 4 1012 69 10000 12.9 230 23:19 08.11.2019
4745 Rain 4 1011 80 10000 9.8 230 22:47 08.11.2019
4746 Rain 3 1011 80 10000 9.8 230 22:22 08.11.2019
4747 Rain 3 1010 75 10000 13.4 230 21:56 08.11.2019
4748 Rain 3 1010 75 10000 13.4 230 21:38 08.11.2019
4749 Rain 3 1011 89 10000 10.8 230 21:18 08.11.2019
4750 Rain 6 1010 89 10000 13.4 230 20:41 08.11.2019
4751 Rain 6 1010 86 10000 13.4 230 20:22 08.11.2019
4752 Rain 6 1009 84 10000 12.3 230 19:58 08.11.2019
4753 Rain 6 1009 84 10000 12.3 230 19:38 08.11.2019
4754 Rain 6 1009 84 10000 12.3 230 19:38 08.11.2019
4755 Rain 6 1009 84 10000 12.3 230 19:18 08.11.2019
4756 Rain 6 1009 84 10000 12.3 230 19:18 08.11.2019
4757 Rain 6 1009 75 10000 11.8 230 18:55 08.11.2019
4758 Rain 6 1009 75 10000 11.8 230 18:37 08.11.2019
4759 Rain 6 1009 75 10000 11.8 230 18:37 08.11.2019
4760 Rain 6 1009 75 10000 11.8 230 18:19 08.11.2019
4761 Rain 6 1009 75 10000 10.8 230 17:55 08.11.2019
4762 Rain 6 1009 75 10000 10.8 230 17:55 08.11.2019
4763 Rain 6 1009 75 10000 10.8 230 17:37 08.11.2019
4764 Rain 6 1009 75 10000 10.8 230 17:19 08.11.2019
4765 Rain 5 1008 90 10000 10.3 230 16:58 08.11.2019
4766 Rain 5 1008 90 10000 10.3 230 16:39 08.11.2019
4767 Rain 5 1008 90 10000 10.3 230 16:19 08.11.2019
4768 Rain 3 1008 90 10000 11.3 250 15:57 08.11.2019
4769 Rain 3 1008 90 10000 11.3 250 15:38 08.11.2019
4770 Rain 3 1008 90 10000 11.3 250 15:20 08.11.2019
4771 Drizzle 3 1008 69 10000 11.3 230 14:55 08.11.2019
4772 Drizzle 3 1008 69 10000 11.3 230 14:36 08.11.2019
4773 Drizzle 3 1008 69 10000 11.3 230 14:18 08.11.2019
4774 Rain 4 1007 69 10000 7.7 230 13:55 08.11.2019
4775 Rain 4 1007 69 10000 7.7 230 13:36 08.11.2019
4776 Rain 4 1007 69 10000 7.7 230 13:18 08.11.2019
4777 Rain 3 1007 74 10000 7.7 230 12:42 08.11.2019
4778 Rain 3 1007 74 10000 7.7 230 12:24 08.11.2019
4779 Rain 2 1006 80 10000 6.2 230 11:57 08.11.2019
4780 Rain 2 1006 80 10000 6.2 230 11:38 08.11.2019
4781 Rain 2 1006 80 10000 6.2 230 11:19 08.11.2019
4782 Clouds 2 1006 74 10000 8.2 230 10:56 08.11.2019
4783 Clouds 2 1006 74 10000 8.2 230 10:38 08.11.2019
4784 Clouds 2 1006 74 10000 8.2 230 10:20 08.11.2019
4785 Clouds 2 1006 80 10000 6.2 230 09:41 08.11.2019
4786 Clouds 2 1006 80 10000 6.2 230 09:20 08.11.2019
4787 Clouds -3 1006 95 0 1.35 262 08:58 08.11.2019
4788 Clouds -3 1006 95 0 1.35 262 08:37 08.11.2019
4789 Clouds 2 1005 94 10000 9.8 230 08:18 08.11.2019
4790 Clouds 2 1005 94 10000 9.8 230 07:40 08.11.2019
4791 Clouds 2 1005 94 10000 9.8 230 07:22 08.11.2019
4792 Clouds 2 1004 94 10000 10.3 230 06:41 08.11.2019
4793 Clouds 2 1004 94 10000 11.8 230 06:22 08.11.2019
4794 Clouds 2 1004 94 10000 11.8 230 05:55 08.11.2019
4795 Clouds 2 1004 94 10000 11.8 230 05:21 08.11.2019
4796 Rain 2 1003 94 10000 10.8 230 03:44 08.11.2019
4797 Rain 2 1003 94 10000 10.8 230 03:23 08.11.2019
4798 Rain 3 1003 74 10000 9.3 230 02:45 08.11.2019
4799 Rain 3 1002 74 10000 6.7 230 01:47 08.11.2019
4800 Rain 3 1002 74 10000 6.7 230 01:24 08.11.2019
4801 Rain 3 1001 86 10000 11.3 230 00:24 08.11.2019
4802 Rain 4 1001 96 10000 7.7 230 23:59 07.11.2019
4803 Rain 4 1001 96 10000 7.7 230 23:41 07.11.2019
4804 Rain 4 1001 89 10000 7.7 230 23:22 07.11.2019
4805 Clouds 4 1000 69 10000 8.7 230 22:42 07.11.2019
4806 Clouds 4 1000 69 10000 8.7 230 22:22 07.11.2019
4807 Clouds 4 1000 69 10000 10.3 230 21:56 07.11.2019
4808 Clouds 4 1000 69 10000 10.3 230 21:38 07.11.2019
4809 Clouds 4 1000 69 10000 10.3 230 21:19 07.11.2019
4810 Drizzle 5 999 89 10000 11.3 230 20:58 07.11.2019
4811 Drizzle 5 999 89 10000 11.3 230 20:39 07.11.2019
4812 Drizzle 5 999 81 10000 11.3 230 20:21 07.11.2019
4813 Rain 5 999 81 10000 9.8 230 19:56 07.11.2019
4814 Rain 5 999 81 10000 9.8 230 19:37 07.11.2019
4815 Rain 5 999 81 10000 9.8 230 19:18 07.11.2019
4816 Rain 5 998 81 10000 12.3 230 18:56 07.11.2019
4817 Rain 5 998 81 10000 12.3 230 18:37 07.11.2019
4818 Rain 5 998 81 10000 12.3 230 18:19 07.11.2019
4819 Rain 5 998 65 10000 10.8 230 17:40 07.11.2019
4820 Rain 5 998 65 10000 10.8 230 17:22 07.11.2019
4821 Rain 5 998 84 10000 9.8 230 16:59 07.11.2019
4822 Rain 5 998 84 10000 9.8 230 16:40 07.11.2019
4823 Rain 5 998 84 10000 9.8 230 16:21 07.11.2019
4824 Rain 4 998 86 10000 8.7 230 15:59 07.11.2019
4825 Drizzle 4 998 84 10000 10.8 230 15:39 07.11.2019
4826 Drizzle 4 998 84 10000 10.8 230 15:19 07.11.2019
4827 Drizzle 3 998 74 10000 8.7 230 14:46 07.11.2019
4828 Drizzle 3 998 74 10000 8.7 230 14:27 07.11.2019
4829 Drizzle 3 998 74 10000 8.7 230 14:27 07.11.2019
4830 Drizzle 2 997 80 10000 8.7 230 13:58 07.11.2019
4831 Drizzle 2 997 80 10000 8.7 230 13:40 07.11.2019
4832 Drizzle 2 997 80 10000 8.7 230 13:21 07.11.2019
4833 Drizzle 3 997 86 10000 8.7 250 12:59 07.11.2019
4834 Drizzle 3 997 86 10000 8.7 250 12:41 07.11.2019
4835 Drizzle 3 997 86 10000 8.7 250 12:22 07.11.2019
4836 Snow 2 996 80 10000 9.8 230 11:59 07.11.2019
4837 Rain 2 996 80 10000 11.3 230 11:40 07.11.2019
4838 Rain 2 996 80 10000 11.3 230 11:22 07.11.2019
4839 Rain 2 996 80 6500 11.8 230 10:42 07.11.2019
4840 Rain 2 996 80 6500 11.8 230 10:19 07.11.2019
4841 Drizzle 1 995 86 6500 9.8 230 09:45 07.11.2019
4842 Drizzle 1 995 86 6500 9.8 230 09:25 07.11.2019
4843 Clouds 1 994 86 10000 12.3 230 08:59 07.11.2019
4844 Clouds 1 994 86 10000 12.3 230 08:59 07.11.2019
4845 Snow -1 995 94 0 4.78 229 08:40 07.11.2019
4846 Clouds 0 993 93 6000 10.3 230 08:22 07.11.2019
4847 Clouds 0 993 93 6000 10.3 230 07:56 07.11.2019
4848 Clouds 0 993 93 6000 10.3 230 07:37 07.11.2019
4849 Clouds 0 993 93 6000 10.3 230 07:18 07.11.2019
4850 -273 0 0 0 0 0 06:42 07.11.2019
4851 Snow 1 992 93 1200 13.4 230 06:41 07.11.2019
4852 Snow 1 992 93 1200 13.4 230 06:22 07.11.2019
4853 Clouds 1 991 100 3000 11.8 230 05:47 07.11.2019
4854 Clouds 1 991 100 3000 11.8 230 05:29 07.11.2019
4855 Snow 1 990 95 2500 10.8 230 04:49 07.11.2019
4856 Snow 1 990 95 2500 10.8 230 04:27 07.11.2019
4857 Clouds 1 987 96 8000 8.7 230 01:18 07.11.2019
4858 -273 0 0 0 0 0 00:26 07.11.2019
4859 Clouds 1 985 95 1200 10.8 230 23:50 06.11.2019
4860 Clouds 1 985 93 1200 10.8 230 23:23 06.11.2019
4861 Snow 2 984 93 1200 13.9 230 22:59 06.11.2019
4862 Snow 2 984 93 1200 13.9 230 22:39 06.11.2019
4863 Snow 3 984 93 1200 13.9 230 22:20 06.11.2019
4864 Snow 3 983 93 1500 17.5 230 21:57 06.11.2019
4865 Snow 3 983 93 4000 10.8 230 21:39 06.11.2019
4866 Snow 3 983 93 4000 10.8 230 21:19 06.11.2019
4867 Snow 3 982 86 4000 10.8 230 20:56 06.11.2019
4868 Snow 3 982 86 4000 10.8 230 20:38 06.11.2019
4869 Snow 3 982 86 4000 10.8 230 20:19 06.11.2019
4870 Snow 3 981 100 3000 8.7 230 19:55 06.11.2019
4871 Snow 3 981 100 3000 8.7 230 19:36 06.11.2019
4872 Snow 3 981 100 3000 8.7 230 19:18 06.11.2019
4873 Snow 3 980 93 2000 9.3 230 18:40 06.11.2019
4874 Snow 3 980 93 2000 9.3 230 18:20 06.11.2019
4875 Snow 3 980 93 4000 8.2 230 17:59 06.11.2019
4876 Snow 3 980 93 4000 8.2 230 17:41 06.11.2019
4877 Snow 3 980 93 4000 8.2 230 17:41 06.11.2019
4878 Snow 3 980 93 4000 8.2 230 17:23 06.11.2019
4879 Snow 1 980 100 3000 6.2 230 16:57 06.11.2019
4880 Snow 1 980 100 3000 6.2 230 16:38 06.11.2019
4881 Snow 3 980 100 3000 6.2 230 16:19 06.11.2019
4882 Snow 3 979 100 2000 10.3 250 15:57 06.11.2019
4883 Snow 3 979 100 2000 10.3 250 15:37 06.11.2019
4884 Snow 3 979 100 2000 10.3 250 15:19 06.11.2019
4885 Snow 2 978 74 2500 12.9 230 14:57 06.11.2019
4886 Snow 2 978 74 2500 12.9 230 14:38 06.11.2019
4887 Snow 2 978 73 2500 12.9 230 14:20 06.11.2019
4888 Rain 4 977 69 10000 11.3 230 13:57 06.11.2019
4889 Rain 4 977 69 10000 11.3 230 13:37 06.11.2019
4890 Rain 4 977 69 10000 11.3 230 13:18 06.11.2019
4891 Rain 2 976 78 10000 9.3 230 12:54 06.11.2019
4892 Rain 2 976 78 10000 9.3 230 12:36 06.11.2019
4893 Rain 2 976 78 10000 9.3 230 12:18 06.11.2019
4894 Snow 2 975 80 8000 12.9 230 11:54 06.11.2019
4895 Snow 2 975 80 8000 12.9 230 11:36 06.11.2019
4896 Snow 2 975 80 8000 12.9 230 11:18 06.11.2019
4897 Snow 1 975 96 10000 8.7 230 10:42 06.11.2019
4898 Snow 1 975 96 10000 8.7 230 10:24 06.11.2019
4899 Snow 1 975 96 10000 8.7 230 10:24 06.11.2019
4900 Clouds 1 974 96 10000 7.2 230 09:58 06.11.2019
4901 Clouds 1 974 96 10000 7.2 230 09:39 06.11.2019
4902 Clouds 1 974 96 10000 7.2 230 09:20 06.11.2019
4903 Clouds 1 974 86 10000 3.6 230 08:55 06.11.2019
4904 Clouds 1 974 86 10000 3.6 230 08:37 06.11.2019
4905 Clouds 1 974 86 10000 3.6 230 08:37 06.11.2019
4906 Clouds 1 974 86 10000 3.6 230 08:18 06.11.2019
4907 Clouds 2 973 80 10000 3.1 180 07:44 06.11.2019
4908 Clouds 2 973 80 10000 3.1 180 07:26 06.11.2019
4909 Clouds 2 974 80 10000 2.1 90 06:48 06.11.2019
4910 Clouds 2 974 80 10000 2.1 90 06:30 06.11.2019
4911 Clouds 2 975 80 10000 1.04 315 05:37 06.11.2019
4912 Rain 2 976 96 10000 6.2 230 03:35 06.11.2019
4913 Clouds 2 976 93 10000 4.1 200 01:42 06.11.2019
4914 Clouds 1 977 92 10000 5.7 230 00:47 06.11.2019
4915 Clouds 1 977 86 5000 10.3 230 00:00 06.11.2019
4916 Clouds 1 977 86 5000 10.3 230 23:41 05.11.2019
4917 Clouds 1 977 86 5000 10.3 230 23:22 05.11.2019
4918 Snow 2 976 93 8000 15.4 230 22:58 05.11.2019
4919 Snow 2 976 93 8000 15.4 230 22:40 05.11.2019
4920 Rain 6 976 80 10000 12.9 230 22:18 05.11.2019
4921 Rain 6 975 75 10000 8.7 230 21:55 05.11.2019
4922 Rain 6 975 75 10000 8.7 230 21:37 05.11.2019
4923 Rain 6 975 75 10000 8.7 230 21:18 05.11.2019
4924 Rain 6 975 80 10000 8.7 230 20:55 05.11.2019
4925 Rain 6 975 80 10000 8.7 230 20:36 05.11.2019
4926 Rain 6 975 80 10000 8.7 230 20:18 05.11.2019
4927 Rain 6 975 86 10000 9.8 230 19:42 05.11.2019
4928 Rain 6 975 86 10000 9.8 230 19:22 05.11.2019
4929 Drizzle 7 973 80 10000 7.7 230 18:58 05.11.2019
4930 Drizzle 7 973 80 10000 7.7 230 18:39 05.11.2019
4931 Drizzle 7 973 80 10000 7.7 230 18:21 05.11.2019
4932 Drizzle 6 974 75 10000 9.8 230 17:59 05.11.2019
4933 Drizzle 6 974 75 10000 9.8 230 17:39 05.11.2019
4934 Drizzle 6 974 75 10000 9.8 230 17:19 05.11.2019
4935 Clouds 7 973 70 10000 5.1 250 16:56 05.11.2019
4936 Clouds 7 973 70 10000 5.1 250 16:38 05.11.2019
4937 Clouds 7 973 70 10000 5.1 250 16:19 05.11.2019
4938 Clouds 5 974 80 10000 4.6 200 15:39 05.11.2019
4939 Clouds 5 974 80 10000 4.6 200 15:20 05.11.2019
4940 Drizzle 4 974 80 10000 7.7 230 14:58 05.11.2019
4941 Drizzle 4 974 80 10000 7.7 230 14:40 05.11.2019
4942 Drizzle 4 974 80 10000 7.7 230 14:21 05.11.2019
4943 Rain 5 976 93 10000 5.1 270 13:58 05.11.2019
4944 Rain 5 976 93 10000 5.1 270 13:39 05.11.2019
4945 Rain 5 976 93 10000 5.1 270 13:21 05.11.2019
4946 Clouds 4 974 80 10000 7.7 230 12:40 05.11.2019
4947 Clouds 4 974 80 10000 7.7 230 12:21 05.11.2019
4948 Clouds 4 974 80 10000 7.7 230 12:21 05.11.2019
4949 Clouds 4 974 80 10000 10.8 230 11:56 05.11.2019
4950 Clouds 4 974 80 10000 10.8 230 11:37 05.11.2019
4951 Clouds 4 974 80 10000 10.8 230 11:19 05.11.2019
4952 Rain 4 974 80 10000 10.3 230 10:45 05.11.2019
4953 Rain 4 974 80 10000 10.3 230 10:27 05.11.2019
4954 Rain 4 974 94 10000 9.8 230 09:59 05.11.2019
4955 Rain 4 974 94 10000 9.8 230 09:41 05.11.2019
4956 Rain 4 974 94 10000 9.8 230 09:20 05.11.2019
4957 Rain 4 974 80 10000 4.1 250 08:56 05.11.2019
4958 Rain 4 974 80 10000 4.1 250 08:37 05.11.2019
4959 Rain 4 974 80 10000 4.1 250 08:18 05.11.2019
4960 Rain 4 975 80 10000 4.6 250 07:45 05.11.2019
4961 Rain 4 975 80 10000 4.6 250 07:25 05.11.2019
4962 Rain 3 974 93 10000 4.6 270 06:51 05.11.2019
4963 Rain 3 974 93 10000 4.6 270 06:28 05.11.2019
4964 Rain 3 974 86 10000 9.8 230 05:40 05.11.2019
4965 Rain 3 974 86 10000 9.8 230 05:19 05.11.2019
4966 Clouds 4 974 80 10000 7.7 230 04:22 05.11.2019
4967 Clouds 4 975 80 10000 3.1 230 03:29 05.11.2019
4968 Rain 4 975 80 10000 4.6 230 02:43 05.11.2019
4969 Rain 4 974 80 8000 10.3 230 01:53 05.11.2019
4970 Rain 4 975 86 8000 7.2 180 00:46 05.11.2019
4971 Rain 4 975 86 8000 7.2 180 00:26 05.11.2019
4972 Rain 6 974 70 10000 4.6 160 23:42 04.11.2019
4973 Rain 6 974 70 10000 4.6 160 23:19 04.11.2019
4974 Rain 7 975 78 10000 4.6 230 22:57 04.11.2019
4975 Rain 7 975 78 10000 4.6 230 22:57 04.11.2019
4976 Rain 7 975 78 10000 4.6 230 22:39 04.11.2019
4977 Rain 8 975 78 10000 4.6 230 22:20 04.11.2019
4978 Rain 8 975 78 10000 4.6 230 22:20 04.11.2019
4979 Rain 8 975 78 10000 4.6 230 22:20 04.11.2019
4980 Rain 7 975 78 10000 9.8 230 21:55 04.11.2019
4981 Rain 7 975 78 10000 9.8 230 21:37 04.11.2019
4982 Rain 7 975 78 10000 9.8 230 21:18 04.11.2019
4983 Rain 7 975 78 10000 9.8 230 21:18 04.11.2019
4984 Rain 8 976 78 10000 11.3 230 20:55 04.11.2019
4985 Rain 8 976 78 10000 11.3 230 20:37 04.11.2019
4986 Rain 8 976 75 10000 11.3 230 20:18 04.11.2019
4987 Rain 7 976 56 10000 13.9 230 19:56 04.11.2019
4988 Rain 7 976 56 10000 13.9 230 19:38 04.11.2019
4989 Rain 7 976 56 10000 13.9 230 19:20 04.11.2019
4990 Rain 7 976 56 10000 14.4 230 18:41 04.11.2019
4991 Rain 7 976 56 10000 14.4 230 18:23 04.11.2019
4992 Rain 6 976 75 10000 14.9 230 17:59 04.11.2019
4993 Rain 6 976 75 10000 14.9 230 17:37 04.11.2019
4994 Rain 6 976 83 10000 14.9 230 17:19 04.11.2019
4995 Drizzle 5 976 83 10000 13.4 230 16:44 04.11.2019
4996 Drizzle 5 976 83 10000 13.4 230 16:25 04.11.2019
4997 Drizzle 6 975 81 10000 18.5 230 15:59 04.11.2019
4998 Drizzle 6 975 81 10000 18.5 230 15:41 04.11.2019
4999 Rain 7 975 70 10000 15.4 230 15:21 04.11.2019
5000 Rain 7 975 75 10000 18.5 230 14:58 04.11.2019
5001 Rain 7 975 75 10000 18.5 230 14:40 04.11.2019
5002 Rain 7 975 75 10000 18.5 230 14:20 04.11.2019
5003 Rain 4 973 64 10000 20.1 230 13:58 04.11.2019
5004 Rain 4 973 64 10000 20.1 230 13:40 04.11.2019
5005 Rain 4 973 64 10000 20.1 230 13:21 04.11.2019
5006 Rain 3 973 80 10000 18 230 12:56 04.11.2019
5007 Rain 3 973 80 10000 18 230 12:38 04.11.2019
5008 Rain 3 973 80 10000 18 230 12:18 04.11.2019
5009 Clouds 2 972 93 10000 18 230 11:42 04.11.2019
5010 Clouds 2 972 93 10000 18 230 11:23 04.11.2019
5011 Drizzle 3 971 86 10000 17 230 10:58 04.11.2019
5012 Drizzle 3 971 86 10000 17 230 10:58 04.11.2019
5013 Drizzle 3 971 86 10000 17 230 10:39 04.11.2019
5014 Drizzle 3 971 86 10000 17 230 10:20 04.11.2019
5015 Drizzle 3 970 86 10000 14.9 230 09:45 04.11.2019
5016 Drizzle 3 970 86 10000 14.9 230 09:27 04.11.2019
5017 Drizzle 3 969 86 10000 13.4 230 08:57 04.11.2019
5018 Drizzle 3 969 86 10000 13.4 230 08:37 04.11.2019
5019 Drizzle 3 969 86 10000 13.4 230 08:18 04.11.2019
5020 Drizzle 4 969 80 10000 13.4 230 07:43 04.11.2019
5021 Drizzle 4 969 80 10000 13.4 230 07:21 04.11.2019
5022 Clouds 4 968 97 10000 4.6 230 06:56 04.11.2019
5023 Clouds 4 968 97 10000 4.6 230 06:18 04.11.2019
5024 Clouds 4 968 97 10000 8.2 230 05:46 04.11.2019
5025 Clouds 4 968 96 10000 8.2 230 04:43 04.11.2019
5026 Clouds 4 968 96 10000 8.2 230 04:21 04.11.2019
5027 Clouds 5 967 96 10000 4.6 250 02:32 04.11.2019
5028 Rain 4 967 80 10000 4.6 230 01:21 04.11.2019
5029 Drizzle 5 966 75 10000 6.2 230 00:40 04.11.2019
5030 Drizzle 5 966 75 10000 6.2 230 00:20 04.11.2019
5031 Rain 7 966 52 8000 8.7 340 23:41 03.11.2019
5032 Rain 7 966 52 8000 8.7 340 23:21 03.11.2019
5033 Clouds 9 966 39 10000 9.3 290 22:58 03.11.2019
5034 Clouds 9 966 39 10000 9.3 290 22:40 03.11.2019
5035 Clouds 9 966 39 10000 9.3 290 22:20 03.11.2019
5036 Clouds 10 966 34 10000 12.3 320 21:57 03.11.2019
5037 Clouds 10 966 34 10000 12.3 320 21:57 03.11.2019
5038 Clouds 10 966 34 10000 12.3 320 21:38 03.11.2019
5039 Clouds 10 966 34 10000 12.3 320 21:20 03.11.2019
5040 Clouds 8 967 60 10000 2.1 140 20:55 03.11.2019
5041 Clouds 8 967 60 10000 2.1 140 20:36 03.11.2019
5042 Clouds 8 967 59 10000 2.1 140 20:18 03.11.2019
5043 Rain 7 967 65 10000 12.9 230 19:55 03.11.2019
5044 Rain 7 967 65 10000 12.9 230 19:37 03.11.2019
5045 Rain 9 967 65 10000 12.9 230 19:18 03.11.2019
5046 Rain 10 966 45 10000 17 230 18:38 03.11.2019
5047 Rain 10 966 45 10000 17 230 18:38 03.11.2019
5048 Clouds 10 966 45 10000 7.7 320 18:18 03.11.2019
5049 Clouds 9 967 49 10000 8.2 340 17:58 03.11.2019
5050 Clouds 9 967 49 10000 8.2 340 17:39 03.11.2019
5051 Clouds 9 967 49 10000 8.2 340 17:18 03.11.2019
5052 Clouds 8 968 49 10000 8.2 340 16:54 03.11.2019
5053 Clouds 8 968 49 10000 8.2 340 16:54 03.11.2019
5054 Clouds 8 968 49 10000 8.2 340 16:36 03.11.2019
5055 Clouds 8 968 49 10000 8.2 340 16:18 03.11.2019
5056 Clouds 8 969 49 10000 10.3 340 15:45 03.11.2019
5057 Clouds 8 969 49 10000 10.3 340 15:25 03.11.2019
5058 Clouds 8 969 45 10000 8.7 340 14:58 03.11.2019
5059 Clouds 8 969 45 10000 8.7 340 14:39 03.11.2019
5060 Clouds 8 969 45 10000 8.7 340 14:18 03.11.2019
5061 Clouds 8 971 49 10000 7.7 320 13:54 03.11.2019
5062 Clouds 8 971 49 10000 7.7 320 13:54 03.11.2019
5063 Clouds 8 971 49 10000 7.7 320 13:36 03.11.2019
5064 Clouds 8 971 49 10000 7.7 320 13:18 03.11.2019
5065 Clouds 6 971 52 10000 4.6 320 12:38 03.11.2019
5066 Clouds 6 971 52 10000 4.6 320 12:19 03.11.2019
5067 Clouds 5 972 56 10000 5.1 320 11:55 03.11.2019
5068 Clouds 5 972 56 10000 5.1 320 11:37 03.11.2019
5069 Clouds 5 972 56 10000 5.1 320 11:19 03.11.2019
5070 Clouds 3 973 74 10000 2.1 270 10:40 03.11.2019
5071 Clouds 3 973 74 10000 2.1 270 10:22 03.11.2019
5072 Clouds 3 973 74 10000 2.1 270 10:22 03.11.2019
5073 Clouds 3 973 74 10000 2.1 270 10:22 03.11.2019
5074 Clouds 3 973 74 10000 2.1 270 10:22 03.11.2019
5075 Clouds 3 973 95 10000 2.1 320 09:57 03.11.2019
5076 Clouds 3 973 95 10000 2.1 320 09:39 03.11.2019
5077 Clouds 3 973 95 10000 2.1 320 09:39 03.11.2019
5078 Clouds 3 973 95 10000 2.1 320 09:21 03.11.2019
5079 Clouds 3 974 95 10000 3.1 320 08:42 03.11.2019
5080 Clouds 3 974 95 10000 3.1 320 08:24 03.11.2019
5081 Clouds 3 974 86 10000 2.6 360 07:46 03.11.2019
5082 Clouds 3 974 86 10000 2.6 360 07:28 03.11.2019
5083 Clouds 3 975 86 10000 2.1 90 06:52 03.11.2019
5084 Clouds 3 975 86 10000 2.1 90 06:33 03.11.2019
5085 Clouds 4 975 80 10000 3.1 90 05:40 03.11.2019
5086 Clouds 4 976 86 10000 7.2 250 04:58 03.11.2019
5087 Clouds 4 976 86 10000 7.2 250 04:58 03.11.2019
5088 Clouds 4 976 86 10000 7.2 250 04:38 03.11.2019
5089 Rain 5 976 80 10000 11.8 230 03:38 03.11.2019
5090 Rain 6 976 81 6000 12.9 230 02:45 03.11.2019
5091 Rain 6 976 81 6000 12.9 230 02:20 03.11.2019
5092 Rain 7 976 75 7000 15.4 230 01:42 03.11.2019
5093 Rain 7 976 75 7000 15.4 230 01:20 03.11.2019
5094 Clouds 10 976 61 10000 3.6 230 00:45 03.11.2019
5095 Clouds 10 976 61 10000 3.6 230 00:27 03.11.2019
5096 Rain 11 977 53 10000 5.7 290 23:58 02.11.2019
5097 Rain 11 977 53 10000 5.7 290 23:38 02.11.2019
5098 Rain 11 977 53 10000 5.7 290 23:19 02.11.2019
5099 Rain 10 979 61 10000 7.7 320 22:56 02.11.2019
5100 Rain 10 979 61 10000 7.7 320 22:37 02.11.2019
5101 Rain 10 979 61 10000 7.7 320 22:18 02.11.2019
5102 Drizzle 10 981 61 10000 9.8 320 21:56 02.11.2019
5103 Drizzle 10 981 61 10000 9.8 320 21:38 02.11.2019
5104 Drizzle 10 981 61 10000 9.8 320 21:38 02.11.2019
5105 Drizzle 10 981 61 10000 9.8 320 21:18 02.11.2019
5106 Drizzle 10 981 61 10000 9.8 320 21:18 02.11.2019
5107 Drizzle 11 982 53 10000 8.2 340 20:58 02.11.2019
5108 Drizzle 11 982 53 10000 8.2 340 20:39 02.11.2019
5109 Drizzle 11 982 53 10000 8.2 340 20:19 02.11.2019
5110 Drizzle 11 984 50 10000 8.7 360 19:42 02.11.2019
5111 Drizzle 11 984 50 10000 8.7 360 19:24 02.11.2019
5112 Rain 10 986 53 10000 6.2 360 18:57 02.11.2019
5113 Rain 10 986 53 10000 6.2 360 18:38 02.11.2019
5114 Rain 10 986 53 10000 6.2 360 18:20 02.11.2019
5115 Clouds 10 988 53 10000 6.7 360 17:58 02.11.2019
5116 Clouds 10 988 53 10000 6.7 360 17:39 02.11.2019
5117 Clouds 10 988 53 10000 6.7 360 17:21 02.11.2019
5118 Clouds 9 990 53 10000 9.3 360 16:57 02.11.2019
5119 Clouds 9 990 53 10000 9.3 360 16:36 02.11.2019
5120 Clouds 9 990 53 10000 9.3 360 16:18 02.11.2019
5121 Clouds 10 992 61 10000 11.3 360 15:42 02.11.2019
5122 Clouds 10 992 61 10000 11.3 360 15:20 02.11.2019
5123 Clouds 10 992 61 10000 11.3 360 15:20 02.11.2019
5124 Clouds 9 993 65 10000 2.1 50 14:43 02.11.2019
5125 Clouds 9 993 65 10000 2.1 50 14:24 02.11.2019
5126 Clouds 9 993 65 10000 2.1 50 14:24 02.11.2019
5127 Clouds 7 995 70 10000 4.6 90 13:58 02.11.2019
5128 Clouds 7 995 70 10000 4.6 90 13:58 02.11.2019
5129 Clouds 7 995 70 10000 4.6 90 13:39 02.11.2019
5130 Clouds 7 995 70 10000 4.6 90 13:19 02.11.2019
5131 Clouds 6 996 70 10000 3.6 90 12:41 02.11.2019
5132 Clouds 6 996 70 10000 3.6 90 12:23 02.11.2019
5133 Clouds 6 996 60 10000 2.54 11 11:59 02.11.2019
5134 Clouds 6 996 60 10000 2.54 11 11:40 02.11.2019
5135 Clouds 6 996 60 10000 2.11 358 11:22 02.11.2019
5136 Clouds 5 996 93 10000 3.6 140 10:55 02.11.2019
5137 Clouds 5 996 93 10000 3.6 140 10:36 02.11.2019
5138 Clouds 5 996 93 10000 3.6 140 10:18 02.11.2019
5139 Clouds 4 997 69 10000 2.1 230 09:40 02.11.2019
5140 Clouds 4 997 69 10000 2.1 230 09:21 02.11.2019
5141 Clouds 5 997 65 10000 3.1 110 08:50 02.11.2019
5142 Clouds 5 997 65 10000 3.1 110 08:23 02.11.2019
5143 Clouds 5 998 65 10000 3.1 180 07:52 02.11.2019
5144 Clouds 5 998 65 10000 3.1 180 07:33 02.11.2019
5145 Clouds 4 998 64 10000 1.5 90 06:58 02.11.2019
5146 Clouds 4 998 64 10000 1.5 90 06:39 02.11.2019
5147 Clouds 4 998 64 10000 1.5 90 06:18 02.11.2019
5148 Clouds 4 999 64 10000 2.1 140 05:33 02.11.2019
5149 Clouds 3 1000 80 10000 1.71 28 04:23 02.11.2019
5150 Clouds 3 1001 80 10000 2.6 360 03:50 02.11.2019
5151 Clouds 3 1001 80 10000 3.6 360 02:49 02.11.2019
5152 Clouds 3 1001 80 10000 3.6 360 02:49 02.11.2019
5153 Clouds 3 1001 82 10000 4.6 203 01:57 02.11.2019
5154 Clouds 3 1001 81 10000 4.6 203 01:27 02.11.2019
5155 Clouds 4 1000 69 10000 10.8 230 00:55 02.11.2019
5156 Clouds 4 1000 69 10000 10.8 230 00:28 02.11.2019
5157 Clouds 5 999 60 10000 10.3 230 23:49 01.11.2019
5158 Clouds 5 999 60 10000 10.3 230 23:25 01.11.2019
5159 Rain 5 998 60 10000 13.4 230 22:59 01.11.2019
5160 Rain 5 998 60 10000 13.4 230 22:41 01.11.2019
5161 Rain 5 998 60 10000 13.4 230 22:20 01.11.2019
5162 Rain 5 997 75 10000 12.3 230 21:42 01.11.2019
5163 Rain 5 997 75 10000 12.3 230 21:24 01.11.2019
5164 Rain 6 996 70 10000 15.4 230 20:59 01.11.2019
5165 Rain 6 996 70 10000 15.4 230 20:40 01.11.2019
5166 Rain 6 996 70 10000 15.4 230 20:21 01.11.2019
5167 Clouds 5 996 75 10000 11.8 230 19:57 01.11.2019
5168 Clouds 5 996 75 10000 11.8 230 19:39 01.11.2019
5169 Clouds 5 996 75 10000 11.8 230 19:20 01.11.2019
5170 Rain 5 994 60 10000 16.5 230 18:40 01.11.2019
5171 Rain 5 994 60 10000 16.5 230 18:21 01.11.2019
5172 Clouds 6 994 81 10000 10.3 230 17:56 01.11.2019
5173 Clouds 6 994 81 10000 10.3 230 17:38 01.11.2019
5174 Clouds 6 994 81 10000 10.3 230 17:19 01.11.2019
5175 Clouds 6 994 81 10000 10.3 230 16:38 01.11.2019
5176 Clouds 6 994 81 10000 10.3 230 16:20 01.11.2019
5177 Rain 6 994 81 10000 5.1 320 15:55 01.11.2019
5178 Rain 6 994 81 10000 5.1 320 15:37 01.11.2019
5179 Rain 6 994 81 10000 5.1 320 15:19 01.11.2019
5180 Clouds 5 994 75 10000 5.1 230 14:42 01.11.2019
5181 Clouds 5 994 75 10000 5.1 230 14:24 01.11.2019
5182 Rain 5 993 80 10000 5.1 210 13:57 01.11.2019
5183 Rain 5 993 80 10000 5.1 210 13:57 01.11.2019
5184 Rain 5 993 80 10000 5.1 210 13:38 01.11.2019
5185 Rain 4 992 86 10000 12.9 230 13:20 01.11.2019
5186 Rain 4 992 93 10000 14.9 200 12:43 01.11.2019
5187 Rain 4 992 93 10000 12.9 230 12:25 01.11.2019
5188 Clouds 4 991 86 10000 1.98 233 11:59 01.11.2019
5189 Clouds 4 991 86 10000 1.98 233 11:40 01.11.2019
5190 Clouds 4 991 86 10000 1.96 332 11:22 01.11.2019
5191 Clouds 4 991 86 10000 2.6 360 10:42 01.11.2019
5192 Clouds 4 991 86 10000 2.6 360 10:22 01.11.2019
5193 Rain 5 990 99 10000 4.6 270 09:57 01.11.2019
5194 Rain 5 990 99 10000 4.6 270 09:38 01.11.2019
5195 Rain 5 990 99 10000 4.6 270 09:19 01.11.2019
5196 Rain 5 989 80 10000 7.7 250 08:43 01.11.2019
5197 Rain 5 989 80 10000 7.7 250 08:22 01.11.2019
5198 Clouds 5 989 80 10000 3.1 320 07:56 01.11.2019
5199 Clouds 5 989 80 10000 3.1 320 07:37 01.11.2019
5200 Clouds 5 989 80 10000 3.1 320 07:18 01.11.2019
5201 Rain 5 989 80 10000 5.7 250 06:41 01.11.2019
5202 Rain 5 989 80 10000 5.7 250 06:21 01.11.2019
5203 Drizzle 6 988 75 10000 14.9 230 05:43 01.11.2019
5204 Clouds 8 986 94 10000 4.6 230 03:42 01.11.2019
5205 Clouds 8 985 61 10000 9.3 230 02:49 01.11.2019
5206 Clouds 9 984 61 10000 9.8 230 01:31 01.11.2019
5207 Clouds 10 984 57 10000 9.3 230 00:40 01.11.2019
5208 Clouds 10 984 57 10000 9.3 230 00:18 01.11.2019
5209 Clouds 11 983 53 10000 10.8 230 23:43 31.10.2019
5210 Clouds 11 983 53 10000 10.8 230 23:23 31.10.2019
5211 Clouds 14 982 41 10000 8.2 230 22:55 31.10.2019
5212 Clouds 14 982 41 10000 8.2 230 22:37 31.10.2019
5213 Clouds 14 982 41 10000 8.2 230 22:18 31.10.2019
5214 Clouds 15 982 41 10000 4.1 140 21:42 31.10.2019
5215 Clouds 15 982 41 10000 4.1 140 21:20 31.10.2019
5216 Clouds 15 982 41 10000 4.1 320 20:57 31.10.2019
5217 Clouds 15 982 41 10000 4.1 320 20:39 31.10.2019
5218 Clouds 15 982 41 10000 4.1 320 20:20 31.10.2019
5219 Clouds 15 983 41 10000 2.1 180 19:41 31.10.2019
5220 Clouds 15 983 41 10000 2.1 180 19:22 31.10.2019
5221 Clouds 14 983 50 10000 3.1 140 18:57 31.10.2019
5222 Clouds 14 983 50 10000 3.1 140 18:39 31.10.2019
5223 Clouds 14 983 50 10000 3.1 140 18:19 31.10.2019
5224 Clouds 14 984 47 10000 3.6 270 17:42 31.10.2019
5225 Clouds 14 984 47 10000 3.6 270 17:22 31.10.2019
5226 Clouds 14 983 44 10000 4.1 140 16:58 31.10.2019
5227 Clouds 14 983 44 10000 4.1 140 16:40 31.10.2019
5228 Clouds 14 983 44 10000 4.1 140 16:20 31.10.2019
5229 Clouds 13 984 50 10000 4.6 230 15:56 31.10.2019
5230 Clouds 13 984 50 10000 4.6 230 15:37 31.10.2019
5231 Clouds 13 984 50 10000 4.6 230 15:19 31.10.2019
5232 Clouds 12 985 61 10000 5.7 50 14:54 31.10.2019
5233 Clouds 12 985 61 10000 5.7 50 14:36 31.10.2019
5234 Clouds 12 985 61 10000 5.7 50 14:18 31.10.2019
5235 Clouds 9 987 66 10000 8.7 50 13:40 31.10.2019
5236 Clouds 9 987 66 10000 8.7 50 13:20 31.10.2019
5237 Clouds 8 987 75 10000 5.1 50 12:59 31.10.2019
5238 Clouds 8 987 75 10000 5.1 50 12:41 31.10.2019
5239 Clouds 8 987 75 10000 5.1 50 12:22 31.10.2019
5240 Clouds 8 988 70 10000 7.2 90 11:55 31.10.2019
5241 Clouds 8 988 70 10000 7.2 90 11:36 31.10.2019
5242 Clouds 8 988 70 10000 7.2 90 11:18 31.10.2019
5243 Clouds 9 988 49 10000 7.7 90 10:40 31.10.2019
5244 Clouds 9 988 49 10000 7.7 90 10:40 31.10.2019
5245 Clouds 9 988 49 10000 7.7 90 10:22 31.10.2019
5246 Clouds 10 989 46 10000 6.2 360 09:59 31.10.2019
5247 Clouds 10 989 46 10000 6.2 360 09:59 31.10.2019
5248 Clouds 10 989 46 10000 6.2 360 09:39 31.10.2019
5249 Clouds 10 989 46 10000 6.2 360 09:18 31.10.2019
5250 Clouds 10 990 46 10000 2.1 360 08:49 31.10.2019
5251 Clouds 10 990 46 10000 2.1 360 08:30 31.10.2019
5252 Clouds 10 991 43 10000 7.2 360 07:55 31.10.2019
5253 Clouds 10 991 43 10000 7.2 360 07:36 31.10.2019
5254 Clouds 10 991 43 10000 7.2 360 07:18 31.10.2019
5255 Clouds 11 992 37 10000 8.2 360 06:38 31.10.2019
5256 Clouds 11 992 37 10000 8.2 360 06:18 31.10.2019
5257 Clouds 11 992 37 10000 8.2 360 06:18 31.10.2019
5258 Clouds 11 994 43 10000 7.7 360 03:43 31.10.2019
5259 Clouds 12 995 40 10000 2.6 360 02:41 31.10.2019
5260 Clouds 12 996 86 10000 4.1 360 01:53 31.10.2019
5261 Clouds 12 996 86 10000 4.1 360 01:53 31.10.2019
5262 Clouds 11 996 86 10000 3.6 360 00:37 31.10.2019
5263 Clouds 11 996 86 10000 3.6 360 00:18 31.10.2019
5264 Clouds 12 996 40 10000 6.7 230 23:30 30.10.2019
5265 Clouds 12 996 40 10000 5.7 360 22:44 30.10.2019
5266 Clouds 12 996 40 10000 5.7 360 22:23 30.10.2019
5267 Clouds 12 997 37 10000 7.7 320 21:56 30.10.2019
5268 Clouds 12 997 37 10000 7.7 320 21:38 30.10.2019
5269 Clouds 12 997 37 10000 7.7 320 21:19 30.10.2019
5270 Clouds 12 997 37 10000 6.7 320 20:59 30.10.2019
5271 Clouds 12 997 37 10000 6.7 320 20:41 30.10.2019
5272 Clouds 12 997 37 10000 6.7 320 20:22 30.10.2019
5273 Clouds 11 997 40 10000 7.7 320 19:58 30.10.2019
5274 Clouds 11 997 40 10000 7.7 320 19:39 30.10.2019
5275 Clouds 12 997 40 10000 7.7 320 19:20 30.10.2019
5276 Clouds 12 997 34 10000 7.2 320 18:58 30.10.2019
5277 Clouds 12 997 34 10000 7.2 320 18:37 30.10.2019
5278 Clouds 12 997 34 10000 7.2 320 18:18 30.10.2019
5279 Clouds 11 997 34 10000 5.7 320 17:41 30.10.2019
5280 Clouds 11 997 34 10000 5.7 320 17:20 30.10.2019
5281 Clouds 10 997 43 10000 5.1 320 16:59 30.10.2019
5282 Clouds 10 997 43 10000 5.1 320 16:41 30.10.2019
5283 Clouds 10 997 43 10000 5.1 320 16:22 30.10.2019
5284 Clouds 10 998 40 10000 6.2 320 15:57 30.10.2019
5285 Clouds 10 998 40 10000 6.2 320 15:38 30.10.2019
5286 Clouds 10 998 40 10000 6.2 320 15:19 30.10.2019
5287 Clouds 10 998 45 10000 6.2 320 14:56 30.10.2019
5288 Clouds 10 998 45 10000 6.2 320 14:38 30.10.2019
5289 Clouds 10 998 45 10000 6.2 320 14:20 30.10.2019
5290 Clouds 9 998 49 10000 7.2 320 13:54 30.10.2019
5291 Clouds 9 998 49 10000 7.2 320 13:36 30.10.2019
5292 Clouds 9 998 49 10000 7.2 320 13:18 30.10.2019
5293 Clouds 8 998 45 10000 6.2 320 12:42 30.10.2019
5294 Clouds 8 998 45 10000 6.2 320 12:23 30.10.2019
5295 Clouds 7 992 81 10000 6.2 230 11:54 30.10.2019
5296 Clouds 5 1000 65 0 3.97 354 11:36 30.10.2019
5297 Clear 8 998 39 10000 6.7 320 11:18 30.10.2019
5298 Clear 8 998 39 10000 6.7 320 10:41 30.10.2019
5299 Clear 8 998 39 10000 6.7 320 10:22 30.10.2019
5300 Clear 7 998 42 10000 6.2 320 09:42 30.10.2019
5301 Clear 7 998 42 10000 6.2 320 09:22 30.10.2019
5302 Clear 7 999 36 10000 5.7 320 08:57 30.10.2019
5303 Clear 7 999 36 10000 5.7 320 08:38 30.10.2019
5304 Clouds 7 999 36 10000 5.7 320 08:19 30.10.2019
5305 Clouds 7 999 42 10000 3.1 340 07:43 30.10.2019
5306 Clouds 7 999 39 10000 7.2 360 06:59 30.10.2019
5307 Clouds 7 999 39 10000 7.2 360 06:40 30.10.2019
5308 Clouds 7 999 42 10000 5.7 360 05:58 30.10.2019
5309 Clouds 7 999 42 10000 5.7 360 05:40 30.10.2019
5310 Clouds 6 999 56 10000 2.02 21 04:26 30.10.2019
5311 Clouds 7 999 45 10000 2.02 21 03:39 30.10.2019
5312 Clouds 8 999 39 10000 2.02 21 02:50 30.10.2019
5313 Clouds 8 999 39 10000 2.1 270 01:51 30.10.2019
5314 Clouds 10 999 34 10000 4.6 230 00:49 30.10.2019
5315 Clouds 10 999 34 10000 4.6 230 00:28 30.10.2019
5316 Clouds 11 999 32 10000 5.1 230 23:41 29.10.2019
5317 Clear 11 999 32 10000 5.1 230 23:22 29.10.2019
5318 Clear 10 999 39 10000 3.6 180 22:46 29.10.2019
5319 Clear 11 999 39 10000 3.6 180 22:20 29.10.2019
5320 Clear 11 999 37 10000 3.1 140 21:58 29.10.2019
5321 Clear 11 999 37 10000 3.1 140 21:40 29.10.2019
5322 Clear 11 999 37 10000 3.1 140 21:20 29.10.2019
5323 Clouds 10 999 34 10000 4.6 180 20:56 29.10.2019
5324 Clouds 10 999 34 10000 4.6 180 20:37 29.10.2019
5325 Clouds 10 999 34 10000 4.6 180 20:19 29.10.2019
5326 Clouds 9 999 39 10000 3.1 140 19:55 29.10.2019
5327 Clouds 9 999 39 10000 3.1 140 19:37 29.10.2019
5328 Clouds 10 999 39 10000 3.1 140 19:18 29.10.2019
5329 Clouds 10 1000 36 10000 3.1 140 18:55 29.10.2019
5330 Clouds 10 1000 36 10000 3.1 140 18:36 29.10.2019
5331 Clouds 10 1000 36 10000 3.1 140 18:18 29.10.2019
5332 Clouds 9 1000 39 10000 3.1 140 17:40 29.10.2019
5333 Clouds 9 1000 39 10000 3.1 140 17:21 29.10.2019
5334 Clear 8 1000 39 10000 1.82 322 16:58 29.10.2019
5335 Clear 8 1000 39 10000 1.82 322 16:38 29.10.2019
5336 Clear 8 1000 39 10000 1.82 322 16:19 29.10.2019
5337 Clear 7 1000 45 10000 1.82 322 15:55 29.10.2019
5338 Clear 7 1000 45 10000 1.82 322 15:36 29.10.2019
5339 Clear 7 1000 45 10000 1.82 322 15:36 29.10.2019
5340 Clear 7 1000 45 10000 1.82 322 15:18 29.10.2019
5341 Clear 6 1000 52 10000 1.82 322 14:54 29.10.2019
5342 Clear 6 1000 52 10000 1.82 322 14:36 29.10.2019
5343 Clear 6 1000 52 10000 1.78 335 14:18 29.10.2019
5344 Clear 4 1001 58 10000 1.78 335 13:40 29.10.2019
5345 Clear 3 1001 59 10000 1.8 334 13:21 29.10.2019
5346 Clear 3 1000 59 10000 1.8 334 12:45 29.10.2019
5347 Clear 3 1000 59 10000 1.8 334 12:25 29.10.2019
5348 Clear 3 1000 59 10000 1.8 334 12:25 29.10.2019
5349 Clear 1 1000 80 10000 2.1 90 11:59 29.10.2019
5350 Clear 1 1000 80 10000 2.1 90 11:40 29.10.2019
5351 Clear 1 1000 80 10000 2.1 90 11:19 29.10.2019
5352 Clear 0 1000 88 10000 2.1 90 10:57 29.10.2019
5353 Clear 0 1000 88 10000 2.1 90 10:38 29.10.2019
5354 Clear 0 1000 88 10000 2.1 90 10:20 29.10.2019
5355 Clear 1 1000 74 10000 1.59 356 09:54 29.10.2019
5356 Clear 1 1000 74 10000 1.59 356 09:36 29.10.2019
5357 Clear 1 1000 74 10000 1.59 356 09:18 29.10.2019
5358 Clear 1 1000 74 10000 1.59 356 08:43 29.10.2019
5359 Clear 1 1000 74 10000 1.63 15 08:23 29.10.2019
5360 Clear 1 1001 80 10000 2.1 360 07:54 29.10.2019
5361 Clear 1 1001 80 10000 2.1 360 07:36 29.10.2019
5362 Clear 1 1001 80 10000 2.1 360 07:18 29.10.2019
5363 Clear 1 1001 74 10000 3.6 320 06:42 29.10.2019
5364 Clear 1 1001 74 10000 3.6 320 06:20 29.10.2019
5365 Clear 1 1001 74 10000 3.1 320 05:50 29.10.2019
5366 Clear 1 1001 74 10000 3.1 320 05:19 29.10.2019
5367 Clouds 3 1000 74 10000 4.1 270 03:55 29.10.2019
5368 Clouds 3 1000 69 10000 8.2 230 02:32 29.10.2019
5369 Clouds 3 1000 74 10000 7.7 230 01:43 29.10.2019
5370 Clouds 4 999 64 10000 8.2 230 00:57 29.10.2019
5371 Clouds 4 999 64 10000 8.2 230 00:30 29.10.2019
5372 Clouds 4 998 64 10000 8.7 230 23:42 28.10.2019
5373 Clouds 4 998 64 10000 8.7 230 23:20 28.10.2019
5374 Clouds 4 998 64 10000 9.3 230 22:57 28.10.2019
5375 Clouds 4 998 64 10000 9.3 230 22:37 28.10.2019
5376 Clouds 5 998 64 10000 9.3 230 22:18 28.10.2019
5377 Clouds 5 997 69 10000 10.3 230 21:55 28.10.2019
5378 Clouds 5 997 69 10000 10.3 230 21:37 28.10.2019
5379 Clouds 5 997 69 10000 10.3 230 21:18 28.10.2019
5380 Clouds 6 997 69 10000 9.3 230 20:44 28.10.2019
5381 Clouds 6 997 69 10000 9.3 230 20:24 28.10.2019
5382 Clouds 4 996 69 10000 11.3 230 19:58 28.10.2019
5383 Clouds 4 996 69 10000 11.3 230 19:39 28.10.2019
5384 Clouds 6 996 69 10000 11.3 230 19:20 28.10.2019
5385 Clouds 6 996 69 10000 11.3 230 19:20 28.10.2019
5386 Clouds 6 996 75 10000 8.7 230 18:58 28.10.2019
5387 Clouds 6 996 75 10000 8.7 230 18:39 28.10.2019
5388 Clouds 6 996 75 10000 8.7 230 18:21 28.10.2019
5389 Clouds 5 996 75 10000 11.8 230 17:56 28.10.2019
5390 Clouds 5 996 75 10000 11.8 230 17:38 28.10.2019
5391 Clouds 5 996 75 10000 11.8 230 17:19 28.10.2019
5392 Clouds 5 995 75 10000 10.8 230 16:57 28.10.2019
5393 Clouds 5 995 75 10000 10.8 230 16:39 28.10.2019
5394 Clouds 5 995 75 10000 10.8 230 16:20 28.10.2019
5395 Clouds 5 994 80 10000 8.7 230 15:58 28.10.2019
5396 Clouds 5 994 80 10000 8.7 230 15:39 28.10.2019
5397 Clouds 5 994 80 10000 8.7 230 15:20 28.10.2019
5398 Snow 4 993 86 5000 12.9 230 14:56 28.10.2019
5399 Snow 4 993 86 5000 12.9 230 14:38 28.10.2019
5400 Snow 4 993 86 5000 12.9 230 14:18 28.10.2019
5401 Clouds 3 992 68 10000 8.7 230 13:54 28.10.2019
5402 Clouds 3 992 68 10000 8.7 230 13:36 28.10.2019
5403 Clouds 3 992 72 10000 8.7 230 13:18 28.10.2019
5404 Clouds 3 992 72 10000 8.7 230 13:18 28.10.2019
5405 Clouds 4 992 69 10000 6.2 250 12:42 28.10.2019
5406 Clouds 4 992 69 10000 6.2 250 12:20 28.10.2019
5407 Snow 4 992 64 5000 2.1 180 11:40 28.10.2019
5408 Clouds 3 991 55 10000 3.17 347 11:21 28.10.2019
5409 Clouds 2 991 93 10000 3.17 347 10:57 28.10.2019
5410 Clouds 2 991 93 10000 3.17 347 10:38 28.10.2019
5411 Clouds 2 991 93 10000 3.17 347 10:20 28.10.2019
5412 Rain 2 991 93 10000 2.6 140 09:55 28.10.2019
5413 Rain 2 991 93 10000 2.6 140 09:37 28.10.2019
5414 Rain 2 991 93 10000 2.6 140 09:18 28.10.2019
5415 Drizzle 2 991 93 10000 6.7 230 08:56 28.10.2019
5416 Drizzle 2 991 93 10000 6.7 230 08:37 28.10.2019
5417 Drizzle 2 991 93 10000 6.7 230 08:18 28.10.2019
5418 Rain 4 990 64 10000 6.7 200 07:54 28.10.2019
5419 Rain 4 990 64 10000 6.7 200 07:36 28.10.2019
5420 Rain 4 990 64 10000 6.7 200 07:18 28.10.2019
5421 Clouds 4 990 60 10000 3.1 230 06:39 28.10.2019
5422 Clouds 5 991 44 10000 3.1 320 05:30 28.10.2019
5423 Clouds 3 992 64 10000 1.5 250 03:44 28.10.2019
5424 Clouds 3 993 69 10000 1.5 230 02:46 28.10.2019
5425 Clouds 3 993 69 10000 4.6 230 01:52 28.10.2019
5426 Clouds 4 993 69 10000 5.1 230 00:53 28.10.2019
5427 Clouds 4 993 69 10000 5.1 230 00:26 28.10.2019
5428 Clouds 4 992 82 10000 9.3 230 23:46 27.10.2019
5429 Clouds 4 992 62 10000 9.3 230 23:22 27.10.2019
5430 Rain 5 992 65 10000 11.8 230 22:57 27.10.2019
5431 Rain 5 992 65 10000 11.8 230 22:38 27.10.2019
5432 Rain 5 992 65 10000 11.8 230 22:20 27.10.2019
5433 Clouds 6 991 70 10000 9.8 230 21:57 27.10.2019
5434 Clouds 6 991 70 10000 9.8 230 21:39 27.10.2019
5435 Clouds 6 991 70 10000 9.8 230 21:20 27.10.2019
5436 Clouds 5 990 75 10000 10.3 230 20:54 27.10.2019
5437 Clouds 5 990 75 10000 10.3 230 20:36 27.10.2019
5438 Clouds 5 990 75 10000 10.3 230 20:18 27.10.2019
5439 Clouds 5 990 59 10000 10.8 230 19:39 27.10.2019
5440 Clouds 5 990 59 10000 10.8 230 19:20 27.10.2019
5441 Drizzle 5 990 59 10000 12.9 230 18:57 27.10.2019
5442 Drizzle 5 990 59 10000 12.9 230 18:57 27.10.2019
5443 Drizzle 5 990 59 10000 12.9 230 18:39 27.10.2019
5444 Drizzle 5 990 59 10000 12.9 230 18:21 27.10.2019
5445 Drizzle 5 989 59 10000 15.4 230 17:57 27.10.2019
5446 Drizzle 5 989 59 10000 15.4 230 17:38 27.10.2019
5447 Drizzle 5 989 67 10000 15.4 230 17:19 27.10.2019
5448 Clouds 6 989 67 10000 11.8 230 16:57 27.10.2019
5449 Clouds 6 989 67 10000 11.8 230 16:38 27.10.2019
5450 Clouds 6 989 67 10000 11.8 230 16:20 27.10.2019
5451 Clouds 5 989 65 10000 9.3 230 15:55 27.10.2019
5452 Clouds 5 989 65 10000 9.3 230 15:37 27.10.2019
5453 Clouds 5 989 65 10000 9.3 230 15:18 27.10.2019
5454 Clouds 6 988 81 10000 8.7 230 14:42 27.10.2019
5455 Clouds 6 988 81 10000 8.7 230 14:20 27.10.2019
5456 Rain 5 988 80 10000 11.3 230 13:57 27.10.2019
5457 Rain 5 988 80 10000 11.3 230 13:38 27.10.2019
5458 Rain 5 988 80 10000 11.3 230 13:19 27.10.2019
5459 Rain 4 987 86 10000 12.3 230 12:45 27.10.2019
5460 Rain 4 987 86 10000 12.3 230 12:24 27.10.2019
5461 Rain 3 986 85 10000 11.3 230 11:59 27.10.2019
5462 Rain 3 986 85 10000 11.3 230 11:59 27.10.2019
5463 Rain 3 986 85 10000 11.3 230 11:40 27.10.2019
5464 Rain 3 986 97 10000 11.3 230 11:21 27.10.2019
5465 Drizzle 3 986 97 10000 13.4 230 10:44 27.10.2019
5466 Drizzle 3 986 97 10000 13.4 230 10:25 27.10.2019
5467 Clouds 5 985 97 10000 11.3 230 09:56 27.10.2019
5468 Clouds 5 985 97 10000 11.3 230 09:38 27.10.2019
5469 Clouds 5 985 97 10000 11.3 230 09:18 27.10.2019
5470 Clouds 5 985 97 10000 3.6 320 08:42 27.10.2019
5471 Clouds 5 985 87 10000 3.6 320 08:22 27.10.2019
5472 Clouds 5 984 80 10000 3.6 270 07:56 27.10.2019
5473 Clouds 5 984 80 10000 3.6 270 07:38 27.10.2019
5474 Clouds 5 984 80 10000 3.6 270 07:19 27.10.2019
5475 Clouds 5 984 75 10000 7.2 320 06:42 27.10.2019
5476 Clouds 5 984 75 10000 7.2 320 06:42 27.10.2019
5477 Clouds 5 984 75 10000 7.2 320 06:23 27.10.2019
5478 Clouds 6 984 70 10000 1.65 331 05:39 27.10.2019
5479 Clouds 5 985 80 10000 2.6 230 04:50 27.10.2019
5480 Rain 1 987 91 0 2.43 7 02:54 27.10.2019
5481 Clouds 7 985 65 10000 5.1 230 01:49 27.10.2019
5482 Clouds 7 985 65 10000 5.1 230 01:20 27.10.2019
5483 Clouds 9 985 57 10000 9.3 230 00:43 27.10.2019
5484 Clouds 9 985 57 10000 9.3 230 00:18 27.10.2019
5485 Clouds 12 984 50 10000 12.9 230 23:41 26.10.2019
5486 Clouds 12 984 50 10000 12.9 230 23:22 26.10.2019
5487 Clouds 13 984 47 10000 2.6 290 22:59 26.10.2019
5488 Clouds 13 984 47 10000 2.6 290 22:40 26.10.2019
5489 Clouds 11 984 47 10000 2.6 290 22:20 26.10.2019
5490 Clouds 11 984 50 10000 7.7 340 21:59 26.10.2019
5491 Clouds 11 984 50 10000 7.7 340 21:41 26.10.2019
5492 Clouds 11 984 50 10000 7.7 340 21:21 26.10.2019
5493 Clouds 11 984 66 10000 2.1 340 20:45 26.10.2019
5494 Clouds 11 984 66 10000 2.1 340 20:45 26.10.2019
5495 Clouds 11 984 66 10000 2.1 340 20:20 26.10.2019
5496 Clouds 11 985 62 10000 2.6 200 19:59 26.10.2019
5497 Clouds 11 985 62 10000 2.6 200 19:40 26.10.2019
5498 Clouds 11 985 62 10000 2.6 200 19:20 26.10.2019
5499 Clouds 10 985 66 10000 1.5 200 18:56 26.10.2019
5500 Clouds 10 985 66 10000 1.5 200 18:37 26.10.2019
5501 Clouds 10 985 66 10000 1.5 200 18:18 26.10.2019
5502 Clouds 10 986 66 10000 2.6 230 17:56 26.10.2019
5503 Clouds 10 986 66 10000 2.6 230 17:36 26.10.2019
5504 Clouds 10 986 66 10000 2.6 230 17:18 26.10.2019
5505 Rain 8 987 75 10000 2.1 200 16:42 26.10.2019
5506 Rain 8 987 75 10000 2.1 200 16:22 26.10.2019
5507 Rain 8 988 75 10000 2.1 230 15:43 26.10.2019
5508 Rain 8 988 75 10000 2.1 230 15:20 26.10.2019
5509 Rain 6 989 81 10000 1.25 44 14:54 26.10.2019
5510 Rain 6 989 81 10000 1.01 53 14:36 26.10.2019
5511 Rain 6 989 81 10000 1.01 53 14:18 26.10.2019
5512 Rain 6 990 81 10000 5.1 50 13:42 26.10.2019
5513 Rain 6 990 81 10000 5.1 50 13:22 26.10.2019
5514 Drizzle 6 991 81 8000 4.1 20 12:49 26.10.2019
5515 Rain 4 990 97 0 1.01 53 12:49 26.10.2019
5516 Drizzle 6 992 81 10000 1.01 53 12:25 26.10.2019
5517 Drizzle 6 992 81 10000 1.12 57 11:56 26.10.2019
5518 Drizzle 6 992 81 10000 1.12 57 11:36 26.10.2019
5519 Drizzle 6 992 81 10000 1.12 57 11:36 26.10.2019
5520 Drizzle 6 992 81 10000 1.12 57 11:18 26.10.2019
5521 Clouds 6 993 75 10000 1.12 57 10:42 26.10.2019
5522 Clouds 6 993 75 10000 1.12 57 10:23 26.10.2019
5523 Clouds 6 994 75 10000 4.1 70 09:45 26.10.2019
5524 Clouds 6 994 75 10000 4.1 70 09:27 26.10.2019
5525 Clouds 6 996 81 10000 2.6 340 08:44 26.10.2019
5526 Clouds 6 996 81 10000 2.6 340 08:25 26.10.2019
5527 Clouds 6 996 81 10000 2.6 340 08:25 26.10.2019
5528 Clouds 7 997 75 10000 4.6 360 07:56 26.10.2019
5529 Clouds 7 997 75 10000 4.6 360 07:31 26.10.2019
5530 Clouds 7 998 70 10000 6.2 360 06:47 26.10.2019
5531 Clouds 7 998 70 10000 6.2 360 06:28 26.10.2019
5532 Clouds 8 998 65 10000 8.2 360 05:21 26.10.2019
5533 Clouds 8 999 65 10000 6.2 360 04:32 26.10.2019
5534 Clouds 10 1000 57 10000 7.7 340 02:57 26.10.2019
5535 Rain 10 1001 61 10000 2.1 290 01:57 26.10.2019
5536 Rain 10 1001 61 10000 2.1 290 01:37 26.10.2019
5537 Rain 9 1002 70 10000 2.1 230 00:27 26.10.2019
5538 Drizzle 9 1002 70 10000 2.6 180 23:46 25.10.2019
5539 Drizzle 9 1002 70 10000 2.6 180 23:21 25.10.2019
5540 Drizzle 11 1003 50 10000 3.6 320 22:43 25.10.2019
5541 Drizzle 10 1003 50 10000 3.6 320 22:25 25.10.2019
5542 Drizzle 11 1003 32 10000 7.7 320 21:58 25.10.2019
5543 Drizzle 11 1003 32 10000 7.7 320 21:40 25.10.2019
5544 Drizzle 11 1003 32 10000 7.7 320 21:22 25.10.2019
5545 Clouds 14 1002 47 10000 9.8 320 20:59 25.10.2019
5546 Clouds 14 1002 47 10000 9.8 320 20:41 25.10.2019
5547 Clouds 14 1002 47 10000 9.8 320 20:19 25.10.2019
5548 Clouds 14 1004 47 10000 5.7 360 19:45 25.10.2019
5549 Clouds 14 1004 47 10000 5.7 360 19:26 25.10.2019
5550 Clouds 12 1005 37 10000 7.2 360 18:47 25.10.2019
5551 Clouds 12 1005 37 10000 7.2 360 18:28 25.10.2019
5552 Clouds 12 1005 34 10000 8.7 340 17:54 25.10.2019
5553 Clouds 12 1005 34 10000 8.7 340 17:36 25.10.2019
5554 Clouds 12 1005 34 10000 8.7 340 17:18 25.10.2019
5555 Clouds 11 1006 34 10000 7.2 340 16:42 25.10.2019
5556 Clouds 11 1006 34 10000 7.2 340 16:21 25.10.2019
5557 Clouds 6 1006 43 10000 5.7 360 15:41 25.10.2019
5558 Clouds 6 1006 43 10000 5.7 360 15:23 25.10.2019
5559 Clouds 6 1006 43 10000 5.7 360 15:23 25.10.2019
5560 Clouds 8 1007 65 10000 2.21 358 14:59 25.10.2019
5561 Clouds 8 1007 65 10000 2.21 358 14:41 25.10.2019
5562 Clouds 8 1007 65 10000 2.32 6 14:22 25.10.2019
5563 Clouds 5 1007 80 10000 3.6 90 13:44 25.10.2019
5564 Clouds 5 1007 80 10000 3.6 90 13:25 25.10.2019
5565 Clouds 4 1008 93 10000 5.7 50 12:59 25.10.2019
5566 Clouds 4 1008 93 10000 5.7 50 12:40 25.10.2019
5567 Clouds 4 1008 93 10000 5.7 50 12:20 25.10.2019
5568 Clouds 3 1007 93 10000 2.6 320 11:56 25.10.2019
5569 Clouds 3 1007 93 10000 2.6 320 11:37 25.10.2019
5570 Clouds 3 1007 93 10000 2.6 320 11:18 25.10.2019
5571 Clouds 3 1007 93 10000 2.6 360 10:40 25.10.2019
5572 Clouds 3 1007 93 10000 2.6 360 10:21 25.10.2019
5573 Clouds 5 1006 86 10000 2.1 230 09:57 25.10.2019
5574 Clouds 5 1006 86 10000 2.1 230 09:38 25.10.2019
5575 Clouds 5 1006 86 10000 2.1 230 09:19 25.10.2019
5576 Clouds 5 1006 86 10000 4.1 230 08:45 25.10.2019
5577 Clouds 5 1006 86 10000 4.1 230 08:27 25.10.2019
5578 Clouds 5 1007 80 10000 4.1 230 07:53 25.10.2019
5579 Clouds 5 1007 80 10000 4.1 230 07:34 25.10.2019
5580 Clouds 5 1006 80 10000 13.4 230 06:42 25.10.2019
5581 Clouds 7 1005 75 10000 4.6 90 05:51 25.10.2019
5582 Clouds 7 1005 75 10000 4.6 90 05:33 25.10.2019
5583 Clouds 7 1004 75 10000 5.7 50 04:52 25.10.2019
5584 Clouds 7 1004 75 10000 6.2 70 03:36 25.10.2019
5585 Clouds 7 1003 81 10000 6.7 90 01:54 25.10.2019
5586 Clouds 8 1003 75 10000 7.7 90 00:57 25.10.2019
5587 Clouds 8 1003 75 10000 7.7 90 00:20 25.10.2019
5588 Clouds 9 1003 66 10000 4.6 50 23:40 24.10.2019
5589 Clouds 9 1003 66 10000 4.6 50 23:22 24.10.2019
5590 Clouds 9 1002 66 10000 1.5 180 22:55 24.10.2019
5591 Clouds 9 1002 66 10000 1.5 180 22:55 24.10.2019
5592 Clouds 9 1002 66 10000 1.5 180 22:37 24.10.2019
5593 Clouds 9 1002 66 10000 1.5 180 22:18 24.10.2019
5594 -273 0 0 0 0 0 21:56 24.10.2019
5595 Clouds 9 1002 71 10000 4.1 180 21:37 24.10.2019
5596 Clouds 9 1002 71 10000 4.1 180 21:37 24.10.2019
5597 Clouds 9 1002 71 10000 4.1 180 21:18 24.10.2019
5598 Clouds 11 1001 66 10000 6.7 50 20:56 24.10.2019
5599 Clouds 11 1001 66 10000 6.7 50 20:37 24.10.2019
5600 Clouds 10 1001 66 10000 6.7 50 20:19 24.10.2019
5601 Clouds 10 1001 62 10000 6.7 50 19:43 24.10.2019
5602 Clouds 10 1001 62 10000 6.7 50 19:23 24.10.2019
5603 Clouds 11 1001 62 10000 5.7 50 18:58 24.10.2019
5604 Clouds 11 1001 62 10000 5.7 50 18:39 24.10.2019
5605 Clouds 11 1001 62 10000 5.7 50 18:21 24.10.2019
5606 Clouds 9 1000 66 10000 5.7 50 17:57 24.10.2019
5607 Clouds 9 1000 66 10000 5.7 50 17:38 24.10.2019
5608 Clouds 9 1000 66 10000 5.7 50 17:19 24.10.2019
5609 Clouds 9 1000 66 10000 5.7 50 17:19 24.10.2019
5610 Clouds 9 1000 66 10000 5.7 50 16:54 24.10.2019
5611 Clouds 9 1000 66 10000 5.7 50 16:36 24.10.2019
5612 Clouds 9 1000 66 10000 5.7 50 16:18 24.10.2019
5613 Clouds 9 999 75 10000 5.7 50 15:54 24.10.2019
5614 Clouds 9 999 75 10000 5.7 50 15:36 24.10.2019
5615 Clouds 9 999 75 10000 5.7 50 15:18 24.10.2019
5616 Clouds 8 999 75 10000 8.7 90 14:41 24.10.2019
5617 Clouds 8 999 75 10000 8.7 90 14:22 24.10.2019
5618 Clouds 10 999 66 10000 6.2 50 13:57 24.10.2019
5619 Clouds 10 999 66 10000 6.2 50 13:37 24.10.2019
5620 Clouds 10 999 66 10000 6.2 50 13:18 24.10.2019
5621 Clouds 10 998 66 10000 5.1 50 12:55 24.10.2019
5622 Clouds 10 998 66 10000 5.1 50 12:37 24.10.2019
5623 Clouds 10 998 66 10000 5.1 50 12:18 24.10.2019
5624 Clouds 10 999 57 10000 6.7 20 11:54 24.10.2019
5625 Clouds 10 999 57 10000 6.7 20 11:36 24.10.2019
5626 Clouds 10 999 57 10000 6.7 20 11:18 24.10.2019
5627 Clouds 11 998 50 10000 6.2 360 10:41 24.10.2019
5628 Clouds 11 998 50 10000 6.2 360 10:23 24.10.2019
5629 Clouds 11 998 50 10000 6.2 360 10:23 24.10.2019
5630 Clouds 10 998 53 10000 4.1 340 09:39 24.10.2019
5631 Clouds 10 998 53 10000 4.1 340 09:19 24.10.2019
5632 Clouds 11 998 89 10000 4.1 160 08:58 24.10.2019
5633 Clouds 11 998 89 10000 4.1 160 08:38 24.10.2019
5634 Clouds 11 998 89 10000 4.1 160 08:19 24.10.2019
5635 Clouds 12 999 37 10000 8.7 360 07:47 24.10.2019
5636 Clouds 12 999 37 10000 8.7 360 07:23 24.10.2019
5637 Clouds 12 999 37 10000 8.7 360 07:23 24.10.2019
5638 Clouds 12 1000 37 10000 9.3 20 06:51 24.10.2019
5639 Clouds 12 1000 37 10000 9.3 20 06:32 24.10.2019
5640 Clouds 13 1001 43 10000 8.2 20 05:54 24.10.2019
5641 Clouds 13 1001 43 10000 8.2 20 05:30 24.10.2019
5642 Clouds 13 1001 43 10000 8.2 20 05:30 24.10.2019
5643 Clouds 14 1002 47 10000 7.7 360 04:22 24.10.2019
5644 Clouds 13 1003 54 10000 3.6 360 03:29 24.10.2019
5645 Clouds 14 1004 50 10000 2.6 360 02:37 24.10.2019
5646 Clouds 14 1004 50 10000 2.6 360 02:18 24.10.2019
5647 Clouds 14 1005 50 10000 5.1 320 01:30 24.10.2019
5648 Clouds 14 1006 50 10000 3.1 290 00:53 24.10.2019
5649 Clouds 14 1006 50 10000 3.1 290 00:25 24.10.2019
5650 Clouds 16 1006 44 10000 6.2 320 23:44 23.10.2019
5651 Clouds 15 1006 44 10000 6.2 320 23:25 23.10.2019
5652 Clouds 15 1006 44 10000 6.7 320 22:58 23.10.2019
5653 Clouds 15 1006 44 10000 6.7 320 22:39 23.10.2019
5654 Clouds 15 1006 44 10000 6.7 320 22:39 23.10.2019
5655 Clouds 15 1006 44 10000 6.7 320 22:19 23.10.2019
5656 Clouds 15 1006 44 10000 6.7 320 22:19 23.10.2019
5657 Clouds 15 1007 41 10000 10.3 360 21:58 23.10.2019
5658 Clouds 15 1007 41 10000 10.3 360 21:40 23.10.2019
5659 Clouds 15 1007 41 10000 10.3 360 21:40 23.10.2019
5660 Clouds 15 1007 41 10000 10.3 360 21:21 23.10.2019
5661 Clouds 15 1007 38 10000 9.3 360 20:59 23.10.2019
5662 Clouds 15 1007 38 10000 9.3 360 20:40 23.10.2019
5663 Clouds 15 1007 38 10000 9.3 360 20:40 23.10.2019
5664 Clouds 14 1007 38 10000 9.3 360 20:21 23.10.2019
5665 Clouds 14 1008 38 10000 10.3 360 19:59 23.10.2019
5666 Clouds 14 1008 38 10000 10.3 360 19:41 23.10.2019
5667 Clouds 14 1008 38 10000 10.3 360 19:19 23.10.2019
5668 Clouds 13 1008 61 10000 8.7 320 18:57 23.10.2019
5669 Clouds 13 1008 61 10000 8.7 320 18:38 23.10.2019
5670 Clouds 13 1008 57 10000 8.7 320 18:19 23.10.2019
5671 Clouds 13 1008 57 10000 8.7 320 18:19 23.10.2019
5672 Clouds 12 1009 35 10000 7.7 340 17:45 23.10.2019
5673 Clouds 12 1009 35 10000 7.7 340 17:21 23.10.2019
5674 Clouds 12 1010 57 10000 7.7 340 16:58 23.10.2019
5675 Clouds 12 1010 57 10000 7.7 340 16:40 23.10.2019
5676 Clouds 12 1010 57 10000 7.7 340 16:20 23.10.2019
5677 Drizzle 11 1011 43 10000 6.2 320 15:54 23.10.2019
5678 Drizzle 11 1011 43 10000 6.2 320 15:36 23.10.2019
5679 Drizzle 11 1011 43 10000 6.2 320 15:18 23.10.2019
5680 Clouds 10 1011 53 10000 6.7 340 14:54 23.10.2019
5681 Clouds 10 1011 53 10000 6.7 340 14:36 23.10.2019
5682 Clouds 10 1011 53 10000 6.7 340 14:18 23.10.2019
5683 Clouds 8 1011 65 10000 6.2 360 13:42 23.10.2019
5684 Clouds 8 1011 65 10000 6.2 360 13:23 23.10.2019
5685 Clouds 7 1012 56 10000 6.2 360 12:57 23.10.2019
5686 Clouds 7 1012 56 10000 6.2 360 12:38 23.10.2019
5687 Clouds 7 1012 56 10000 6.2 360 12:18 23.10.2019
5688 Clouds 7 1012 75 10000 3.04 2 11:57 23.10.2019
5689 Clouds 7 1012 75 10000 3.04 2 11:39 23.10.2019
5690 Clouds 7 1012 75 10000 3.04 2 11:39 23.10.2019
5691 Clouds 7 1013 75 10000 3.1 320 11:20 23.10.2019
5692 Clouds 7 1013 75 10000 3.1 320 10:46 23.10.2019
5693 Clouds 7 1012 75 10000 3.6 90 10:26 23.10.2019
5694 Clouds 7 1012 75 10000 3.6 90 09:57 23.10.2019
5695 Clouds 7 1012 75 10000 3.6 90 09:38 23.10.2019
5696 Clouds 7 1012 75 10000 3.6 90 09:38 23.10.2019
5697 Clouds 3 1013 94 0 2.89 8 09:20 23.10.2019
5698 Clouds 3 1013 94 0 2.89 8 08:43 23.10.2019
5699 Clouds 3 1013 94 0 2.89 8 08:25 23.10.2019
5700 Clouds 3 1013 94 0 2.89 8 07:47 23.10.2019
5701 Clouds 3 1013 94 0 2.89 8 07:23 23.10.2019
5702 Clouds 3 1013 94 0 2.89 8 06:47 23.10.2019
5703 Clouds 10 1012 46 10000 5.1 320 06:22 23.10.2019
5704 Clouds 10 1012 46 10000 5.1 320 05:55 23.10.2019
5705 Clouds 11 1012 43 10000 4.6 320 04:59 23.10.2019
5706 Clouds 11 1012 43 10000 5.7 320 03:35 23.10.2019
5707 Clouds 11 1012 43 10000 6.2 320 02:41 23.10.2019
5708 Clouds 12 1011 40 10000 7.2 320 01:34 23.10.2019
5709 Clouds 13 1011 37 10000 7.7 320 00:56 23.10.2019
5710 Clouds 13 1011 37 10000 7.7 320 00:29 23.10.2019
5711 Clouds 14 1011 74 10000 4.6 270 23:41 22.10.2019
5712 Clouds 13 1011 74 10000 4.6 270 23:19 22.10.2019
5713 Clouds 13 1011 74 10000 5.13 334 22:57 22.10.2019
5714 Clouds 13 1011 74 10000 5.13 334 22:39 22.10.2019
5715 Clouds 13 1011 74 10000 5.13 334 22:21 22.10.2019
5716 Clouds 13 1011 74 10000 6.7 290 21:56 22.10.2019
5717 Clouds 13 1011 76 10000 6.7 290 21:37 22.10.2019
5718 Clouds 13 1011 67 10000 6.7 290 21:18 22.10.2019
5719 Clouds 14 1011 41 10000 6.7 320 20:57 22.10.2019
5720 Clouds 14 1011 41 10000 6.7 320 20:39 22.10.2019
5721 Clouds 14 1011 41 10000 6.7 320 20:20 22.10.2019
5722 Clouds 14 1010 67 10000 6.2 290 19:55 22.10.2019
5723 Clouds 14 1010 67 10000 6.2 290 19:37 22.10.2019
5724 Clouds 14 1010 67 10000 6.2 290 19:19 22.10.2019
5725 Clouds 14 1010 67 10000 2.6 90 18:41 22.10.2019
5726 Clouds 14 1010 70 10000 2.6 90 18:22 22.10.2019
5727 Clouds 12 1010 70 10000 3.1 340 17:59 22.10.2019
5728 Clouds 12 1010 70 10000 3.1 340 17:39 22.10.2019
5729 Clouds 12 1010 70 10000 3.1 340 17:20 22.10.2019
5730 Clouds 12 1010 70 10000 3.1 340 17:20 22.10.2019
5731 Clouds 12 1010 37 10000 5.1 340 16:57 22.10.2019
5732 Clouds 12 1010 37 10000 5.1 340 16:57 22.10.2019
5733 Clouds 12 1010 37 10000 5.1 340 16:38 22.10.2019
5734 Clouds 12 1010 37 10000 5.1 340 16:19 22.10.2019
5735 Clouds 10 1010 40 10000 5.1 320 15:58 22.10.2019
5736 Clouds 10 1010 40 10000 5.1 320 15:39 22.10.2019
5737 Clouds 10 1010 40 10000 5.1 320 15:18 22.10.2019
5738 Clouds 11 1010 43 10000 7.2 320 14:43 22.10.2019
5739 Clouds 11 1010 43 10000 7.2 320 14:20 22.10.2019
5740 Clouds 10 1009 57 10000 5.1 340 13:43 22.10.2019
5741 Clouds 10 1009 57 10000 5.1 340 13:22 22.10.2019
5742 Clouds 10 1009 53 10000 5.1 340 12:59 22.10.2019
5743 Clouds 10 1009 53 10000 5.1 340 12:40 22.10.2019
5744 Clouds 10 1009 53 10000 5.1 340 12:21 22.10.2019
5745 Clouds 10 1008 46 10000 5.1 340 11:57 22.10.2019
5746 Clouds 10 1008 46 10000 5.1 340 11:38 22.10.2019
5747 Clouds 10 1008 46 10000 5.1 340 11:20 22.10.2019
5748 Clouds 10 1008 46 10000 5.1 340 10:57 22.10.2019
5749 Clouds 10 1008 46 10000 5.1 340 10:37 22.10.2019
5750 Clouds 10 1008 46 10000 5.1 340 10:18 22.10.2019
5751 Clouds 10 1008 46 10000 6.2 320 09:55 22.10.2019
5752 Clouds 10 1008 46 10000 6.2 320 09:36 22.10.2019
5753 Clouds 10 1008 46 10000 6.2 320 09:18 22.10.2019
5754 Clouds 11 1008 43 10000 7.7 320 08:42 22.10.2019
5755 Clouds 11 1008 43 10000 7.7 320 08:21 22.10.2019
5756 Clouds 11 1008 43 10000 7.7 320 08:21 22.10.2019
5757 Clouds 10 1008 46 10000 5.1 340 07:46 22.10.2019
5758 Clouds 10 1008 46 10000 5.1 340 07:26 22.10.2019
5759 Clouds 10 1008 46 10000 5.1 340 07:26 22.10.2019
5760 Clouds 10 1008 90 10000 7.7 340 06:51 22.10.2019
5761 Clouds 10 1008 90 10000 7.7 340 06:31 22.10.2019
5762 Clouds 10 1008 90 10000 7.7 340 06:31 22.10.2019
5763 Clouds 9 1008 94 10000 9.8 320 05:56 22.10.2019
5764 Clouds 9 1008 94 10000 9.8 320 05:20 22.10.2019
5765 Clouds 11 1007 40 10000 5.7 320 02:47 22.10.2019
5766 Clouds 11 1007 40 10000 5.7 320 02:28 22.10.2019
5767 Clouds 11 1007 40 10000 7.2 320 01:27 22.10.2019
5768 Clouds 13 1006 32 10000 8.2 320 00:57 22.10.2019
5769 Clouds 13 1006 32 10000 8.2 320 00:39 22.10.2019
5770 Clouds 13 1006 32 10000 8.2 320 00:20 22.10.2019
5771 Clouds 14 1006 75 10000 10.3 320 23:55 21.10.2019
5772 Clouds 14 1006 75 10000 10.3 320 23:37 21.10.2019
5773 Clouds 13 1006 75 10000 10.3 320 23:18 21.10.2019
5774 Clouds 13 1006 75 10000 10.3 320 23:18 21.10.2019
5775 Clouds 13 1006 38 10000 8.7 320 22:56 21.10.2019
5776 Clouds 13 1006 38 10000 8.7 320 22:37 21.10.2019
5777 Clouds 13 1006 38 10000 8.7 320 22:19 21.10.2019
5778 Clouds 13 1006 75 10000 10.3 320 21:41 21.10.2019
5779 Clouds 13 1006 69 10000 10.3 320 21:23 21.10.2019
5780 Clouds 14 1006 69 10000 9.3 320 20:59 21.10.2019
5781 Clouds 14 1006 69 10000 9.3 320 20:41 21.10.2019
5782 Clouds 13 1006 69 10000 9.3 320 20:21 21.10.2019
5783 Clouds 12 1006 69 10000 9.3 320 19:59 21.10.2019
5784 Clouds 12 1006 69 10000 9.3 320 19:40 21.10.2019
5785 Clouds 12 1006 69 10000 9.3 320 19:22 21.10.2019
5786 Clouds 12 1006 34 10000 6.2 320 18:56 21.10.2019
5787 Clouds 12 1006 34 10000 6.2 320 18:37 21.10.2019
5788 Clouds 11 1006 34 10000 6.2 320 18:19 21.10.2019
5789 Clouds 11 1006 32 10000 9.3 340 17:57 21.10.2019
5790 Clouds 11 1006 32 10000 9.3 340 17:38 21.10.2019
5791 Clouds 11 1006 32 10000 9.3 340 17:18 21.10.2019
5792 Clouds 10 1007 67 10000 2.6 70 16:56 21.10.2019
5793 Clouds 10 1007 67 10000 2.6 70 16:38 21.10.2019
5794 Clouds 10 1007 67 10000 2.6 70 16:20 21.10.2019
5795 Clouds 10 1007 67 10000 2.6 70 16:20 21.10.2019
5796 Clouds 9 1006 67 10000 4.1 320 15:46 21.10.2019
5797 Clouds 9 1006 67 10000 4.1 320 15:25 21.10.2019
5798 Clouds 9 1007 57 10000 4.1 340 14:58 21.10.2019
5799 Clouds 9 1007 57 10000 4.1 340 14:39 21.10.2019
5800 Clouds 9 1007 57 10000 4.1 340 14:20 21.10.2019
5801 Clouds 4 1007 80 10000 2.41 340 13:57 21.10.2019
5802 Clouds 4 1007 80 10000 2.41 340 13:38 21.10.2019
5803 Clouds 4 1007 80 10000 2.41 340 13:19 21.10.2019
5804 Clear 3 1006 80 0 2.41 340 12:42 21.10.2019
5805 Clouds 4 1006 96 0 2.43 332.16 12:22 21.10.2019
5806 Clouds 4 1006 96 0 2.43 332.16 11:57 21.10.2019
5807 Clouds 4 1006 96 0 2.43 332.16 11:38 21.10.2019
5808 Clouds 4 1006 96 0 2.43 332.16 11:20 21.10.2019
5809 Clouds -3 1006 96 0 2.43 332.16 10:57 21.10.2019
5810 Clouds -3 1006 96 0 2.43 332.16 10:38 21.10.2019
5811 Clouds -3 1006 96 0 2.43 332.16 10:19 21.10.2019
5812 Clouds -3 1006 96 0 2.43 332.16 09:46 21.10.2019
5813 Clouds -3 1006 96 0 2.43 332.16 09:26 21.10.2019
5814 Clear -2 1005 95 0 2.13 324.597 08:57 21.10.2019
5815 Clear -2 1005 95 0 2.13 324.597 08:37 21.10.2019
5816 Clear -2 1005 95 0 2.13 324.597 08:19 21.10.2019
5817 Clear -2 1005 95 0 2.13 324.597 07:39 21.10.2019
5818 Clear -2 1005 95 0 2.13 324.597 07:21 21.10.2019
5819 Clear -2 1005 95 0 2.13 324.597 06:56 21.10.2019
5820 Clear -2 1005 95 0 2.13 324.597 06:36 21.10.2019
5821 Clear -2 1005 95 0 2.13 324.597 06:36 21.10.2019
5822 Clear 6 1004 70 10000 2.6 270 05:56 21.10.2019
5823 Clear 6 1004 70 10000 2.6 270 05:56 21.10.2019
5824 Clear 6 1004 70 10000 1.88 307.859 04:45 21.10.2019
5825 Clouds 6 1004 70 10000 3.1 320 03:37 21.10.2019
5826 Clouds 7 1003 65 10000 2.1 250 02:25 21.10.2019
5827 Clouds 8 1002 88 10000 2.6 320 01:59 21.10.2019
5828 Clouds 8 1002 88 10000 2.6 320 01:23 21.10.2019
5829 Clouds 8 1001 88 10000 6.7 230 00:48 21.10.2019
5830 Clouds 8 1001 88 10000 6.7 230 00:26 21.10.2019
5831 Clouds 9 1000 61 10000 1.98 240.087 23:43 20.10.2019
5832 Clouds 9 1000 61 10000 1.98 240.087 23:22 20.10.2019
5833 Clouds 9 999 49 10000 7.7 230 22:57 20.10.2019
5834 Clouds 9 999 49 10000 7.7 230 22:39 20.10.2019
5835 Clouds 9 999 49 10000 7.7 230 22:19 20.10.2019
5836 Drizzle 8 997 61 10000 10.3 230 21:58 20.10.2019
5837 Drizzle 8 997 61 10000 10.3 230 21:39 20.10.2019
5838 Drizzle 8 997 61 10000 10.3 230 21:21 20.10.2019
5839 Clouds 10 996 53 10000 12.9 230 20:42 20.10.2019
5840 Clouds 10 996 53 10000 12.9 230 20:20 20.10.2019
5841 Clouds 13 996 32 10000 12.9 230 19:57 20.10.2019
5842 Clouds 13 996 32 10000 12.9 230 19:57 20.10.2019
5843 Clouds 13 996 32 10000 12.9 230 19:39 20.10.2019
5844 Clouds 12 994 32 10000 6.2 270 19:20 20.10.2019
5845 Clouds 12 994 32 10000 6.2 270 18:56 20.10.2019
5846 Clouds 12 994 32 10000 6.2 270 18:56 20.10.2019
5847 Clouds 12 994 32 10000 6.2 270 18:38 20.10.2019
5848 Clouds 12 994 32 10000 6.2 270 18:20 20.10.2019
5849 Clouds 13 991 81 10000 5.1 230 17:56 20.10.2019
5850 Clouds 13 991 81 10000 5.1 230 17:37 20.10.2019
5851 Clouds 13 991 81 10000 5.1 230 17:18 20.10.2019
5852 Clouds 13 991 81 10000 5.1 230 16:42 20.10.2019
5853 Clouds 13 991 81 10000 5.1 230 16:23 20.10.2019
5854 Clouds 13 992 81 10000 6.2 230 15:58 20.10.2019
5855 Clouds 13 992 81 10000 6.2 230 15:38 20.10.2019
5856 Clouds 13 992 96 10000 6.2 230 15:20 20.10.2019
5857 Clouds 13 991 96 10000 6.2 230 14:57 20.10.2019
5858 Clouds 13 991 96 10000 6.2 230 14:37 20.10.2019
5859 Clouds 13 991 96 10000 6.2 230 14:19 20.10.2019
5860 Clouds 13 991 35 10000 1.85 330.424 13:55 20.10.2019
5861 Clouds 13 991 35 10000 1.85 330.424 13:36 20.10.2019
5862 Clouds 13 991 35 10000 2.04 326.598 13:18 20.10.2019
5863 Clouds 12 990 20 10000 8.2 290 12:56 20.10.2019
5864 Clouds 12 990 20 10000 8.2 290 12:37 20.10.2019
5865 Clouds 12 990 20 10000 8.2 290 12:19 20.10.2019
5866 Clouds 12 989 98 10000 8.2 270 11:55 20.10.2019
5867 Clouds 12 989 98 10000 8.2 270 11:37 20.10.2019
5868 Clouds 12 989 98 10000 8.2 270 11:18 20.10.2019
5869 Clouds 12 989 98 10000 4.6 290 10:41 20.10.2019
5870 Clouds 12 989 98 10000 4.6 290 10:22 20.10.2019
5871 Clouds 12 989 40 10000 4.1 270 09:57 20.10.2019
5872 Clouds 12 989 40 10000 4.1 270 09:39 20.10.2019
5873 Clouds 12 989 40 10000 4.1 270 09:21 20.10.2019
5874 Clouds 13 989 37 10000 6.7 290 08:48 20.10.2019
5875 Clouds 13 989 37 10000 6.7 290 08:48 20.10.2019
5876 Clouds 13 989 37 10000 6.7 290 08:23 20.10.2019
5877 Clouds 13 990 96 10000 4.6 290 07:50 20.10.2019
5878 Clouds 13 990 96 10000 4.6 290 07:30 20.10.2019
5879 Clouds 13 990 96 10000 6.7 290 06:57 20.10.2019
5880 Clouds 13 990 97 10000 6.7 290 06:20 20.10.2019
5881 Clouds 13 991 43 10000 9.8 320 04:27 20.10.2019
5882 Clouds 12 991 46 10000 8.7 320 03:46 20.10.2019
5883 Clouds 12 991 46 10000 8.7 320 03:20 20.10.2019
5884 Clouds 13 992 47 10000 8.2 320 02:40 20.10.2019
5885 Clouds 13 992 47 10000 10.8 320 01:58 20.10.2019
5886 Clouds 13 992 47 10000 10.8 320 01:23 20.10.2019
5887 Rain 13 992 54 10000 11.8 320 00:56 20.10.2019
5888 Rain 13 992 54 10000 11.8 320 00:38 20.10.2019
5889 Rain 13 992 54 10000 11.8 320 00:19 20.10.2019
5890 Clouds 14 992 47 10000 12.3 320 23:42 19.10.2019
5891 Clouds 14 992 47 10000 12.3 320 23:22 19.10.2019
5892 Clouds 15 993 51 10000 10.8 320 22:56 19.10.2019
5893 Clouds 15 993 51 10000 10.8 320 22:37 19.10.2019
5894 Clouds 14 993 51 10000 10.8 320 22:19 19.10.2019
5895 Clouds 15 993 51 10000 6.7 270 21:46 19.10.2019
5896 Clouds 15 993 51 10000 6.7 270 21:23 19.10.2019
5897 Clouds 16 993 51 10000 8.7 320 20:46 19.10.2019
5898 Clouds 15 993 51 10000 8.7 320 20:23 19.10.2019
5899 Clouds 15 993 51 10000 8.7 320 20:23 19.10.2019
5900 Clouds 15 992 48 10000 8.2 320 19:59 19.10.2019
5901 Clouds 15 992 48 10000 8.2 320 19:40 19.10.2019
5902 Clouds 15 992 48 10000 8.2 320 19:22 19.10.2019
5903 Clouds 16 992 45 10000 10.3 320 18:43 19.10.2019
5904 Clouds 16 992 45 10000 10.3 320 18:24 19.10.2019
5905 Clouds 16 992 45 10000 10.3 320 18:24 19.10.2019
5906 Clouds 13 992 54 10000 10.3 290 17:57 19.10.2019
5907 Clouds 13 992 54 10000 10.3 290 17:37 19.10.2019
5908 Clouds 13 992 54 10000 10.3 290 17:19 19.10.2019
5909 Clouds 13 991 50 10000 11.3 290 16:39 19.10.2019
5910 Clouds 13 991 50 10000 11.3 290 16:20 19.10.2019
5911 Clouds 12 992 62 10000 7.2 260 15:45 19.10.2019
5912 Clouds 11 992 62 10000 7.2 260 15:26 19.10.2019
5913 Clouds 10 992 71 10000 2.6 200 14:56 19.10.2019
5914 Clouds 10 992 71 10000 2.6 200 14:38 19.10.2019
5915 Clouds 10 992 71 10000 2.6 200 14:20 19.10.2019
5916 Clouds 10 992 71 10000 2.6 200 14:19 19.10.2019
5917 Clouds 10 992 61 10000 2.6 250 13:55 19.10.2019
5918 Clouds 10 992 61 10000 2.6 250 13:36 19.10.2019
5919 Clouds 10 992 61 10000 2.6 250 13:18 19.10.2019
5920 Clouds 10 992 61 10000 2.6 250 13:18 19.10.2019
5921 Clouds 8 992 70 10000 3.1 230 12:39 19.10.2019
5922 Clouds 8 992 70 10000 3.1 230 12:21 19.10.2019
5923 Rain 3 993 98 0 2.6 335.591 11:57 19.10.2019
5924 Rain 3 993 98 0 2.6 335.591 11:39 19.10.2019
5925 Rain 3 993 98 0 2.6 335.591 11:21 19.10.2019
5926 Rain 3 993 98 0 2.6 335.591 10:41 19.10.2019
5927 Rain 3 993 98 0 2.6 335.591 10:23 19.10.2019
5928 Rain 3 993 98 0 2.6 335.591 09:59 19.10.2019
5929 Rain 3 993 98 0 2.6 335.591 09:59 19.10.2019
5930 Rain 3 993 98 0 2.6 335.591 09:40 19.10.2019
5931 Rain 2 994 98 0 2.35 322.959 09:22 19.10.2019
5932 Rain 2 994 98 0 2.23 322.094 08:56 19.10.2019
5933 Rain 2 994 98 0 2.23 322.094 08:56 19.10.2019
5934 Rain 2 994 98 0 2.23 322.094 08:37 19.10.2019
5935 Clouds 8 994 65 10000 6.2 320 08:19 19.10.2019
5936 Clouds 8 994 65 10000 6.2 320 07:41 19.10.2019
5937 Clouds 8 994 65 10000 6.2 320 07:23 19.10.2019
5938 Clouds 8 995 65 10000 2.1 320 06:36 19.10.2019
5939 Clouds 8 995 99 10000 6.7 320 05:51 19.10.2019
5940 Clouds 7 996 56 10000 9.8 360 04:54 19.10.2019
5941 Clouds 7 997 56 10000 9.8 360 03:22 19.10.2019
5942 Clouds 7 999 56 10000 9.8 360 02:34 19.10.2019
5943 Clouds 6 1000 56 10000 8.2 360 01:50 19.10.2019
5944 Clouds 7 1001 48 10000 7.7 360 00:57 19.10.2019
5945 Clouds 7 1001 48 10000 7.7 360 00:37 19.10.2019
5946 Clouds 7 1001 48 10000 7.7 360 00:19 19.10.2019
5947 Clouds 8 1003 42 0 8.2 360 23:39 18.10.2019
5948 Clouds 8 1003 42 0 8.2 360 23:21 18.10.2019
5949 Clouds 8 1003 42 0 5.1 320 22:55 18.10.2019
5950 Clouds 8 1003 42 0 5.1 320 22:37 18.10.2019
5951 Clouds 8 1003 42 0 5.1 320 22:37 18.10.2019
5952 Clouds 9 1003 42 0 5.1 320 22:18 18.10.2019
5953 Clear 9 1004 36 10000 5.1 320 21:55 18.10.2019
5954 Clear 9 1004 36 10000 5.1 320 21:36 18.10.2019
5955 Clear 9 1004 36 10000 5.1 320 21:18 18.10.2019
5956 Clear 9 1005 34 10000 6.2 320 20:43 18.10.2019
5957 Clear 9 1005 34 10000 6.2 320 20:24 18.10.2019
5958 Clear 9 1006 49 10000 3.1 353.764 19:58 18.10.2019
5959 Clear 9 1006 49 10000 3.1 353.764 19:40 18.10.2019
5960 Clear 9 1006 49 10000 3.1 353.764 19:40 18.10.2019
5961 Clouds 9 1006 39 10000 2.6 70 19:22 18.10.2019
5962 Clouds 8 1007 49 10000 2.1 280 18:59 18.10.2019
5963 Clouds 8 1007 49 10000 2.1 280 18:59 18.10.2019
5964 Clouds 8 1007 49 10000 2.1 280 18:41 18.10.2019
5965 Clouds 7 1007 49 10000 2.1 280 18:23 18.10.2019
5966 Clear 7 1007 48 10000 3.6 230 17:56 18.10.2019
5967 Clear 7 1007 48 10000 3.6 230 17:37 18.10.2019
5968 Clear 7 1007 48 10000 3.6 230 17:19 18.10.2019
5969 Clouds 8 1008 75 10000 7.2 230 16:42 18.10.2019
5970 Clouds 8 1008 75 10000 7.2 230 16:21 18.10.2019
5971 Clouds 7 1008 70 10000 8.7 230 15:58 18.10.2019
5972 Clouds 7 1008 70 10000 8.7 230 15:38 18.10.2019
5973 Clouds 7 1008 70 10000 8.7 230 15:20 18.10.2019
5974 Clouds 7 1008 70 10000 8.7 230 15:20 18.10.2019
5975 Clouds 5 1008 75 10000 8.2 230 14:57 18.10.2019
5976 Clouds 5 1008 75 10000 8.2 230 14:38 18.10.2019
5977 Clouds 5 1008 75 10000 8.2 230 14:38 18.10.2019
5978 Clouds 5 1008 75 10000 8.2 230 14:19 18.10.2019
5979 Clouds 4 1007 78 10000 7.2 230 13:56 18.10.2019
5980 Clouds 4 1007 78 10000 7.2 230 13:37 18.10.2019
5981 Clouds 4 1007 79 10000 7.2 230 13:18 18.10.2019
5982 Clouds 3 1006 79 10000 11.8 230 12:55 18.10.2019
5983 Clouds 3 1006 79 10000 11.8 230 12:37 18.10.2019
5984 Clouds 3 1006 94 10000 11.8 230 12:18 18.10.2019
5985 Rain 4 1005 94 10000 14.4 230 11:41 18.10.2019
5986 Clouds -2 1007 94 0 2.7 246.414 11:21 18.10.2019
5987 Clouds -2 1007 94 0 2.7 246.414 10:58 18.10.2019
5988 Clouds -2 1007 94 0 2.7 246.414 10:40 18.10.2019
5989 Clouds -2 1007 94 0 2.7 246.414 10:22 18.10.2019
5990 Clouds -2 1007 94 0 2.7 246.414 09:57 18.10.2019
5991 Clouds -2 1007 94 0 2.7 246.414 09:39 18.10.2019
5992 Clouds -2 1007 94 0 2.7 246.414 09:39 18.10.2019
5993 Rain 5 1003 75 10000 13.4 230 09:19 18.10.2019
5994 Rain 5 1003 75 10000 13.4 230 08:45 18.10.2019
5995 Rain 5 1003 75 10000 13.4 230 08:25 18.10.2019
5996 Clouds -2 1004 97 0 2.14 257.541 07:57 18.10.2019
5997 Clouds -2 1004 97 0 2.14 257.541 07:38 18.10.2019
5998 Rain 6 1002 70 10000 9.3 230 06:56 18.10.2019
5999 Rain 6 1002 70 10000 9.3 230 06:37 18.10.2019
6000 Rain 6 1002 70 10000 9.3 230 06:19 18.10.2019
6001 Clouds 6 1001 75 10000 12.3 230 05:53 18.10.2019
6002 Clouds 6 1001 75 10000 12.3 230 05:20 18.10.2019
6003 Clouds 9 1000 45 10000 5.1 320 03:41 18.10.2019
6004 Clouds 9 1000 45 0 6.2 320 02:56 18.10.2019
6005 Clouds 9 1000 45 0 6.2 320 02:56 18.10.2019
6006 Clouds 10 1000 43 10000 4.6 320 02:32 18.10.2019
6007 Clouds 10 1000 43 10000 4.6 320 01:42 18.10.2019
6008 Clouds 10 1000 43 10000 4.6 320 01:23 18.10.2019
6009 Clouds 11 1001 50 10000 5.7 320 00:43 18.10.2019
6010 Clouds 11 1001 50 10000 5.7 320 00:20 18.10.2019
6011 Clouds 11 1001 50 10000 5.7 320 00:20 18.10.2019
6012 Clouds 10 1001 61 10000 3.6 50 23:41 17.10.2019
6013 Clouds 10 1001 61 10000 3.6 50 23:21 17.10.2019
6014 Clouds 10 1001 61 10000 2.1 230 22:58 17.10.2019
6015 Clouds 10 1001 61 10000 2.1 230 22:58 17.10.2019
6016 Clouds 10 1001 61 10000 2.1 230 22:39 17.10.2019
6017 Clouds 9 1001 61 10000 2.1 230 22:20 17.10.2019
6018 Clouds 9 1002 61 10000 2.1 90 21:58 17.10.2019
6019 Clouds 9 1002 61 10000 2.1 90 21:39 17.10.2019
6020 Clouds 9 1002 61 10000 2.1 90 21:21 17.10.2019
6021 Clouds 9 1003 70 10000 3.1 360 20:58 17.10.2019
6022 Clouds 9 1003 70 10000 3.1 360 20:40 17.10.2019
6023 Rain 7 1003 70 10000 3.1 360 20:19 17.10.2019
6024 Rain 7 1003 70 10000 3.1 360 20:19 17.10.2019
6025 Rain 7 1003 70 10000 3.1 360 20:19 17.10.2019
6026 Rain 7 1003 70 10000 3.1 360 20:19 17.10.2019
6027 Rain 7 1002 75 10000 5.7 230 19:59 17.10.2019
6028 Rain 7 1002 75 10000 5.7 230 19:40 17.10.2019
6029 Rain 7 1002 75 10000 5.7 230 19:20 17.10.2019
6030 Drizzle 7 1003 75 10000 6.7 230 18:58 17.10.2019
6031 Drizzle 7 1003 75 10000 6.7 230 18:38 17.10.2019
6032 Drizzle 7 1003 75 10000 6.7 230 18:20 17.10.2019
6033 Drizzle 9 1003 70 10000 9.3 230 17:42 17.10.2019
6034 Rain 9 1003 70 10000 1.5 160 17:23 17.10.2019
6035 Clouds 9 1003 70 10000 2.6 70 16:57 17.10.2019
6036 Clouds 9 1003 70 10000 2.6 70 16:39 17.10.2019
6037 Clouds 9 1003 70 10000 2.6 70 16:18 17.10.2019
6038 Rain 7 1002 87 10000 1.5 90 15:56 17.10.2019
6039 Rain 7 1002 87 10000 1.5 90 15:56 17.10.2019
6040 Rain 7 1002 87 10000 1.5 90 15:38 17.10.2019
6041 Rain 7 1002 87 10000 1.5 90 15:19 17.10.2019
6042 Rain 6 1003 87 10000 4.1 50 14:55 17.10.2019
6043 Rain 6 1003 87 10000 4.1 50 14:37 17.10.2019
6044 Rain 6 1003 87 10000 4.1 50 14:18 17.10.2019
6045 Rain 6 1003 75 10000 2.1 20 13:39 17.10.2019
6046 Rain 6 1003 75 10000 2.1 20 13:19 17.10.2019
6047 Rain 6 1003 75 10000 2.6 340 12:55 17.10.2019
6048 Rain 6 1003 75 10000 2.6 340 12:55 17.10.2019
6049 Rain 6 1003 75 10000 2.6 340 12:36 17.10.2019
6050 Rain 6 1003 75 10000 2.6 340 12:18 17.10.2019
6051 Clouds 6 1003 75 10000 4.1 50 11:41 17.10.2019
6052 Clouds 6 1003 75 10000 4.1 50 11:21 17.10.2019
6053 Clouds 7 1004 70 10000 5.1 20 10:58 17.10.2019
6054 Clouds 7 1004 70 10000 5.1 20 10:39 17.10.2019
6055 Clouds 7 1004 70 10000 5.1 20 10:19 17.10.2019
6056 Clouds 7 1004 70 10000 3.1 50 09:55 17.10.2019
6057 Clouds 7 1004 70 10000 3.1 50 09:55 17.10.2019
6058 Clouds 7 1004 70 10000 3.1 50 09:55 17.10.2019
6059 Clouds 7 1004 70 10000 3.1 50 09:37 17.10.2019
6060 Clouds 7 1004 70 10000 3.1 50 09:19 17.10.2019
6061 Clouds 7 1005 70 10000 6.2 50 08:46 17.10.2019
6062 Clouds 7 1005 70 10000 6.2 50 08:26 17.10.2019
6063 -273 0 0 0 0 0 07:58 17.10.2019
6064 Clouds 8 1005 61 10000 4.6 20 07:40 17.10.2019
6065 Clouds 8 1005 61 10000 4.6 20 07:20 17.10.2019
6066 Clouds 8 1006 61 10000 5.1 360 06:42 17.10.2019
6067 Clouds 8 1006 61 10000 5.1 360 06:23 17.10.2019
6068 Clouds 8 1007 61 10000 5.7 360 05:58 17.10.2019
6069 Clouds 8 1007 61 10000 5.7 360 05:34 17.10.2019
6070 Clouds 9 1007 61 10000 7.2 320 04:57 17.10.2019
6071 Clouds 9 1008 57 10000 4.1 320 03:58 17.10.2019
6072 Clouds 9 1008 57 10000 4.1 320 03:38 17.10.2019
6073 Clear 13 1008 92 10000 3.6 360 01:55 17.10.2019
6074 Clear 14 1008 30 10000 8.2 360 00:41 17.10.2019
6075 Clear 14 1008 30 10000 8.2 360 00:20 17.10.2019
6076 Clear 15 1009 19 10000 6.2 360 23:42 16.10.2019
6077 Clear 14 1009 19 10000 6.2 360 23:21 16.10.2019
6078 Clear 15 1009 25 10000 11.3 360 22:57 16.10.2019
6079 Clear 15 1009 25 10000 11.3 360 22:38 16.10.2019
6080 Clear 15 1009 25 10000 11.3 360 22:20 16.10.2019
6081 Clear 15 1010 27 10000 10.3 360 21:58 16.10.2019
6082 Clear 15 1010 27 10000 10.3 360 21:38 16.10.2019
6083 Clear 15 1010 27 10000 10.3 360 21:20 16.10.2019
6084 Clear 17 1010 27 10000 7.2 360 20:59 16.10.2019
6085 Clear 17 1010 27 10000 7.2 360 20:40 16.10.2019
6086 Clear 16 1010 27 10000 7.2 360 20:22 16.10.2019
6087 Clear 16 1011 23 10000 4.475 354 19:59 16.10.2019
6088 Clear 16 1011 23 10000 4.475 354 19:40 16.10.2019
6089 Clear 16 1011 23 10000 4.475 354 19:21 16.10.2019
6090 Clear 15 1011 41 10000 4.475 354 18:57 16.10.2019
6091 Clear 15 1011 41 10000 4.475 354 18:56 16.10.2019
6092 Clear 16 1012 25 10000 8.2 310 18:37 16.10.2019
6093 Clear 15 1012 25 10000 8.2 310 18:18 16.10.2019
6094 Clear 15 1012 25 10000 8.2 310 18:18 16.10.2019
6095 Clear 15 1012 41 10000 4.387 2 17:55 16.10.2019
6096 Clear 15 1012 41 10000 4.387 2 17:36 16.10.2019
6097 Clear 15 1012 41 10000 4.387 2 17:18 16.10.2019
6098 Clear 11 1013 40 10000 4.387 2 16:43 16.10.2019
6099 Clear 11 1013 40 10000 4.387 2 16:23 16.10.2019
6100 Clear 9 1014 65 10000 4.387 2 15:59 16.10.2019
6101 Clear 9 1014 65 10000 4.387 2 15:39 16.10.2019
6102 Clear 9 1014 65 10000 4.387 2 15:39 16.10.2019
6103 Clear 8 1014 65 10000 3.369 2 15:19 16.10.2019
6104 Clear 8 1014 65 10000 3.369 2 14:58 16.10.2019
6105 Clear 8 1014 65 10000 3.257 1 14:39 16.10.2019
6106 Clear 8 1014 65 10000 3.257 1 14:20 16.10.2019
6107 Clear 6 1015 75 10000 3.257 1 13:57 16.10.2019
6108 Clear 6 1015 75 10000 3.257 1 13:39 16.10.2019
6109 Clear 6 1015 75 10000 3.257 1 13:21 16.10.2019
6110 Clear 5 1016 80 10000 3.257 1 12:42 16.10.2019
6111 Clear 5 1016 80 10000 3.257 1 12:42 16.10.2019
6112 Clear 5 1016 80 10000 2.906 4 12:20 16.10.2019
6113 Clear 5 1016 75 10000 2.6 70 11:55 16.10.2019
6114 Clear 5 1016 75 10000 2.6 70 11:37 16.10.2019
6115 Clear 5 1016 75 10000 2.6 70 11:18 16.10.2019
6116 Clear 5 1017 75 10000 2.6 340 10:36 16.10.2019
6117 Clear 5 1017 75 10000 2.6 340 10:18 16.10.2019
6118 Clear 5 1017 75 10000 2.935 7 09:40 16.10.2019
6119 Clouds 5 1017 75 10000 2.815 10 09:22 16.10.2019
6120 Clouds 5 1018 80 10000 2.815 10 08:57 16.10.2019
6121 Clouds 5 1018 80 10000 2.815 10 08:39 16.10.2019
6122 -273 0 0 0 0 0 08:39 16.10.2019
6123 Clouds 5 1018 80 10000 2.815 10 08:20 16.10.2019
6124 Clouds 5 1019 80 10000 2.815 10 07:43 16.10.2019
6125 Clouds 5 1019 80 10000 2.815 10 07:24 16.10.2019
6126 Clouds 5 1019 80 10000 1.5 320 06:55 16.10.2019
6127 Clouds 5 1019 80 10000 1.5 320 06:31 16.10.2019
6128 Clouds 5 1020 86 10000 2.1 50 05:22 16.10.2019
6129 Clear 6 1021 81 10000 5.7 90 02:53 16.10.2019
6130 Clear 2 1022 96 0 0.719 97 01:38 16.10.2019
6131 Clear 9 1021 66 10000 5.7 70 01:18 16.10.2019
6132 Clear 9 1021 66 10000 5.7 70 00:42 16.10.2019
6133 Clear 11 1021 53 10000 0.878 199 23:59 15.10.2019
6134 Clear 11 1021 53 10000 0.878 199 23:39 15.10.2019
6135 Clear 10 1021 53 10000 0.878 199 23:21 15.10.2019
6136 Clear 10 1022 57 10000 0.878 199 22:55 15.10.2019
6137 Clear 10 1022 57 10000 0.878 199 22:37 15.10.2019
6138 Clear 10 1022 57 10000 0.878 199 22:19 15.10.2019
6139 Clear 10 1022 62 10000 0.878 199 21:55 15.10.2019
6140 Clear 10 1022 62 10000 0.511 223 21:36 15.10.2019
6141 Clear 10 1022 62 10000 0.624 347 21:18 15.10.2019
6142 Clear 10 1023 61 10000 0.624 347 20:55 15.10.2019
6143 Clear 10 1023 61 10000 0.624 347 20:55 15.10.2019
6144 Clear 10 1023 61 10000 0.624 347 20:37 15.10.2019
6145 Clear 10 1023 61 10000 0.624 347 20:19 15.10.2019
6146 Clear 10 1023 57 10000 0.624 347 19:55 15.10.2019
6147 Clear 10 1023 57 10000 0.624 347 19:55 15.10.2019
6148 Clear 10 1023 57 10000 0.624 347 19:55 15.10.2019
6149 Clear 10 1023 57 10000 0.624 347 19:36 15.10.2019
6150 Clear 10 1023 57 10000 0.624 347 19:18 15.10.2019
6151 Clear 10 1023 57 10000 0.624 347 19:18 15.10.2019
6152 Clear 8 1023 61 10000 0.624 347 18:43 15.10.2019
6153 Clear 8 1023 61 10000 0.624 347 18:25 15.10.2019
6154 Clear 9 1023 61 10000 1.123 352 17:55 15.10.2019
6155 Clear 9 1023 61 10000 1.123 352 17:55 15.10.2019
6156 Clear 9 1024 65 10000 2.6 230 17:37 15.10.2019
6157 Clear 9 1024 65 10000 2.6 230 17:19 15.10.2019
6158 Clear 7 1024 70 10000 4.1 230 16:45 15.10.2019
6159 Clear 7 1024 70 10000 4.1 230 16:22 15.10.2019
6160 Clear 7 1024 70 10000 4.1 230 15:58 15.10.2019
6161 Clear 7 1025 70 10000 4.1 230 15:39 15.10.2019
6162 Clouds 7 1025 70 10000 4.1 230 15:19 15.10.2019
6163 Clouds 7 1025 70 10000 4.1 230 14:56 15.10.2019
6164 Clouds 6 1025 70 10000 1.5 230 14:37 15.10.2019
6165 Clouds 6 1025 70 10000 1.5 230 14:37 15.10.2019
6166 Clouds 6 1025 70 10000 1.5 230 14:19 15.10.2019
6167 Clouds 5 1025 75 10000 2.6 230 13:43 15.10.2019
6168 Clouds 5 1025 75 10000 2.6 230 13:43 15.10.2019
6169 Clouds 5 1025 75 10000 2.6 230 13:21 15.10.2019
6170 Clouds 5 1025 75 10000 5.1 250 12:57 15.10.2019
6171 Clouds 5 1025 75 10000 5.1 250 12:38 15.10.2019
6172 Clouds 5 1025 75 10000 5.1 250 12:20 15.10.2019
6173 Clouds 5 1024 93 10000 2.1 270 11:44 15.10.2019
6174 Clouds 5 1024 93 10000 2.1 270 11:20 15.10.2019
6175 Clouds 5 1024 93 10000 6.2 230 10:57 15.10.2019
6176 Clouds 5 1024 92 10000 6.2 230 10:39 15.10.2019
6177 Clouds 5 1024 92 10000 6.2 230 10:19 15.10.2019
6178 Clouds 5 1024 92 10000 6.2 230 09:56 15.10.2019
6179 Clouds 6 1024 92 10000 7.2 230 09:37 15.10.2019
6180 Clouds 6 1024 92 10000 7.2 230 09:19 15.10.2019
6181 Clouds 6 1024 93 10000 8.2 230 08:41 15.10.2019
6182 Clouds 6 1024 93 10000 8.2 230 08:21 15.10.2019
6183 -273 0 0 0 0 0 07:55 15.10.2019
6184 Clear 6 1024 70 10000 8.2 230 07:37 15.10.2019
6185 Clear 6 1024 70 10000 8.2 230 07:18 15.10.2019
6186 Clear 6 1025 93 10000 6.7 230 06:43 15.10.2019
6187 Clear 6 1025 93 10000 6.7 230 06:22 15.10.2019
6188 Clear 6 1024 70 10000 9.3 230 05:37 15.10.2019
6189 Clear 6 1024 70 10000 9.3 230 05:19 15.10.2019
6190 Clear 6 1024 70 10000 11.8 230 04:23 15.10.2019
6191 Clear 6 1024 70 10000 11.8 230 03:36 15.10.2019
6192 Clear 6 1024 70 10000 11.8 230 03:36 15.10.2019
6193 Clear 7 1024 56 10000 11.3 230 02:23 15.10.2019
6194 Clear 7 1024 56 10000 11.8 230 01:47 15.10.2019
6195 Clear 7 1024 56 10000 11.8 230 01:19 15.10.2019
6196 Clear 8 1024 52 10000 11.3 230 00:48 15.10.2019
6197 Clear 8 1024 52 10000 11.3 230 00:21 15.10.2019
6198 Clear 7 1024 56 10000 12.3 230 23:40 14.10.2019
6199 Clear 7 1024 56 10000 12.3 230 23:20 14.10.2019
6200 Clear 7 1023 88 10000 11.3 230 22:41 14.10.2019
6201 Clear 7 1023 88 10000 11.3 230 22:21 14.10.2019
6202 Clouds 8 1023 75 10000 6.2 260 21:59 14.10.2019
6203 Clear 9 1023 61 10000 13.9 230 21:40 14.10.2019
6204 Clear 9 1023 61 10000 13.9 230 21:21 14.10.2019
6205 Clear 9 1023 61 10000 13.9 230 20:59 14.10.2019
6206 Clouds 9 1023 61 10000 11.8 230 20:39 14.10.2019
6207 Clouds 9 1023 61 10000 11.8 230 20:20 14.10.2019
6208 Clouds 9 1023 61 10000 11.8 230 19:58 14.10.2019
6209 Clouds 9 1023 61 10000 12.9 230 19:40 14.10.2019
6210 Clouds 9 1023 61 10000 12.9 230 19:22 14.10.2019
6211 Clouds 8 1023 61 10000 12.9 230 18:58 14.10.2019
6212 Clouds 8 1023 61 10000 12.9 230 18:38 14.10.2019
6213 Clouds 8 1023 61 10000 12.9 230 18:18 14.10.2019
6214 Clouds 8 1023 61 10000 12.9 230 18:18 14.10.2019
6215 Clouds 7 1024 65 10000 11.3 230 17:44 14.10.2019
6216 Clouds 7 1024 65 10000 11.3 230 17:25 14.10.2019
6217 Clouds 7 1024 61 10000 12.9 230 16:59 14.10.2019
6218 Clouds 7 1024 61 10000 12.9 230 16:40 14.10.2019
6219 Clouds 7 1024 61 10000 12.9 230 16:20 14.10.2019
6220 Clouds 7 1024 61 10000 12.9 230 16:20 14.10.2019
6221 Rain 7 1024 84 10000 11.3 250 15:42 14.10.2019
6222 Rain 7 1024 94 10000 11.3 250 15:22 14.10.2019
6223 Rain 7 1023 94 10000 11.3 250 14:56 14.10.2019
6224 Rain 7 1023 94 10000 11.3 250 14:56 14.10.2019
6225 Rain 7 1023 94 10000 11.3 250 14:38 14.10.2019
6226 Rain 7 1023 94 10000 11.3 250 14:18 14.10.2019
6227 Clouds 6 1023 70 10000 11.3 250 13:42 14.10.2019
6228 Clouds 6 1023 70 10000 11.3 250 13:21 14.10.2019
6229 -273 0 0 0 0 0 12:54 14.10.2019
6230 Clouds 6 1023 70 10000 11.3 250 12:36 14.10.2019
6231 Clouds 6 1023 70 10000 11.3 250 12:18 14.10.2019
6232 Clouds 6 1023 95 10000 4.6 250 11:43 14.10.2019
6233 Clouds 6 1023 95 10000 4.6 250 11:24 14.10.2019
6234 Clear 5 1023 60 10000 5.1 320 10:55 14.10.2019
6235 Clear 5 1023 60 10000 5.1 320 10:37 14.10.2019
6236 Clear 5 1023 60 10000 5.1 320 10:18 14.10.2019
6237 Clear 4 1023 64 10000 3.1 320 09:41 14.10.2019
6238 Clear 4 1023 64 10000 3.1 320 09:41 14.10.2019
6239 Clear 4 1023 64 10000 3.1 320 09:20 14.10.2019
6240 Clear 6 1024 56 10000 8.2 250 08:49 14.10.2019
6241 Clear 6 1024 56 10000 8.2 250 08:23 14.10.2019
6242 Clear 4 1024 60 10000 4.1 270 07:47 14.10.2019
6243 Clear 4 1024 60 10000 4.1 270 07:24 14.10.2019
6244 Clouds 4 1025 55 10000 5.7 320 06:57 14.10.2019
6245 Clouds 4 1025 55 10000 5.7 320 06:28 14.10.2019
6246 Clouds 3 1025 64 10000 3.1 320 05:56 14.10.2019
6247 Clouds 3 1025 64 10000 3.1 320 05:25 14.10.2019
6248 Clouds 3 1026 69 10000 3.6 320 03:50 14.10.2019
6249 Clouds 3 1026 69 10000 3.6 320 03:23 14.10.2019
6250 Clouds 3 1026 69 10000 8.2 230 02:25 14.10.2019
6251 Clouds 4 1026 64 10000 10.8 230 01:19 14.10.2019
6252 Clouds 5 1025 56 10000 11.8 230 00:42 14.10.2019
6253 Clouds 5 1025 56 10000 11.8 230 00:18 14.10.2019
6254 Clouds 5 1025 60 10000 12.3 230 23:40 13.10.2019
6255 Clouds 5 1025 60 10000 12.3 230 23:19 13.10.2019
6256 Clouds 5 1025 60 10000 12.3 230 23:19 13.10.2019
6257 Clouds 6 1025 56 10000 11.3 230 22:57 13.10.2019
6258 Clouds 6 1025 56 10000 11.3 230 22:57 13.10.2019
6259 Clouds 6 1025 56 10000 11.3 230 22:39 13.10.2019
6260 Clouds 6 1025 56 10000 11.3 230 22:19 13.10.2019
6261 Clouds 6 1025 60 10000 12.9 230 21:57 13.10.2019
6262 Clouds 6 1025 60 10000 12.9 230 21:36 13.10.2019
6263 Clouds 6 1025 60 10000 12.9 230 21:18 13.10.2019
6264 Clouds 5 1025 65 10000 12.9 230 20:56 13.10.2019
6265 Clouds 5 1025 65 10000 12.9 230 20:37 13.10.2019
6266 Clouds 5 1025 65 10000 12.9 230 20:37 13.10.2019
6267 Clouds 5 1025 65 10000 12.9 230 20:37 13.10.2019
6268 Clouds 5 1025 65 10000 12.9 230 20:18 13.10.2019
6269 Clouds 5 1025 75 10000 11.8 230 19:55 13.10.2019
6270 Clouds 5 1025 75 10000 11.8 230 19:36 13.10.2019
6271 Clouds 5 1025 75 10000 11.8 230 19:36 13.10.2019
6272 Clouds 5 1025 75 10000 11.8 230 19:18 13.10.2019
6273 Clouds 4 1024 86 10000 12.9 230 18:41 13.10.2019
6274 Clouds 4 1024 86 10000 12.9 230 18:21 13.10.2019
6275 Clouds 4 1024 86 10000 12.9 230 18:21 13.10.2019
6276 Clouds 3 1024 69 10000 10.3 230 17:59 13.10.2019
6277 Clouds 3 1024 69 10000 10.3 230 17:41 13.10.2019
6278 Clouds 3 1024 69 10000 10.3 230 17:41 13.10.2019
6279 Clouds 3 1024 69 10000 10.3 230 17:41 13.10.2019
6280 Clouds 3 1024 69 10000 10.3 230 17:23 13.10.2019
6281 Rain 3 1024 69 10000 10.3 230 16:44 13.10.2019
6282 Rain 3 1024 69 10000 10.3 230 16:20 13.10.2019
6283 Rain 3 1024 69 10000 10.3 230 16:20 13.10.2019
6284 Rain 3 1023 64 10000 7.2 180 15:58 13.10.2019
6285 Rain 3 1023 64 10000 7.2 180 15:39 13.10.2019
6286 Rain 3 1023 64 10000 7.2 180 15:21 13.10.2019
6287 Rain 3 1023 69 10000 8.2 230 14:59 13.10.2019
6288 Rain 3 1023 69 10000 8.2 230 14:40 13.10.2019
6289 Rain 3 1023 69 10000 8.2 230 14:21 13.10.2019
6290 Rain 2 1022 93 7000 6.7 230 13:58 13.10.2019
6291 Rain 2 1022 93 7000 6.7 230 13:38 13.10.2019
6292 Rain 2 1022 93 7000 6.7 230 13:20 13.10.2019
6293 Drizzle 2 1021 80 4000 7.7 230 12:56 13.10.2019
6294 Rain 2 1021 80 10000 9.3 230 12:38 13.10.2019
6295 Rain 2 1021 80 10000 9.3 230 12:18 13.10.2019
6296 Drizzle 2 1020 98 10000 2.1 230 11:55 13.10.2019
6297 Drizzle 2 1020 98 10000 2.1 230 11:55 13.10.2019
6298 Drizzle 2 1020 98 10000 2.1 230 11:37 13.10.2019
6299 Drizzle 2 1020 98 10000 2.1 230 11:37 13.10.2019
6300 Drizzle 2 1020 98 10000 2.1 230 11:18 13.10.2019
6301 Drizzle 2 1018 93 6500 4.6 230 10:41 13.10.2019
6302 Drizzle 2 1018 93 6500 4.6 230 10:23 13.10.2019
6303 Drizzle 2 1018 93 6500 4.6 230 10:23 13.10.2019
6304 Drizzle 2 1017 98 6500 9.3 230 09:41 13.10.2019
6305 Clouds 1 1015 98 10000 9.8 230 09:22 13.10.2019
6306 Clouds 1 1015 98 10000 9.8 230 08:59 13.10.2019
6307 Clouds 1 1015 98 10000 9.8 230 08:40 13.10.2019
6308 Clouds 1 1015 98 10000 9.8 230 08:21 13.10.2019
6309 Rain 1 1013 98 10000 9.8 230 07:46 13.10.2019
6310 Rain 1 1013 98 10000 9.8 230 07:21 13.10.2019
6311 Rain 1 1010 86 10000 11.8 230 06:41 13.10.2019
6312 Rain 1 1010 86 10000 11.8 230 06:41 13.10.2019
6313 Rain 0 1009 98 10000 10.8 230 05:46 13.10.2019
6314 Rain 1 1009 86 10000 9.8 230 04:46 13.10.2019
6315 Rain 1 1007 86 10000 7.7 230 03:51 13.10.2019
6316 Rain 1 1005 86 10000 7.2 180 02:42 13.10.2019
6317 Snow 1 1004 86 1200 10.3 180 01:54 13.10.2019
6318 Snow 1 1003 86 2500 5.7 180 01:30 13.10.2019
6319 Snow 1 1001 80 1200 13.4 180 00:47 13.10.2019
6320 Rain 1 1000 80 10000 7.7 200 00:22 13.10.2019
6321 Rain 1 998 80 10000 8.2 230 23:57 12.10.2019
6322 Rain 1 998 80 10000 8.2 230 23:39 12.10.2019
6323 Rain 2 998 80 10000 8.2 230 23:19 12.10.2019
6324 Rain 2 995 80 8000 8.7 230 22:57 12.10.2019
6325 Rain 2 995 80 8000 8.7 230 22:38 12.10.2019
6326 Snow 2 995 74 1200 13.4 230 22:20 12.10.2019
6327 Snow 1 993 74 2000 11.3 230 21:55 12.10.2019
6328 Snow 1 993 74 800 13.9 230 21:36 12.10.2019
6329 Snow 1 993 74 800 13.9 230 21:18 12.10.2019
6330 Snow 1 992 80 1200 10.3 230 20:40 12.10.2019
6331 Snow 0 992 80 1200 10.3 230 20:22 12.10.2019
6332 Snow 1 992 92 1200 2.6 320 19:38 12.10.2019
6333 Snow 1 992 92 1200 2.6 320 19:20 12.10.2019
6334 Snow 1 993 92 1200 3.1 270 18:57 12.10.2019
6335 Snow 1 993 92 1200 3.1 270 18:39 12.10.2019
6336 Snow 1 993 89 1200 3.1 270 18:20 12.10.2019
6337 Snow 1 993 93 1200 4.6 250 17:43 12.10.2019
6338 Snow 1 993 93 1200 4.6 250 17:19 12.10.2019
6339 Rain 2 993 74 10000 7.2 230 16:54 12.10.2019
6340 Rain 2 993 74 10000 7.2 230 16:54 12.10.2019
6341 Rain 2 993 74 10000 7.2 230 16:36 12.10.2019
6342 Rain 2 993 74 10000 7.2 230 16:18 12.10.2019
6343 Rain 1 993 59 10000 8.2 230 15:44 12.10.2019
6344 Rain 1 993 59 10000 8.2 230 15:25 12.10.2019
6345 Snow 1 993 69 5000 9.3 220 14:43 12.10.2019
6346 Rain 1 994 64 10000 7.2 230 14:22 12.10.2019
6347 Rain 1 994 69 10000 7.2 230 13:59 12.10.2019
6348 Rain 1 994 69 10000 7.2 230 13:40 12.10.2019
6349 Rain 0 994 87 10000 9.8 230 13:21 12.10.2019
6350 Snow -1 993 68 800 10.3 230 12:40 12.10.2019
6351 Snow -1 993 68 3000 11.3 230 12:21 12.10.2019
6352 Snow -1 993 68 3000 11.3 230 11:59 12.10.2019
6353 Snow -1 993 68 3000 11.3 230 11:39 12.10.2019
6354 Snow -1 993 68 6500 11.8 230 11:20 12.10.2019
6355 Clouds 0 992 95 10000 11.8 230 10:44 12.10.2019
6356 Clouds 0 992 95 10000 11.8 230 10:24 12.10.2019
6357 Snow 0 992 95 6000 11.3 230 09:58 12.10.2019
6358 Snow 0 992 95 6000 11.3 230 09:58 12.10.2019
6359 Snow 0 992 95 6000 11.3 230 09:39 12.10.2019
6360 Snow 0 992 94 6000 11.3 230 09:21 12.10.2019
6361 Snow 0 991 92 6000 13.4 230 08:58 12.10.2019
6362 Snow 0 991 92 6000 13.4 230 08:38 12.10.2019
6363 Snow 0 991 92 6000 13.4 230 08:20 12.10.2019
6364 -273 0 0 0 0 0 08:20 12.10.2019
6365 Clouds -4 992 92 0 7.46 244.418 07:35 12.10.2019
6366 Clouds -4 992 92 0 7.46 244.418 06:57 12.10.2019
6367 Snow 1 989 86 3000 13.9 230 05:48 12.10.2019
6368 Snow 1 989 86 3000 13.9 230 05:23 12.10.2019
6369 Snow 2 987 80 5000 15.4 230 04:24 12.10.2019
6370 Drizzle 2 986 93 10000 15.4 230 03:33 12.10.2019
6371 Rain 4 984 98 10000 8.2 230 01:50 12.10.2019
6372 Rain 4 984 97 10000 8.2 230 01:24 12.10.2019
6373 Rain 4 983 69 10000 10.3 230 00:43 12.10.2019
6374 Rain 4 983 69 10000 10.3 230 00:19 12.10.2019
6375 Clouds 4 983 80 10000 8.7 230 23:40 11.10.2019
6376 Clouds 4 983 80 10000 8.7 230 23:20 11.10.2019
6377 Rain 5 983 80 10000 11.8 230 22:41 11.10.2019
6378 Rain 6 983 80 10000 11.8 230 22:22 11.10.2019
6379 Clouds 6 983 80 10000 5.1 230 21:59 11.10.2019
6380 Clouds 6 983 80 10000 5.1 230 21:40 11.10.2019
6381 Clouds 6 983 89 10000 5.1 230 21:21 11.10.2019
6382 Clouds 6 984 56 10000 5.1 90 20:45 11.10.2019
6383 Clouds 5 984 56 10000 5.1 90 20:27 11.10.2019
6384 Clouds 6 984 45 10000 5.1 360 19:59 11.10.2019
6385 Clouds 6 984 45 10000 5.1 360 19:39 11.10.2019
6386 Clouds 6 984 45 10000 5.1 360 19:18 11.10.2019
6387 Clouds 6 984 45 10000 5.1 360 19:18 11.10.2019
6388 Clouds 6 984 45 10000 5.1 360 19:18 11.10.2019
6389 Clouds 5 985 56 10000 8.7 360 18:59 11.10.2019
6390 Clouds 5 985 56 10000 8.7 360 18:39 11.10.2019
6391 Clouds 5 985 56 10000 8.7 360 18:19 11.10.2019
6392 Rain 3 987 64 10000 9.3 340 17:59 11.10.2019
6393 Rain 3 987 64 10000 9.3 340 17:38 11.10.2019
6394 Rain 3 987 64 10000 9.3 340 17:19 11.10.2019
6395 Rain 2 988 74 10000 10.3 340 16:59 11.10.2019
6396 Rain 2 988 74 10000 10.3 340 16:39 11.10.2019
6397 Rain 2 988 74 10000 10.3 340 16:39 11.10.2019
6398 Rain 2 988 74 10000 10.3 340 16:19 11.10.2019
6399 Rain 2 989 86 10000 9.3 340 15:55 11.10.2019
6400 Rain 2 989 86 10000 9.3 340 15:36 11.10.2019
6401 Rain 2 989 86 10000 9.3 340 15:18 11.10.2019
6402 Rain 2 989 86 10000 9.3 340 15:18 11.10.2019
6403 Rain 1 991 86 10000 9.3 340 14:42 11.10.2019
6404 Rain 0 991 86 10000 9.3 340 14:21 11.10.2019
6405 Rain -1 992 83 10000 9.3 20 13:46 11.10.2019
6406 Rain -1 992 82 10000 9.3 20 13:26 11.10.2019
6407 Rain -1 993 80 10000 2.1 290 12:58 11.10.2019
6408 Rain -1 993 80 10000 2.1 290 12:40 11.10.2019
6409 Rain -1 993 80 10000 2.1 290 12:21 11.10.2019
6410 Clouds -2 994 86 10000 5.1 360 11:59 11.10.2019
6411 Clouds -2 994 86 10000 5.1 360 11:39 11.10.2019
6412 Clouds -2 994 86 10000 5.1 360 11:21 11.10.2019
6413 Clouds -1 995 86 10000 3.6 270 10:56 11.10.2019
6414 Clouds -1 995 86 10000 3.6 270 10:56 11.10.2019
6415 Clouds -1 995 86 10000 3.6 270 10:37 11.10.2019
6416 Clouds -1 995 86 10000 3.6 270 10:18 11.10.2019
6417 Clouds -1 995 86 10000 3.6 270 10:18 11.10.2019
6418 Clouds -2 996 92 10000 8.7 230 09:42 11.10.2019
6419 Clouds -2 996 92 10000 8.7 230 09:21 11.10.2019
6420 Clouds -2 996 92 10000 8.7 230 08:59 11.10.2019
6421 Clouds -2 996 92 10000 8.7 230 08:39 11.10.2019
6422 Clouds -2 996 92 10000 8.7 230 08:39 11.10.2019
6423 Clouds -2 996 92 10000 8.7 230 08:20 11.10.2019
6424 Snow -2 996 86 5000 8.2 230 07:57 11.10.2019
6425 Snow -2 996 86 5000 8.2 230 07:38 11.10.2019
6426 Snow -2 996 86 5000 8.2 230 07:19 11.10.2019
6427 Snow -2 997 86 1500 9.8 230 06:43 11.10.2019
6428 Snow -2 997 86 1500 9.8 230 06:19 11.10.2019
6429 Snow -3 996 79 1500 10.3 230 05:32 11.10.2019
6430 Snow -3 995 79 500 14.4 230 04:58 11.10.2019
6431 Snow -3 993 79 8000 9.8 230 03:45 11.10.2019
6432 Snow -2 992 92 1800 12.9 230 01:57 11.10.2019
6433 Snow -1 990 92 500 13.9 230 00:42 11.10.2019
6434 Snow -1 990 92 500 13.9 230 00:22 11.10.2019
6435 Snow 0 990 85 5000 11.8 230 23:41 10.10.2019
6436 Rain 0 989 85 10000 11.8 230 23:20 10.10.2019
6437 Rain 0 988 85 10000 5.7 230 22:57 10.10.2019
6438 Rain 0 988 85 10000 5.7 230 22:37 10.10.2019
6439 Rain 0 988 85 10000 5.7 230 22:19 10.10.2019
6440 Rain 0 987 85 10000 12.9 230 21:54 10.10.2019
6441 Rain 0 987 85 10000 12.9 230 21:36 10.10.2019
6442 Rain 0 987 81 10000 12.9 230 21:18 10.10.2019
6443 Snow 0 987 84 1200 13.4 230 20:41 10.10.2019
6444 Snow -1 987 84 1200 13.4 230 20:21 10.10.2019
6445 Snow -1 987 84 1200 13.4 230 20:21 10.10.2019
6446 Snow -1 985 84 1200 17 230 19:58 10.10.2019
6447 Snow -1 985 84 1200 17 230 19:39 10.10.2019
6448 Rain -1 985 84 10000 10.8 230 19:19 10.10.2019
6449 Snow -1 989 86 1200 15.9 230 18:54 10.10.2019
6450 Snow -1 989 86 500 15.4 230 18:36 10.10.2019
6451 Snow -1 989 86 500 15.4 230 18:36 10.10.2019
6452 Snow -1 989 86 500 15.4 230 18:18 10.10.2019
6453 Snow 0 982 91 1200 14.4 230 17:40 10.10.2019
6454 Snow 0 982 91 500 15.4 230 17:20 10.10.2019
6455 Snow 0 981 91 500 17 230 16:58 10.10.2019
6456 Snow 0 981 91 500 17 230 16:39 10.10.2019
6457 Snow 0 979 91 800 14.9 230 16:21 10.10.2019
6458 Snow 0 977 91 1200 15.9 230 15:43 10.10.2019
6459 Snow 0 977 91 1200 15.9 230 15:43 10.10.2019
6460 Snow 0 977 91 1200 15.9 230 15:24 10.10.2019
6461 Snow -1 975 92 500 17 230 14:59 10.10.2019
6462 Snow -1 975 92 500 17 230 14:37 10.10.2019
6463 Snow -1 975 92 500 17 230 14:37 10.10.2019
6464 Snow -1 975 92 3000 16.5 230 14:19 10.10.2019
6465 Snow -1 975 92 3000 16.5 230 14:19 10.10.2019
6466 Snow 0 997 91 2500 17 240 13:59 10.10.2019
6467 Snow 0 997 91 2500 17 240 13:39 10.10.2019
6468 Snow 0 972 91 500 14.4 250 13:18 10.10.2019
6469 Snow 0 972 91 500 14.4 250 13:18 10.10.2019
6470 Snow 0 970 91 1200 10.3 250 12:55 10.10.2019
6471 Snow 0 970 91 1200 10.3 250 12:37 10.10.2019
6472 Snow 0 970 90 1200 10.3 250 12:18 10.10.2019
6473 Snow 1 969 86 500 9.3 250 11:42 10.10.2019
6474 Snow 1 969 86 500 9.3 250 11:21 10.10.2019
6475 Snow 1 969 86 3000 10.8 250 10:59 10.10.2019
6476 Snow 1 969 86 3000 10.8 250 10:41 10.10.2019
6477 Snow 1 969 86 3000 10.8 250 10:22 10.10.2019
6478 Snow 2 969 64 500 6.7 270 09:55 10.10.2019
6479 Snow 2 969 64 500 6.7 270 09:37 10.10.2019
6480 Snow 2 969 64 500 6.7 270 09:19 10.10.2019
6481 Snow 2 969 64 8000 5.7 270 08:41 10.10.2019
6482 Snow 2 969 64 8000 5.7 270 08:22 10.10.2019
6483 Snow 2 969 69 8000 3.6 290 07:58 10.10.2019
6484 Snow 2 969 69 8000 3.6 290 07:38 10.10.2019
6485 Snow 2 969 69 8000 3.6 290 07:19 10.10.2019
6486 Snow 2 971 69 8000 6.7 230 06:45 10.10.2019
6487 Rain 3 972 74 10000 5.7 320 05:57 10.10.2019
6488 Rain 3 972 74 10000 5.7 320 05:23 10.10.2019
6489 Clouds 3 973 97 10000 5.1 270 04:37 10.10.2019
6490 Rain 4 971 94 8000 18.5 230 02:54 10.10.2019
6491 Rain 5 972 94 8000 13.9 230 01:42 10.10.2019
6492 Clouds 7 973 56 10000 1.5 230 01:23 10.10.2019
6493 Clouds 8 975 52 10000 5.7 230 00:45 10.10.2019
6494 Clouds 8 975 52 10000 5.7 230 00:19 10.10.2019
6495 Clouds 8 975 61 10000 3.1 230 23:39 09.10.2019
6496 Clouds 9 975 61 10000 3.1 230 23:19 09.10.2019
6497 Clouds 9 977 52 10000 2.68 306.515 22:43 09.10.2019
6498 Clouds 9 977 52 10000 2.68 306.515 22:24 09.10.2019
6499 Clouds 9 979 97 10000 2.68 306.515 21:59 09.10.2019
6500 Clouds 9 979 97 10000 2.68 306.515 21:39 09.10.2019
6501 Clouds 9 979 91 10000 2.64 333.173 21:20 09.10.2019
6502 Clouds 7 981 52 10000 3.1 180 20:56 09.10.2019
6503 Clouds 7 981 52 10000 3.1 180 20:56 09.10.2019
6504 Clouds 7 981 52 10000 3.1 180 20:37 09.10.2019
6505 Clouds 8 981 52 10000 3.1 180 20:18 09.10.2019
6506 Clouds 8 982 87 10000 2.78 342.399 19:45 09.10.2019
6507 Clouds 8 982 87 10000 2.78 342.399 19:24 09.10.2019
6508 Clouds 7 984 56 10000 2.6 140 18:58 09.10.2019
6509 Clouds 7 984 56 10000 2.6 140 18:37 09.10.2019
6510 Clouds 7 984 56 10000 2.6 140 18:18 09.10.2019
6511 Clouds 6 986 60 10000 1.5 230 17:55 09.10.2019
6512 Clouds 6 986 60 10000 1.5 230 17:36 09.10.2019
6513 Clouds 6 986 60 10000 1.5 230 17:18 09.10.2019
6514 Clouds 6 988 83 10000 7.7 230 16:41 09.10.2019
6515 Clouds 6 988 83 10000 7.7 230 16:22 09.10.2019
6516 Rain 5 989 83 10000 10.3 230 15:58 09.10.2019
6517 Rain 5 989 83 10000 10.3 230 15:39 09.10.2019
6518 Rain 5 989 87 10000 10.3 230 15:20 09.10.2019
6519 Rain 3 990 87 10000 12.9 230 14:58 09.10.2019
6520 Rain 3 990 87 10000 12.9 230 14:39 09.10.2019
6521 Rain 3 990 87 10000 12.9 230 14:18 09.10.2019
6522 Rain 3 991 74 10000 12.9 230 13:40 09.10.2019
6523 Rain 3 991 74 10000 12.9 230 13:21 09.10.2019
6524 Rain 2 990 74 10000 14.4 200 12:59 09.10.2019
6525 Rain 2 990 74 10000 14.4 200 12:40 09.10.2019
6526 Rain 2 990 74 10000 14.4 200 12:21 09.10.2019
6527 Rain 2 991 80 10000 15.4 230 11:55 09.10.2019
6528 Rain 2 991 80 10000 15.4 230 11:37 09.10.2019
6529 Rain 2 991 80 10000 15.4 230 11:18 09.10.2019
6530 Drizzle 2 991 88 10000 12.9 200 10:43 09.10.2019
6531 Drizzle 2 991 88 10000 12.9 200 10:43 09.10.2019
6532 Drizzle 2 991 88 10000 12.9 200 10:21 09.10.2019
6533 Drizzle 2 990 80 10000 13.4 230 09:58 09.10.2019
6534 Drizzle 2 990 80 10000 13.4 230 09:40 09.10.2019
6535 Rain 2 991 80 10000 8.7 200 09:18 09.10.2019
6536 Drizzle 2 990 80 10000 11.3 230 08:41 09.10.2019
6537 Drizzle 2 990 80 10000 11.3 230 08:21 09.10.2019
6538 Drizzle 2 990 80 10000 11.3 230 08:21 09.10.2019
6539 Rain 2 990 89 10000 11.3 230 07:56 09.10.2019
6540 Rain 2 990 89 10000 11.3 230 07:37 09.10.2019
6541 Rain 2 990 89 10000 11.3 230 07:19 09.10.2019
6542 Rain 2 990 89 10000 11.3 230 07:19 09.10.2019
6543 Rain 2 989 89 10000 12.3 230 06:49 09.10.2019
6544 Drizzle 4 989 80 10000 10.8 230 05:55 09.10.2019
6545 Drizzle 4 989 80 10000 10.8 230 05:28 09.10.2019
6546 Drizzle 4 989 80 10000 14.4 230 04:24 09.10.2019
6547 Clouds 0 989 98 0 4.57 249.879 02:50 09.10.2019
6548 Drizzle 4 988 80 10000 12.3 230 01:43 09.10.2019
6549 Drizzle 4 988 80 10000 12.3 230 01:20 09.10.2019
6550 Drizzle 4 988 80 10000 12.3 230 01:20 09.10.2019
6551 Drizzle 4 989 80 10000 12.9 230 00:56 09.10.2019
6552 Drizzle 4 989 80 10000 12.9 230 00:38 09.10.2019
6553 Drizzle 6 989 80 10000 12.9 230 00:19 09.10.2019
6554 Drizzle 6 990 65 10000 12.3 230 23:39 08.10.2019
6555 Drizzle 6 990 65 10000 12.3 230 23:18 08.10.2019
6556 Clouds 5 991 65 10000 13.4 230 22:56 08.10.2019
6557 Clouds 5 991 65 10000 13.4 230 22:38 08.10.2019
6558 Clouds 5 991 65 10000 13.4 230 22:19 08.10.2019
6559 Clouds 6 992 60 10000 13.4 230 21:57 08.10.2019
6560 Clouds 6 992 60 10000 13.4 230 21:39 08.10.2019
6561 Clouds 6 992 60 10000 13.4 230 21:19 08.10.2019
6562 Clouds 6 992 60 10000 13.4 230 21:19 08.10.2019
6563 Rain 6 993 56 10000 12.9 230 20:56 08.10.2019
6564 Rain 6 993 56 10000 12.9 230 20:37 08.10.2019
6565 Rain 7 993 56 10000 12.9 230 20:19 08.10.2019
6566 Clouds 6 995 91 10000 12.3 230 19:56 08.10.2019
6567 Clouds 6 995 91 10000 12.3 230 19:37 08.10.2019
6568 Clouds 6 995 91 10000 12.3 230 19:19 08.10.2019
6569 Clouds 5 996 91 10000 10.3 230 18:46 08.10.2019
6570 Clouds 5 996 91 10000 10.3 230 18:27 08.10.2019
6571 Rain 4 997 86 10000 10.3 230 17:59 08.10.2019
6572 Rain 4 997 86 10000 10.3 230 17:40 08.10.2019
6573 Rain 4 997 86 10000 10.3 230 17:40 08.10.2019
6574 Rain 4 997 86 10000 10.3 230 17:20 08.10.2019
6575 Rain 4 997 86 10000 10.3 230 17:20 08.10.2019
6576 Rain 4 998 93 10000 10.3 230 16:56 08.10.2019
6577 Rain 4 998 93 10000 10.3 230 16:37 08.10.2019
6578 Rain 4 998 93 10000 10.3 230 16:19 08.10.2019
6579 Rain 3 999 84 10000 13.9 230 15:40 08.10.2019
6580 Rain 3 999 85 10000 13.9 230 15:21 08.10.2019
6581 Drizzle 2 998 80 10000 17 250 14:57 08.10.2019
6582 Drizzle 2 998 80 10000 17 250 14:39 08.10.2019
6583 Drizzle 2 998 80 10000 17 250 14:20 08.10.2019
6584 Drizzle 1 998 86 10000 12.9 250 13:56 08.10.2019
6585 Drizzle 1 998 86 10000 12.9 250 13:37 08.10.2019
6586 Drizzle 1 998 86 10000 12.9 250 13:18 08.10.2019
6587 Rain 1 998 86 10000 10.3 250 12:42 08.10.2019
6588 Rain 1 998 86 10000 10.3 250 12:21 08.10.2019
6589 Drizzle 1 991 86 6500 11.8 230 11:59 08.10.2019
6590 Drizzle 1 991 86 6500 11.8 230 11:40 08.10.2019
6591 Drizzle 1 991 86 6500 11.8 230 11:21 08.10.2019
6592 Rain 1 995 86 3000 15.4 230 10:55 08.10.2019
6593 Rain 1 995 86 3000 15.4 230 10:36 08.10.2019
6594 Rain 1 995 86 3000 15.4 230 10:18 08.10.2019
6595 Rain 0 994 93 3000 15.4 230 09:41 08.10.2019
6596 Rain 0 994 93 3000 15.4 230 09:22 08.10.2019
6597 Snow 0 993 93 3000 17 230 08:55 08.10.2019
6598 Snow 0 993 94 3000 17 230 08:36 08.10.2019
6599 Snow 0 993 94 3000 17 230 08:18 08.10.2019
6600 Snow 0 993 94 1200 14.9 230 07:41 08.10.2019
6601 Snow 0 993 94 1200 14.9 230 07:19 08.10.2019
6602 Snow 4 992 69 1200 16.5 230 06:46 08.10.2019
6603 Snow 0 991 96 800 15.4 230 06:23 08.10.2019
6604 Snow 0 991 96 800 15.4 230 05:44 08.10.2019
6605 Snow 0 991 96 800 15.4 230 05:44 08.10.2019
6606 Snow 0 991 96 800 15.4 230 05:21 08.10.2019
6607 Snow 0 991 96 800 15.4 230 05:21 08.10.2019
6608 Snow 1 992 80 1200 8.7 230 03:32 08.10.2019
6609 Snow 1 992 74 1800 9.8 230 02:46 08.10.2019
6610 Snow 1 992 74 1800 9.8 230 02:26 08.10.2019
6611 Snow 0 992 94 800 11.3 230 01:42 08.10.2019
6612 Snow 0 991 95 1200 10.8 230 00:57 08.10.2019
6613 Snow 0 991 95 1200 10.8 230 00:36 08.10.2019
6614 Snow 0 991 85 1200 10.8 230 00:18 08.10.2019
6615 Rain 1 990 64 1800 12.3 230 23:38 07.10.2019
6616 Snow 0 989 92 800 14.4 230 23:19 07.10.2019
6617 Snow 0 988 92 500 14.4 230 22:55 07.10.2019
6618 Snow 0 988 92 1200 13.9 230 22:37 07.10.2019
6619 Snow 0 988 92 1200 13.9 230 22:19 07.10.2019
6620 Snow 0 987 100 1200 9.8 230 21:55 07.10.2019
6621 Snow 0 987 100 500 13.4 230 21:37 07.10.2019
6622 Snow 0 987 100 500 13.4 230 21:18 07.10.2019
6623 Snow 0 987 77 800 17.5 230 20:56 07.10.2019
6624 Snow 0 987 77 800 17.5 230 20:56 07.10.2019
6625 Snow 0 987 77 800 17.5 230 20:38 07.10.2019
6626 Snow 0 987 77 2000 6.7 230 20:18 07.10.2019
6627 Snow 0 986 77 1200 8.2 230 19:54 07.10.2019
6628 Snow 0 986 77 1200 8.2 230 19:54 07.10.2019
6629 Snow 0 986 77 1200 8.2 230 19:36 07.10.2019
6630 Snow 0 986 77 1200 8.2 230 19:18 07.10.2019
6631 Snow 1 986 77 1200 6.2 270 18:41 07.10.2019
6632 Snow 1 986 90 1200 6.2 270 18:19 07.10.2019
6633 Snow 1 986 90 500 7.7 230 17:58 07.10.2019
6634 Snow 1 986 90 500 7.7 230 17:40 07.10.2019
6635 Snow 1 986 90 500 7.7 230 17:40 07.10.2019
6636 Snow 1 986 90 500 7.7 230 17:19 07.10.2019
6637 Snow 1 986 90 1200 4.1 230 16:46 07.10.2019
6638 Snow 1 986 90 1200 4.1 230 16:28 07.10.2019
6639 Snow 0 985 92 4000 4.1 230 15:57 07.10.2019
6640 Snow 0 985 92 4000 4.1 230 15:39 07.10.2019
6641 Snow 0 985 92 800 11.3 230 15:21 07.10.2019
6642 Snow 0 985 92 300 12.9 200 14:41 07.10.2019
6643 Snow 0 985 92 300 12.9 200 14:23 07.10.2019
6644 Snow 1 985 80 500 7.7 200 13:45 07.10.2019
6645 Snow 1 985 80 4000 7.7 230 13:21 07.10.2019
6646 Snow 0 985 94 3000 7.7 230 12:58 07.10.2019
6647 Snow 0 985 94 3000 7.7 230 12:40 07.10.2019
6648 Snow 0 985 96 3000 7.7 230 12:21 07.10.2019
6649 Snow 0 985 96 3000 7.7 230 12:21 07.10.2019
6650 Drizzle 1 984 80 10000 4.6 230 11:59 07.10.2019
6651 Drizzle 1 984 80 10000 4.6 230 11:40 07.10.2019
6652 Drizzle 1 984 80 10000 4.6 230 11:21 07.10.2019
6653 Clouds 1 985 80 10000 2.6 180 10:57 07.10.2019
6654 Clouds 1 985 80 10000 2.6 180 10:39 07.10.2019
6655 Clouds 1 985 80 10000 2.6 180 10:20 07.10.2019
6656 Clouds -3 985 96 0 2.63 318.234 09:39 07.10.2019
6657 Clouds 1 988 80 10000 10.8 230 09:21 07.10.2019
6658 Clouds 1 988 80 10000 10.8 230 08:44 07.10.2019
6659 Clouds 1 988 80 10000 10.8 230 08:44 07.10.2019
6660 Clouds 1 988 80 10000 10.8 230 08:21 07.10.2019
6661 Clouds 1 988 80 10000 8.2 230 07:56 07.10.2019
6662 Clouds 1 988 80 10000 8.2 230 07:36 07.10.2019
6663 Clouds 1 988 80 10000 8.2 230 07:18 07.10.2019
6664 Clouds 1 988 80 10000 10.3 230 06:43 07.10.2019
6665 Clouds 1 988 80 10000 10.3 230 06:20 07.10.2019
6666 Clouds 2 989 80 10000 5.7 230 05:27 07.10.2019
6667 Clouds 2 989 80 10000 12.9 230 04:54 07.10.2019
6668 Clouds -2 990 90 0 3.03 265.585 03:48 07.10.2019
6669 Clouds -2 990 90 0 3.03 265.585 03:48 07.10.2019
6670 Clouds 3 989 64 10000 9.3 230 03:30 07.10.2019
6671 Clouds 3 989 64 10000 9.3 230 02:53 07.10.2019
6672 Clouds 3 989 64 10000 9.3 230 02:19 07.10.2019
6673 Clouds 3 988 69 10000 12.9 230 01:24 07.10.2019
6674 Drizzle 4 987 69 8000 17.5 230 00:53 07.10.2019
6675 Drizzle 4 987 69 8000 17.5 230 00:26 07.10.2019
6676 Clouds 1 988 94 0 3.78 229.728 23:59 06.10.2019
6677 Clouds 1 988 94 0 3.78 229.728 23:40 06.10.2019
6678 Clouds 8 985 65 10000 7.7 230 23:20 06.10.2019
6679 Clouds 8 985 65 10000 7.7 230 22:57 06.10.2019
6680 Clouds 8 985 65 10000 7.7 230 22:39 06.10.2019
6681 Clouds 8 985 65 10000 7.7 230 22:39 06.10.2019
6682 Clouds 8 985 65 10000 7.7 230 22:20 06.10.2019
6683 Clouds 8 985 65 10000 9.8 230 21:56 06.10.2019
6684 Clouds 8 985 65 10000 9.8 230 21:37 06.10.2019
6685 Clouds 8 985 65 10000 9.8 230 21:19 06.10.2019
6686 Clouds 7 986 70 10000 8.2 230 20:56 06.10.2019
6687 Clouds 7 986 70 10000 8.2 230 20:38 06.10.2019
6688 Clouds 7 986 70 10000 8.2 230 20:19 06.10.2019
6689 Clouds 7 986 65 10000 7.7 230 19:56 06.10.2019
6690 Clouds 7 986 65 10000 7.7 230 19:37 06.10.2019
6691 Clouds 7 986 65 10000 7.7 230 19:18 06.10.2019
6692 Rain 7 986 81 10000 9.8 230 18:56 06.10.2019
6693 Rain 7 986 81 10000 9.8 230 18:56 06.10.2019
6694 Rain 7 986 81 10000 9.8 230 18:37 06.10.2019
6695 Rain 7 986 81 10000 9.8 230 18:18 06.10.2019
6696 Rain 6 987 87 10000 11.8 230 17:43 06.10.2019
6697 Rain 7 987 87 10000 11.8 230</